<?xml version="1.0" encoding="UTF-8" standalone="no" ?>
<gpx xmlns="http://www.topografix.com/GPX/1/1" xmlns:xsi="http://www.w3.org/2001/XMLSchema-instance" xsi:schemaLocation="http://www.topografix.com/GPX/1/1 http://www.topografix.com/GPX/1/1/gpx.xsd" version="1.1" creator="VisuGPX - https://www.visugpx.com">
  <metadata>
    <name>Terre et mer </name>
  </metadata>
  <trk>
    <name><![CDATA[30 juil. 2021 13:36:29]]></name>
    <trkseg>
      <trkpt lat="48.63305" lon="-2.27774">
        <ele>90</ele>
        <time>2021-07-30T11:36:32.000Z</time>
      </trkpt>
      <trkpt lat="48.63296" lon="-2.27781">
        <ele>90</ele>
        <time>2021-07-30T11:36:37.000Z</time>
      </trkpt>
      <trkpt lat="48.63286" lon="-2.27784">
        <ele>90</ele>
        <time>2021-07-30T11:36:41.000Z</time>
      </trkpt>
      <trkpt lat="48.63277" lon="-2.27783">
        <ele>91</ele>
        <time>2021-07-30T11:36:44.000Z</time>
      </trkpt>
      <trkpt lat="48.63267" lon="-2.27783">
        <ele>91</ele>
        <time>2021-07-30T11:36:47.000Z</time>
      </trkpt>
      <trkpt lat="48.63257" lon="-2.27782">
        <ele>91</ele>
        <time>2021-07-30T11:36:50.000Z</time>
      </trkpt>
      <trkpt lat="48.63248" lon="-2.27783">
        <ele>91</ele>
        <time>2021-07-30T11:36:53.000Z</time>
      </trkpt>
      <trkpt lat="48.63239" lon="-2.27787">
        <ele>91</ele>
        <time>2021-07-30T11:36:56.000Z</time>
      </trkpt>
      <trkpt lat="48.63229" lon="-2.27795">
        <ele>91</ele>
        <time>2021-07-30T11:37:00.000Z</time>
      </trkpt>
      <trkpt lat="48.63219" lon="-2.27808">
        <ele>91</ele>
        <time>2021-07-30T11:37:05.000Z</time>
      </trkpt>
      <trkpt lat="48.6321" lon="-2.27819">
        <ele>92</ele>
        <time>2021-07-30T11:37:09.000Z</time>
      </trkpt>
      <trkpt lat="48.63201" lon="-2.27827">
        <ele>92</ele>
        <time>2021-07-30T11:37:13.000Z</time>
      </trkpt>
      <trkpt lat="48.6319" lon="-2.27835">
        <ele>93</ele>
        <time>2021-07-30T11:37:17.000Z</time>
      </trkpt>
      <trkpt lat="48.63182" lon="-2.27839">
        <ele>92</ele>
        <time>2021-07-30T11:37:20.000Z</time>
      </trkpt>
      <trkpt lat="48.63172" lon="-2.27841">
        <ele>93</ele>
        <time>2021-07-30T11:37:23.000Z</time>
      </trkpt>
      <trkpt lat="48.63162" lon="-2.27841">
        <ele>94</ele>
        <time>2021-07-30T11:37:26.000Z</time>
      </trkpt>
      <trkpt lat="48.63151" lon="-2.27845">
        <ele>95</ele>
        <time>2021-07-30T11:37:29.000Z</time>
      </trkpt>
      <trkpt lat="48.63141" lon="-2.27849">
        <ele>94</ele>
        <time>2021-07-30T11:37:32.000Z</time>
      </trkpt>
      <trkpt lat="48.6313" lon="-2.27851">
        <ele>95</ele>
        <time>2021-07-30T11:37:35.000Z</time>
      </trkpt>
      <trkpt lat="48.63119" lon="-2.27853">
        <ele>96</ele>
        <time>2021-07-30T11:37:38.000Z</time>
      </trkpt>
      <trkpt lat="48.63109" lon="-2.27857">
        <ele>96</ele>
        <time>2021-07-30T11:37:41.000Z</time>
      </trkpt>
      <trkpt lat="48.63099" lon="-2.27859">
        <ele>96</ele>
        <time>2021-07-30T11:37:44.000Z</time>
      </trkpt>
      <trkpt lat="48.63089" lon="-2.27862">
        <ele>96</ele>
        <time>2021-07-30T11:37:47.000Z</time>
      </trkpt>
      <trkpt lat="48.63078" lon="-2.27863">
        <ele>95</ele>
        <time>2021-07-30T11:37:50.000Z</time>
      </trkpt>
      <trkpt lat="48.63066" lon="-2.27867">
        <ele>95</ele>
        <time>2021-07-30T11:37:53.000Z</time>
      </trkpt>
      <trkpt lat="48.63055" lon="-2.2787">
        <ele>94</ele>
        <time>2021-07-30T11:37:56.000Z</time>
      </trkpt>
      <trkpt lat="48.63042" lon="-2.27871">
        <ele>94</ele>
        <time>2021-07-30T11:37:59.000Z</time>
      </trkpt>
      <trkpt lat="48.63029" lon="-2.27876">
        <ele>95</ele>
        <time>2021-07-30T11:38:02.000Z</time>
      </trkpt>
      <trkpt lat="48.6302" lon="-2.27878">
        <ele>95</ele>
        <time>2021-07-30T11:38:04.000Z</time>
      </trkpt>
      <trkpt lat="48.6301" lon="-2.2788">
        <ele>95</ele>
        <time>2021-07-30T11:38:06.000Z</time>
      </trkpt>
      <trkpt lat="48.63" lon="-2.27884">
        <ele>95</ele>
        <time>2021-07-30T11:38:08.000Z</time>
      </trkpt>
      <trkpt lat="48.6299" lon="-2.27887">
        <ele>94</ele>
        <time>2021-07-30T11:38:10.000Z</time>
      </trkpt>
      <trkpt lat="48.62979" lon="-2.27892">
        <ele>94</ele>
        <time>2021-07-30T11:38:12.000Z</time>
      </trkpt>
      <trkpt lat="48.62969" lon="-2.27898">
        <ele>94</ele>
        <time>2021-07-30T11:38:14.000Z</time>
      </trkpt>
      <trkpt lat="48.62958" lon="-2.27904">
        <ele>94</ele>
        <time>2021-07-30T11:38:16.000Z</time>
      </trkpt>
      <trkpt lat="48.62948" lon="-2.27908">
        <ele>93</ele>
        <time>2021-07-30T11:38:18.000Z</time>
      </trkpt>
      <trkpt lat="48.62939" lon="-2.27915">
        <ele>93</ele>
        <time>2021-07-30T11:38:20.000Z</time>
      </trkpt>
      <trkpt lat="48.62929" lon="-2.27922">
        <ele>93</ele>
        <time>2021-07-30T11:38:22.000Z</time>
      </trkpt>
      <trkpt lat="48.62916" lon="-2.27932">
        <ele>93</ele>
        <time>2021-07-30T11:38:25.000Z</time>
      </trkpt>
      <trkpt lat="48.62906" lon="-2.27935">
        <ele>94</ele>
        <time>2021-07-30T11:38:27.000Z</time>
      </trkpt>
      <trkpt lat="48.62898" lon="-2.2794">
        <ele>94</ele>
        <time>2021-07-30T11:38:29.000Z</time>
      </trkpt>
      <trkpt lat="48.6289" lon="-2.27946">
        <ele>94</ele>
        <time>2021-07-30T11:38:31.000Z</time>
      </trkpt>
      <trkpt lat="48.62881" lon="-2.27951">
        <ele>93</ele>
        <time>2021-07-30T11:38:33.000Z</time>
      </trkpt>
      <trkpt lat="48.62873" lon="-2.27956">
        <ele>93</ele>
        <time>2021-07-30T11:38:35.000Z</time>
      </trkpt>
      <trkpt lat="48.62872" lon="-2.27971">
        <ele>93</ele>
        <time>2021-07-30T11:38:38.000Z</time>
      </trkpt>
      <trkpt lat="48.62877" lon="-2.27984">
        <ele>93</ele>
        <time>2021-07-30T11:38:41.000Z</time>
      </trkpt>
      <trkpt lat="48.6288" lon="-2.27997">
        <ele>93</ele>
        <time>2021-07-30T11:38:44.000Z</time>
      </trkpt>
      <trkpt lat="48.62883" lon="-2.28014">
        <ele>93</ele>
        <time>2021-07-30T11:38:47.000Z</time>
      </trkpt>
      <trkpt lat="48.62884" lon="-2.2803">
        <ele>93</ele>
        <time>2021-07-30T11:38:50.000Z</time>
      </trkpt>
      <trkpt lat="48.62885" lon="-2.28045">
        <ele>93</ele>
        <time>2021-07-30T11:38:53.000Z</time>
      </trkpt>
      <trkpt lat="48.6288" lon="-2.28058">
        <ele>93</ele>
        <time>2021-07-30T11:38:56.000Z</time>
      </trkpt>
      <trkpt lat="48.62874" lon="-2.2807">
        <ele>93</ele>
        <time>2021-07-30T11:38:59.000Z</time>
      </trkpt>
      <trkpt lat="48.62865" lon="-2.28081">
        <ele>92</ele>
        <time>2021-07-30T11:39:03.000Z</time>
      </trkpt>
      <trkpt lat="48.62856" lon="-2.28093">
        <ele>92</ele>
        <time>2021-07-30T11:39:07.000Z</time>
      </trkpt>
      <trkpt lat="48.62848" lon="-2.28101">
        <ele>92</ele>
        <time>2021-07-30T11:39:10.000Z</time>
      </trkpt>
      <trkpt lat="48.62839" lon="-2.28112">
        <ele>92</ele>
        <time>2021-07-30T11:39:13.000Z</time>
      </trkpt>
      <trkpt lat="48.6283" lon="-2.2812">
        <ele>92</ele>
        <time>2021-07-30T11:39:16.000Z</time>
      </trkpt>
      <trkpt lat="48.62821" lon="-2.28131">
        <ele>94</ele>
        <time>2021-07-30T11:39:19.000Z</time>
      </trkpt>
      <trkpt lat="48.62806" lon="-2.28129">
        <ele>94</ele>
        <time>2021-07-30T11:39:23.000Z</time>
      </trkpt>
      <trkpt lat="48.62802" lon="-2.28109">
        <ele>94</ele>
        <time>2021-07-30T11:39:25.000Z</time>
      </trkpt>
      <trkpt lat="48.62797" lon="-2.28088">
        <ele>93</ele>
        <time>2021-07-30T11:39:27.000Z</time>
      </trkpt>
      <trkpt lat="48.62791" lon="-2.28065">
        <ele>93</ele>
        <time>2021-07-30T11:39:29.000Z</time>
      </trkpt>
      <trkpt lat="48.62785" lon="-2.28043">
        <ele>91</ele>
        <time>2021-07-30T11:39:31.000Z</time>
      </trkpt>
      <trkpt lat="48.62777" lon="-2.28027">
        <ele>90</ele>
        <time>2021-07-30T11:39:33.000Z</time>
      </trkpt>
      <trkpt lat="48.62768" lon="-2.28011">
        <ele>89</ele>
        <time>2021-07-30T11:39:35.000Z</time>
      </trkpt>
      <trkpt lat="48.62759" lon="-2.27994">
        <ele>88</ele>
        <time>2021-07-30T11:39:37.000Z</time>
      </trkpt>
      <trkpt lat="48.62751" lon="-2.27982">
        <ele>87</ele>
        <time>2021-07-30T11:39:39.000Z</time>
      </trkpt>
      <trkpt lat="48.62743" lon="-2.27973">
        <ele>85</ele>
        <time>2021-07-30T11:39:41.000Z</time>
      </trkpt>
      <trkpt lat="48.62731" lon="-2.27977">
        <ele>83</ele>
        <time>2021-07-30T11:39:44.000Z</time>
      </trkpt>
      <trkpt lat="48.62724" lon="-2.27989">
        <ele>82</ele>
        <time>2021-07-30T11:39:46.000Z</time>
      </trkpt>
      <trkpt lat="48.62716" lon="-2.28003">
        <ele>81</ele>
        <time>2021-07-30T11:39:48.000Z</time>
      </trkpt>
      <trkpt lat="48.62707" lon="-2.28018">
        <ele>80</ele>
        <time>2021-07-30T11:39:50.000Z</time>
      </trkpt>
      <trkpt lat="48.62698" lon="-2.28035">
        <ele>79</ele>
        <time>2021-07-30T11:39:52.000Z</time>
      </trkpt>
      <trkpt lat="48.62688" lon="-2.28051">
        <ele>77</ele>
        <time>2021-07-30T11:39:54.000Z</time>
      </trkpt>
      <trkpt lat="48.62678" lon="-2.28065">
        <ele>76</ele>
        <time>2021-07-30T11:39:56.000Z</time>
      </trkpt>
      <trkpt lat="48.62671" lon="-2.28082">
        <ele>76</ele>
        <time>2021-07-30T11:39:58.000Z</time>
      </trkpt>
      <trkpt lat="48.62666" lon="-2.28101">
        <ele>75</ele>
        <time>2021-07-30T11:40:00.000Z</time>
      </trkpt>
      <trkpt lat="48.62662" lon="-2.28116">
        <ele>73</ele>
        <time>2021-07-30T11:40:02.000Z</time>
      </trkpt>
      <trkpt lat="48.62657" lon="-2.28128">
        <ele>72</ele>
        <time>2021-07-30T11:40:05.000Z</time>
      </trkpt>
      <trkpt lat="48.62648" lon="-2.28125">
        <ele>72</ele>
        <time>2021-07-30T11:40:23.000Z</time>
      </trkpt>
      <trkpt lat="48.62639" lon="-2.28119">
        <ele>71</ele>
        <time>2021-07-30T11:40:26.000Z</time>
      </trkpt>
      <trkpt lat="48.6263" lon="-2.28108">
        <ele>70</ele>
        <time>2021-07-30T11:40:28.000Z</time>
      </trkpt>
      <trkpt lat="48.62623" lon="-2.28096">
        <ele>69</ele>
        <time>2021-07-30T11:40:31.000Z</time>
      </trkpt>
      <trkpt lat="48.62623" lon="-2.28082">
        <ele>69</ele>
        <time>2021-07-30T11:40:35.000Z</time>
      </trkpt>
      <trkpt lat="48.62624" lon="-2.28068">
        <ele>69</ele>
        <time>2021-07-30T11:40:40.000Z</time>
      </trkpt>
      <trkpt lat="48.6262" lon="-2.28054">
        <ele>68</ele>
        <time>2021-07-30T11:40:43.000Z</time>
      </trkpt>
      <trkpt lat="48.62617" lon="-2.2804">
        <ele>68</ele>
        <time>2021-07-30T11:40:47.000Z</time>
      </trkpt>
      <trkpt lat="48.62614" lon="-2.28026">
        <ele>68</ele>
        <time>2021-07-30T11:40:51.000Z</time>
      </trkpt>
      <trkpt lat="48.6261" lon="-2.28006">
        <ele>67</ele>
        <time>2021-07-30T11:40:55.000Z</time>
      </trkpt>
      <trkpt lat="48.62607" lon="-2.27991">
        <ele>69</ele>
        <time>2021-07-30T11:40:58.000Z</time>
      </trkpt>
      <trkpt lat="48.62602" lon="-2.27977">
        <ele>70</ele>
        <time>2021-07-30T11:41:02.000Z</time>
      </trkpt>
      <trkpt lat="48.62596" lon="-2.27966">
        <ele>70</ele>
        <time>2021-07-30T11:41:06.000Z</time>
      </trkpt>
      <trkpt lat="48.62589" lon="-2.27953">
        <ele>70</ele>
        <time>2021-07-30T11:41:11.000Z</time>
      </trkpt>
      <trkpt lat="48.62582" lon="-2.27943">
        <ele>70</ele>
        <time>2021-07-30T11:41:14.000Z</time>
      </trkpt>
      <trkpt lat="48.62577" lon="-2.27928">
        <ele>69</ele>
        <time>2021-07-30T11:41:17.000Z</time>
      </trkpt>
      <trkpt lat="48.6257" lon="-2.27917">
        <ele>70</ele>
        <time>2021-07-30T11:41:20.000Z</time>
      </trkpt>
      <trkpt lat="48.62562" lon="-2.27906">
        <ele>69</ele>
        <time>2021-07-30T11:41:23.000Z</time>
      </trkpt>
      <trkpt lat="48.62552" lon="-2.27897">
        <ele>71</ele>
        <time>2021-07-30T11:41:26.000Z</time>
      </trkpt>
      <trkpt lat="48.62543" lon="-2.27887">
        <ele>71</ele>
        <time>2021-07-30T11:41:29.000Z</time>
      </trkpt>
      <trkpt lat="48.62532" lon="-2.27881">
        <ele>70</ele>
        <time>2021-07-30T11:41:33.000Z</time>
      </trkpt>
      <trkpt lat="48.62525" lon="-2.2787">
        <ele>70</ele>
        <time>2021-07-30T11:41:37.000Z</time>
      </trkpt>
      <trkpt lat="48.62517" lon="-2.27864">
        <ele>70</ele>
        <time>2021-07-30T11:41:40.000Z</time>
      </trkpt>
      <trkpt lat="48.62509" lon="-2.27857">
        <ele>70</ele>
        <time>2021-07-30T11:41:43.000Z</time>
      </trkpt>
      <trkpt lat="48.62499" lon="-2.27845">
        <ele>70</ele>
        <time>2021-07-30T11:41:47.000Z</time>
      </trkpt>
      <trkpt lat="48.62492" lon="-2.27835">
        <ele>70</ele>
        <time>2021-07-30T11:41:53.000Z</time>
      </trkpt>
      <trkpt lat="48.6248" lon="-2.27831">
        <ele>72</ele>
        <time>2021-07-30T11:41:58.000Z</time>
      </trkpt>
      <trkpt lat="48.62471" lon="-2.2783">
        <ele>74</ele>
        <time>2021-07-30T11:42:04.000Z</time>
      </trkpt>
      <trkpt lat="48.62463" lon="-2.27822">
        <ele>72</ele>
        <time>2021-07-30T11:42:07.000Z</time>
      </trkpt>
      <trkpt lat="48.62448" lon="-2.27808">
        <ele>70</ele>
        <time>2021-07-30T11:42:13.000Z</time>
      </trkpt>
      <trkpt lat="48.62439" lon="-2.27807">
        <ele>69</ele>
        <time>2021-07-30T11:42:16.000Z</time>
      </trkpt>
      <trkpt lat="48.62429" lon="-2.27802">
        <ele>68</ele>
        <time>2021-07-30T11:42:18.000Z</time>
      </trkpt>
      <trkpt lat="48.6242" lon="-2.278">
        <ele>68</ele>
        <time>2021-07-30T11:42:20.000Z</time>
      </trkpt>
      <trkpt lat="48.62409" lon="-2.27801">
        <ele>69</ele>
        <time>2021-07-30T11:42:22.000Z</time>
      </trkpt>
      <trkpt lat="48.62399" lon="-2.27802">
        <ele>69</ele>
        <time>2021-07-30T11:42:24.000Z</time>
      </trkpt>
      <trkpt lat="48.6239" lon="-2.2781">
        <ele>69</ele>
        <time>2021-07-30T11:42:26.000Z</time>
      </trkpt>
      <trkpt lat="48.62377" lon="-2.27814">
        <ele>69</ele>
        <time>2021-07-30T11:42:28.000Z</time>
      </trkpt>
      <trkpt lat="48.62366" lon="-2.27819">
        <ele>71</ele>
        <time>2021-07-30T11:42:30.000Z</time>
      </trkpt>
      <trkpt lat="48.62357" lon="-2.27822">
        <ele>71</ele>
        <time>2021-07-30T11:42:32.000Z</time>
      </trkpt>
      <trkpt lat="48.62348" lon="-2.2783">
        <ele>72</ele>
        <time>2021-07-30T11:42:35.000Z</time>
      </trkpt>
      <trkpt lat="48.62338" lon="-2.27838">
        <ele>69</ele>
        <time>2021-07-30T11:42:37.000Z</time>
      </trkpt>
      <trkpt lat="48.62327" lon="-2.27843">
        <ele>70</ele>
        <time>2021-07-30T11:42:40.000Z</time>
      </trkpt>
      <trkpt lat="48.62316" lon="-2.27844">
        <ele>70</ele>
        <time>2021-07-30T11:42:43.000Z</time>
      </trkpt>
      <trkpt lat="48.62304" lon="-2.27842">
        <ele>71</ele>
        <time>2021-07-30T11:42:46.000Z</time>
      </trkpt>
      <trkpt lat="48.62294" lon="-2.27846">
        <ele>71</ele>
        <time>2021-07-30T11:42:48.000Z</time>
      </trkpt>
      <trkpt lat="48.62285" lon="-2.27846">
        <ele>73</ele>
        <time>2021-07-30T11:43:03.000Z</time>
      </trkpt>
      <trkpt lat="48.62277" lon="-2.27851">
        <ele>76</ele>
        <time>2021-07-30T11:43:10.000Z</time>
      </trkpt>
      <trkpt lat="48.62267" lon="-2.27856">
        <ele>78</ele>
        <time>2021-07-30T11:43:13.000Z</time>
      </trkpt>
      <trkpt lat="48.62257" lon="-2.2786">
        <ele>78</ele>
        <time>2021-07-30T11:43:16.000Z</time>
      </trkpt>
      <trkpt lat="48.62247" lon="-2.27862">
        <ele>78</ele>
        <time>2021-07-30T11:43:19.000Z</time>
      </trkpt>
      <trkpt lat="48.62236" lon="-2.27862">
        <ele>79</ele>
        <time>2021-07-30T11:43:22.000Z</time>
      </trkpt>
      <trkpt lat="48.62224" lon="-2.2787">
        <ele>79</ele>
        <time>2021-07-30T11:43:25.000Z</time>
      </trkpt>
      <trkpt lat="48.62215" lon="-2.27882">
        <ele>78</ele>
        <time>2021-07-30T11:43:28.000Z</time>
      </trkpt>
      <trkpt lat="48.62208" lon="-2.27892">
        <ele>77</ele>
        <time>2021-07-30T11:43:30.000Z</time>
      </trkpt>
      <trkpt lat="48.62201" lon="-2.279">
        <ele>75</ele>
        <time>2021-07-30T11:43:32.000Z</time>
      </trkpt>
      <trkpt lat="48.62194" lon="-2.27908">
        <ele>76</ele>
        <time>2021-07-30T11:43:35.000Z</time>
      </trkpt>
      <trkpt lat="48.62185" lon="-2.27914">
        <ele>77</ele>
        <time>2021-07-30T11:43:38.000Z</time>
      </trkpt>
      <trkpt lat="48.62174" lon="-2.27912">
        <ele>77</ele>
        <time>2021-07-30T11:43:41.000Z</time>
      </trkpt>
      <trkpt lat="48.62164" lon="-2.27911">
        <ele>77</ele>
        <time>2021-07-30T11:43:44.000Z</time>
      </trkpt>
      <trkpt lat="48.62153" lon="-2.27908">
        <ele>78</ele>
        <time>2021-07-30T11:43:47.000Z</time>
      </trkpt>
      <trkpt lat="48.62141" lon="-2.27904">
        <ele>79</ele>
        <time>2021-07-30T11:43:50.000Z</time>
      </trkpt>
      <trkpt lat="48.62132" lon="-2.27901">
        <ele>80</ele>
        <time>2021-07-30T11:43:53.000Z</time>
      </trkpt>
      <trkpt lat="48.62121" lon="-2.27897">
        <ele>80</ele>
        <time>2021-07-30T11:43:56.000Z</time>
      </trkpt>
      <trkpt lat="48.62111" lon="-2.27894">
        <ele>81</ele>
        <time>2021-07-30T11:43:59.000Z</time>
      </trkpt>
      <trkpt lat="48.621" lon="-2.27889">
        <ele>81</ele>
        <time>2021-07-30T11:44:02.000Z</time>
      </trkpt>
      <trkpt lat="48.6209" lon="-2.27886">
        <ele>81</ele>
        <time>2021-07-30T11:44:05.000Z</time>
      </trkpt>
      <trkpt lat="48.6208" lon="-2.27882">
        <ele>81</ele>
        <time>2021-07-30T11:44:08.000Z</time>
      </trkpt>
      <trkpt lat="48.62068" lon="-2.27877">
        <ele>82</ele>
        <time>2021-07-30T11:44:12.000Z</time>
      </trkpt>
      <trkpt lat="48.62057" lon="-2.27874">
        <ele>82</ele>
        <time>2021-07-30T11:44:15.000Z</time>
      </trkpt>
      <trkpt lat="48.62047" lon="-2.27873">
        <ele>83</ele>
        <time>2021-07-30T11:44:19.000Z</time>
      </trkpt>
      <trkpt lat="48.6204" lon="-2.27882">
        <ele>83</ele>
        <time>2021-07-30T11:44:24.000Z</time>
      </trkpt>
      <trkpt lat="48.62039" lon="-2.27897">
        <ele>83</ele>
        <time>2021-07-30T11:44:27.000Z</time>
      </trkpt>
      <trkpt lat="48.62038" lon="-2.27912">
        <ele>83</ele>
        <time>2021-07-30T11:44:30.000Z</time>
      </trkpt>
      <trkpt lat="48.62036" lon="-2.27928">
        <ele>83</ele>
        <time>2021-07-30T11:44:33.000Z</time>
      </trkpt>
      <trkpt lat="48.62037" lon="-2.27942">
        <ele>82</ele>
        <time>2021-07-30T11:44:35.000Z</time>
      </trkpt>
      <trkpt lat="48.62037" lon="-2.27959">
        <ele>81</ele>
        <time>2021-07-30T11:44:37.000Z</time>
      </trkpt>
      <trkpt lat="48.62039" lon="-2.27973">
        <ele>80</ele>
        <time>2021-07-30T11:44:39.000Z</time>
      </trkpt>
      <trkpt lat="48.62043" lon="-2.27987">
        <ele>79</ele>
        <time>2021-07-30T11:44:41.000Z</time>
      </trkpt>
      <trkpt lat="48.62047" lon="-2.28">
        <ele>79</ele>
        <time>2021-07-30T11:44:43.000Z</time>
      </trkpt>
      <trkpt lat="48.62053" lon="-2.28019">
        <ele>79</ele>
        <time>2021-07-30T11:44:46.000Z</time>
      </trkpt>
      <trkpt lat="48.6206" lon="-2.28035">
        <ele>79</ele>
        <time>2021-07-30T11:44:49.000Z</time>
      </trkpt>
      <trkpt lat="48.62064" lon="-2.28051">
        <ele>80</ele>
        <time>2021-07-30T11:44:52.000Z</time>
      </trkpt>
      <trkpt lat="48.62069" lon="-2.28068">
        <ele>81</ele>
        <time>2021-07-30T11:44:55.000Z</time>
      </trkpt>
      <trkpt lat="48.62072" lon="-2.28084">
        <ele>82</ele>
        <time>2021-07-30T11:44:58.000Z</time>
      </trkpt>
      <trkpt lat="48.62064" lon="-2.28092">
        <ele>83</ele>
        <time>2021-07-30T11:45:01.000Z</time>
      </trkpt>
      <trkpt lat="48.62055" lon="-2.28076">
        <ele>84</ele>
        <time>2021-07-30T11:45:04.000Z</time>
      </trkpt>
      <trkpt lat="48.62047" lon="-2.28061">
        <ele>84</ele>
        <time>2021-07-30T11:45:07.000Z</time>
      </trkpt>
      <trkpt lat="48.62039" lon="-2.28054">
        <ele>85</ele>
        <time>2021-07-30T11:45:09.000Z</time>
      </trkpt>
      <trkpt lat="48.62031" lon="-2.28047">
        <ele>86</ele>
        <time>2021-07-30T11:45:11.000Z</time>
      </trkpt>
      <trkpt lat="48.62022" lon="-2.28042">
        <ele>86</ele>
        <time>2021-07-30T11:45:13.000Z</time>
      </trkpt>
      <trkpt lat="48.62013" lon="-2.28036">
        <ele>87</ele>
        <time>2021-07-30T11:45:15.000Z</time>
      </trkpt>
      <trkpt lat="48.62004" lon="-2.28031">
        <ele>86</ele>
        <time>2021-07-30T11:45:17.000Z</time>
      </trkpt>
      <trkpt lat="48.61995" lon="-2.28025">
        <ele>87</ele>
        <time>2021-07-30T11:45:19.000Z</time>
      </trkpt>
      <trkpt lat="48.61987" lon="-2.2802">
        <ele>87</ele>
        <time>2021-07-30T11:45:21.000Z</time>
      </trkpt>
      <trkpt lat="48.61977" lon="-2.28014">
        <ele>87</ele>
        <time>2021-07-30T11:45:23.000Z</time>
      </trkpt>
      <trkpt lat="48.61965" lon="-2.28007">
        <ele>87</ele>
        <time>2021-07-30T11:45:26.000Z</time>
      </trkpt>
      <trkpt lat="48.61955" lon="-2.27996">
        <ele>88</ele>
        <time>2021-07-30T11:45:29.000Z</time>
      </trkpt>
      <trkpt lat="48.61949" lon="-2.27985">
        <ele>88</ele>
        <time>2021-07-30T11:45:31.000Z</time>
      </trkpt>
      <trkpt lat="48.61944" lon="-2.27972">
        <ele>88</ele>
        <time>2021-07-30T11:45:33.000Z</time>
      </trkpt>
      <trkpt lat="48.61938" lon="-2.27961">
        <ele>87</ele>
        <time>2021-07-30T11:45:35.000Z</time>
      </trkpt>
      <trkpt lat="48.61932" lon="-2.2795">
        <ele>87</ele>
        <time>2021-07-30T11:45:37.000Z</time>
      </trkpt>
      <trkpt lat="48.61922" lon="-2.27936">
        <ele>87</ele>
        <time>2021-07-30T11:45:40.000Z</time>
      </trkpt>
      <trkpt lat="48.61914" lon="-2.27929">
        <ele>87</ele>
        <time>2021-07-30T11:45:42.000Z</time>
      </trkpt>
      <trkpt lat="48.61905" lon="-2.27923">
        <ele>88</ele>
        <time>2021-07-30T11:45:44.000Z</time>
      </trkpt>
      <trkpt lat="48.61893" lon="-2.27913">
        <ele>88</ele>
        <time>2021-07-30T11:45:47.000Z</time>
      </trkpt>
      <trkpt lat="48.61881" lon="-2.27903">
        <ele>88</ele>
        <time>2021-07-30T11:45:50.000Z</time>
      </trkpt>
      <trkpt lat="48.61872" lon="-2.27896">
        <ele>89</ele>
        <time>2021-07-30T11:45:52.000Z</time>
      </trkpt>
      <trkpt lat="48.6186" lon="-2.27888">
        <ele>89</ele>
        <time>2021-07-30T11:45:55.000Z</time>
      </trkpt>
      <trkpt lat="48.61851" lon="-2.2788">
        <ele>91</ele>
        <time>2021-07-30T11:45:58.000Z</time>
      </trkpt>
      <trkpt lat="48.6184" lon="-2.27873">
        <ele>92</ele>
        <time>2021-07-30T11:46:01.000Z</time>
      </trkpt>
      <trkpt lat="48.61828" lon="-2.27868">
        <ele>91</ele>
        <time>2021-07-30T11:46:04.000Z</time>
      </trkpt>
      <trkpt lat="48.61816" lon="-2.27869">
        <ele>90</ele>
        <time>2021-07-30T11:46:07.000Z</time>
      </trkpt>
      <trkpt lat="48.61804" lon="-2.27875">
        <ele>91</ele>
        <time>2021-07-30T11:46:10.000Z</time>
      </trkpt>
      <trkpt lat="48.61793" lon="-2.27882">
        <ele>91</ele>
        <time>2021-07-30T11:46:13.000Z</time>
      </trkpt>
      <trkpt lat="48.61781" lon="-2.27886">
        <ele>93</ele>
        <time>2021-07-30T11:46:16.000Z</time>
      </trkpt>
      <trkpt lat="48.6177" lon="-2.27886">
        <ele>94</ele>
        <time>2021-07-30T11:46:19.000Z</time>
      </trkpt>
      <trkpt lat="48.61758" lon="-2.27886">
        <ele>94</ele>
        <time>2021-07-30T11:46:22.000Z</time>
      </trkpt>
      <trkpt lat="48.61748" lon="-2.27884">
        <ele>94</ele>
        <time>2021-07-30T11:46:25.000Z</time>
      </trkpt>
      <trkpt lat="48.61733" lon="-2.27881">
        <ele>96</ele>
        <time>2021-07-30T11:46:29.000Z</time>
      </trkpt>
      <trkpt lat="48.61722" lon="-2.27878">
        <ele>96</ele>
        <time>2021-07-30T11:46:32.000Z</time>
      </trkpt>
      <trkpt lat="48.61711" lon="-2.27877">
        <ele>96</ele>
        <time>2021-07-30T11:46:35.000Z</time>
      </trkpt>
      <trkpt lat="48.617" lon="-2.27873">
        <ele>95</ele>
        <time>2021-07-30T11:46:38.000Z</time>
      </trkpt>
      <trkpt lat="48.61688" lon="-2.27868">
        <ele>95</ele>
        <time>2021-07-30T11:46:41.000Z</time>
      </trkpt>
      <trkpt lat="48.61678" lon="-2.27864">
        <ele>94</ele>
        <time>2021-07-30T11:46:44.000Z</time>
      </trkpt>
      <trkpt lat="48.61667" lon="-2.27864">
        <ele>94</ele>
        <time>2021-07-30T11:46:47.000Z</time>
      </trkpt>
      <trkpt lat="48.61656" lon="-2.27861">
        <ele>94</ele>
        <time>2021-07-30T11:46:50.000Z</time>
      </trkpt>
      <trkpt lat="48.61646" lon="-2.27858">
        <ele>94</ele>
        <time>2021-07-30T11:46:53.000Z</time>
      </trkpt>
      <trkpt lat="48.61636" lon="-2.27855">
        <ele>93</ele>
        <time>2021-07-30T11:46:56.000Z</time>
      </trkpt>
      <trkpt lat="48.61621" lon="-2.27851">
        <ele>91</ele>
        <time>2021-07-30T11:47:00.000Z</time>
      </trkpt>
      <trkpt lat="48.61611" lon="-2.27846">
        <ele>91</ele>
        <time>2021-07-30T11:47:03.000Z</time>
      </trkpt>
      <trkpt lat="48.616" lon="-2.27844">
        <ele>92</ele>
        <time>2021-07-30T11:47:06.000Z</time>
      </trkpt>
      <trkpt lat="48.61589" lon="-2.27839">
        <ele>92</ele>
        <time>2021-07-30T11:47:09.000Z</time>
      </trkpt>
      <trkpt lat="48.61578" lon="-2.27832">
        <ele>94</ele>
        <time>2021-07-30T11:47:12.000Z</time>
      </trkpt>
      <trkpt lat="48.61565" lon="-2.27828">
        <ele>94</ele>
        <time>2021-07-30T11:47:15.000Z</time>
      </trkpt>
      <trkpt lat="48.61553" lon="-2.27824">
        <ele>94</ele>
        <time>2021-07-30T11:47:18.000Z</time>
      </trkpt>
      <trkpt lat="48.61544" lon="-2.27822">
        <ele>94</ele>
        <time>2021-07-30T11:47:20.000Z</time>
      </trkpt>
      <trkpt lat="48.61531" lon="-2.27815">
        <ele>95</ele>
        <time>2021-07-30T11:47:23.000Z</time>
      </trkpt>
      <trkpt lat="48.61522" lon="-2.27812">
        <ele>95</ele>
        <time>2021-07-30T11:47:25.000Z</time>
      </trkpt>
      <trkpt lat="48.61509" lon="-2.27807">
        <ele>95</ele>
        <time>2021-07-30T11:47:28.000Z</time>
      </trkpt>
      <trkpt lat="48.61496" lon="-2.27804">
        <ele>96</ele>
        <time>2021-07-30T11:47:31.000Z</time>
      </trkpt>
      <trkpt lat="48.61483" lon="-2.27803">
        <ele>96</ele>
        <time>2021-07-30T11:47:34.000Z</time>
      </trkpt>
      <trkpt lat="48.6147" lon="-2.27803">
        <ele>96</ele>
        <time>2021-07-30T11:47:37.000Z</time>
      </trkpt>
      <trkpt lat="48.61461" lon="-2.27803">
        <ele>97</ele>
        <time>2021-07-30T11:47:39.000Z</time>
      </trkpt>
      <trkpt lat="48.61447" lon="-2.27803">
        <ele>97</ele>
        <time>2021-07-30T11:47:42.000Z</time>
      </trkpt>
      <trkpt lat="48.61434" lon="-2.27802">
        <ele>97</ele>
        <time>2021-07-30T11:47:45.000Z</time>
      </trkpt>
      <trkpt lat="48.61423" lon="-2.278">
        <ele>97</ele>
        <time>2021-07-30T11:47:48.000Z</time>
      </trkpt>
      <trkpt lat="48.61414" lon="-2.27796">
        <ele>97</ele>
        <time>2021-07-30T11:47:50.000Z</time>
      </trkpt>
      <trkpt lat="48.61402" lon="-2.27787">
        <ele>98</ele>
        <time>2021-07-30T11:47:53.000Z</time>
      </trkpt>
      <trkpt lat="48.61392" lon="-2.27778">
        <ele>98</ele>
        <time>2021-07-30T11:47:56.000Z</time>
      </trkpt>
      <trkpt lat="48.61381" lon="-2.27767">
        <ele>98</ele>
        <time>2021-07-30T11:47:59.000Z</time>
      </trkpt>
      <trkpt lat="48.61371" lon="-2.27753">
        <ele>98</ele>
        <time>2021-07-30T11:48:02.000Z</time>
      </trkpt>
      <trkpt lat="48.61364" lon="-2.27743">
        <ele>98</ele>
        <time>2021-07-30T11:48:04.000Z</time>
      </trkpt>
      <trkpt lat="48.61357" lon="-2.27734">
        <ele>98</ele>
        <time>2021-07-30T11:48:06.000Z</time>
      </trkpt>
      <trkpt lat="48.61349" lon="-2.27726">
        <ele>98</ele>
        <time>2021-07-30T11:48:08.000Z</time>
      </trkpt>
      <trkpt lat="48.6134" lon="-2.27719">
        <ele>98</ele>
        <time>2021-07-30T11:48:10.000Z</time>
      </trkpt>
      <trkpt lat="48.61331" lon="-2.27712">
        <ele>98</ele>
        <time>2021-07-30T11:48:12.000Z</time>
      </trkpt>
      <trkpt lat="48.61322" lon="-2.27706">
        <ele>98</ele>
        <time>2021-07-30T11:48:14.000Z</time>
      </trkpt>
      <trkpt lat="48.61314" lon="-2.27699">
        <ele>99</ele>
        <time>2021-07-30T11:48:16.000Z</time>
      </trkpt>
      <trkpt lat="48.61304" lon="-2.27696">
        <ele>100</ele>
        <time>2021-07-30T11:48:18.000Z</time>
      </trkpt>
      <trkpt lat="48.61294" lon="-2.27693">
        <ele>100</ele>
        <time>2021-07-30T11:48:20.000Z</time>
      </trkpt>
      <trkpt lat="48.61284" lon="-2.27688">
        <ele>101</ele>
        <time>2021-07-30T11:48:22.000Z</time>
      </trkpt>
      <trkpt lat="48.61268" lon="-2.27681">
        <ele>100</ele>
        <time>2021-07-30T11:48:25.000Z</time>
      </trkpt>
      <trkpt lat="48.61258" lon="-2.27677">
        <ele>100</ele>
        <time>2021-07-30T11:48:27.000Z</time>
      </trkpt>
      <trkpt lat="48.61248" lon="-2.27674">
        <ele>99</ele>
        <time>2021-07-30T11:48:29.000Z</time>
      </trkpt>
      <trkpt lat="48.61238" lon="-2.2767">
        <ele>100</ele>
        <time>2021-07-30T11:48:31.000Z</time>
      </trkpt>
      <trkpt lat="48.61229" lon="-2.27668">
        <ele>100</ele>
        <time>2021-07-30T11:48:33.000Z</time>
      </trkpt>
      <trkpt lat="48.6122" lon="-2.27663">
        <ele>100</ele>
        <time>2021-07-30T11:48:35.000Z</time>
      </trkpt>
      <trkpt lat="48.6121" lon="-2.2766">
        <ele>100</ele>
        <time>2021-07-30T11:48:37.000Z</time>
      </trkpt>
      <trkpt lat="48.61199" lon="-2.27655">
        <ele>100</ele>
        <time>2021-07-30T11:48:39.000Z</time>
      </trkpt>
      <trkpt lat="48.61189" lon="-2.27651">
        <ele>100</ele>
        <time>2021-07-30T11:48:41.000Z</time>
      </trkpt>
      <trkpt lat="48.61179" lon="-2.27649">
        <ele>99</ele>
        <time>2021-07-30T11:48:43.000Z</time>
      </trkpt>
      <trkpt lat="48.61169" lon="-2.27647">
        <ele>99</ele>
        <time>2021-07-30T11:48:45.000Z</time>
      </trkpt>
      <trkpt lat="48.61158" lon="-2.27644">
        <ele>99</ele>
        <time>2021-07-30T11:48:47.000Z</time>
      </trkpt>
      <trkpt lat="48.61148" lon="-2.27642">
        <ele>99</ele>
        <time>2021-07-30T11:48:49.000Z</time>
      </trkpt>
      <trkpt lat="48.61138" lon="-2.2764">
        <ele>100</ele>
        <time>2021-07-30T11:48:51.000Z</time>
      </trkpt>
      <trkpt lat="48.61128" lon="-2.27639">
        <ele>101</ele>
        <time>2021-07-30T11:48:53.000Z</time>
      </trkpt>
      <trkpt lat="48.61118" lon="-2.27636">
        <ele>101</ele>
        <time>2021-07-30T11:48:55.000Z</time>
      </trkpt>
      <trkpt lat="48.61107" lon="-2.27634">
        <ele>100</ele>
        <time>2021-07-30T11:48:57.000Z</time>
      </trkpt>
      <trkpt lat="48.61096" lon="-2.27633">
        <ele>100</ele>
        <time>2021-07-30T11:48:59.000Z</time>
      </trkpt>
      <trkpt lat="48.61086" lon="-2.27631">
        <ele>99</ele>
        <time>2021-07-30T11:49:01.000Z</time>
      </trkpt>
      <trkpt lat="48.61076" lon="-2.27631">
        <ele>99</ele>
        <time>2021-07-30T11:49:03.000Z</time>
      </trkpt>
      <trkpt lat="48.61067" lon="-2.2763">
        <ele>99</ele>
        <time>2021-07-30T11:49:05.000Z</time>
      </trkpt>
      <trkpt lat="48.61055" lon="-2.27627">
        <ele>98</ele>
        <time>2021-07-30T11:49:07.000Z</time>
      </trkpt>
      <trkpt lat="48.61044" lon="-2.27625">
        <ele>97</ele>
        <time>2021-07-30T11:49:09.000Z</time>
      </trkpt>
      <trkpt lat="48.6103" lon="-2.27626">
        <ele>97</ele>
        <time>2021-07-30T11:49:12.000Z</time>
      </trkpt>
      <trkpt lat="48.6102" lon="-2.27626">
        <ele>97</ele>
        <time>2021-07-30T11:49:14.000Z</time>
      </trkpt>
      <trkpt lat="48.6101" lon="-2.27626">
        <ele>98</ele>
        <time>2021-07-30T11:49:16.000Z</time>
      </trkpt>
      <trkpt lat="48.61" lon="-2.27625">
        <ele>98</ele>
        <time>2021-07-30T11:49:18.000Z</time>
      </trkpt>
      <trkpt lat="48.60991" lon="-2.27625">
        <ele>99</ele>
        <time>2021-07-30T11:49:20.000Z</time>
      </trkpt>
      <trkpt lat="48.60981" lon="-2.2762">
        <ele>99</ele>
        <time>2021-07-30T11:49:22.000Z</time>
      </trkpt>
      <trkpt lat="48.60974" lon="-2.27611">
        <ele>99</ele>
        <time>2021-07-30T11:49:24.000Z</time>
      </trkpt>
      <trkpt lat="48.60968" lon="-2.276">
        <ele>100</ele>
        <time>2021-07-30T11:49:26.000Z</time>
      </trkpt>
      <trkpt lat="48.60961" lon="-2.27587">
        <ele>100</ele>
        <time>2021-07-30T11:49:28.000Z</time>
      </trkpt>
      <trkpt lat="48.60955" lon="-2.27575">
        <ele>100</ele>
        <time>2021-07-30T11:49:30.000Z</time>
      </trkpt>
      <trkpt lat="48.6095" lon="-2.27561">
        <ele>101</ele>
        <time>2021-07-30T11:49:33.000Z</time>
      </trkpt>
      <trkpt lat="48.60948" lon="-2.27548">
        <ele>101</ele>
        <time>2021-07-30T11:49:36.000Z</time>
      </trkpt>
      <trkpt lat="48.60947" lon="-2.27528">
        <ele>101</ele>
        <time>2021-07-30T11:49:39.000Z</time>
      </trkpt>
      <trkpt lat="48.60941" lon="-2.27513">
        <ele>101</ele>
        <time>2021-07-30T11:49:41.000Z</time>
      </trkpt>
      <trkpt lat="48.60935" lon="-2.27497">
        <ele>101</ele>
        <time>2021-07-30T11:49:43.000Z</time>
      </trkpt>
      <trkpt lat="48.60929" lon="-2.27481">
        <ele>101</ele>
        <time>2021-07-30T11:49:45.000Z</time>
      </trkpt>
      <trkpt lat="48.60923" lon="-2.27466">
        <ele>100</ele>
        <time>2021-07-30T11:49:47.000Z</time>
      </trkpt>
      <trkpt lat="48.60917" lon="-2.2745">
        <ele>100</ele>
        <time>2021-07-30T11:49:49.000Z</time>
      </trkpt>
      <trkpt lat="48.60913" lon="-2.27433">
        <ele>101</ele>
        <time>2021-07-30T11:49:51.000Z</time>
      </trkpt>
      <trkpt lat="48.60909" lon="-2.27417">
        <ele>100</ele>
        <time>2021-07-30T11:49:53.000Z</time>
      </trkpt>
      <trkpt lat="48.60905" lon="-2.27401">
        <ele>100</ele>
        <time>2021-07-30T11:49:55.000Z</time>
      </trkpt>
      <trkpt lat="48.60903" lon="-2.27387">
        <ele>99</ele>
        <time>2021-07-30T11:49:57.000Z</time>
      </trkpt>
      <trkpt lat="48.60895" lon="-2.27368">
        <ele>100</ele>
        <time>2021-07-30T11:50:01.000Z</time>
      </trkpt>
      <trkpt lat="48.60891" lon="-2.27352">
        <ele>100</ele>
        <time>2021-07-30T11:50:05.000Z</time>
      </trkpt>
      <trkpt lat="48.60886" lon="-2.27337">
        <ele>100</ele>
        <time>2021-07-30T11:50:08.000Z</time>
      </trkpt>
      <trkpt lat="48.6088" lon="-2.27324">
        <ele>100</ele>
        <time>2021-07-30T11:50:11.000Z</time>
      </trkpt>
      <trkpt lat="48.60875" lon="-2.27308">
        <ele>100</ele>
        <time>2021-07-30T11:50:14.000Z</time>
      </trkpt>
      <trkpt lat="48.60871" lon="-2.27289">
        <ele>100</ele>
        <time>2021-07-30T11:50:17.000Z</time>
      </trkpt>
      <trkpt lat="48.60865" lon="-2.27274">
        <ele>101</ele>
        <time>2021-07-30T11:50:19.000Z</time>
      </trkpt>
      <trkpt lat="48.60859" lon="-2.27261">
        <ele>101</ele>
        <time>2021-07-30T11:50:21.000Z</time>
      </trkpt>
      <trkpt lat="48.60855" lon="-2.27246">
        <ele>101</ele>
        <time>2021-07-30T11:50:23.000Z</time>
      </trkpt>
      <trkpt lat="48.60848" lon="-2.27232">
        <ele>102</ele>
        <time>2021-07-30T11:50:25.000Z</time>
      </trkpt>
      <trkpt lat="48.60841" lon="-2.27223">
        <ele>102</ele>
        <time>2021-07-30T11:50:27.000Z</time>
      </trkpt>
      <trkpt lat="48.6083" lon="-2.27217">
        <ele>103</ele>
        <time>2021-07-30T11:50:30.000Z</time>
      </trkpt>
      <trkpt lat="48.6082" lon="-2.27217">
        <ele>104</ele>
        <time>2021-07-30T11:50:32.000Z</time>
      </trkpt>
      <trkpt lat="48.60809" lon="-2.27217">
        <ele>103</ele>
        <time>2021-07-30T11:50:34.000Z</time>
      </trkpt>
      <trkpt lat="48.60798" lon="-2.27213">
        <ele>103</ele>
        <time>2021-07-30T11:50:36.000Z</time>
      </trkpt>
      <trkpt lat="48.60787" lon="-2.27211">
        <ele>103</ele>
        <time>2021-07-30T11:50:38.000Z</time>
      </trkpt>
      <trkpt lat="48.60776" lon="-2.27207">
        <ele>104</ele>
        <time>2021-07-30T11:50:40.000Z</time>
      </trkpt>
      <trkpt lat="48.60765" lon="-2.27203">
        <ele>104</ele>
        <time>2021-07-30T11:50:42.000Z</time>
      </trkpt>
      <trkpt lat="48.60755" lon="-2.27199">
        <ele>104</ele>
        <time>2021-07-30T11:50:44.000Z</time>
      </trkpt>
      <trkpt lat="48.60744" lon="-2.27195">
        <ele>104</ele>
        <time>2021-07-30T11:50:46.000Z</time>
      </trkpt>
      <trkpt lat="48.60735" lon="-2.27191">
        <ele>103</ele>
        <time>2021-07-30T11:50:48.000Z</time>
      </trkpt>
      <trkpt lat="48.60724" lon="-2.27189">
        <ele>105</ele>
        <time>2021-07-30T11:50:50.000Z</time>
      </trkpt>
      <trkpt lat="48.60715" lon="-2.27188">
        <ele>106</ele>
        <time>2021-07-30T11:50:52.000Z</time>
      </trkpt>
      <trkpt lat="48.60705" lon="-2.27186">
        <ele>106</ele>
        <time>2021-07-30T11:50:54.000Z</time>
      </trkpt>
      <trkpt lat="48.60694" lon="-2.27183">
        <ele>105</ele>
        <time>2021-07-30T11:50:56.000Z</time>
      </trkpt>
      <trkpt lat="48.60683" lon="-2.27184">
        <ele>105</ele>
        <time>2021-07-30T11:50:58.000Z</time>
      </trkpt>
      <trkpt lat="48.60673" lon="-2.27183">
        <ele>105</ele>
        <time>2021-07-30T11:51:01.000Z</time>
      </trkpt>
      <trkpt lat="48.60663" lon="-2.27178">
        <ele>105</ele>
        <time>2021-07-30T11:51:05.000Z</time>
      </trkpt>
      <trkpt lat="48.60663" lon="-2.27164">
        <ele>105</ele>
        <time>2021-07-30T11:51:12.000Z</time>
      </trkpt>
      <trkpt lat="48.6067" lon="-2.2715">
        <ele>105</ele>
        <time>2021-07-30T11:51:16.000Z</time>
      </trkpt>
      <trkpt lat="48.60677" lon="-2.27135">
        <ele>104</ele>
        <time>2021-07-30T11:51:19.000Z</time>
      </trkpt>
      <trkpt lat="48.60686" lon="-2.27122">
        <ele>104</ele>
        <time>2021-07-30T11:51:22.000Z</time>
      </trkpt>
      <trkpt lat="48.60695" lon="-2.27108">
        <ele>103</ele>
        <time>2021-07-30T11:51:25.000Z</time>
      </trkpt>
      <trkpt lat="48.60704" lon="-2.27092">
        <ele>102</ele>
        <time>2021-07-30T11:51:28.000Z</time>
      </trkpt>
      <trkpt lat="48.60712" lon="-2.27079">
        <ele>101</ele>
        <time>2021-07-30T11:51:31.000Z</time>
      </trkpt>
      <trkpt lat="48.60723" lon="-2.27069">
        <ele>100</ele>
        <time>2021-07-30T11:51:33.000Z</time>
      </trkpt>
      <trkpt lat="48.60734" lon="-2.27056">
        <ele>98</ele>
        <time>2021-07-30T11:51:36.000Z</time>
      </trkpt>
      <trkpt lat="48.60745" lon="-2.27045">
        <ele>98</ele>
        <time>2021-07-30T11:51:39.000Z</time>
      </trkpt>
      <trkpt lat="48.60753" lon="-2.27036">
        <ele>97</ele>
        <time>2021-07-30T11:51:40.000Z</time>
      </trkpt>
      <trkpt lat="48.60762" lon="-2.27024">
        <ele>95</ele>
        <time>2021-07-30T11:51:43.000Z</time>
      </trkpt>
      <trkpt lat="48.60772" lon="-2.27015">
        <ele>94</ele>
        <time>2021-07-30T11:51:46.000Z</time>
      </trkpt>
      <trkpt lat="48.6078" lon="-2.27007">
        <ele>93</ele>
        <time>2021-07-30T11:51:48.000Z</time>
      </trkpt>
      <trkpt lat="48.60788" lon="-2.26995">
        <ele>93</ele>
        <time>2021-07-30T11:51:50.000Z</time>
      </trkpt>
      <trkpt lat="48.60799" lon="-2.26984">
        <ele>93</ele>
        <time>2021-07-30T11:51:52.000Z</time>
      </trkpt>
      <trkpt lat="48.6081" lon="-2.26972">
        <ele>94</ele>
        <time>2021-07-30T11:51:54.000Z</time>
      </trkpt>
      <trkpt lat="48.60821" lon="-2.26966">
        <ele>95</ele>
        <time>2021-07-30T11:51:56.000Z</time>
      </trkpt>
      <trkpt lat="48.6083" lon="-2.26958">
        <ele>95</ele>
        <time>2021-07-30T11:51:58.000Z</time>
      </trkpt>
      <trkpt lat="48.60842" lon="-2.26952">
        <ele>94</ele>
        <time>2021-07-30T11:52:01.000Z</time>
      </trkpt>
      <trkpt lat="48.60853" lon="-2.26947">
        <ele>92</ele>
        <time>2021-07-30T11:52:03.000Z</time>
      </trkpt>
      <trkpt lat="48.6087" lon="-2.26938">
        <ele>91</ele>
        <time>2021-07-30T11:52:06.000Z</time>
      </trkpt>
      <trkpt lat="48.60886" lon="-2.26928">
        <ele>91</ele>
        <time>2021-07-30T11:52:09.000Z</time>
      </trkpt>
      <trkpt lat="48.60897" lon="-2.26921">
        <ele>92</ele>
        <time>2021-07-30T11:52:11.000Z</time>
      </trkpt>
      <trkpt lat="48.6091" lon="-2.26915">
        <ele>95</ele>
        <time>2021-07-30T11:52:14.000Z</time>
      </trkpt>
      <trkpt lat="48.60924" lon="-2.26907">
        <ele>97</ele>
        <time>2021-07-30T11:52:17.000Z</time>
      </trkpt>
      <trkpt lat="48.60941" lon="-2.26897">
        <ele>98</ele>
        <time>2021-07-30T11:52:21.000Z</time>
      </trkpt>
      <trkpt lat="48.60955" lon="-2.26891">
        <ele>98</ele>
        <time>2021-07-30T11:52:24.000Z</time>
      </trkpt>
      <trkpt lat="48.60964" lon="-2.26889">
        <ele>98</ele>
        <time>2021-07-30T11:52:26.000Z</time>
      </trkpt>
      <trkpt lat="48.60973" lon="-2.26887">
        <ele>97</ele>
        <time>2021-07-30T11:52:28.000Z</time>
      </trkpt>
      <trkpt lat="48.60982" lon="-2.26883">
        <ele>98</ele>
        <time>2021-07-30T11:52:30.000Z</time>
      </trkpt>
      <trkpt lat="48.60996" lon="-2.26874">
        <ele>97</ele>
        <time>2021-07-30T11:52:33.000Z</time>
      </trkpt>
      <trkpt lat="48.61006" lon="-2.26869">
        <ele>98</ele>
        <time>2021-07-30T11:52:35.000Z</time>
      </trkpt>
      <trkpt lat="48.6102" lon="-2.26864">
        <ele>97</ele>
        <time>2021-07-30T11:52:38.000Z</time>
      </trkpt>
      <trkpt lat="48.61032" lon="-2.26857">
        <ele>98</ele>
        <time>2021-07-30T11:52:41.000Z</time>
      </trkpt>
      <trkpt lat="48.6104" lon="-2.26843">
        <ele>97</ele>
        <time>2021-07-30T11:52:44.000Z</time>
      </trkpt>
      <trkpt lat="48.6105" lon="-2.26832">
        <ele>97</ele>
        <time>2021-07-30T11:52:47.000Z</time>
      </trkpt>
      <trkpt lat="48.61059" lon="-2.26829">
        <ele>98</ele>
        <time>2021-07-30T11:52:49.000Z</time>
      </trkpt>
      <trkpt lat="48.61069" lon="-2.26827">
        <ele>99</ele>
        <time>2021-07-30T11:52:51.000Z</time>
      </trkpt>
      <trkpt lat="48.61082" lon="-2.26824">
        <ele>99</ele>
        <time>2021-07-30T11:52:54.000Z</time>
      </trkpt>
      <trkpt lat="48.61092" lon="-2.26826">
        <ele>100</ele>
        <time>2021-07-30T11:52:56.000Z</time>
      </trkpt>
      <trkpt lat="48.61104" lon="-2.26826">
        <ele>100</ele>
        <time>2021-07-30T11:52:59.000Z</time>
      </trkpt>
      <trkpt lat="48.61114" lon="-2.26819">
        <ele>101</ele>
        <time>2021-07-30T11:53:02.000Z</time>
      </trkpt>
      <trkpt lat="48.61123" lon="-2.26815">
        <ele>101</ele>
        <time>2021-07-30T11:53:05.000Z</time>
      </trkpt>
      <trkpt lat="48.61135" lon="-2.26811">
        <ele>100</ele>
        <time>2021-07-30T11:53:09.000Z</time>
      </trkpt>
      <trkpt lat="48.61144" lon="-2.26809">
        <ele>100</ele>
        <time>2021-07-30T11:53:12.000Z</time>
      </trkpt>
      <trkpt lat="48.61155" lon="-2.26801">
        <ele>99</ele>
        <time>2021-07-30T11:53:17.000Z</time>
      </trkpt>
      <trkpt lat="48.61164" lon="-2.26798">
        <ele>97</ele>
        <time>2021-07-30T11:53:23.000Z</time>
      </trkpt>
      <trkpt lat="48.61155" lon="-2.26794">
        <ele>98</ele>
        <time>2021-07-30T11:53:32.000Z</time>
      </trkpt>
      <trkpt lat="48.61148" lon="-2.26785">
        <ele>99</ele>
        <time>2021-07-30T11:53:36.000Z</time>
      </trkpt>
      <trkpt lat="48.61138" lon="-2.26777">
        <ele>100</ele>
        <time>2021-07-30T11:53:40.000Z</time>
      </trkpt>
      <trkpt lat="48.61129" lon="-2.26771">
        <ele>100</ele>
        <time>2021-07-30T11:53:43.000Z</time>
      </trkpt>
      <trkpt lat="48.61118" lon="-2.26764">
        <ele>100</ele>
        <time>2021-07-30T11:53:47.000Z</time>
      </trkpt>
      <trkpt lat="48.61108" lon="-2.26755">
        <ele>101</ele>
        <time>2021-07-30T11:53:50.000Z</time>
      </trkpt>
      <trkpt lat="48.61096" lon="-2.26748">
        <ele>100</ele>
        <time>2021-07-30T11:53:53.000Z</time>
      </trkpt>
      <trkpt lat="48.61085" lon="-2.26741">
        <ele>100</ele>
        <time>2021-07-30T11:53:56.000Z</time>
      </trkpt>
      <trkpt lat="48.61074" lon="-2.26737">
        <ele>100</ele>
        <time>2021-07-30T11:53:58.000Z</time>
      </trkpt>
      <trkpt lat="48.61065" lon="-2.26735">
        <ele>100</ele>
        <time>2021-07-30T11:54:01.000Z</time>
      </trkpt>
      <trkpt lat="48.61056" lon="-2.26728">
        <ele>100</ele>
        <time>2021-07-30T11:54:03.000Z</time>
      </trkpt>
      <trkpt lat="48.61044" lon="-2.26723">
        <ele>101</ele>
        <time>2021-07-30T11:54:06.000Z</time>
      </trkpt>
      <trkpt lat="48.61033" lon="-2.26723">
        <ele>101</ele>
        <time>2021-07-30T11:54:09.000Z</time>
      </trkpt>
      <trkpt lat="48.61023" lon="-2.26724">
        <ele>101</ele>
        <time>2021-07-30T11:54:11.000Z</time>
      </trkpt>
      <trkpt lat="48.61011" lon="-2.26726">
        <ele>103</ele>
        <time>2021-07-30T11:54:14.000Z</time>
      </trkpt>
      <trkpt lat="48.61" lon="-2.26727">
        <ele>104</ele>
        <time>2021-07-30T11:54:17.000Z</time>
      </trkpt>
      <trkpt lat="48.60989" lon="-2.26724">
        <ele>104</ele>
        <time>2021-07-30T11:54:20.000Z</time>
      </trkpt>
      <trkpt lat="48.60979" lon="-2.26721">
        <ele>104</ele>
        <time>2021-07-30T11:54:23.000Z</time>
      </trkpt>
      <trkpt lat="48.60964" lon="-2.26722">
        <ele>105</ele>
        <time>2021-07-30T11:54:26.000Z</time>
      </trkpt>
      <trkpt lat="48.60954" lon="-2.26725">
        <ele>106</ele>
        <time>2021-07-30T11:54:28.000Z</time>
      </trkpt>
      <trkpt lat="48.60943" lon="-2.26729">
        <ele>106</ele>
        <time>2021-07-30T11:54:30.000Z</time>
      </trkpt>
      <trkpt lat="48.60933" lon="-2.26732">
        <ele>105</ele>
        <time>2021-07-30T11:54:32.000Z</time>
      </trkpt>
      <trkpt lat="48.6092" lon="-2.26732">
        <ele>106</ele>
        <time>2021-07-30T11:54:36.000Z</time>
      </trkpt>
      <trkpt lat="48.60907" lon="-2.26732">
        <ele>106</ele>
        <time>2021-07-30T11:54:39.000Z</time>
      </trkpt>
      <trkpt lat="48.60897" lon="-2.26732">
        <ele>106</ele>
        <time>2021-07-30T11:54:42.000Z</time>
      </trkpt>
      <trkpt lat="48.60888" lon="-2.26738">
        <ele>105</ele>
        <time>2021-07-30T11:54:45.000Z</time>
      </trkpt>
      <trkpt lat="48.60877" lon="-2.26747">
        <ele>104</ele>
        <time>2021-07-30T11:54:48.000Z</time>
      </trkpt>
      <trkpt lat="48.60863" lon="-2.26752">
        <ele>105</ele>
        <time>2021-07-30T11:54:50.000Z</time>
      </trkpt>
      <trkpt lat="48.60852" lon="-2.26753">
        <ele>105</ele>
        <time>2021-07-30T11:54:52.000Z</time>
      </trkpt>
      <trkpt lat="48.60842" lon="-2.26755">
        <ele>104</ele>
        <time>2021-07-30T11:54:54.000Z</time>
      </trkpt>
      <trkpt lat="48.60833" lon="-2.26756">
        <ele>103</ele>
        <time>2021-07-30T11:54:56.000Z</time>
      </trkpt>
      <trkpt lat="48.60822" lon="-2.26758">
        <ele>104</ele>
        <time>2021-07-30T11:54:59.000Z</time>
      </trkpt>
      <trkpt lat="48.60812" lon="-2.26761">
        <ele>104</ele>
        <time>2021-07-30T11:55:03.000Z</time>
      </trkpt>
      <trkpt lat="48.60802" lon="-2.26765">
        <ele>104</ele>
        <time>2021-07-30T11:55:07.000Z</time>
      </trkpt>
      <trkpt lat="48.60795" lon="-2.26773">
        <ele>105</ele>
        <time>2021-07-30T11:55:12.000Z</time>
      </trkpt>
      <trkpt lat="48.60781" lon="-2.26782">
        <ele>105</ele>
        <time>2021-07-30T11:55:17.000Z</time>
      </trkpt>
      <trkpt lat="48.6077" lon="-2.26784">
        <ele>105</ele>
        <time>2021-07-30T11:55:21.000Z</time>
      </trkpt>
      <trkpt lat="48.60761" lon="-2.26788">
        <ele>107</ele>
        <time>2021-07-30T11:55:24.000Z</time>
      </trkpt>
      <trkpt lat="48.60751" lon="-2.26792">
        <ele>109</ele>
        <time>2021-07-30T11:55:27.000Z</time>
      </trkpt>
      <trkpt lat="48.6074" lon="-2.26796">
        <ele>108</ele>
        <time>2021-07-30T11:55:31.000Z</time>
      </trkpt>
      <trkpt lat="48.60731" lon="-2.26799">
        <ele>108</ele>
        <time>2021-07-30T11:55:36.000Z</time>
      </trkpt>
      <trkpt lat="48.60721" lon="-2.26803">
        <ele>108</ele>
        <time>2021-07-30T11:55:40.000Z</time>
      </trkpt>
      <trkpt lat="48.6071" lon="-2.26806">
        <ele>108</ele>
        <time>2021-07-30T11:55:44.000Z</time>
      </trkpt>
      <trkpt lat="48.607" lon="-2.26809">
        <ele>108</ele>
        <time>2021-07-30T11:55:47.000Z</time>
      </trkpt>
      <trkpt lat="48.60689" lon="-2.26813">
        <ele>108</ele>
        <time>2021-07-30T11:55:50.000Z</time>
      </trkpt>
      <trkpt lat="48.60677" lon="-2.26816">
        <ele>107</ele>
        <time>2021-07-30T11:55:53.000Z</time>
      </trkpt>
      <trkpt lat="48.60666" lon="-2.26822">
        <ele>107</ele>
        <time>2021-07-30T11:55:56.000Z</time>
      </trkpt>
      <trkpt lat="48.60658" lon="-2.26828">
        <ele>107</ele>
        <time>2021-07-30T11:55:58.000Z</time>
      </trkpt>
      <trkpt lat="48.60648" lon="-2.26831">
        <ele>107</ele>
        <time>2021-07-30T11:56:01.000Z</time>
      </trkpt>
      <trkpt lat="48.60635" lon="-2.26829">
        <ele>108</ele>
        <time>2021-07-30T11:56:05.000Z</time>
      </trkpt>
      <trkpt lat="48.60624" lon="-2.26829">
        <ele>108</ele>
        <time>2021-07-30T11:56:08.000Z</time>
      </trkpt>
      <trkpt lat="48.60614" lon="-2.26829">
        <ele>108</ele>
        <time>2021-07-30T11:56:11.000Z</time>
      </trkpt>
      <trkpt lat="48.60605" lon="-2.26833">
        <ele>109</ele>
        <time>2021-07-30T11:56:14.000Z</time>
      </trkpt>
      <trkpt lat="48.60595" lon="-2.26838">
        <ele>109</ele>
        <time>2021-07-30T11:56:17.000Z</time>
      </trkpt>
      <trkpt lat="48.60584" lon="-2.26845">
        <ele>110</ele>
        <time>2021-07-30T11:56:20.000Z</time>
      </trkpt>
      <trkpt lat="48.60573" lon="-2.26846">
        <ele>111</ele>
        <time>2021-07-30T11:56:23.000Z</time>
      </trkpt>
      <trkpt lat="48.60562" lon="-2.26848">
        <ele>110</ele>
        <time>2021-07-30T11:56:26.000Z</time>
      </trkpt>
      <trkpt lat="48.60552" lon="-2.26854">
        <ele>109</ele>
        <time>2021-07-30T11:56:30.000Z</time>
      </trkpt>
      <trkpt lat="48.6054" lon="-2.26858">
        <ele>104</ele>
        <time>2021-07-30T11:56:33.000Z</time>
      </trkpt>
      <trkpt lat="48.60533" lon="-2.2687">
        <ele>104</ele>
        <time>2021-07-30T11:56:36.000Z</time>
      </trkpt>
      <trkpt lat="48.60532" lon="-2.26884">
        <ele>103</ele>
        <time>2021-07-30T11:56:39.000Z</time>
      </trkpt>
      <trkpt lat="48.60535" lon="-2.269">
        <ele>103</ele>
        <time>2021-07-30T11:56:42.000Z</time>
      </trkpt>
      <trkpt lat="48.60538" lon="-2.26916">
        <ele>103</ele>
        <time>2021-07-30T11:56:45.000Z</time>
      </trkpt>
      <trkpt lat="48.6054" lon="-2.26933">
        <ele>102</ele>
        <time>2021-07-30T11:56:48.000Z</time>
      </trkpt>
      <trkpt lat="48.60542" lon="-2.26947">
        <ele>103</ele>
        <time>2021-07-30T11:56:50.000Z</time>
      </trkpt>
      <trkpt lat="48.60544" lon="-2.26961">
        <ele>102</ele>
        <time>2021-07-30T11:56:52.000Z</time>
      </trkpt>
      <trkpt lat="48.60547" lon="-2.26976">
        <ele>100</ele>
        <time>2021-07-30T11:56:54.000Z</time>
      </trkpt>
      <trkpt lat="48.6055" lon="-2.26993">
        <ele>101</ele>
        <time>2021-07-30T11:56:56.000Z</time>
      </trkpt>
      <trkpt lat="48.60552" lon="-2.27009">
        <ele>102</ele>
        <time>2021-07-30T11:56:58.000Z</time>
      </trkpt>
      <trkpt lat="48.60555" lon="-2.27026">
        <ele>102</ele>
        <time>2021-07-30T11:57:00.000Z</time>
      </trkpt>
      <trkpt lat="48.60561" lon="-2.2704">
        <ele>101</ele>
        <time>2021-07-30T11:57:02.000Z</time>
      </trkpt>
      <trkpt lat="48.60567" lon="-2.27055">
        <ele>101</ele>
        <time>2021-07-30T11:57:04.000Z</time>
      </trkpt>
      <trkpt lat="48.60572" lon="-2.27069">
        <ele>100</ele>
        <time>2021-07-30T11:57:06.000Z</time>
      </trkpt>
      <trkpt lat="48.60575" lon="-2.27082">
        <ele>101</ele>
        <time>2021-07-30T11:57:08.000Z</time>
      </trkpt>
      <trkpt lat="48.60579" lon="-2.27096">
        <ele>101</ele>
        <time>2021-07-30T11:57:10.000Z</time>
      </trkpt>
      <trkpt lat="48.60584" lon="-2.27111">
        <ele>101</ele>
        <time>2021-07-30T11:57:12.000Z</time>
      </trkpt>
      <trkpt lat="48.60588" lon="-2.27127">
        <ele>101</ele>
        <time>2021-07-30T11:57:15.000Z</time>
      </trkpt>
      <trkpt lat="48.60594" lon="-2.27144">
        <ele>101</ele>
        <time>2021-07-30T11:57:18.000Z</time>
      </trkpt>
      <trkpt lat="48.60603" lon="-2.27157">
        <ele>101</ele>
        <time>2021-07-30T11:57:21.000Z</time>
      </trkpt>
      <trkpt lat="48.60612" lon="-2.27165">
        <ele>101</ele>
        <time>2021-07-30T11:57:25.000Z</time>
      </trkpt>
      <trkpt lat="48.60623" lon="-2.27174">
        <ele>101</ele>
        <time>2021-07-30T11:57:30.000Z</time>
      </trkpt>
      <trkpt lat="48.60633" lon="-2.27178">
        <ele>101</ele>
        <time>2021-07-30T11:57:33.000Z</time>
      </trkpt>
      <trkpt lat="48.60637" lon="-2.27192">
        <ele>102</ele>
        <time>2021-07-30T11:57:43.000Z</time>
      </trkpt>
      <trkpt lat="48.6063" lon="-2.27207">
        <ele>102</ele>
        <time>2021-07-30T11:57:47.000Z</time>
      </trkpt>
      <trkpt lat="48.60625" lon="-2.27219">
        <ele>102</ele>
        <time>2021-07-30T11:57:50.000Z</time>
      </trkpt>
      <trkpt lat="48.60621" lon="-2.27233">
        <ele>103</ele>
        <time>2021-07-30T11:57:53.000Z</time>
      </trkpt>
      <trkpt lat="48.60616" lon="-2.27245">
        <ele>103</ele>
        <time>2021-07-30T11:57:56.000Z</time>
      </trkpt>
      <trkpt lat="48.60607" lon="-2.2726">
        <ele>102</ele>
        <time>2021-07-30T11:57:58.000Z</time>
      </trkpt>
      <trkpt lat="48.60595" lon="-2.27277">
        <ele>101</ele>
        <time>2021-07-30T11:58:00.000Z</time>
      </trkpt>
      <trkpt lat="48.60587" lon="-2.27291">
        <ele>100</ele>
        <time>2021-07-30T11:58:02.000Z</time>
      </trkpt>
      <trkpt lat="48.60579" lon="-2.27302">
        <ele>100</ele>
        <time>2021-07-30T11:58:04.000Z</time>
      </trkpt>
      <trkpt lat="48.60572" lon="-2.27316">
        <ele>100</ele>
        <time>2021-07-30T11:58:06.000Z</time>
      </trkpt>
      <trkpt lat="48.60564" lon="-2.2733">
        <ele>99</ele>
        <time>2021-07-30T11:58:08.000Z</time>
      </trkpt>
      <trkpt lat="48.60555" lon="-2.27343">
        <ele>99</ele>
        <time>2021-07-30T11:58:10.000Z</time>
      </trkpt>
      <trkpt lat="48.60548" lon="-2.27357">
        <ele>99</ele>
        <time>2021-07-30T11:58:12.000Z</time>
      </trkpt>
      <trkpt lat="48.6054" lon="-2.27371">
        <ele>99</ele>
        <time>2021-07-30T11:58:14.000Z</time>
      </trkpt>
      <trkpt lat="48.60533" lon="-2.27385">
        <ele>99</ele>
        <time>2021-07-30T11:58:16.000Z</time>
      </trkpt>
      <trkpt lat="48.60525" lon="-2.27397">
        <ele>99</ele>
        <time>2021-07-30T11:58:18.000Z</time>
      </trkpt>
      <trkpt lat="48.60518" lon="-2.27409">
        <ele>98</ele>
        <time>2021-07-30T11:58:20.000Z</time>
      </trkpt>
      <trkpt lat="48.6051" lon="-2.27422">
        <ele>98</ele>
        <time>2021-07-30T11:58:22.000Z</time>
      </trkpt>
      <trkpt lat="48.60504" lon="-2.27437">
        <ele>98</ele>
        <time>2021-07-30T11:58:24.000Z</time>
      </trkpt>
      <trkpt lat="48.605" lon="-2.27452">
        <ele>97</ele>
        <time>2021-07-30T11:58:26.000Z</time>
      </trkpt>
      <trkpt lat="48.60493" lon="-2.27469">
        <ele>97</ele>
        <time>2021-07-30T11:58:28.000Z</time>
      </trkpt>
      <trkpt lat="48.60485" lon="-2.27487">
        <ele>97</ele>
        <time>2021-07-30T11:58:30.000Z</time>
      </trkpt>
      <trkpt lat="48.60479" lon="-2.27504">
        <ele>97</ele>
        <time>2021-07-30T11:58:32.000Z</time>
      </trkpt>
      <trkpt lat="48.60473" lon="-2.2752">
        <ele>97</ele>
        <time>2021-07-30T11:58:34.000Z</time>
      </trkpt>
      <trkpt lat="48.6047" lon="-2.27533">
        <ele>96</ele>
        <time>2021-07-30T11:58:36.000Z</time>
      </trkpt>
      <trkpt lat="48.60466" lon="-2.27549">
        <ele>96</ele>
        <time>2021-07-30T11:58:38.000Z</time>
      </trkpt>
      <trkpt lat="48.60461" lon="-2.27565">
        <ele>96</ele>
        <time>2021-07-30T11:58:40.000Z</time>
      </trkpt>
      <trkpt lat="48.60456" lon="-2.27582">
        <ele>96</ele>
        <time>2021-07-30T11:58:42.000Z</time>
      </trkpt>
      <trkpt lat="48.60452" lon="-2.27602">
        <ele>95</ele>
        <time>2021-07-30T11:58:44.000Z</time>
      </trkpt>
      <trkpt lat="48.60447" lon="-2.27622">
        <ele>95</ele>
        <time>2021-07-30T11:58:46.000Z</time>
      </trkpt>
      <trkpt lat="48.60444" lon="-2.27644">
        <ele>94</ele>
        <time>2021-07-30T11:58:48.000Z</time>
      </trkpt>
      <trkpt lat="48.60441" lon="-2.27667">
        <ele>95</ele>
        <time>2021-07-30T11:58:50.000Z</time>
      </trkpt>
      <trkpt lat="48.60437" lon="-2.2769">
        <ele>95</ele>
        <time>2021-07-30T11:58:52.000Z</time>
      </trkpt>
      <trkpt lat="48.60434" lon="-2.27713">
        <ele>95</ele>
        <time>2021-07-30T11:58:54.000Z</time>
      </trkpt>
      <trkpt lat="48.6043" lon="-2.27735">
        <ele>95</ele>
        <time>2021-07-30T11:58:56.000Z</time>
      </trkpt>
      <trkpt lat="48.60429" lon="-2.27754">
        <ele>94</ele>
        <time>2021-07-30T11:58:58.000Z</time>
      </trkpt>
      <trkpt lat="48.60426" lon="-2.27777">
        <ele>93</ele>
        <time>2021-07-30T11:59:00.000Z</time>
      </trkpt>
      <trkpt lat="48.60425" lon="-2.27799">
        <ele>92</ele>
        <time>2021-07-30T11:59:02.000Z</time>
      </trkpt>
      <trkpt lat="48.60422" lon="-2.27821">
        <ele>92</ele>
        <time>2021-07-30T11:59:04.000Z</time>
      </trkpt>
      <trkpt lat="48.60418" lon="-2.27847">
        <ele>91</ele>
        <time>2021-07-30T11:59:06.000Z</time>
      </trkpt>
      <trkpt lat="48.60415" lon="-2.2787">
        <ele>91</ele>
        <time>2021-07-30T11:59:08.000Z</time>
      </trkpt>
      <trkpt lat="48.60412" lon="-2.2789">
        <ele>91</ele>
        <time>2021-07-30T11:59:10.000Z</time>
      </trkpt>
      <trkpt lat="48.60409" lon="-2.27912">
        <ele>91</ele>
        <time>2021-07-30T11:59:12.000Z</time>
      </trkpt>
      <trkpt lat="48.60406" lon="-2.27933">
        <ele>91</ele>
        <time>2021-07-30T11:59:14.000Z</time>
      </trkpt>
      <trkpt lat="48.60405" lon="-2.27952">
        <ele>90</ele>
        <time>2021-07-30T11:59:16.000Z</time>
      </trkpt>
      <trkpt lat="48.60402" lon="-2.27971">
        <ele>90</ele>
        <time>2021-07-30T11:59:18.000Z</time>
      </trkpt>
      <trkpt lat="48.60399" lon="-2.27991">
        <ele>90</ele>
        <time>2021-07-30T11:59:20.000Z</time>
      </trkpt>
      <trkpt lat="48.60393" lon="-2.28003">
        <ele>90</ele>
        <time>2021-07-30T11:59:21.000Z</time>
      </trkpt>
      <trkpt lat="48.60387" lon="-2.28022">
        <ele>90</ele>
        <time>2021-07-30T11:59:23.000Z</time>
      </trkpt>
      <trkpt lat="48.60387" lon="-2.28042">
        <ele>90</ele>
        <time>2021-07-30T11:59:25.000Z</time>
      </trkpt>
      <trkpt lat="48.60383" lon="-2.28062">
        <ele>89</ele>
        <time>2021-07-30T11:59:27.000Z</time>
      </trkpt>
      <trkpt lat="48.60367" lon="-2.28096">
        <ele>90</ele>
        <time>2021-07-30T11:59:30.000Z</time>
      </trkpt>
      <trkpt lat="48.60363" lon="-2.28125">
        <ele>89</ele>
        <time>2021-07-30T11:59:32.000Z</time>
      </trkpt>
      <trkpt lat="48.60361" lon="-2.28145">
        <ele>89</ele>
        <time>2021-07-30T11:59:34.000Z</time>
      </trkpt>
      <trkpt lat="48.60358" lon="-2.28166">
        <ele>89</ele>
        <time>2021-07-30T11:59:36.000Z</time>
      </trkpt>
      <trkpt lat="48.60353" lon="-2.28184">
        <ele>89</ele>
        <time>2021-07-30T11:59:38.000Z</time>
      </trkpt>
      <trkpt lat="48.60348" lon="-2.28205">
        <ele>87</ele>
        <time>2021-07-30T11:59:40.000Z</time>
      </trkpt>
      <trkpt lat="48.60341" lon="-2.28229">
        <ele>87</ele>
        <time>2021-07-30T11:59:43.000Z</time>
      </trkpt>
      <trkpt lat="48.60335" lon="-2.28247">
        <ele>85</ele>
        <time>2021-07-30T11:59:45.000Z</time>
      </trkpt>
      <trkpt lat="48.60329" lon="-2.28264">
        <ele>86</ele>
        <time>2021-07-30T11:59:47.000Z</time>
      </trkpt>
      <trkpt lat="48.60324" lon="-2.28279">
        <ele>87</ele>
        <time>2021-07-30T11:59:49.000Z</time>
      </trkpt>
      <trkpt lat="48.60317" lon="-2.28295">
        <ele>88</ele>
        <time>2021-07-30T11:59:51.000Z</time>
      </trkpt>
      <trkpt lat="48.6031" lon="-2.2831">
        <ele>89</ele>
        <time>2021-07-30T11:59:53.000Z</time>
      </trkpt>
      <trkpt lat="48.60304" lon="-2.28324">
        <ele>89</ele>
        <time>2021-07-30T11:59:55.000Z</time>
      </trkpt>
      <trkpt lat="48.60297" lon="-2.28337">
        <ele>88</ele>
        <time>2021-07-30T11:59:57.000Z</time>
      </trkpt>
      <trkpt lat="48.6029" lon="-2.28352">
        <ele>88</ele>
        <time>2021-07-30T11:59:59.000Z</time>
      </trkpt>
      <trkpt lat="48.60282" lon="-2.28364">
        <ele>89</ele>
        <time>2021-07-30T12:00:01.000Z</time>
      </trkpt>
      <trkpt lat="48.60274" lon="-2.28377">
        <ele>89</ele>
        <time>2021-07-30T12:00:03.000Z</time>
      </trkpt>
      <trkpt lat="48.60267" lon="-2.28389">
        <ele>89</ele>
        <time>2021-07-30T12:00:05.000Z</time>
      </trkpt>
      <trkpt lat="48.6026" lon="-2.28401">
        <ele>90</ele>
        <time>2021-07-30T12:00:07.000Z</time>
      </trkpt>
      <trkpt lat="48.60253" lon="-2.28413">
        <ele>91</ele>
        <time>2021-07-30T12:00:09.000Z</time>
      </trkpt>
      <trkpt lat="48.60246" lon="-2.28423">
        <ele>92</ele>
        <time>2021-07-30T12:00:11.000Z</time>
      </trkpt>
      <trkpt lat="48.60238" lon="-2.28433">
        <ele>92</ele>
        <time>2021-07-30T12:00:13.000Z</time>
      </trkpt>
      <trkpt lat="48.6023" lon="-2.28442">
        <ele>93</ele>
        <time>2021-07-30T12:00:15.000Z</time>
      </trkpt>
      <trkpt lat="48.60222" lon="-2.28452">
        <ele>93</ele>
        <time>2021-07-30T12:00:17.000Z</time>
      </trkpt>
      <trkpt lat="48.60214" lon="-2.28461">
        <ele>94</ele>
        <time>2021-07-30T12:00:19.000Z</time>
      </trkpt>
      <trkpt lat="48.60206" lon="-2.28471">
        <ele>94</ele>
        <time>2021-07-30T12:00:21.000Z</time>
      </trkpt>
      <trkpt lat="48.60198" lon="-2.2848">
        <ele>95</ele>
        <time>2021-07-30T12:00:23.000Z</time>
      </trkpt>
      <trkpt lat="48.6019" lon="-2.28489">
        <ele>95</ele>
        <time>2021-07-30T12:00:25.000Z</time>
      </trkpt>
      <trkpt lat="48.60182" lon="-2.28496">
        <ele>96</ele>
        <time>2021-07-30T12:00:27.000Z</time>
      </trkpt>
      <trkpt lat="48.60175" lon="-2.28505">
        <ele>97</ele>
        <time>2021-07-30T12:00:29.000Z</time>
      </trkpt>
      <trkpt lat="48.60167" lon="-2.28514">
        <ele>98</ele>
        <time>2021-07-30T12:00:31.000Z</time>
      </trkpt>
      <trkpt lat="48.6016" lon="-2.28522">
        <ele>99</ele>
        <time>2021-07-30T12:00:33.000Z</time>
      </trkpt>
      <trkpt lat="48.60148" lon="-2.28534">
        <ele>100</ele>
        <time>2021-07-30T12:00:36.000Z</time>
      </trkpt>
      <trkpt lat="48.6014" lon="-2.28541">
        <ele>100</ele>
        <time>2021-07-30T12:00:38.000Z</time>
      </trkpt>
      <trkpt lat="48.60132" lon="-2.28549">
        <ele>101</ele>
        <time>2021-07-30T12:00:40.000Z</time>
      </trkpt>
      <trkpt lat="48.60125" lon="-2.28557">
        <ele>101</ele>
        <time>2021-07-30T12:00:42.000Z</time>
      </trkpt>
      <trkpt lat="48.60115" lon="-2.2857">
        <ele>100</ele>
        <time>2021-07-30T12:00:45.000Z</time>
      </trkpt>
      <trkpt lat="48.601" lon="-2.28583">
        <ele>100</ele>
        <time>2021-07-30T12:00:49.000Z</time>
      </trkpt>
      <trkpt lat="48.60089" lon="-2.28593">
        <ele>100</ele>
        <time>2021-07-30T12:00:52.000Z</time>
      </trkpt>
      <trkpt lat="48.60079" lon="-2.28605">
        <ele>100</ele>
        <time>2021-07-30T12:00:55.000Z</time>
      </trkpt>
      <trkpt lat="48.60069" lon="-2.28616">
        <ele>100</ele>
        <time>2021-07-30T12:00:58.000Z</time>
      </trkpt>
      <trkpt lat="48.60059" lon="-2.28626">
        <ele>100</ele>
        <time>2021-07-30T12:01:01.000Z</time>
      </trkpt>
      <trkpt lat="48.60052" lon="-2.28635">
        <ele>100</ele>
        <time>2021-07-30T12:01:03.000Z</time>
      </trkpt>
      <trkpt lat="48.60042" lon="-2.28646">
        <ele>100</ele>
        <time>2021-07-30T12:01:06.000Z</time>
      </trkpt>
      <trkpt lat="48.60031" lon="-2.28658">
        <ele>101</ele>
        <time>2021-07-30T12:01:09.000Z</time>
      </trkpt>
      <trkpt lat="48.60024" lon="-2.28671">
        <ele>102</ele>
        <time>2021-07-30T12:01:12.000Z</time>
      </trkpt>
      <trkpt lat="48.60015" lon="-2.28682">
        <ele>102</ele>
        <time>2021-07-30T12:01:15.000Z</time>
      </trkpt>
      <trkpt lat="48.60003" lon="-2.28687">
        <ele>102</ele>
        <time>2021-07-30T12:01:18.000Z</time>
      </trkpt>
      <trkpt lat="48.5999" lon="-2.28689">
        <ele>102</ele>
        <time>2021-07-30T12:01:21.000Z</time>
      </trkpt>
      <trkpt lat="48.5998" lon="-2.2869">
        <ele>102</ele>
        <time>2021-07-30T12:01:23.000Z</time>
      </trkpt>
      <trkpt lat="48.5997" lon="-2.28696">
        <ele>101</ele>
        <time>2021-07-30T12:01:26.000Z</time>
      </trkpt>
      <trkpt lat="48.59964" lon="-2.28708">
        <ele>101</ele>
        <time>2021-07-30T12:01:28.000Z</time>
      </trkpt>
      <trkpt lat="48.59965" lon="-2.28722">
        <ele>101</ele>
        <time>2021-07-30T12:01:30.000Z</time>
      </trkpt>
      <trkpt lat="48.59967" lon="-2.28743">
        <ele>101</ele>
        <time>2021-07-30T12:01:33.000Z</time>
      </trkpt>
      <trkpt lat="48.59963" lon="-2.28757">
        <ele>102</ele>
        <time>2021-07-30T12:01:35.000Z</time>
      </trkpt>
      <trkpt lat="48.59955" lon="-2.28767">
        <ele>102</ele>
        <time>2021-07-30T12:01:37.000Z</time>
      </trkpt>
      <trkpt lat="48.59946" lon="-2.28781">
        <ele>103</ele>
        <time>2021-07-30T12:01:40.000Z</time>
      </trkpt>
      <trkpt lat="48.5994" lon="-2.28791">
        <ele>103</ele>
        <time>2021-07-30T12:01:42.000Z</time>
      </trkpt>
      <trkpt lat="48.59935" lon="-2.28803">
        <ele>103</ele>
        <time>2021-07-30T12:01:44.000Z</time>
      </trkpt>
      <trkpt lat="48.59927" lon="-2.28819">
        <ele>104</ele>
        <time>2021-07-30T12:01:47.000Z</time>
      </trkpt>
      <trkpt lat="48.5992" lon="-2.28835">
        <ele>105</ele>
        <time>2021-07-30T12:01:50.000Z</time>
      </trkpt>
      <trkpt lat="48.59912" lon="-2.28848">
        <ele>105</ele>
        <time>2021-07-30T12:01:53.000Z</time>
      </trkpt>
      <trkpt lat="48.59905" lon="-2.28865">
        <ele>106</ele>
        <time>2021-07-30T12:01:56.000Z</time>
      </trkpt>
      <trkpt lat="48.59899" lon="-2.28875">
        <ele>106</ele>
        <time>2021-07-30T12:01:58.000Z</time>
      </trkpt>
      <trkpt lat="48.59893" lon="-2.28885">
        <ele>106</ele>
        <time>2021-07-30T12:02:00.000Z</time>
      </trkpt>
      <trkpt lat="48.59886" lon="-2.28895">
        <ele>106</ele>
        <time>2021-07-30T12:02:02.000Z</time>
      </trkpt>
      <trkpt lat="48.59879" lon="-2.28907">
        <ele>107</ele>
        <time>2021-07-30T12:02:05.000Z</time>
      </trkpt>
      <trkpt lat="48.5987" lon="-2.2892">
        <ele>108</ele>
        <time>2021-07-30T12:02:08.000Z</time>
      </trkpt>
      <trkpt lat="48.59858" lon="-2.28918">
        <ele>108</ele>
        <time>2021-07-30T12:02:11.000Z</time>
      </trkpt>
      <trkpt lat="48.59848" lon="-2.28919">
        <ele>109</ele>
        <time>2021-07-30T12:02:13.000Z</time>
      </trkpt>
      <trkpt lat="48.59839" lon="-2.28929">
        <ele>109</ele>
        <time>2021-07-30T12:02:16.000Z</time>
      </trkpt>
      <trkpt lat="48.59829" lon="-2.28933">
        <ele>110</ele>
        <time>2021-07-30T12:02:18.000Z</time>
      </trkpt>
      <trkpt lat="48.59818" lon="-2.28944">
        <ele>110</ele>
        <time>2021-07-30T12:02:21.000Z</time>
      </trkpt>
      <trkpt lat="48.59806" lon="-2.28953">
        <ele>112</ele>
        <time>2021-07-30T12:02:24.000Z</time>
      </trkpt>
      <trkpt lat="48.59797" lon="-2.28957">
        <ele>114</ele>
        <time>2021-07-30T12:02:26.000Z</time>
      </trkpt>
      <trkpt lat="48.59784" lon="-2.28959">
        <ele>114</ele>
        <time>2021-07-30T12:02:29.000Z</time>
      </trkpt>
      <trkpt lat="48.59771" lon="-2.28961">
        <ele>114</ele>
        <time>2021-07-30T12:02:32.000Z</time>
      </trkpt>
      <trkpt lat="48.59758" lon="-2.28964">
        <ele>114</ele>
        <time>2021-07-30T12:02:35.000Z</time>
      </trkpt>
      <trkpt lat="48.59745" lon="-2.28966">
        <ele>116</ele>
        <time>2021-07-30T12:02:38.000Z</time>
      </trkpt>
      <trkpt lat="48.59733" lon="-2.28967">
        <ele>117</ele>
        <time>2021-07-30T12:02:41.000Z</time>
      </trkpt>
      <trkpt lat="48.59721" lon="-2.2897">
        <ele>117</ele>
        <time>2021-07-30T12:02:44.000Z</time>
      </trkpt>
      <trkpt lat="48.59711" lon="-2.28973">
        <ele>116</ele>
        <time>2021-07-30T12:02:48.000Z</time>
      </trkpt>
      <trkpt lat="48.59698" lon="-2.28975">
        <ele>117</ele>
        <time>2021-07-30T12:02:52.000Z</time>
      </trkpt>
      <trkpt lat="48.59687" lon="-2.28972">
        <ele>115</ele>
        <time>2021-07-30T12:02:55.000Z</time>
      </trkpt>
      <trkpt lat="48.59677" lon="-2.28966">
        <ele>116</ele>
        <time>2021-07-30T12:02:58.000Z</time>
      </trkpt>
      <trkpt lat="48.59666" lon="-2.28962">
        <ele>116</ele>
        <time>2021-07-30T12:03:01.000Z</time>
      </trkpt>
      <trkpt lat="48.59655" lon="-2.28957">
        <ele>115</ele>
        <time>2021-07-30T12:03:04.000Z</time>
      </trkpt>
      <trkpt lat="48.59645" lon="-2.28951">
        <ele>115</ele>
        <time>2021-07-30T12:03:07.000Z</time>
      </trkpt>
      <trkpt lat="48.59635" lon="-2.28944">
        <ele>115</ele>
        <time>2021-07-30T12:03:10.000Z</time>
      </trkpt>
      <trkpt lat="48.59625" lon="-2.28939">
        <ele>115</ele>
        <time>2021-07-30T12:03:13.000Z</time>
      </trkpt>
      <trkpt lat="48.59615" lon="-2.28933">
        <ele>115</ele>
        <time>2021-07-30T12:03:16.000Z</time>
      </trkpt>
      <trkpt lat="48.59605" lon="-2.28928">
        <ele>115</ele>
        <time>2021-07-30T12:03:19.000Z</time>
      </trkpt>
      <trkpt lat="48.59595" lon="-2.28922">
        <ele>115</ele>
        <time>2021-07-30T12:03:22.000Z</time>
      </trkpt>
      <trkpt lat="48.59585" lon="-2.28921">
        <ele>115</ele>
        <time>2021-07-30T12:03:25.000Z</time>
      </trkpt>
      <trkpt lat="48.59579" lon="-2.2891">
        <ele>116</ele>
        <time>2021-07-30T12:03:28.000Z</time>
      </trkpt>
      <trkpt lat="48.59574" lon="-2.28894">
        <ele>116</ele>
        <time>2021-07-30T12:03:31.000Z</time>
      </trkpt>
      <trkpt lat="48.59571" lon="-2.28879">
        <ele>115</ele>
        <time>2021-07-30T12:03:34.000Z</time>
      </trkpt>
      <trkpt lat="48.59564" lon="-2.28863">
        <ele>118</ele>
        <time>2021-07-30T12:03:37.000Z</time>
      </trkpt>
      <trkpt lat="48.59562" lon="-2.2885">
        <ele>118</ele>
        <time>2021-07-30T12:03:39.000Z</time>
      </trkpt>
      <trkpt lat="48.59558" lon="-2.28834">
        <ele>118</ele>
        <time>2021-07-30T12:03:42.000Z</time>
      </trkpt>
      <trkpt lat="48.59553" lon="-2.2882">
        <ele>117</ele>
        <time>2021-07-30T12:03:45.000Z</time>
      </trkpt>
      <trkpt lat="48.59549" lon="-2.28804">
        <ele>117</ele>
        <time>2021-07-30T12:03:48.000Z</time>
      </trkpt>
      <trkpt lat="48.59541" lon="-2.28787">
        <ele>116</ele>
        <time>2021-07-30T12:03:51.000Z</time>
      </trkpt>
      <trkpt lat="48.59536" lon="-2.2877">
        <ele>117</ele>
        <time>2021-07-30T12:03:54.000Z</time>
      </trkpt>
      <trkpt lat="48.59527" lon="-2.2875">
        <ele>117</ele>
        <time>2021-07-30T12:03:58.000Z</time>
      </trkpt>
      <trkpt lat="48.59521" lon="-2.28733">
        <ele>118</ele>
        <time>2021-07-30T12:04:01.000Z</time>
      </trkpt>
      <trkpt lat="48.59515" lon="-2.28722">
        <ele>119</ele>
        <time>2021-07-30T12:04:03.000Z</time>
      </trkpt>
      <trkpt lat="48.5951" lon="-2.28707">
        <ele>119</ele>
        <time>2021-07-30T12:04:06.000Z</time>
      </trkpt>
      <trkpt lat="48.59503" lon="-2.28693">
        <ele>120</ele>
        <time>2021-07-30T12:04:09.000Z</time>
      </trkpt>
      <trkpt lat="48.59497" lon="-2.2868">
        <ele>120</ele>
        <time>2021-07-30T12:04:12.000Z</time>
      </trkpt>
      <trkpt lat="48.59489" lon="-2.28668">
        <ele>119</ele>
        <time>2021-07-30T12:04:15.000Z</time>
      </trkpt>
      <trkpt lat="48.59483" lon="-2.28657">
        <ele>118</ele>
        <time>2021-07-30T12:04:18.000Z</time>
      </trkpt>
      <trkpt lat="48.59476" lon="-2.28646">
        <ele>117</ele>
        <time>2021-07-30T12:04:20.000Z</time>
      </trkpt>
      <trkpt lat="48.59467" lon="-2.28634">
        <ele>117</ele>
        <time>2021-07-30T12:04:23.000Z</time>
      </trkpt>
      <trkpt lat="48.59457" lon="-2.28622">
        <ele>118</ele>
        <time>2021-07-30T12:04:26.000Z</time>
      </trkpt>
      <trkpt lat="48.5945" lon="-2.28611">
        <ele>117</ele>
        <time>2021-07-30T12:04:29.000Z</time>
      </trkpt>
      <trkpt lat="48.59444" lon="-2.28593">
        <ele>117</ele>
        <time>2021-07-30T12:04:32.000Z</time>
      </trkpt>
      <trkpt lat="48.59441" lon="-2.28578">
        <ele>118</ele>
        <time>2021-07-30T12:04:34.000Z</time>
      </trkpt>
      <trkpt lat="48.59437" lon="-2.28565">
        <ele>119</ele>
        <time>2021-07-30T12:04:36.000Z</time>
      </trkpt>
      <trkpt lat="48.59435" lon="-2.28552">
        <ele>118</ele>
        <time>2021-07-30T12:04:38.000Z</time>
      </trkpt>
      <trkpt lat="48.59432" lon="-2.28537">
        <ele>119</ele>
        <time>2021-07-30T12:04:40.000Z</time>
      </trkpt>
      <trkpt lat="48.59429" lon="-2.28522">
        <ele>118</ele>
        <time>2021-07-30T12:04:42.000Z</time>
      </trkpt>
      <trkpt lat="48.59425" lon="-2.28506">
        <ele>118</ele>
        <time>2021-07-30T12:04:44.000Z</time>
      </trkpt>
      <trkpt lat="48.5942" lon="-2.28489">
        <ele>118</ele>
        <time>2021-07-30T12:04:46.000Z</time>
      </trkpt>
      <trkpt lat="48.59415" lon="-2.28473">
        <ele>117</ele>
        <time>2021-07-30T12:04:48.000Z</time>
      </trkpt>
      <trkpt lat="48.5941" lon="-2.28455">
        <ele>116</ele>
        <time>2021-07-30T12:04:50.000Z</time>
      </trkpt>
      <trkpt lat="48.59408" lon="-2.28436">
        <ele>116</ele>
        <time>2021-07-30T12:04:52.000Z</time>
      </trkpt>
      <trkpt lat="48.59402" lon="-2.28419">
        <ele>115</ele>
        <time>2021-07-30T12:04:54.000Z</time>
      </trkpt>
      <trkpt lat="48.59395" lon="-2.28402">
        <ele>115</ele>
        <time>2021-07-30T12:04:56.000Z</time>
      </trkpt>
      <trkpt lat="48.5939" lon="-2.28382">
        <ele>115</ele>
        <time>2021-07-30T12:04:58.000Z</time>
      </trkpt>
      <trkpt lat="48.59387" lon="-2.28362">
        <ele>115</ele>
        <time>2021-07-30T12:05:00.000Z</time>
      </trkpt>
      <trkpt lat="48.59384" lon="-2.28339">
        <ele>116</ele>
        <time>2021-07-30T12:05:02.000Z</time>
      </trkpt>
      <trkpt lat="48.5938" lon="-2.28318">
        <ele>117</ele>
        <time>2021-07-30T12:05:04.000Z</time>
      </trkpt>
      <trkpt lat="48.59376" lon="-2.28297">
        <ele>117</ele>
        <time>2021-07-30T12:05:06.000Z</time>
      </trkpt>
      <trkpt lat="48.59373" lon="-2.28276">
        <ele>117</ele>
        <time>2021-07-30T12:05:08.000Z</time>
      </trkpt>
      <trkpt lat="48.5937" lon="-2.28257">
        <ele>117</ele>
        <time>2021-07-30T12:05:10.000Z</time>
      </trkpt>
      <trkpt lat="48.59367" lon="-2.28237">
        <ele>117</ele>
        <time>2021-07-30T12:05:12.000Z</time>
      </trkpt>
      <trkpt lat="48.59365" lon="-2.28217">
        <ele>117</ele>
        <time>2021-07-30T12:05:14.000Z</time>
      </trkpt>
      <trkpt lat="48.59361" lon="-2.28197">
        <ele>117</ele>
        <time>2021-07-30T12:05:16.000Z</time>
      </trkpt>
      <trkpt lat="48.59358" lon="-2.28177">
        <ele>116</ele>
        <time>2021-07-30T12:05:18.000Z</time>
      </trkpt>
      <trkpt lat="48.59356" lon="-2.28157">
        <ele>116</ele>
        <time>2021-07-30T12:05:20.000Z</time>
      </trkpt>
      <trkpt lat="48.59354" lon="-2.28137">
        <ele>116</ele>
        <time>2021-07-30T12:05:22.000Z</time>
      </trkpt>
      <trkpt lat="48.59353" lon="-2.28116">
        <ele>115</ele>
        <time>2021-07-30T12:05:24.000Z</time>
      </trkpt>
      <trkpt lat="48.59353" lon="-2.28095">
        <ele>115</ele>
        <time>2021-07-30T12:05:26.000Z</time>
      </trkpt>
      <trkpt lat="48.59353" lon="-2.28074">
        <ele>114</ele>
        <time>2021-07-30T12:05:28.000Z</time>
      </trkpt>
      <trkpt lat="48.59353" lon="-2.28052">
        <ele>115</ele>
        <time>2021-07-30T12:05:30.000Z</time>
      </trkpt>
      <trkpt lat="48.59353" lon="-2.2803">
        <ele>115</ele>
        <time>2021-07-30T12:05:32.000Z</time>
      </trkpt>
      <trkpt lat="48.59353" lon="-2.28007">
        <ele>114</ele>
        <time>2021-07-30T12:05:34.000Z</time>
      </trkpt>
      <trkpt lat="48.59352" lon="-2.27985">
        <ele>114</ele>
        <time>2021-07-30T12:05:36.000Z</time>
      </trkpt>
      <trkpt lat="48.59351" lon="-2.27963">
        <ele>115</ele>
        <time>2021-07-30T12:05:38.000Z</time>
      </trkpt>
      <trkpt lat="48.59352" lon="-2.27941">
        <ele>114</ele>
        <time>2021-07-30T12:05:40.000Z</time>
      </trkpt>
      <trkpt lat="48.59352" lon="-2.2792">
        <ele>114</ele>
        <time>2021-07-30T12:05:42.000Z</time>
      </trkpt>
      <trkpt lat="48.59352" lon="-2.279">
        <ele>114</ele>
        <time>2021-07-30T12:05:44.000Z</time>
      </trkpt>
      <trkpt lat="48.59352" lon="-2.2788">
        <ele>114</ele>
        <time>2021-07-30T12:05:46.000Z</time>
      </trkpt>
      <trkpt lat="48.59352" lon="-2.2786">
        <ele>114</ele>
        <time>2021-07-30T12:05:48.000Z</time>
      </trkpt>
      <trkpt lat="48.59351" lon="-2.27839">
        <ele>114</ele>
        <time>2021-07-30T12:05:50.000Z</time>
      </trkpt>
      <trkpt lat="48.59349" lon="-2.27819">
        <ele>114</ele>
        <time>2021-07-30T12:05:52.000Z</time>
      </trkpt>
      <trkpt lat="48.59347" lon="-2.27798">
        <ele>115</ele>
        <time>2021-07-30T12:05:54.000Z</time>
      </trkpt>
      <trkpt lat="48.59344" lon="-2.27778">
        <ele>116</ele>
        <time>2021-07-30T12:05:56.000Z</time>
      </trkpt>
      <trkpt lat="48.5934" lon="-2.2776">
        <ele>116</ele>
        <time>2021-07-30T12:05:58.000Z</time>
      </trkpt>
      <trkpt lat="48.59336" lon="-2.27741">
        <ele>116</ele>
        <time>2021-07-30T12:06:00.000Z</time>
      </trkpt>
      <trkpt lat="48.59332" lon="-2.27722">
        <ele>116</ele>
        <time>2021-07-30T12:06:02.000Z</time>
      </trkpt>
      <trkpt lat="48.59326" lon="-2.27694">
        <ele>115</ele>
        <time>2021-07-30T12:06:05.000Z</time>
      </trkpt>
      <trkpt lat="48.5932" lon="-2.27675">
        <ele>116</ele>
        <time>2021-07-30T12:06:07.000Z</time>
      </trkpt>
      <trkpt lat="48.59316" lon="-2.27657">
        <ele>115</ele>
        <time>2021-07-30T12:06:09.000Z</time>
      </trkpt>
      <trkpt lat="48.5931" lon="-2.2764">
        <ele>116</ele>
        <time>2021-07-30T12:06:11.000Z</time>
      </trkpt>
      <trkpt lat="48.59305" lon="-2.27623">
        <ele>116</ele>
        <time>2021-07-30T12:06:13.000Z</time>
      </trkpt>
      <trkpt lat="48.59302" lon="-2.27604">
        <ele>116</ele>
        <time>2021-07-30T12:06:15.000Z</time>
      </trkpt>
      <trkpt lat="48.59296" lon="-2.27587">
        <ele>116</ele>
        <time>2021-07-30T12:06:17.000Z</time>
      </trkpt>
      <trkpt lat="48.59291" lon="-2.2757">
        <ele>116</ele>
        <time>2021-07-30T12:06:19.000Z</time>
      </trkpt>
      <trkpt lat="48.59286" lon="-2.27552">
        <ele>116</ele>
        <time>2021-07-30T12:06:21.000Z</time>
      </trkpt>
      <trkpt lat="48.59282" lon="-2.27533">
        <ele>116</ele>
        <time>2021-07-30T12:06:23.000Z</time>
      </trkpt>
      <trkpt lat="48.59279" lon="-2.27516">
        <ele>116</ele>
        <time>2021-07-30T12:06:25.000Z</time>
      </trkpt>
      <trkpt lat="48.59274" lon="-2.27498">
        <ele>116</ele>
        <time>2021-07-30T12:06:27.000Z</time>
      </trkpt>
      <trkpt lat="48.59269" lon="-2.27481">
        <ele>116</ele>
        <time>2021-07-30T12:06:29.000Z</time>
      </trkpt>
      <trkpt lat="48.59264" lon="-2.27463">
        <ele>116</ele>
        <time>2021-07-30T12:06:31.000Z</time>
      </trkpt>
      <trkpt lat="48.59259" lon="-2.27446">
        <ele>116</ele>
        <time>2021-07-30T12:06:33.000Z</time>
      </trkpt>
      <trkpt lat="48.59254" lon="-2.27429">
        <ele>116</ele>
        <time>2021-07-30T12:06:35.000Z</time>
      </trkpt>
      <trkpt lat="48.59249" lon="-2.27411">
        <ele>116</ele>
        <time>2021-07-30T12:06:37.000Z</time>
      </trkpt>
      <trkpt lat="48.59244" lon="-2.27394">
        <ele>116</ele>
        <time>2021-07-30T12:06:39.000Z</time>
      </trkpt>
      <trkpt lat="48.59239" lon="-2.27375">
        <ele>116</ele>
        <time>2021-07-30T12:06:41.000Z</time>
      </trkpt>
      <trkpt lat="48.59235" lon="-2.27356">
        <ele>117</ele>
        <time>2021-07-30T12:06:43.000Z</time>
      </trkpt>
      <trkpt lat="48.5923" lon="-2.27338">
        <ele>117</ele>
        <time>2021-07-30T12:06:45.000Z</time>
      </trkpt>
      <trkpt lat="48.59225" lon="-2.2732">
        <ele>118</ele>
        <time>2021-07-30T12:06:47.000Z</time>
      </trkpt>
      <trkpt lat="48.59221" lon="-2.27301">
        <ele>118</ele>
        <time>2021-07-30T12:06:49.000Z</time>
      </trkpt>
      <trkpt lat="48.59216" lon="-2.27282">
        <ele>118</ele>
        <time>2021-07-30T12:06:51.000Z</time>
      </trkpt>
      <trkpt lat="48.59211" lon="-2.27264">
        <ele>118</ele>
        <time>2021-07-30T12:06:53.000Z</time>
      </trkpt>
      <trkpt lat="48.59206" lon="-2.27245">
        <ele>118</ele>
        <time>2021-07-30T12:06:55.000Z</time>
      </trkpt>
      <trkpt lat="48.59201" lon="-2.27227">
        <ele>119</ele>
        <time>2021-07-30T12:06:57.000Z</time>
      </trkpt>
      <trkpt lat="48.59196" lon="-2.27208">
        <ele>119</ele>
        <time>2021-07-30T12:06:59.000Z</time>
      </trkpt>
      <trkpt lat="48.59192" lon="-2.2719">
        <ele>120</ele>
        <time>2021-07-30T12:07:01.000Z</time>
      </trkpt>
      <trkpt lat="48.59187" lon="-2.27173">
        <ele>120</ele>
        <time>2021-07-30T12:07:03.000Z</time>
      </trkpt>
      <trkpt lat="48.59181" lon="-2.27155">
        <ele>120</ele>
        <time>2021-07-30T12:07:05.000Z</time>
      </trkpt>
      <trkpt lat="48.59177" lon="-2.27137">
        <ele>120</ele>
        <time>2021-07-30T12:07:07.000Z</time>
      </trkpt>
      <trkpt lat="48.59172" lon="-2.27121">
        <ele>120</ele>
        <time>2021-07-30T12:07:09.000Z</time>
      </trkpt>
      <trkpt lat="48.59167" lon="-2.27103">
        <ele>120</ele>
        <time>2021-07-30T12:07:11.000Z</time>
      </trkpt>
      <trkpt lat="48.59162" lon="-2.27087">
        <ele>120</ele>
        <time>2021-07-30T12:07:13.000Z</time>
      </trkpt>
      <trkpt lat="48.59157" lon="-2.27071">
        <ele>120</ele>
        <time>2021-07-30T12:07:15.000Z</time>
      </trkpt>
      <trkpt lat="48.59153" lon="-2.27055">
        <ele>121</ele>
        <time>2021-07-30T12:07:17.000Z</time>
      </trkpt>
      <trkpt lat="48.59149" lon="-2.27039">
        <ele>121</ele>
        <time>2021-07-30T12:07:19.000Z</time>
      </trkpt>
      <trkpt lat="48.59145" lon="-2.27024">
        <ele>120</ele>
        <time>2021-07-30T12:07:21.000Z</time>
      </trkpt>
      <trkpt lat="48.59138" lon="-2.27">
        <ele>121</ele>
        <time>2021-07-30T12:07:24.000Z</time>
      </trkpt>
      <trkpt lat="48.59131" lon="-2.26977">
        <ele>121</ele>
        <time>2021-07-30T12:07:27.000Z</time>
      </trkpt>
      <trkpt lat="48.59127" lon="-2.26962">
        <ele>122</ele>
        <time>2021-07-30T12:07:29.000Z</time>
      </trkpt>
      <trkpt lat="48.59124" lon="-2.26948">
        <ele>122</ele>
        <time>2021-07-30T12:07:31.000Z</time>
      </trkpt>
      <trkpt lat="48.5912" lon="-2.26933">
        <ele>123</ele>
        <time>2021-07-30T12:07:33.000Z</time>
      </trkpt>
      <trkpt lat="48.59116" lon="-2.26919">
        <ele>123</ele>
        <time>2021-07-30T12:07:35.000Z</time>
      </trkpt>
      <trkpt lat="48.59112" lon="-2.26904">
        <ele>123</ele>
        <time>2021-07-30T12:07:37.000Z</time>
      </trkpt>
      <trkpt lat="48.59108" lon="-2.2689">
        <ele>123</ele>
        <time>2021-07-30T12:07:39.000Z</time>
      </trkpt>
      <trkpt lat="48.59103" lon="-2.26876">
        <ele>123</ele>
        <time>2021-07-30T12:07:41.000Z</time>
      </trkpt>
      <trkpt lat="48.591" lon="-2.26861">
        <ele>122</ele>
        <time>2021-07-30T12:07:43.000Z</time>
      </trkpt>
      <trkpt lat="48.59096" lon="-2.26846">
        <ele>122</ele>
        <time>2021-07-30T12:07:45.000Z</time>
      </trkpt>
      <trkpt lat="48.59092" lon="-2.26832">
        <ele>121</ele>
        <time>2021-07-30T12:07:47.000Z</time>
      </trkpt>
      <trkpt lat="48.59088" lon="-2.26818">
        <ele>121</ele>
        <time>2021-07-30T12:07:49.000Z</time>
      </trkpt>
      <trkpt lat="48.59082" lon="-2.26797">
        <ele>120</ele>
        <time>2021-07-30T12:07:52.000Z</time>
      </trkpt>
      <trkpt lat="48.59078" lon="-2.26782">
        <ele>120</ele>
        <time>2021-07-30T12:07:54.000Z</time>
      </trkpt>
      <trkpt lat="48.59074" lon="-2.26765">
        <ele>119</ele>
        <time>2021-07-30T12:07:56.000Z</time>
      </trkpt>
      <trkpt lat="48.59071" lon="-2.2675">
        <ele>119</ele>
        <time>2021-07-30T12:07:58.000Z</time>
      </trkpt>
      <trkpt lat="48.59066" lon="-2.26736">
        <ele>120</ele>
        <time>2021-07-30T12:08:00.000Z</time>
      </trkpt>
      <trkpt lat="48.59062" lon="-2.26723">
        <ele>120</ele>
        <time>2021-07-30T12:08:02.000Z</time>
      </trkpt>
      <trkpt lat="48.59058" lon="-2.26708">
        <ele>121</ele>
        <time>2021-07-30T12:08:04.000Z</time>
      </trkpt>
      <trkpt lat="48.59054" lon="-2.26694">
        <ele>121</ele>
        <time>2021-07-30T12:08:06.000Z</time>
      </trkpt>
      <trkpt lat="48.5905" lon="-2.2668">
        <ele>121</ele>
        <time>2021-07-30T12:08:08.000Z</time>
      </trkpt>
      <trkpt lat="48.59045" lon="-2.26665">
        <ele>120</ele>
        <time>2021-07-30T12:08:10.000Z</time>
      </trkpt>
      <trkpt lat="48.59041" lon="-2.26648">
        <ele>120</ele>
        <time>2021-07-30T12:08:12.000Z</time>
      </trkpt>
      <trkpt lat="48.59037" lon="-2.26633">
        <ele>119</ele>
        <time>2021-07-30T12:08:14.000Z</time>
      </trkpt>
      <trkpt lat="48.59029" lon="-2.2661">
        <ele>119</ele>
        <time>2021-07-30T12:08:17.000Z</time>
      </trkpt>
      <trkpt lat="48.59025" lon="-2.26592">
        <ele>118</ele>
        <time>2021-07-30T12:08:19.000Z</time>
      </trkpt>
      <trkpt lat="48.59021" lon="-2.26575">
        <ele>118</ele>
        <time>2021-07-30T12:08:21.000Z</time>
      </trkpt>
      <trkpt lat="48.59017" lon="-2.26557">
        <ele>118</ele>
        <time>2021-07-30T12:08:23.000Z</time>
      </trkpt>
      <trkpt lat="48.5901" lon="-2.26531">
        <ele>117</ele>
        <time>2021-07-30T12:08:26.000Z</time>
      </trkpt>
      <trkpt lat="48.59004" lon="-2.26514">
        <ele>117</ele>
        <time>2021-07-30T12:08:28.000Z</time>
      </trkpt>
      <trkpt lat="48.58999" lon="-2.26497">
        <ele>118</ele>
        <time>2021-07-30T12:08:30.000Z</time>
      </trkpt>
      <trkpt lat="48.58994" lon="-2.2648">
        <ele>119</ele>
        <time>2021-07-30T12:08:32.000Z</time>
      </trkpt>
      <trkpt lat="48.5899" lon="-2.26464">
        <ele>119</ele>
        <time>2021-07-30T12:08:34.000Z</time>
      </trkpt>
      <trkpt lat="48.58986" lon="-2.26448">
        <ele>118</ele>
        <time>2021-07-30T12:08:36.000Z</time>
      </trkpt>
      <trkpt lat="48.58981" lon="-2.26432">
        <ele>118</ele>
        <time>2021-07-30T12:08:38.000Z</time>
      </trkpt>
      <trkpt lat="48.58977" lon="-2.26413">
        <ele>117</ele>
        <time>2021-07-30T12:08:40.000Z</time>
      </trkpt>
      <trkpt lat="48.58974" lon="-2.26396">
        <ele>118</ele>
        <time>2021-07-30T12:08:42.000Z</time>
      </trkpt>
      <trkpt lat="48.58969" lon="-2.26379">
        <ele>117</ele>
        <time>2021-07-30T12:08:44.000Z</time>
      </trkpt>
      <trkpt lat="48.58964" lon="-2.26363">
        <ele>117</ele>
        <time>2021-07-30T12:08:46.000Z</time>
      </trkpt>
      <trkpt lat="48.5896" lon="-2.26349">
        <ele>117</ele>
        <time>2021-07-30T12:08:48.000Z</time>
      </trkpt>
      <trkpt lat="48.58952" lon="-2.26336">
        <ele>117</ele>
        <time>2021-07-30T12:08:51.000Z</time>
      </trkpt>
      <trkpt lat="48.58941" lon="-2.26333">
        <ele>117</ele>
        <time>2021-07-30T12:08:55.000Z</time>
      </trkpt>
      <trkpt lat="48.58931" lon="-2.26331">
        <ele>117</ele>
        <time>2021-07-30T12:08:58.000Z</time>
      </trkpt>
      <trkpt lat="48.5892" lon="-2.26327">
        <ele>118</ele>
        <time>2021-07-30T12:09:01.000Z</time>
      </trkpt>
      <trkpt lat="48.58911" lon="-2.26324">
        <ele>118</ele>
        <time>2021-07-30T12:09:03.000Z</time>
      </trkpt>
      <trkpt lat="48.58899" lon="-2.26321">
        <ele>117</ele>
        <time>2021-07-30T12:09:06.000Z</time>
      </trkpt>
      <trkpt lat="48.58887" lon="-2.26317">
        <ele>117</ele>
        <time>2021-07-30T12:09:09.000Z</time>
      </trkpt>
      <trkpt lat="48.58874" lon="-2.26315">
        <ele>118</ele>
        <time>2021-07-30T12:09:12.000Z</time>
      </trkpt>
      <trkpt lat="48.58864" lon="-2.26315">
        <ele>119</ele>
        <time>2021-07-30T12:09:14.000Z</time>
      </trkpt>
      <trkpt lat="48.58853" lon="-2.26317">
        <ele>118</ele>
        <time>2021-07-30T12:09:16.000Z</time>
      </trkpt>
      <trkpt lat="48.58843" lon="-2.26322">
        <ele>118</ele>
        <time>2021-07-30T12:09:18.000Z</time>
      </trkpt>
      <trkpt lat="48.58833" lon="-2.26328">
        <ele>118</ele>
        <time>2021-07-30T12:09:20.000Z</time>
      </trkpt>
      <trkpt lat="48.58825" lon="-2.26333">
        <ele>119</ele>
        <time>2021-07-30T12:09:22.000Z</time>
      </trkpt>
      <trkpt lat="48.58814" lon="-2.26339">
        <ele>119</ele>
        <time>2021-07-30T12:09:25.000Z</time>
      </trkpt>
      <trkpt lat="48.58803" lon="-2.26345">
        <ele>119</ele>
        <time>2021-07-30T12:09:28.000Z</time>
      </trkpt>
      <trkpt lat="48.58789" lon="-2.26354">
        <ele>118</ele>
        <time>2021-07-30T12:09:31.000Z</time>
      </trkpt>
      <trkpt lat="48.58777" lon="-2.26358">
        <ele>119</ele>
        <time>2021-07-30T12:09:33.000Z</time>
      </trkpt>
      <trkpt lat="48.58765" lon="-2.2636">
        <ele>120</ele>
        <time>2021-07-30T12:09:35.000Z</time>
      </trkpt>
      <trkpt lat="48.58756" lon="-2.26363">
        <ele>120</ele>
        <time>2021-07-30T12:09:37.000Z</time>
      </trkpt>
      <trkpt lat="48.58744" lon="-2.26366">
        <ele>119</ele>
        <time>2021-07-30T12:09:40.000Z</time>
      </trkpt>
      <trkpt lat="48.58731" lon="-2.26365">
        <ele>121</ele>
        <time>2021-07-30T12:09:42.000Z</time>
      </trkpt>
      <trkpt lat="48.58719" lon="-2.26365">
        <ele>121</ele>
        <time>2021-07-30T12:09:44.000Z</time>
      </trkpt>
      <trkpt lat="48.58708" lon="-2.26364">
        <ele>119</ele>
        <time>2021-07-30T12:09:46.000Z</time>
      </trkpt>
      <trkpt lat="48.58696" lon="-2.26365">
        <ele>119</ele>
        <time>2021-07-30T12:09:48.000Z</time>
      </trkpt>
      <trkpt lat="48.58687" lon="-2.26364">
        <ele>119</ele>
        <time>2021-07-30T12:09:50.000Z</time>
      </trkpt>
      <trkpt lat="48.58673" lon="-2.26363">
        <ele>120</ele>
        <time>2021-07-30T12:09:53.000Z</time>
      </trkpt>
      <trkpt lat="48.58664" lon="-2.26364">
        <ele>119</ele>
        <time>2021-07-30T12:09:55.000Z</time>
      </trkpt>
      <trkpt lat="48.58654" lon="-2.26365">
        <ele>117</ele>
        <time>2021-07-30T12:09:57.000Z</time>
      </trkpt>
      <trkpt lat="48.58641" lon="-2.26368">
        <ele>117</ele>
        <time>2021-07-30T12:10:00.000Z</time>
      </trkpt>
      <trkpt lat="48.58628" lon="-2.2637">
        <ele>118</ele>
        <time>2021-07-30T12:10:03.000Z</time>
      </trkpt>
      <trkpt lat="48.58616" lon="-2.26374">
        <ele>117</ele>
        <time>2021-07-30T12:10:06.000Z</time>
      </trkpt>
      <trkpt lat="48.58607" lon="-2.26377">
        <ele>117</ele>
        <time>2021-07-30T12:10:09.000Z</time>
      </trkpt>
      <trkpt lat="48.58598" lon="-2.26378">
        <ele>117</ele>
        <time>2021-07-30T12:10:11.000Z</time>
      </trkpt>
      <trkpt lat="48.58587" lon="-2.26374">
        <ele>116</ele>
        <time>2021-07-30T12:10:13.000Z</time>
      </trkpt>
      <trkpt lat="48.58578" lon="-2.2637">
        <ele>116</ele>
        <time>2021-07-30T12:10:15.000Z</time>
      </trkpt>
      <trkpt lat="48.58567" lon="-2.26365">
        <ele>115</ele>
        <time>2021-07-30T12:10:17.000Z</time>
      </trkpt>
      <trkpt lat="48.58557" lon="-2.26362">
        <ele>116</ele>
        <time>2021-07-30T12:10:19.000Z</time>
      </trkpt>
      <trkpt lat="48.58547" lon="-2.26361">
        <ele>115</ele>
        <time>2021-07-30T12:10:21.000Z</time>
      </trkpt>
      <trkpt lat="48.58535" lon="-2.26354">
        <ele>116</ele>
        <time>2021-07-30T12:10:24.000Z</time>
      </trkpt>
      <trkpt lat="48.58523" lon="-2.26344">
        <ele>115</ele>
        <time>2021-07-30T12:10:27.000Z</time>
      </trkpt>
      <trkpt lat="48.58513" lon="-2.26338">
        <ele>114</ele>
        <time>2021-07-30T12:10:29.000Z</time>
      </trkpt>
      <trkpt lat="48.58502" lon="-2.26329">
        <ele>114</ele>
        <time>2021-07-30T12:10:32.000Z</time>
      </trkpt>
      <trkpt lat="48.58493" lon="-2.26322">
        <ele>113</ele>
        <time>2021-07-30T12:10:34.000Z</time>
      </trkpt>
      <trkpt lat="48.58482" lon="-2.26315">
        <ele>114</ele>
        <time>2021-07-30T12:10:37.000Z</time>
      </trkpt>
      <trkpt lat="48.58474" lon="-2.26307">
        <ele>113</ele>
        <time>2021-07-30T12:10:40.000Z</time>
      </trkpt>
      <trkpt lat="48.58465" lon="-2.26293">
        <ele>112</ele>
        <time>2021-07-30T12:10:43.000Z</time>
      </trkpt>
      <trkpt lat="48.58456" lon="-2.26281">
        <ele>112</ele>
        <time>2021-07-30T12:10:46.000Z</time>
      </trkpt>
      <trkpt lat="48.58446" lon="-2.26279">
        <ele>109</ele>
        <time>2021-07-30T12:11:12.000Z</time>
      </trkpt>
      <trkpt lat="48.58438" lon="-2.26289">
        <ele>110</ele>
        <time>2021-07-30T12:11:17.000Z</time>
      </trkpt>
      <trkpt lat="48.5843" lon="-2.26294">
        <ele>110</ele>
        <time>2021-07-30T12:11:20.000Z</time>
      </trkpt>
      <trkpt lat="48.5842" lon="-2.26299">
        <ele>110</ele>
        <time>2021-07-30T12:11:23.000Z</time>
      </trkpt>
      <trkpt lat="48.58408" lon="-2.26302">
        <ele>111</ele>
        <time>2021-07-30T12:11:26.000Z</time>
      </trkpt>
      <trkpt lat="48.58396" lon="-2.26308">
        <ele>111</ele>
        <time>2021-07-30T12:11:29.000Z</time>
      </trkpt>
      <trkpt lat="48.58386" lon="-2.26311">
        <ele>112</ele>
        <time>2021-07-30T12:11:31.000Z</time>
      </trkpt>
      <trkpt lat="48.58374" lon="-2.26313">
        <ele>112</ele>
        <time>2021-07-30T12:11:33.000Z</time>
      </trkpt>
      <trkpt lat="48.58364" lon="-2.26314">
        <ele>111</ele>
        <time>2021-07-30T12:11:35.000Z</time>
      </trkpt>
      <trkpt lat="48.58354" lon="-2.26316">
        <ele>111</ele>
        <time>2021-07-30T12:11:37.000Z</time>
      </trkpt>
      <trkpt lat="48.58345" lon="-2.26318">
        <ele>111</ele>
        <time>2021-07-30T12:11:39.000Z</time>
      </trkpt>
      <trkpt lat="48.58332" lon="-2.26322">
        <ele>113</ele>
        <time>2021-07-30T12:11:42.000Z</time>
      </trkpt>
      <trkpt lat="48.5832" lon="-2.26327">
        <ele>113</ele>
        <time>2021-07-30T12:11:45.000Z</time>
      </trkpt>
      <trkpt lat="48.58309" lon="-2.26335">
        <ele>113</ele>
        <time>2021-07-30T12:11:48.000Z</time>
      </trkpt>
      <trkpt lat="48.58298" lon="-2.26346">
        <ele>113</ele>
        <time>2021-07-30T12:11:51.000Z</time>
      </trkpt>
      <trkpt lat="48.58286" lon="-2.26353">
        <ele>113</ele>
        <time>2021-07-30T12:11:54.000Z</time>
      </trkpt>
      <trkpt lat="48.58277" lon="-2.26359">
        <ele>112</ele>
        <time>2021-07-30T12:11:56.000Z</time>
      </trkpt>
      <trkpt lat="48.58265" lon="-2.26365">
        <ele>112</ele>
        <time>2021-07-30T12:11:59.000Z</time>
      </trkpt>
      <trkpt lat="48.58253" lon="-2.26371">
        <ele>112</ele>
        <time>2021-07-30T12:12:02.000Z</time>
      </trkpt>
      <trkpt lat="48.58242" lon="-2.26375">
        <ele>111</ele>
        <time>2021-07-30T12:12:05.000Z</time>
      </trkpt>
      <trkpt lat="48.58233" lon="-2.26376">
        <ele>112</ele>
        <time>2021-07-30T12:12:07.000Z</time>
      </trkpt>
      <trkpt lat="48.58219" lon="-2.26377">
        <ele>113</ele>
        <time>2021-07-30T12:12:10.000Z</time>
      </trkpt>
      <trkpt lat="48.58209" lon="-2.2638">
        <ele>113</ele>
        <time>2021-07-30T12:12:12.000Z</time>
      </trkpt>
      <trkpt lat="48.58196" lon="-2.26383">
        <ele>113</ele>
        <time>2021-07-30T12:12:15.000Z</time>
      </trkpt>
      <trkpt lat="48.58186" lon="-2.26385">
        <ele>113</ele>
        <time>2021-07-30T12:12:17.000Z</time>
      </trkpt>
      <trkpt lat="48.58173" lon="-2.26388">
        <ele>112</ele>
        <time>2021-07-30T12:12:20.000Z</time>
      </trkpt>
      <trkpt lat="48.58162" lon="-2.26393">
        <ele>112</ele>
        <time>2021-07-30T12:12:24.000Z</time>
      </trkpt>
      <trkpt lat="48.58153" lon="-2.26403">
        <ele>112</ele>
        <time>2021-07-30T12:12:28.000Z</time>
      </trkpt>
      <trkpt lat="48.58147" lon="-2.26415">
        <ele>111</ele>
        <time>2021-07-30T12:12:31.000Z</time>
      </trkpt>
      <trkpt lat="48.5814" lon="-2.26431">
        <ele>111</ele>
        <time>2021-07-30T12:12:35.000Z</time>
      </trkpt>
      <trkpt lat="48.58129" lon="-2.26442">
        <ele>110</ele>
        <time>2021-07-30T12:12:38.000Z</time>
      </trkpt>
      <trkpt lat="48.58118" lon="-2.26447">
        <ele>109</ele>
        <time>2021-07-30T12:12:40.000Z</time>
      </trkpt>
      <trkpt lat="48.58108" lon="-2.26448">
        <ele>109</ele>
        <time>2021-07-30T12:12:42.000Z</time>
      </trkpt>
      <trkpt lat="48.58095" lon="-2.26446">
        <ele>110</ele>
        <time>2021-07-30T12:12:45.000Z</time>
      </trkpt>
      <trkpt lat="48.58084" lon="-2.26446">
        <ele>110</ele>
        <time>2021-07-30T12:12:47.000Z</time>
      </trkpt>
      <trkpt lat="48.58072" lon="-2.26447">
        <ele>112</ele>
        <time>2021-07-30T12:12:49.000Z</time>
      </trkpt>
      <trkpt lat="48.58061" lon="-2.26449">
        <ele>113</ele>
        <time>2021-07-30T12:12:51.000Z</time>
      </trkpt>
      <trkpt lat="48.5805" lon="-2.2645">
        <ele>113</ele>
        <time>2021-07-30T12:12:53.000Z</time>
      </trkpt>
      <trkpt lat="48.58038" lon="-2.2645">
        <ele>113</ele>
        <time>2021-07-30T12:12:56.000Z</time>
      </trkpt>
      <trkpt lat="48.58027" lon="-2.26447">
        <ele>113</ele>
        <time>2021-07-30T12:12:59.000Z</time>
      </trkpt>
      <trkpt lat="48.58014" lon="-2.26441">
        <ele>113</ele>
        <time>2021-07-30T12:13:01.000Z</time>
      </trkpt>
      <trkpt lat="48.58005" lon="-2.26436">
        <ele>113</ele>
        <time>2021-07-30T12:13:03.000Z</time>
      </trkpt>
      <trkpt lat="48.57995" lon="-2.26432">
        <ele>113</ele>
        <time>2021-07-30T12:13:05.000Z</time>
      </trkpt>
      <trkpt lat="48.57985" lon="-2.26431">
        <ele>114</ele>
        <time>2021-07-30T12:13:07.000Z</time>
      </trkpt>
      <trkpt lat="48.57976" lon="-2.26431">
        <ele>114</ele>
        <time>2021-07-30T12:13:09.000Z</time>
      </trkpt>
      <trkpt lat="48.57966" lon="-2.26432">
        <ele>114</ele>
        <time>2021-07-30T12:13:11.000Z</time>
      </trkpt>
      <trkpt lat="48.57956" lon="-2.26432">
        <ele>114</ele>
        <time>2021-07-30T12:13:13.000Z</time>
      </trkpt>
      <trkpt lat="48.57946" lon="-2.2643">
        <ele>114</ele>
        <time>2021-07-30T12:13:16.000Z</time>
      </trkpt>
      <trkpt lat="48.57937" lon="-2.26424">
        <ele>115</ele>
        <time>2021-07-30T12:13:19.000Z</time>
      </trkpt>
      <trkpt lat="48.57932" lon="-2.26409">
        <ele>115</ele>
        <time>2021-07-30T12:13:22.000Z</time>
      </trkpt>
      <trkpt lat="48.57929" lon="-2.26395">
        <ele>115</ele>
        <time>2021-07-30T12:13:24.000Z</time>
      </trkpt>
      <trkpt lat="48.57927" lon="-2.26381">
        <ele>115</ele>
        <time>2021-07-30T12:13:26.000Z</time>
      </trkpt>
      <trkpt lat="48.57922" lon="-2.26362">
        <ele>115</ele>
        <time>2021-07-30T12:13:29.000Z</time>
      </trkpt>
      <trkpt lat="48.57917" lon="-2.26343">
        <ele>114</ele>
        <time>2021-07-30T12:13:32.000Z</time>
      </trkpt>
      <trkpt lat="48.57913" lon="-2.2633">
        <ele>113</ele>
        <time>2021-07-30T12:13:34.000Z</time>
      </trkpt>
      <trkpt lat="48.57909" lon="-2.26316">
        <ele>112</ele>
        <time>2021-07-30T12:13:36.000Z</time>
      </trkpt>
      <trkpt lat="48.57905" lon="-2.263">
        <ele>113</ele>
        <time>2021-07-30T12:13:38.000Z</time>
      </trkpt>
      <trkpt lat="48.57902" lon="-2.26287">
        <ele>113</ele>
        <time>2021-07-30T12:13:40.000Z</time>
      </trkpt>
      <trkpt lat="48.57897" lon="-2.26273">
        <ele>113</ele>
        <time>2021-07-30T12:13:42.000Z</time>
      </trkpt>
      <trkpt lat="48.57889" lon="-2.26255">
        <ele>112</ele>
        <time>2021-07-30T12:13:45.000Z</time>
      </trkpt>
      <trkpt lat="48.57879" lon="-2.2624">
        <ele>112</ele>
        <time>2021-07-30T12:13:47.000Z</time>
      </trkpt>
      <trkpt lat="48.57871" lon="-2.26224">
        <ele>113</ele>
        <time>2021-07-30T12:13:49.000Z</time>
      </trkpt>
      <trkpt lat="48.57863" lon="-2.2621">
        <ele>113</ele>
        <time>2021-07-30T12:13:51.000Z</time>
      </trkpt>
      <trkpt lat="48.57858" lon="-2.26195">
        <ele>112</ele>
        <time>2021-07-30T12:13:53.000Z</time>
      </trkpt>
      <trkpt lat="48.57851" lon="-2.26181">
        <ele>111</ele>
        <time>2021-07-30T12:13:55.000Z</time>
      </trkpt>
      <trkpt lat="48.57845" lon="-2.26167">
        <ele>110</ele>
        <time>2021-07-30T12:13:57.000Z</time>
      </trkpt>
      <trkpt lat="48.57839" lon="-2.26152">
        <ele>110</ele>
        <time>2021-07-30T12:13:59.000Z</time>
      </trkpt>
      <trkpt lat="48.57832" lon="-2.26138">
        <ele>110</ele>
        <time>2021-07-30T12:14:01.000Z</time>
      </trkpt>
      <trkpt lat="48.57826" lon="-2.26124">
        <ele>110</ele>
        <time>2021-07-30T12:14:03.000Z</time>
      </trkpt>
      <trkpt lat="48.57819" lon="-2.26113">
        <ele>110</ele>
        <time>2021-07-30T12:14:05.000Z</time>
      </trkpt>
      <trkpt lat="48.57813" lon="-2.261">
        <ele>111</ele>
        <time>2021-07-30T12:14:07.000Z</time>
      </trkpt>
      <trkpt lat="48.57806" lon="-2.26088">
        <ele>111</ele>
        <time>2021-07-30T12:14:09.000Z</time>
      </trkpt>
      <trkpt lat="48.57801" lon="-2.26074">
        <ele>112</ele>
        <time>2021-07-30T12:14:11.000Z</time>
      </trkpt>
      <trkpt lat="48.57796" lon="-2.2606">
        <ele>112</ele>
        <time>2021-07-30T12:14:13.000Z</time>
      </trkpt>
      <trkpt lat="48.57793" lon="-2.26046">
        <ele>111</ele>
        <time>2021-07-30T12:14:15.000Z</time>
      </trkpt>
      <trkpt lat="48.57789" lon="-2.26031">
        <ele>110</ele>
        <time>2021-07-30T12:14:17.000Z</time>
      </trkpt>
      <trkpt lat="48.57785" lon="-2.26017">
        <ele>110</ele>
        <time>2021-07-30T12:14:19.000Z</time>
      </trkpt>
      <trkpt lat="48.57782" lon="-2.26002">
        <ele>110</ele>
        <time>2021-07-30T12:14:21.000Z</time>
      </trkpt>
      <trkpt lat="48.57778" lon="-2.25989">
        <ele>111</ele>
        <time>2021-07-30T12:14:23.000Z</time>
      </trkpt>
      <trkpt lat="48.57769" lon="-2.2599">
        <ele>111</ele>
        <time>2021-07-30T12:15:18.000Z</time>
      </trkpt>
      <trkpt lat="48.57763" lon="-2.25999">
        <ele>112</ele>
        <time>2021-07-30T12:15:21.000Z</time>
      </trkpt>
      <trkpt lat="48.57755" lon="-2.26011">
        <ele>113</ele>
        <time>2021-07-30T12:15:24.000Z</time>
      </trkpt>
      <trkpt lat="48.57746" lon="-2.2602">
        <ele>117</ele>
        <time>2021-07-30T12:15:27.000Z</time>
      </trkpt>
      <trkpt lat="48.57737" lon="-2.26032">
        <ele>118</ele>
        <time>2021-07-30T12:15:30.000Z</time>
      </trkpt>
      <trkpt lat="48.57727" lon="-2.26043">
        <ele>118</ele>
        <time>2021-07-30T12:15:33.000Z</time>
      </trkpt>
      <trkpt lat="48.57718" lon="-2.26052">
        <ele>119</ele>
        <time>2021-07-30T12:15:36.000Z</time>
      </trkpt>
      <trkpt lat="48.57707" lon="-2.2606">
        <ele>119</ele>
        <time>2021-07-30T12:15:39.000Z</time>
      </trkpt>
      <trkpt lat="48.57697" lon="-2.26067">
        <ele>120</ele>
        <time>2021-07-30T12:15:42.000Z</time>
      </trkpt>
      <trkpt lat="48.57687" lon="-2.26076">
        <ele>121</ele>
        <time>2021-07-30T12:15:45.000Z</time>
      </trkpt>
      <trkpt lat="48.57678" lon="-2.26084">
        <ele>121</ele>
        <time>2021-07-30T12:15:48.000Z</time>
      </trkpt>
      <trkpt lat="48.57667" lon="-2.26094">
        <ele>120</ele>
        <time>2021-07-30T12:15:51.000Z</time>
      </trkpt>
      <trkpt lat="48.57655" lon="-2.26102">
        <ele>120</ele>
        <time>2021-07-30T12:15:54.000Z</time>
      </trkpt>
      <trkpt lat="48.57643" lon="-2.26108">
        <ele>120</ele>
        <time>2021-07-30T12:15:57.000Z</time>
      </trkpt>
      <trkpt lat="48.57632" lon="-2.26115">
        <ele>120</ele>
        <time>2021-07-30T12:16:00.000Z</time>
      </trkpt>
      <trkpt lat="48.57623" lon="-2.26119">
        <ele>120</ele>
        <time>2021-07-30T12:16:02.000Z</time>
      </trkpt>
      <trkpt lat="48.5761" lon="-2.26121">
        <ele>120</ele>
        <time>2021-07-30T12:16:05.000Z</time>
      </trkpt>
      <trkpt lat="48.57601" lon="-2.26125">
        <ele>120</ele>
        <time>2021-07-30T12:16:07.000Z</time>
      </trkpt>
      <trkpt lat="48.57592" lon="-2.26131">
        <ele>121</ele>
        <time>2021-07-30T12:16:09.000Z</time>
      </trkpt>
      <trkpt lat="48.57584" lon="-2.26136">
        <ele>121</ele>
        <time>2021-07-30T12:16:11.000Z</time>
      </trkpt>
      <trkpt lat="48.57575" lon="-2.26142">
        <ele>121</ele>
        <time>2021-07-30T12:16:13.000Z</time>
      </trkpt>
      <trkpt lat="48.57567" lon="-2.26149">
        <ele>121</ele>
        <time>2021-07-30T12:16:15.000Z</time>
      </trkpt>
      <trkpt lat="48.57559" lon="-2.26156">
        <ele>121</ele>
        <time>2021-07-30T12:16:17.000Z</time>
      </trkpt>
      <trkpt lat="48.57551" lon="-2.26164">
        <ele>121</ele>
        <time>2021-07-30T12:16:19.000Z</time>
      </trkpt>
      <trkpt lat="48.57544" lon="-2.26173">
        <ele>121</ele>
        <time>2021-07-30T12:16:21.000Z</time>
      </trkpt>
      <trkpt lat="48.57536" lon="-2.26181">
        <ele>122</ele>
        <time>2021-07-30T12:16:23.000Z</time>
      </trkpt>
      <trkpt lat="48.57527" lon="-2.26189">
        <ele>122</ele>
        <time>2021-07-30T12:16:25.000Z</time>
      </trkpt>
      <trkpt lat="48.57518" lon="-2.26197">
        <ele>122</ele>
        <time>2021-07-30T12:16:27.000Z</time>
      </trkpt>
      <trkpt lat="48.5751" lon="-2.26204">
        <ele>123</ele>
        <time>2021-07-30T12:16:29.000Z</time>
      </trkpt>
      <trkpt lat="48.57501" lon="-2.26211">
        <ele>123</ele>
        <time>2021-07-30T12:16:31.000Z</time>
      </trkpt>
      <trkpt lat="48.57492" lon="-2.26219">
        <ele>122</ele>
        <time>2021-07-30T12:16:33.000Z</time>
      </trkpt>
      <trkpt lat="48.57484" lon="-2.26226">
        <ele>123</ele>
        <time>2021-07-30T12:16:35.000Z</time>
      </trkpt>
      <trkpt lat="48.57475" lon="-2.26233">
        <ele>123</ele>
        <time>2021-07-30T12:16:37.000Z</time>
      </trkpt>
      <trkpt lat="48.57466" lon="-2.26239">
        <ele>123</ele>
        <time>2021-07-30T12:16:39.000Z</time>
      </trkpt>
      <trkpt lat="48.57455" lon="-2.26246">
        <ele>123</ele>
        <time>2021-07-30T12:16:42.000Z</time>
      </trkpt>
      <trkpt lat="48.57446" lon="-2.26233">
        <ele>122</ele>
        <time>2021-07-30T12:16:45.000Z</time>
      </trkpt>
      <trkpt lat="48.57445" lon="-2.26218">
        <ele>121</ele>
        <time>2021-07-30T12:16:47.000Z</time>
      </trkpt>
      <trkpt lat="48.57445" lon="-2.26202">
        <ele>121</ele>
        <time>2021-07-30T12:16:49.000Z</time>
      </trkpt>
      <trkpt lat="48.57442" lon="-2.26183">
        <ele>120</ele>
        <time>2021-07-30T12:16:51.000Z</time>
      </trkpt>
      <trkpt lat="48.57439" lon="-2.26164">
        <ele>119</ele>
        <time>2021-07-30T12:16:53.000Z</time>
      </trkpt>
      <trkpt lat="48.57438" lon="-2.26145">
        <ele>119</ele>
        <time>2021-07-30T12:16:55.000Z</time>
      </trkpt>
      <trkpt lat="48.57435" lon="-2.26125">
        <ele>118</ele>
        <time>2021-07-30T12:16:57.000Z</time>
      </trkpt>
      <trkpt lat="48.57433" lon="-2.26105">
        <ele>117</ele>
        <time>2021-07-30T12:16:59.000Z</time>
      </trkpt>
      <trkpt lat="48.57428" lon="-2.26087">
        <ele>116</ele>
        <time>2021-07-30T12:17:01.000Z</time>
      </trkpt>
      <trkpt lat="48.57422" lon="-2.26069">
        <ele>115</ele>
        <time>2021-07-30T12:17:03.000Z</time>
      </trkpt>
      <trkpt lat="48.57416" lon="-2.2605">
        <ele>114</ele>
        <time>2021-07-30T12:17:05.000Z</time>
      </trkpt>
      <trkpt lat="48.57408" lon="-2.26032">
        <ele>114</ele>
        <time>2021-07-30T12:17:07.000Z</time>
      </trkpt>
      <trkpt lat="48.57401" lon="-2.26012">
        <ele>114</ele>
        <time>2021-07-30T12:17:09.000Z</time>
      </trkpt>
      <trkpt lat="48.57394" lon="-2.25991">
        <ele>112</ele>
        <time>2021-07-30T12:17:11.000Z</time>
      </trkpt>
      <trkpt lat="48.57386" lon="-2.25969">
        <ele>110</ele>
        <time>2021-07-30T12:17:13.000Z</time>
      </trkpt>
      <trkpt lat="48.57378" lon="-2.25947">
        <ele>109</ele>
        <time>2021-07-30T12:17:15.000Z</time>
      </trkpt>
      <trkpt lat="48.5737" lon="-2.25925">
        <ele>107</ele>
        <time>2021-07-30T12:17:17.000Z</time>
      </trkpt>
      <trkpt lat="48.57365" lon="-2.25912">
        <ele>106</ele>
        <time>2021-07-30T12:17:18.000Z</time>
      </trkpt>
      <trkpt lat="48.5736" lon="-2.25901">
        <ele>104</ele>
        <time>2021-07-30T12:17:19.000Z</time>
      </trkpt>
      <trkpt lat="48.57355" lon="-2.25889">
        <ele>103</ele>
        <time>2021-07-30T12:17:20.000Z</time>
      </trkpt>
      <trkpt lat="48.57349" lon="-2.25878">
        <ele>102</ele>
        <time>2021-07-30T12:17:21.000Z</time>
      </trkpt>
      <trkpt lat="48.57338" lon="-2.25855">
        <ele>101</ele>
        <time>2021-07-30T12:17:23.000Z</time>
      </trkpt>
      <trkpt lat="48.57332" lon="-2.25844">
        <ele>100</ele>
        <time>2021-07-30T12:17:24.000Z</time>
      </trkpt>
      <trkpt lat="48.57325" lon="-2.25832">
        <ele>100</ele>
        <time>2021-07-30T12:17:25.000Z</time>
      </trkpt>
      <trkpt lat="48.57319" lon="-2.2582">
        <ele>99</ele>
        <time>2021-07-30T12:17:26.000Z</time>
      </trkpt>
      <trkpt lat="48.57313" lon="-2.25808">
        <ele>99</ele>
        <time>2021-07-30T12:17:27.000Z</time>
      </trkpt>
      <trkpt lat="48.57306" lon="-2.25795">
        <ele>98</ele>
        <time>2021-07-30T12:17:28.000Z</time>
      </trkpt>
      <trkpt lat="48.573" lon="-2.25783">
        <ele>96</ele>
        <time>2021-07-30T12:17:29.000Z</time>
      </trkpt>
      <trkpt lat="48.57294" lon="-2.2577">
        <ele>95</ele>
        <time>2021-07-30T12:17:30.000Z</time>
      </trkpt>
      <trkpt lat="48.57287" lon="-2.25757">
        <ele>94</ele>
        <time>2021-07-30T12:17:31.000Z</time>
      </trkpt>
      <trkpt lat="48.5728" lon="-2.25745">
        <ele>93</ele>
        <time>2021-07-30T12:17:32.000Z</time>
      </trkpt>
      <trkpt lat="48.57274" lon="-2.25733">
        <ele>92</ele>
        <time>2021-07-30T12:17:33.000Z</time>
      </trkpt>
      <trkpt lat="48.57267" lon="-2.25721">
        <ele>92</ele>
        <time>2021-07-30T12:17:34.000Z</time>
      </trkpt>
      <trkpt lat="48.5726" lon="-2.25709">
        <ele>91</ele>
        <time>2021-07-30T12:17:35.000Z</time>
      </trkpt>
      <trkpt lat="48.57254" lon="-2.25696">
        <ele>90</ele>
        <time>2021-07-30T12:17:36.000Z</time>
      </trkpt>
      <trkpt lat="48.57247" lon="-2.25682">
        <ele>89</ele>
        <time>2021-07-30T12:17:37.000Z</time>
      </trkpt>
      <trkpt lat="48.5724" lon="-2.25669">
        <ele>88</ele>
        <time>2021-07-30T12:17:38.000Z</time>
      </trkpt>
      <trkpt lat="48.57233" lon="-2.25655">
        <ele>87</ele>
        <time>2021-07-30T12:17:39.000Z</time>
      </trkpt>
      <trkpt lat="48.57227" lon="-2.25642">
        <ele>85</ele>
        <time>2021-07-30T12:17:40.000Z</time>
      </trkpt>
      <trkpt lat="48.5722" lon="-2.2563">
        <ele>84</ele>
        <time>2021-07-30T12:17:41.000Z</time>
      </trkpt>
      <trkpt lat="48.57214" lon="-2.25617">
        <ele>83</ele>
        <time>2021-07-30T12:17:42.000Z</time>
      </trkpt>
      <trkpt lat="48.57207" lon="-2.25605">
        <ele>82</ele>
        <time>2021-07-30T12:17:43.000Z</time>
      </trkpt>
      <trkpt lat="48.572" lon="-2.25593">
        <ele>81</ele>
        <time>2021-07-30T12:17:44.000Z</time>
      </trkpt>
      <trkpt lat="48.57193" lon="-2.25581">
        <ele>80</ele>
        <time>2021-07-30T12:17:45.000Z</time>
      </trkpt>
      <trkpt lat="48.57187" lon="-2.25568">
        <ele>80</ele>
        <time>2021-07-30T12:17:46.000Z</time>
      </trkpt>
      <trkpt lat="48.5718" lon="-2.25556">
        <ele>80</ele>
        <time>2021-07-30T12:17:47.000Z</time>
      </trkpt>
      <trkpt lat="48.57174" lon="-2.25544">
        <ele>81</ele>
        <time>2021-07-30T12:17:48.000Z</time>
      </trkpt>
      <trkpt lat="48.57167" lon="-2.25532">
        <ele>80</ele>
        <time>2021-07-30T12:17:49.000Z</time>
      </trkpt>
      <trkpt lat="48.57161" lon="-2.2552">
        <ele>79</ele>
        <time>2021-07-30T12:17:50.000Z</time>
      </trkpt>
      <trkpt lat="48.57156" lon="-2.25509">
        <ele>79</ele>
        <time>2021-07-30T12:17:51.000Z</time>
      </trkpt>
      <trkpt lat="48.5715" lon="-2.25484">
        <ele>78</ele>
        <time>2021-07-30T12:17:53.000Z</time>
      </trkpt>
      <trkpt lat="48.57147" lon="-2.25461">
        <ele>78</ele>
        <time>2021-07-30T12:17:55.000Z</time>
      </trkpt>
      <trkpt lat="48.57148" lon="-2.25439">
        <ele>76</ele>
        <time>2021-07-30T12:17:57.000Z</time>
      </trkpt>
      <trkpt lat="48.57149" lon="-2.25419">
        <ele>76</ele>
        <time>2021-07-30T12:17:59.000Z</time>
      </trkpt>
      <trkpt lat="48.57149" lon="-2.25403">
        <ele>77</ele>
        <time>2021-07-30T12:18:01.000Z</time>
      </trkpt>
      <trkpt lat="48.57149" lon="-2.25389">
        <ele>78</ele>
        <time>2021-07-30T12:18:03.000Z</time>
      </trkpt>
      <trkpt lat="48.57149" lon="-2.2537">
        <ele>79</ele>
        <time>2021-07-30T12:18:06.000Z</time>
      </trkpt>
      <trkpt lat="48.57148" lon="-2.2535">
        <ele>80</ele>
        <time>2021-07-30T12:18:09.000Z</time>
      </trkpt>
      <trkpt lat="48.57147" lon="-2.25336">
        <ele>80</ele>
        <time>2021-07-30T12:18:11.000Z</time>
      </trkpt>
      <trkpt lat="48.57145" lon="-2.25314">
        <ele>79</ele>
        <time>2021-07-30T12:18:14.000Z</time>
      </trkpt>
      <trkpt lat="48.57144" lon="-2.253">
        <ele>78</ele>
        <time>2021-07-30T12:18:16.000Z</time>
      </trkpt>
      <trkpt lat="48.57141" lon="-2.25281">
        <ele>76</ele>
        <time>2021-07-30T12:18:19.000Z</time>
      </trkpt>
      <trkpt lat="48.57139" lon="-2.25267">
        <ele>76</ele>
        <time>2021-07-30T12:18:21.000Z</time>
      </trkpt>
      <trkpt lat="48.57136" lon="-2.25253">
        <ele>75</ele>
        <time>2021-07-30T12:18:23.000Z</time>
      </trkpt>
      <trkpt lat="48.57135" lon="-2.25235">
        <ele>75</ele>
        <time>2021-07-30T12:18:25.000Z</time>
      </trkpt>
      <trkpt lat="48.57134" lon="-2.25215">
        <ele>76</ele>
        <time>2021-07-30T12:18:27.000Z</time>
      </trkpt>
      <trkpt lat="48.57132" lon="-2.25195">
        <ele>76</ele>
        <time>2021-07-30T12:18:29.000Z</time>
      </trkpt>
      <trkpt lat="48.5713" lon="-2.25175">
        <ele>75</ele>
        <time>2021-07-30T12:18:31.000Z</time>
      </trkpt>
      <trkpt lat="48.57125" lon="-2.25161">
        <ele>75</ele>
        <time>2021-07-30T12:18:33.000Z</time>
      </trkpt>
      <trkpt lat="48.57116" lon="-2.25156">
        <ele>73</ele>
        <time>2021-07-30T12:18:36.000Z</time>
      </trkpt>
      <trkpt lat="48.57107" lon="-2.25147">
        <ele>72</ele>
        <time>2021-07-30T12:18:39.000Z</time>
      </trkpt>
      <trkpt lat="48.57101" lon="-2.25132">
        <ele>72</ele>
        <time>2021-07-30T12:18:41.000Z</time>
      </trkpt>
      <trkpt lat="48.57094" lon="-2.25118">
        <ele>71</ele>
        <time>2021-07-30T12:18:43.000Z</time>
      </trkpt>
      <trkpt lat="48.57086" lon="-2.25101">
        <ele>71</ele>
        <time>2021-07-30T12:18:45.000Z</time>
      </trkpt>
      <trkpt lat="48.57075" lon="-2.25086">
        <ele>70</ele>
        <time>2021-07-30T12:18:47.000Z</time>
      </trkpt>
      <trkpt lat="48.57064" lon="-2.25072">
        <ele>70</ele>
        <time>2021-07-30T12:18:49.000Z</time>
      </trkpt>
      <trkpt lat="48.57061" lon="-2.25059">
        <ele>68</ele>
        <time>2021-07-30T12:18:52.000Z</time>
      </trkpt>
      <trkpt lat="48.57064" lon="-2.25045">
        <ele>68</ele>
        <time>2021-07-30T12:18:56.000Z</time>
      </trkpt>
      <trkpt lat="48.57069" lon="-2.2503">
        <ele>67</ele>
        <time>2021-07-30T12:18:59.000Z</time>
      </trkpt>
      <trkpt lat="48.57069" lon="-2.25008">
        <ele>67</ele>
        <time>2021-07-30T12:19:02.000Z</time>
      </trkpt>
      <trkpt lat="48.57065" lon="-2.24993">
        <ele>65</ele>
        <time>2021-07-30T12:19:04.000Z</time>
      </trkpt>
      <trkpt lat="48.57063" lon="-2.24978">
        <ele>64</ele>
        <time>2021-07-30T12:19:06.000Z</time>
      </trkpt>
      <trkpt lat="48.57066" lon="-2.24958">
        <ele>63</ele>
        <time>2021-07-30T12:19:09.000Z</time>
      </trkpt>
      <trkpt lat="48.57076" lon="-2.24944">
        <ele>63</ele>
        <time>2021-07-30T12:19:12.000Z</time>
      </trkpt>
      <trkpt lat="48.57084" lon="-2.24932">
        <ele>63</ele>
        <time>2021-07-30T12:19:15.000Z</time>
      </trkpt>
      <trkpt lat="48.57089" lon="-2.24921">
        <ele>63</ele>
        <time>2021-07-30T12:19:18.000Z</time>
      </trkpt>
      <trkpt lat="48.5709" lon="-2.24903">
        <ele>63</ele>
        <time>2021-07-30T12:19:21.000Z</time>
      </trkpt>
      <trkpt lat="48.57088" lon="-2.24885">
        <ele>62</ele>
        <time>2021-07-30T12:19:24.000Z</time>
      </trkpt>
      <trkpt lat="48.57084" lon="-2.24867">
        <ele>61</ele>
        <time>2021-07-30T12:19:27.000Z</time>
      </trkpt>
      <trkpt lat="48.57082" lon="-2.24848">
        <ele>62</ele>
        <time>2021-07-30T12:19:30.000Z</time>
      </trkpt>
      <trkpt lat="48.57075" lon="-2.24834">
        <ele>62</ele>
        <time>2021-07-30T12:19:33.000Z</time>
      </trkpt>
      <trkpt lat="48.57067" lon="-2.24821">
        <ele>62</ele>
        <time>2021-07-30T12:19:36.000Z</time>
      </trkpt>
      <trkpt lat="48.57058" lon="-2.24808">
        <ele>62</ele>
        <time>2021-07-30T12:19:39.000Z</time>
      </trkpt>
      <trkpt lat="48.57049" lon="-2.24795">
        <ele>60</ele>
        <time>2021-07-30T12:19:42.000Z</time>
      </trkpt>
      <trkpt lat="48.57042" lon="-2.24781">
        <ele>61</ele>
        <time>2021-07-30T12:19:44.000Z</time>
      </trkpt>
      <trkpt lat="48.57036" lon="-2.24769">
        <ele>61</ele>
        <time>2021-07-30T12:19:46.000Z</time>
      </trkpt>
      <trkpt lat="48.57031" lon="-2.24758">
        <ele>61</ele>
        <time>2021-07-30T12:19:48.000Z</time>
      </trkpt>
      <trkpt lat="48.57024" lon="-2.24741">
        <ele>61</ele>
        <time>2021-07-30T12:19:51.000Z</time>
      </trkpt>
      <trkpt lat="48.57019" lon="-2.24723">
        <ele>61</ele>
        <time>2021-07-30T12:19:54.000Z</time>
      </trkpt>
      <trkpt lat="48.57018" lon="-2.24705">
        <ele>60</ele>
        <time>2021-07-30T12:19:57.000Z</time>
      </trkpt>
      <trkpt lat="48.57021" lon="-2.24692">
        <ele>59</ele>
        <time>2021-07-30T12:19:59.000Z</time>
      </trkpt>
      <trkpt lat="48.57025" lon="-2.24679">
        <ele>58</ele>
        <time>2021-07-30T12:20:01.000Z</time>
      </trkpt>
      <trkpt lat="48.5703" lon="-2.24666">
        <ele>58</ele>
        <time>2021-07-30T12:20:03.000Z</time>
      </trkpt>
      <trkpt lat="48.57036" lon="-2.24655">
        <ele>57</ele>
        <time>2021-07-30T12:20:06.000Z</time>
      </trkpt>
      <trkpt lat="48.57046" lon="-2.24648">
        <ele>58</ele>
        <time>2021-07-30T12:20:09.000Z</time>
      </trkpt>
      <trkpt lat="48.57055" lon="-2.24637">
        <ele>58</ele>
        <time>2021-07-30T12:20:12.000Z</time>
      </trkpt>
      <trkpt lat="48.57065" lon="-2.24627">
        <ele>59</ele>
        <time>2021-07-30T12:20:15.000Z</time>
      </trkpt>
      <trkpt lat="48.57075" lon="-2.24615">
        <ele>59</ele>
        <time>2021-07-30T12:20:18.000Z</time>
      </trkpt>
      <trkpt lat="48.57081" lon="-2.24605">
        <ele>60</ele>
        <time>2021-07-30T12:20:20.000Z</time>
      </trkpt>
      <trkpt lat="48.5709" lon="-2.24594">
        <ele>60</ele>
        <time>2021-07-30T12:20:23.000Z</time>
      </trkpt>
      <trkpt lat="48.57099" lon="-2.24585">
        <ele>60</ele>
        <time>2021-07-30T12:20:26.000Z</time>
      </trkpt>
      <trkpt lat="48.57108" lon="-2.24579">
        <ele>60</ele>
        <time>2021-07-30T12:20:29.000Z</time>
      </trkpt>
      <trkpt lat="48.57116" lon="-2.24571">
        <ele>61</ele>
        <time>2021-07-30T12:20:32.000Z</time>
      </trkpt>
      <trkpt lat="48.57123" lon="-2.2456">
        <ele>60</ele>
        <time>2021-07-30T12:20:35.000Z</time>
      </trkpt>
      <trkpt lat="48.57132" lon="-2.24548">
        <ele>60</ele>
        <time>2021-07-30T12:20:38.000Z</time>
      </trkpt>
      <trkpt lat="48.57138" lon="-2.24537">
        <ele>61</ele>
        <time>2021-07-30T12:21:01.000Z</time>
      </trkpt>
      <trkpt lat="48.57147" lon="-2.24527">
        <ele>61</ele>
        <time>2021-07-30T12:21:05.000Z</time>
      </trkpt>
      <trkpt lat="48.57154" lon="-2.24518">
        <ele>62</ele>
        <time>2021-07-30T12:21:08.000Z</time>
      </trkpt>
      <trkpt lat="48.57163" lon="-2.24507">
        <ele>62</ele>
        <time>2021-07-30T12:21:11.000Z</time>
      </trkpt>
      <trkpt lat="48.57173" lon="-2.24496">
        <ele>62</ele>
        <time>2021-07-30T12:21:14.000Z</time>
      </trkpt>
      <trkpt lat="48.57182" lon="-2.24486">
        <ele>62</ele>
        <time>2021-07-30T12:21:17.000Z</time>
      </trkpt>
      <trkpt lat="48.57189" lon="-2.24474">
        <ele>62</ele>
        <time>2021-07-30T12:21:21.000Z</time>
      </trkpt>
      <trkpt lat="48.57196" lon="-2.24464">
        <ele>63</ele>
        <time>2021-07-30T12:21:24.000Z</time>
      </trkpt>
      <trkpt lat="48.57205" lon="-2.24451">
        <ele>62</ele>
        <time>2021-07-30T12:21:27.000Z</time>
      </trkpt>
      <trkpt lat="48.57211" lon="-2.24441">
        <ele>62</ele>
        <time>2021-07-30T12:21:29.000Z</time>
      </trkpt>
      <trkpt lat="48.57219" lon="-2.24432">
        <ele>63</ele>
        <time>2021-07-30T12:21:31.000Z</time>
      </trkpt>
      <trkpt lat="48.57228" lon="-2.24421">
        <ele>62</ele>
        <time>2021-07-30T12:21:34.000Z</time>
      </trkpt>
      <trkpt lat="48.57237" lon="-2.24415">
        <ele>62</ele>
        <time>2021-07-30T12:21:36.000Z</time>
      </trkpt>
      <trkpt lat="48.57246" lon="-2.24407">
        <ele>61</ele>
        <time>2021-07-30T12:21:38.000Z</time>
      </trkpt>
      <trkpt lat="48.57258" lon="-2.24398">
        <ele>59</ele>
        <time>2021-07-30T12:21:41.000Z</time>
      </trkpt>
      <trkpt lat="48.57269" lon="-2.24389">
        <ele>57</ele>
        <time>2021-07-30T12:21:44.000Z</time>
      </trkpt>
      <trkpt lat="48.57281" lon="-2.24381">
        <ele>57</ele>
        <time>2021-07-30T12:21:47.000Z</time>
      </trkpt>
      <trkpt lat="48.57289" lon="-2.24376">
        <ele>57</ele>
        <time>2021-07-30T12:21:49.000Z</time>
      </trkpt>
      <trkpt lat="48.57302" lon="-2.24371">
        <ele>57</ele>
        <time>2021-07-30T12:21:52.000Z</time>
      </trkpt>
      <trkpt lat="48.57312" lon="-2.2437">
        <ele>56</ele>
        <time>2021-07-30T12:21:55.000Z</time>
      </trkpt>
      <trkpt lat="48.57323" lon="-2.2437">
        <ele>57</ele>
        <time>2021-07-30T12:21:58.000Z</time>
      </trkpt>
      <trkpt lat="48.57334" lon="-2.24367">
        <ele>58</ele>
        <time>2021-07-30T12:22:01.000Z</time>
      </trkpt>
      <trkpt lat="48.57345" lon="-2.24361">
        <ele>58</ele>
        <time>2021-07-30T12:22:04.000Z</time>
      </trkpt>
      <trkpt lat="48.57355" lon="-2.24351">
        <ele>57</ele>
        <time>2021-07-30T12:22:07.000Z</time>
      </trkpt>
      <trkpt lat="48.57363" lon="-2.24341">
        <ele>57</ele>
        <time>2021-07-30T12:22:30.000Z</time>
      </trkpt>
      <trkpt lat="48.57373" lon="-2.24335">
        <ele>57</ele>
        <time>2021-07-30T12:22:34.000Z</time>
      </trkpt>
      <trkpt lat="48.57383" lon="-2.24326">
        <ele>57</ele>
        <time>2021-07-30T12:22:37.000Z</time>
      </trkpt>
      <trkpt lat="48.57393" lon="-2.24318">
        <ele>57</ele>
        <time>2021-07-30T12:22:40.000Z</time>
      </trkpt>
      <trkpt lat="48.57403" lon="-2.24309">
        <ele>57</ele>
        <time>2021-07-30T12:22:43.000Z</time>
      </trkpt>
      <trkpt lat="48.57413" lon="-2.24299">
        <ele>57</ele>
        <time>2021-07-30T12:22:46.000Z</time>
      </trkpt>
      <trkpt lat="48.57425" lon="-2.24289">
        <ele>57</ele>
        <time>2021-07-30T12:22:49.000Z</time>
      </trkpt>
      <trkpt lat="48.57435" lon="-2.2428">
        <ele>57</ele>
        <time>2021-07-30T12:22:52.000Z</time>
      </trkpt>
      <trkpt lat="48.57447" lon="-2.24272">
        <ele>58</ele>
        <time>2021-07-30T12:22:55.000Z</time>
      </trkpt>
      <trkpt lat="48.57458" lon="-2.24263">
        <ele>58</ele>
        <time>2021-07-30T12:22:58.000Z</time>
      </trkpt>
      <trkpt lat="48.57465" lon="-2.24251">
        <ele>58</ele>
        <time>2021-07-30T12:23:01.000Z</time>
      </trkpt>
      <trkpt lat="48.57473" lon="-2.24236">
        <ele>58</ele>
        <time>2021-07-30T12:23:04.000Z</time>
      </trkpt>
      <trkpt lat="48.57478" lon="-2.24222">
        <ele>58</ele>
        <time>2021-07-30T12:23:07.000Z</time>
      </trkpt>
      <trkpt lat="48.57482" lon="-2.24208">
        <ele>58</ele>
        <time>2021-07-30T12:23:10.000Z</time>
      </trkpt>
      <trkpt lat="48.57484" lon="-2.24192">
        <ele>58</ele>
        <time>2021-07-30T12:23:13.000Z</time>
      </trkpt>
      <trkpt lat="48.57486" lon="-2.24175">
        <ele>58</ele>
        <time>2021-07-30T12:23:16.000Z</time>
      </trkpt>
      <trkpt lat="48.57488" lon="-2.24157">
        <ele>59</ele>
        <time>2021-07-30T12:23:19.000Z</time>
      </trkpt>
      <trkpt lat="48.57491" lon="-2.24138">
        <ele>59</ele>
        <time>2021-07-30T12:23:22.000Z</time>
      </trkpt>
      <trkpt lat="48.57492" lon="-2.24124">
        <ele>59</ele>
        <time>2021-07-30T12:23:24.000Z</time>
      </trkpt>
      <trkpt lat="48.57493" lon="-2.24111">
        <ele>59</ele>
        <time>2021-07-30T12:23:26.000Z</time>
      </trkpt>
      <trkpt lat="48.57492" lon="-2.24092">
        <ele>58</ele>
        <time>2021-07-30T12:23:29.000Z</time>
      </trkpt>
      <trkpt lat="48.5749" lon="-2.24074">
        <ele>58</ele>
        <time>2021-07-30T12:23:32.000Z</time>
      </trkpt>
      <trkpt lat="48.57488" lon="-2.24057">
        <ele>57</ele>
        <time>2021-07-30T12:23:35.000Z</time>
      </trkpt>
      <trkpt lat="48.57486" lon="-2.24041">
        <ele>56</ele>
        <time>2021-07-30T12:23:38.000Z</time>
      </trkpt>
      <trkpt lat="48.57485" lon="-2.24025">
        <ele>53</ele>
        <time>2021-07-30T12:23:41.000Z</time>
      </trkpt>
      <trkpt lat="48.57484" lon="-2.24006">
        <ele>51</ele>
        <time>2021-07-30T12:23:44.000Z</time>
      </trkpt>
      <trkpt lat="48.57484" lon="-2.23988">
        <ele>49</ele>
        <time>2021-07-30T12:23:47.000Z</time>
      </trkpt>
      <trkpt lat="48.57484" lon="-2.23974">
        <ele>49</ele>
        <time>2021-07-30T12:23:49.000Z</time>
      </trkpt>
      <trkpt lat="48.57485" lon="-2.23951">
        <ele>51</ele>
        <time>2021-07-30T12:23:52.000Z</time>
      </trkpt>
      <trkpt lat="48.57485" lon="-2.23937">
        <ele>49</ele>
        <time>2021-07-30T12:23:54.000Z</time>
      </trkpt>
      <trkpt lat="48.57486" lon="-2.23922">
        <ele>50</ele>
        <time>2021-07-30T12:23:56.000Z</time>
      </trkpt>
      <trkpt lat="48.57486" lon="-2.23903">
        <ele>51</ele>
        <time>2021-07-30T12:23:59.000Z</time>
      </trkpt>
      <trkpt lat="48.57482" lon="-2.23888">
        <ele>51</ele>
        <time>2021-07-30T12:24:02.000Z</time>
      </trkpt>
      <trkpt lat="48.57474" lon="-2.23896">
        <ele>52</ele>
        <time>2021-07-30T12:24:40.000Z</time>
      </trkpt>
      <trkpt lat="48.57471" lon="-2.23914">
        <ele>55</ele>
        <time>2021-07-30T12:24:43.000Z</time>
      </trkpt>
      <trkpt lat="48.57466" lon="-2.23933">
        <ele>58</ele>
        <time>2021-07-30T12:24:46.000Z</time>
      </trkpt>
      <trkpt lat="48.5746" lon="-2.23946">
        <ele>58</ele>
        <time>2021-07-30T12:24:48.000Z</time>
      </trkpt>
      <trkpt lat="48.57453" lon="-2.23957">
        <ele>58</ele>
        <time>2021-07-30T12:24:50.000Z</time>
      </trkpt>
      <trkpt lat="48.57444" lon="-2.23955">
        <ele>58</ele>
        <time>2021-07-30T12:24:55.000Z</time>
      </trkpt>
      <trkpt lat="48.57437" lon="-2.23944">
        <ele>57</ele>
        <time>2021-07-30T12:24:58.000Z</time>
      </trkpt>
      <trkpt lat="48.57428" lon="-2.23932">
        <ele>58</ele>
        <time>2021-07-30T12:25:02.000Z</time>
      </trkpt>
      <trkpt lat="48.57423" lon="-2.23918">
        <ele>58</ele>
        <time>2021-07-30T12:25:11.000Z</time>
      </trkpt>
      <trkpt lat="48.57419" lon="-2.23902">
        <ele>58</ele>
        <time>2021-07-30T12:25:16.000Z</time>
      </trkpt>
      <trkpt lat="48.57412" lon="-2.23888">
        <ele>58</ele>
        <time>2021-07-30T12:25:20.000Z</time>
      </trkpt>
      <trkpt lat="48.57406" lon="-2.23876">
        <ele>58</ele>
        <time>2021-07-30T12:25:23.000Z</time>
      </trkpt>
      <trkpt lat="48.57399" lon="-2.23863">
        <ele>59</ele>
        <time>2021-07-30T12:25:27.000Z</time>
      </trkpt>
      <trkpt lat="48.57393" lon="-2.23852">
        <ele>59</ele>
        <time>2021-07-30T12:25:32.000Z</time>
      </trkpt>
      <trkpt lat="48.57386" lon="-2.23839">
        <ele>58</ele>
        <time>2021-07-30T12:25:42.000Z</time>
      </trkpt>
      <trkpt lat="48.57378" lon="-2.23828">
        <ele>59</ele>
        <time>2021-07-30T12:25:49.000Z</time>
      </trkpt>
      <trkpt lat="48.5737" lon="-2.23816">
        <ele>60</ele>
        <time>2021-07-30T12:25:56.000Z</time>
      </trkpt>
      <trkpt lat="48.57363" lon="-2.23805">
        <ele>61</ele>
        <time>2021-07-30T12:26:04.000Z</time>
      </trkpt>
      <trkpt lat="48.57357" lon="-2.23794">
        <ele>61</ele>
        <time>2021-07-30T12:26:10.000Z</time>
      </trkpt>
      <trkpt lat="48.5735" lon="-2.23782">
        <ele>62</ele>
        <time>2021-07-30T12:26:14.000Z</time>
      </trkpt>
      <trkpt lat="48.57344" lon="-2.2377">
        <ele>63</ele>
        <time>2021-07-30T12:26:19.000Z</time>
      </trkpt>
      <trkpt lat="48.5734" lon="-2.23757">
        <ele>64</ele>
        <time>2021-07-30T12:26:23.000Z</time>
      </trkpt>
      <trkpt lat="48.57337" lon="-2.23743">
        <ele>65</ele>
        <time>2021-07-30T12:26:27.000Z</time>
      </trkpt>
      <trkpt lat="48.57333" lon="-2.2373">
        <ele>67</ele>
        <time>2021-07-30T12:26:31.000Z</time>
      </trkpt>
      <trkpt lat="48.57327" lon="-2.23717">
        <ele>70</ele>
        <time>2021-07-30T12:26:36.000Z</time>
      </trkpt>
      <trkpt lat="48.57316" lon="-2.23711">
        <ele>73</ele>
        <time>2021-07-30T12:26:41.000Z</time>
      </trkpt>
      <trkpt lat="48.57306" lon="-2.23707">
        <ele>77</ele>
        <time>2021-07-30T12:27:40.000Z</time>
      </trkpt>
      <trkpt lat="48.57296" lon="-2.23707">
        <ele>79</ele>
        <time>2021-07-30T12:27:44.000Z</time>
      </trkpt>
      <trkpt lat="48.57286" lon="-2.23705">
        <ele>80</ele>
        <time>2021-07-30T12:27:48.000Z</time>
      </trkpt>
      <trkpt lat="48.57275" lon="-2.23704">
        <ele>81</ele>
        <time>2021-07-30T12:27:52.000Z</time>
      </trkpt>
      <trkpt lat="48.57264" lon="-2.23703">
        <ele>82</ele>
        <time>2021-07-30T12:27:56.000Z</time>
      </trkpt>
      <trkpt lat="48.57252" lon="-2.23702">
        <ele>82</ele>
        <time>2021-07-30T12:28:00.000Z</time>
      </trkpt>
      <trkpt lat="48.57243" lon="-2.237">
        <ele>83</ele>
        <time>2021-07-30T12:28:03.000Z</time>
      </trkpt>
      <trkpt lat="48.57231" lon="-2.23698">
        <ele>84</ele>
        <time>2021-07-30T12:28:07.000Z</time>
      </trkpt>
      <trkpt lat="48.5722" lon="-2.23697">
        <ele>84</ele>
        <time>2021-07-30T12:28:11.000Z</time>
      </trkpt>
      <trkpt lat="48.57208" lon="-2.23696">
        <ele>84</ele>
        <time>2021-07-30T12:28:15.000Z</time>
      </trkpt>
      <trkpt lat="48.57199" lon="-2.23696">
        <ele>85</ele>
        <time>2021-07-30T12:28:18.000Z</time>
      </trkpt>
      <trkpt lat="48.57188" lon="-2.23694">
        <ele>85</ele>
        <time>2021-07-30T12:28:22.000Z</time>
      </trkpt>
      <trkpt lat="48.57176" lon="-2.23691">
        <ele>85</ele>
        <time>2021-07-30T12:28:26.000Z</time>
      </trkpt>
      <trkpt lat="48.57167" lon="-2.23693">
        <ele>84</ele>
        <time>2021-07-30T12:28:32.000Z</time>
      </trkpt>
      <trkpt lat="48.57156" lon="-2.23692">
        <ele>82</ele>
        <time>2021-07-30T12:28:36.000Z</time>
      </trkpt>
      <trkpt lat="48.57147" lon="-2.23691">
        <ele>82</ele>
        <time>2021-07-30T12:28:40.000Z</time>
      </trkpt>
      <trkpt lat="48.57157" lon="-2.23691">
        <ele>81</ele>
        <time>2021-07-30T12:29:03.000Z</time>
      </trkpt>
      <trkpt lat="48.57166" lon="-2.23692">
        <ele>81</ele>
        <time>2021-07-30T12:29:06.000Z</time>
      </trkpt>
      <trkpt lat="48.57176" lon="-2.23695">
        <ele>81</ele>
        <time>2021-07-30T12:29:10.000Z</time>
      </trkpt>
      <trkpt lat="48.5718" lon="-2.2368">
        <ele>81</ele>
        <time>2021-07-30T12:29:17.000Z</time>
      </trkpt>
      <trkpt lat="48.57182" lon="-2.23666">
        <ele>82</ele>
        <time>2021-07-30T12:29:21.000Z</time>
      </trkpt>
      <trkpt lat="48.57187" lon="-2.23652">
        <ele>83</ele>
        <time>2021-07-30T12:29:24.000Z</time>
      </trkpt>
      <trkpt lat="48.57192" lon="-2.2364">
        <ele>83</ele>
        <time>2021-07-30T12:29:27.000Z</time>
      </trkpt>
      <trkpt lat="48.57197" lon="-2.23628">
        <ele>83</ele>
        <time>2021-07-30T12:29:30.000Z</time>
      </trkpt>
      <trkpt lat="48.572" lon="-2.23616">
        <ele>83</ele>
        <time>2021-07-30T12:29:33.000Z</time>
      </trkpt>
      <trkpt lat="48.57202" lon="-2.236">
        <ele>82</ele>
        <time>2021-07-30T12:29:36.000Z</time>
      </trkpt>
      <trkpt lat="48.57202" lon="-2.23585">
        <ele>81</ele>
        <time>2021-07-30T12:29:39.000Z</time>
      </trkpt>
      <trkpt lat="48.57204" lon="-2.2357">
        <ele>79</ele>
        <time>2021-07-30T12:29:43.000Z</time>
      </trkpt>
      <trkpt lat="48.57204" lon="-2.23555">
        <ele>78</ele>
        <time>2021-07-30T12:29:50.000Z</time>
      </trkpt>
      <trkpt lat="48.57206" lon="-2.23541">
        <ele>79</ele>
        <time>2021-07-30T12:29:55.000Z</time>
      </trkpt>
      <trkpt lat="48.57212" lon="-2.23528">
        <ele>79</ele>
        <time>2021-07-30T12:30:02.000Z</time>
      </trkpt>
      <trkpt lat="48.5722" lon="-2.23519">
        <ele>80</ele>
        <time>2021-07-30T12:30:07.000Z</time>
      </trkpt>
      <trkpt lat="48.57228" lon="-2.23509">
        <ele>79</ele>
        <time>2021-07-30T12:30:12.000Z</time>
      </trkpt>
      <trkpt lat="48.57238" lon="-2.23508">
        <ele>79</ele>
        <time>2021-07-30T12:30:20.000Z</time>
      </trkpt>
      <trkpt lat="48.57254" lon="-2.23511">
        <ele>78</ele>
        <time>2021-07-30T12:30:31.000Z</time>
      </trkpt>
      <trkpt lat="48.57264" lon="-2.23513">
        <ele>78</ele>
        <time>2021-07-30T12:30:34.000Z</time>
      </trkpt>
      <trkpt lat="48.57274" lon="-2.23516">
        <ele>78</ele>
        <time>2021-07-30T12:30:38.000Z</time>
      </trkpt>
      <trkpt lat="48.57285" lon="-2.23518">
        <ele>79</ele>
        <time>2021-07-30T12:30:42.000Z</time>
      </trkpt>
      <trkpt lat="48.57295" lon="-2.23518">
        <ele>78</ele>
        <time>2021-07-30T12:30:46.000Z</time>
      </trkpt>
      <trkpt lat="48.57305" lon="-2.23514">
        <ele>75</ele>
        <time>2021-07-30T12:30:50.000Z</time>
      </trkpt>
      <trkpt lat="48.57314" lon="-2.23505">
        <ele>74</ele>
        <time>2021-07-30T12:30:53.000Z</time>
      </trkpt>
      <trkpt lat="48.57323" lon="-2.23498">
        <ele>72</ele>
        <time>2021-07-30T12:30:58.000Z</time>
      </trkpt>
      <trkpt lat="48.57333" lon="-2.23496">
        <ele>72</ele>
        <time>2021-07-30T12:31:01.000Z</time>
      </trkpt>
      <trkpt lat="48.57342" lon="-2.23492">
        <ele>73</ele>
        <time>2021-07-30T12:31:06.000Z</time>
      </trkpt>
      <trkpt lat="48.57351" lon="-2.23487">
        <ele>72</ele>
        <time>2021-07-30T12:31:14.000Z</time>
      </trkpt>
      <trkpt lat="48.5736" lon="-2.23481">
        <ele>70</ele>
        <time>2021-07-30T12:31:20.000Z</time>
      </trkpt>
      <trkpt lat="48.57364" lon="-2.23468">
        <ele>76</ele>
        <time>2021-07-30T12:31:51.000Z</time>
      </trkpt>
      <trkpt lat="48.57371" lon="-2.23456">
        <ele>76</ele>
        <time>2021-07-30T12:31:59.000Z</time>
      </trkpt>
      <trkpt lat="48.57378" lon="-2.23446">
        <ele>79</ele>
        <time>2021-07-30T12:32:12.000Z</time>
      </trkpt>
      <trkpt lat="48.57388" lon="-2.23438">
        <ele>79</ele>
        <time>2021-07-30T12:32:18.000Z</time>
      </trkpt>
      <trkpt lat="48.57399" lon="-2.23431">
        <ele>78</ele>
        <time>2021-07-30T12:32:22.000Z</time>
      </trkpt>
      <trkpt lat="48.57409" lon="-2.2343">
        <ele>76</ele>
        <time>2021-07-30T12:32:25.000Z</time>
      </trkpt>
      <trkpt lat="48.57421" lon="-2.2343">
        <ele>76</ele>
        <time>2021-07-30T12:32:28.000Z</time>
      </trkpt>
      <trkpt lat="48.57434" lon="-2.23432">
        <ele>73</ele>
        <time>2021-07-30T12:32:31.000Z</time>
      </trkpt>
      <trkpt lat="48.57444" lon="-2.23438">
        <ele>71</ele>
        <time>2021-07-30T12:32:34.000Z</time>
      </trkpt>
      <trkpt lat="48.57441" lon="-2.23451">
        <ele>70</ele>
        <time>2021-07-30T12:32:38.000Z</time>
      </trkpt>
      <trkpt lat="48.57432" lon="-2.23461">
        <ele>68</ele>
        <time>2021-07-30T12:32:41.000Z</time>
      </trkpt>
      <trkpt lat="48.57423" lon="-2.23466">
        <ele>67</ele>
        <time>2021-07-30T12:32:46.000Z</time>
      </trkpt>
      <trkpt lat="48.57413" lon="-2.23473">
        <ele>66</ele>
        <time>2021-07-30T12:32:56.000Z</time>
      </trkpt>
      <trkpt lat="48.57413" lon="-2.23487">
        <ele>65</ele>
        <time>2021-07-30T12:33:05.000Z</time>
      </trkpt>
      <trkpt lat="48.57411" lon="-2.23503">
        <ele>62</ele>
        <time>2021-07-30T12:33:16.000Z</time>
      </trkpt>
      <trkpt lat="48.57408" lon="-2.23516">
        <ele>66</ele>
        <time>2021-07-30T12:33:37.000Z</time>
      </trkpt>
      <trkpt lat="48.57403" lon="-2.23529">
        <ele>68</ele>
        <time>2021-07-30T12:34:11.000Z</time>
      </trkpt>
      <trkpt lat="48.57395" lon="-2.23538">
        <ele>68</ele>
        <time>2021-07-30T12:34:15.000Z</time>
      </trkpt>
      <trkpt lat="48.57388" lon="-2.23546">
        <ele>68</ele>
        <time>2021-07-30T12:34:20.000Z</time>
      </trkpt>
      <trkpt lat="48.57379" lon="-2.23556">
        <ele>69</ele>
        <time>2021-07-30T12:34:27.000Z</time>
      </trkpt>
      <trkpt lat="48.57371" lon="-2.23567">
        <ele>68</ele>
        <time>2021-07-30T12:34:32.000Z</time>
      </trkpt>
      <trkpt lat="48.57363" lon="-2.23576">
        <ele>70</ele>
        <time>2021-07-30T12:34:37.000Z</time>
      </trkpt>
      <trkpt lat="48.57357" lon="-2.23587">
        <ele>71</ele>
        <time>2021-07-30T12:34:43.000Z</time>
      </trkpt>
      <trkpt lat="48.57353" lon="-2.23599">
        <ele>73</ele>
        <time>2021-07-30T12:34:48.000Z</time>
      </trkpt>
      <trkpt lat="48.57348" lon="-2.23615">
        <ele>75</ele>
        <time>2021-07-30T12:34:53.000Z</time>
      </trkpt>
      <trkpt lat="48.57344" lon="-2.23627">
        <ele>76</ele>
        <time>2021-07-30T12:34:57.000Z</time>
      </trkpt>
      <trkpt lat="48.5734" lon="-2.2364">
        <ele>77</ele>
        <time>2021-07-30T12:35:01.000Z</time>
      </trkpt>
      <trkpt lat="48.57335" lon="-2.23655">
        <ele>78</ele>
        <time>2021-07-30T12:35:06.000Z</time>
      </trkpt>
      <trkpt lat="48.57333" lon="-2.23669">
        <ele>79</ele>
        <time>2021-07-30T12:35:10.000Z</time>
      </trkpt>
      <trkpt lat="48.57333" lon="-2.23686">
        <ele>81</ele>
        <time>2021-07-30T12:35:15.000Z</time>
      </trkpt>
      <trkpt lat="48.57332" lon="-2.23701">
        <ele>81</ele>
        <time>2021-07-30T12:35:19.000Z</time>
      </trkpt>
      <trkpt lat="48.5733" lon="-2.23716">
        <ele>81</ele>
        <time>2021-07-30T12:35:23.000Z</time>
      </trkpt>
      <trkpt lat="48.57334" lon="-2.23733">
        <ele>81</ele>
        <time>2021-07-30T12:35:27.000Z</time>
      </trkpt>
      <trkpt lat="48.57337" lon="-2.23748">
        <ele>81</ele>
        <time>2021-07-30T12:35:30.000Z</time>
      </trkpt>
      <trkpt lat="48.57341" lon="-2.23764">
        <ele>80</ele>
        <time>2021-07-30T12:35:34.000Z</time>
      </trkpt>
      <trkpt lat="48.57348" lon="-2.23777">
        <ele>80</ele>
        <time>2021-07-30T12:35:37.000Z</time>
      </trkpt>
      <trkpt lat="48.57355" lon="-2.23787">
        <ele>79</ele>
        <time>2021-07-30T12:35:39.000Z</time>
      </trkpt>
      <trkpt lat="48.57364" lon="-2.23797">
        <ele>79</ele>
        <time>2021-07-30T12:35:41.000Z</time>
      </trkpt>
      <trkpt lat="48.57373" lon="-2.23809">
        <ele>80</ele>
        <time>2021-07-30T12:35:43.000Z</time>
      </trkpt>
      <trkpt lat="48.57381" lon="-2.23823">
        <ele>79</ele>
        <time>2021-07-30T12:35:45.000Z</time>
      </trkpt>
      <trkpt lat="48.57388" lon="-2.23837">
        <ele>78</ele>
        <time>2021-07-30T12:35:47.000Z</time>
      </trkpt>
      <trkpt lat="48.57394" lon="-2.23856">
        <ele>76</ele>
        <time>2021-07-30T12:35:49.000Z</time>
      </trkpt>
      <trkpt lat="48.57402" lon="-2.23873">
        <ele>76</ele>
        <time>2021-07-30T12:35:51.000Z</time>
      </trkpt>
      <trkpt lat="48.57409" lon="-2.23889">
        <ele>75</ele>
        <time>2021-07-30T12:35:53.000Z</time>
      </trkpt>
      <trkpt lat="48.57416" lon="-2.23907">
        <ele>73</ele>
        <time>2021-07-30T12:35:55.000Z</time>
      </trkpt>
      <trkpt lat="48.57421" lon="-2.23919">
        <ele>71</ele>
        <time>2021-07-30T12:35:57.000Z</time>
      </trkpt>
      <trkpt lat="48.57426" lon="-2.23931">
        <ele>70</ele>
        <time>2021-07-30T12:35:59.000Z</time>
      </trkpt>
      <trkpt lat="48.57435" lon="-2.23942">
        <ele>69</ele>
        <time>2021-07-30T12:36:02.000Z</time>
      </trkpt>
      <trkpt lat="48.5744" lon="-2.23954">
        <ele>68</ele>
        <time>2021-07-30T12:36:05.000Z</time>
      </trkpt>
      <trkpt lat="48.57435" lon="-2.23969">
        <ele>66</ele>
        <time>2021-07-30T12:36:11.000Z</time>
      </trkpt>
      <trkpt lat="48.57431" lon="-2.23984">
        <ele>66</ele>
        <time>2021-07-30T12:36:15.000Z</time>
      </trkpt>
      <trkpt lat="48.57422" lon="-2.2399">
        <ele>66</ele>
        <time>2021-07-30T12:36:19.000Z</time>
      </trkpt>
      <trkpt lat="48.57413" lon="-2.23995">
        <ele>66</ele>
        <time>2021-07-30T12:36:24.000Z</time>
      </trkpt>
      <trkpt lat="48.57424" lon="-2.23984">
        <ele>68</ele>
        <time>2021-07-30T12:36:37.000Z</time>
      </trkpt>
      <trkpt lat="48.57432" lon="-2.23978">
        <ele>67</ele>
        <time>2021-07-30T12:36:39.000Z</time>
      </trkpt>
      <trkpt lat="48.57442" lon="-2.23973">
        <ele>68</ele>
        <time>2021-07-30T12:36:41.000Z</time>
      </trkpt>
      <trkpt lat="48.57452" lon="-2.23975">
        <ele>66</ele>
        <time>2021-07-30T12:36:45.000Z</time>
      </trkpt>
      <trkpt lat="48.57461" lon="-2.23976">
        <ele>65</ele>
        <time>2021-07-30T12:36:49.000Z</time>
      </trkpt>
      <trkpt lat="48.57472" lon="-2.23974">
        <ele>65</ele>
        <time>2021-07-30T12:36:53.000Z</time>
      </trkpt>
      <trkpt lat="48.57482" lon="-2.23977">
        <ele>65</ele>
        <time>2021-07-30T12:36:57.000Z</time>
      </trkpt>
      <trkpt lat="48.57486" lon="-2.2399">
        <ele>65</ele>
        <time>2021-07-30T12:37:01.000Z</time>
      </trkpt>
      <trkpt lat="48.57488" lon="-2.24005">
        <ele>64</ele>
        <time>2021-07-30T12:37:04.000Z</time>
      </trkpt>
      <trkpt lat="48.57489" lon="-2.24021">
        <ele>65</ele>
        <time>2021-07-30T12:37:07.000Z</time>
      </trkpt>
      <trkpt lat="48.57489" lon="-2.24039">
        <ele>65</ele>
        <time>2021-07-30T12:37:10.000Z</time>
      </trkpt>
      <trkpt lat="48.57491" lon="-2.24058">
        <ele>65</ele>
        <time>2021-07-30T12:37:13.000Z</time>
      </trkpt>
      <trkpt lat="48.57492" lon="-2.24076">
        <ele>64</ele>
        <time>2021-07-30T12:37:16.000Z</time>
      </trkpt>
      <trkpt lat="48.57492" lon="-2.24094">
        <ele>64</ele>
        <time>2021-07-30T12:37:19.000Z</time>
      </trkpt>
      <trkpt lat="48.57491" lon="-2.24112">
        <ele>63</ele>
        <time>2021-07-30T12:37:22.000Z</time>
      </trkpt>
      <trkpt lat="48.5749" lon="-2.2413">
        <ele>63</ele>
        <time>2021-07-30T12:37:25.000Z</time>
      </trkpt>
      <trkpt lat="48.57489" lon="-2.24144">
        <ele>62</ele>
        <time>2021-07-30T12:37:27.000Z</time>
      </trkpt>
      <trkpt lat="48.57488" lon="-2.24162">
        <ele>62</ele>
        <time>2021-07-30T12:37:29.000Z</time>
      </trkpt>
      <trkpt lat="48.57486" lon="-2.24184">
        <ele>63</ele>
        <time>2021-07-30T12:37:31.000Z</time>
      </trkpt>
      <trkpt lat="48.57484" lon="-2.24199">
        <ele>65</ele>
        <time>2021-07-30T12:37:33.000Z</time>
      </trkpt>
      <trkpt lat="48.57481" lon="-2.24215">
        <ele>66</ele>
        <time>2021-07-30T12:37:35.000Z</time>
      </trkpt>
      <trkpt lat="48.57477" lon="-2.2423">
        <ele>66</ele>
        <time>2021-07-30T12:37:37.000Z</time>
      </trkpt>
      <trkpt lat="48.57471" lon="-2.24244">
        <ele>65</ele>
        <time>2021-07-30T12:37:39.000Z</time>
      </trkpt>
      <trkpt lat="48.57464" lon="-2.24255">
        <ele>65</ele>
        <time>2021-07-30T12:37:41.000Z</time>
      </trkpt>
      <trkpt lat="48.57456" lon="-2.24266">
        <ele>65</ele>
        <time>2021-07-30T12:37:43.000Z</time>
      </trkpt>
      <trkpt lat="48.57445" lon="-2.24274">
        <ele>66</ele>
        <time>2021-07-30T12:37:46.000Z</time>
      </trkpt>
      <trkpt lat="48.57436" lon="-2.24279">
        <ele>66</ele>
        <time>2021-07-30T12:37:48.000Z</time>
      </trkpt>
      <trkpt lat="48.57423" lon="-2.24291">
        <ele>70</ele>
        <time>2021-07-30T12:37:51.000Z</time>
      </trkpt>
      <trkpt lat="48.57414" lon="-2.243">
        <ele>70</ele>
        <time>2021-07-30T12:37:53.000Z</time>
      </trkpt>
      <trkpt lat="48.57405" lon="-2.24309">
        <ele>70</ele>
        <time>2021-07-30T12:37:55.000Z</time>
      </trkpt>
      <trkpt lat="48.57397" lon="-2.24319">
        <ele>70</ele>
        <time>2021-07-30T12:37:57.000Z</time>
      </trkpt>
      <trkpt lat="48.57387" lon="-2.24328">
        <ele>70</ele>
        <time>2021-07-30T12:37:59.000Z</time>
      </trkpt>
      <trkpt lat="48.57378" lon="-2.24334">
        <ele>69</ele>
        <time>2021-07-30T12:38:01.000Z</time>
      </trkpt>
      <trkpt lat="48.57369" lon="-2.24339">
        <ele>67</ele>
        <time>2021-07-30T12:38:03.000Z</time>
      </trkpt>
      <trkpt lat="48.57358" lon="-2.24337">
        <ele>67</ele>
        <time>2021-07-30T12:38:05.000Z</time>
      </trkpt>
      <trkpt lat="48.57347" lon="-2.24333">
        <ele>67</ele>
        <time>2021-07-30T12:38:08.000Z</time>
      </trkpt>
      <trkpt lat="48.5734" lon="-2.24321">
        <ele>66</ele>
        <time>2021-07-30T12:38:11.000Z</time>
      </trkpt>
      <trkpt lat="48.57333" lon="-2.24312">
        <ele>67</ele>
        <time>2021-07-30T12:38:14.000Z</time>
      </trkpt>
      <trkpt lat="48.57323" lon="-2.24315">
        <ele>66</ele>
        <time>2021-07-30T12:38:19.000Z</time>
      </trkpt>
      <trkpt lat="48.57311" lon="-2.2432">
        <ele>64</ele>
        <time>2021-07-30T12:38:23.000Z</time>
      </trkpt>
      <trkpt lat="48.573" lon="-2.24325">
        <ele>62</ele>
        <time>2021-07-30T12:38:26.000Z</time>
      </trkpt>
      <trkpt lat="48.57288" lon="-2.24334">
        <ele>61</ele>
        <time>2021-07-30T12:38:29.000Z</time>
      </trkpt>
      <trkpt lat="48.57278" lon="-2.2434">
        <ele>60</ele>
        <time>2021-07-30T12:38:31.000Z</time>
      </trkpt>
      <trkpt lat="48.57269" lon="-2.24346">
        <ele>59</ele>
        <time>2021-07-30T12:38:33.000Z</time>
      </trkpt>
      <trkpt lat="48.5726" lon="-2.24352">
        <ele>59</ele>
        <time>2021-07-30T12:38:35.000Z</time>
      </trkpt>
      <trkpt lat="48.5725" lon="-2.24358">
        <ele>58</ele>
        <time>2021-07-30T12:38:37.000Z</time>
      </trkpt>
      <trkpt lat="48.57239" lon="-2.24368">
        <ele>57</ele>
        <time>2021-07-30T12:38:39.000Z</time>
      </trkpt>
      <trkpt lat="48.57227" lon="-2.24377">
        <ele>56</ele>
        <time>2021-07-30T12:38:41.000Z</time>
      </trkpt>
      <trkpt lat="48.57218" lon="-2.24387">
        <ele>55</ele>
        <time>2021-07-30T12:38:43.000Z</time>
      </trkpt>
      <trkpt lat="48.57208" lon="-2.24397">
        <ele>54</ele>
        <time>2021-07-30T12:38:45.000Z</time>
      </trkpt>
      <trkpt lat="48.57197" lon="-2.24406">
        <ele>54</ele>
        <time>2021-07-30T12:38:48.000Z</time>
      </trkpt>
      <trkpt lat="48.57186" lon="-2.24417">
        <ele>53</ele>
        <time>2021-07-30T12:38:51.000Z</time>
      </trkpt>
      <trkpt lat="48.57175" lon="-2.24428">
        <ele>52</ele>
        <time>2021-07-30T12:38:54.000Z</time>
      </trkpt>
      <trkpt lat="48.57167" lon="-2.24435">
        <ele>52</ele>
        <time>2021-07-30T12:38:56.000Z</time>
      </trkpt>
      <trkpt lat="48.57159" lon="-2.24443">
        <ele>52</ele>
        <time>2021-07-30T12:38:58.000Z</time>
      </trkpt>
      <trkpt lat="48.57152" lon="-2.24451">
        <ele>51</ele>
        <time>2021-07-30T12:39:00.000Z</time>
      </trkpt>
      <trkpt lat="48.57145" lon="-2.2446">
        <ele>51</ele>
        <time>2021-07-30T12:39:02.000Z</time>
      </trkpt>
      <trkpt lat="48.57138" lon="-2.24471">
        <ele>50</ele>
        <time>2021-07-30T12:39:04.000Z</time>
      </trkpt>
      <trkpt lat="48.57131" lon="-2.24482">
        <ele>50</ele>
        <time>2021-07-30T12:39:06.000Z</time>
      </trkpt>
      <trkpt lat="48.57124" lon="-2.24492">
        <ele>50</ele>
        <time>2021-07-30T12:39:08.000Z</time>
      </trkpt>
      <trkpt lat="48.57117" lon="-2.24502">
        <ele>51</ele>
        <time>2021-07-30T12:39:10.000Z</time>
      </trkpt>
      <trkpt lat="48.5711" lon="-2.2451">
        <ele>51</ele>
        <time>2021-07-30T12:39:12.000Z</time>
      </trkpt>
      <trkpt lat="48.57099" lon="-2.24521">
        <ele>51</ele>
        <time>2021-07-30T12:39:15.000Z</time>
      </trkpt>
      <trkpt lat="48.57091" lon="-2.24531">
        <ele>51</ele>
        <time>2021-07-30T12:39:18.000Z</time>
      </trkpt>
      <trkpt lat="48.57082" lon="-2.24545">
        <ele>52</ele>
        <time>2021-07-30T12:39:21.000Z</time>
      </trkpt>
      <trkpt lat="48.57073" lon="-2.24552">
        <ele>53</ele>
        <time>2021-07-30T12:39:25.000Z</time>
      </trkpt>
      <trkpt lat="48.57065" lon="-2.24556">
        <ele>55</ele>
        <time>2021-07-30T12:39:33.000Z</time>
      </trkpt>
      <trkpt lat="48.57054" lon="-2.24558">
        <ele>56</ele>
        <time>2021-07-30T12:39:42.000Z</time>
      </trkpt>
      <trkpt lat="48.57044" lon="-2.2456">
        <ele>57</ele>
        <time>2021-07-30T12:39:51.000Z</time>
      </trkpt>
      <trkpt lat="48.57036" lon="-2.24567">
        <ele>56</ele>
        <time>2021-07-30T12:39:56.000Z</time>
      </trkpt>
      <trkpt lat="48.57026" lon="-2.24573">
        <ele>57</ele>
        <time>2021-07-30T12:40:03.000Z</time>
      </trkpt>
      <trkpt lat="48.57016" lon="-2.24582">
        <ele>58</ele>
        <time>2021-07-30T12:40:12.000Z</time>
      </trkpt>
      <trkpt lat="48.57007" lon="-2.2459">
        <ele>58</ele>
        <time>2021-07-30T12:40:19.000Z</time>
      </trkpt>
      <trkpt lat="48.56999" lon="-2.24599">
        <ele>60</ele>
        <time>2021-07-30T12:40:27.000Z</time>
      </trkpt>
      <trkpt lat="48.5699" lon="-2.24607">
        <ele>60</ele>
        <time>2021-07-30T12:40:31.000Z</time>
      </trkpt>
      <trkpt lat="48.5698" lon="-2.24615">
        <ele>58</ele>
        <time>2021-07-30T12:40:35.000Z</time>
      </trkpt>
      <trkpt lat="48.56973" lon="-2.24624">
        <ele>60</ele>
        <time>2021-07-30T12:40:40.000Z</time>
      </trkpt>
      <trkpt lat="48.56967" lon="-2.24637">
        <ele>62</ele>
        <time>2021-07-30T12:40:46.000Z</time>
      </trkpt>
      <trkpt lat="48.56961" lon="-2.2465">
        <ele>63</ele>
        <time>2021-07-30T12:40:51.000Z</time>
      </trkpt>
      <trkpt lat="48.56957" lon="-2.24662">
        <ele>64</ele>
        <time>2021-07-30T12:40:55.000Z</time>
      </trkpt>
      <trkpt lat="48.56959" lon="-2.24678">
        <ele>66</ele>
        <time>2021-07-30T12:40:58.000Z</time>
      </trkpt>
      <trkpt lat="48.56961" lon="-2.24695">
        <ele>70</ele>
        <time>2021-07-30T12:41:01.000Z</time>
      </trkpt>
      <trkpt lat="48.5696" lon="-2.2471">
        <ele>71</ele>
        <time>2021-07-30T12:41:05.000Z</time>
      </trkpt>
      <trkpt lat="48.56958" lon="-2.24725">
        <ele>71</ele>
        <time>2021-07-30T12:41:09.000Z</time>
      </trkpt>
      <trkpt lat="48.5695" lon="-2.24736">
        <ele>73</ele>
        <time>2021-07-30T12:41:13.000Z</time>
      </trkpt>
      <trkpt lat="48.56941" lon="-2.24737">
        <ele>74</ele>
        <time>2021-07-30T12:41:16.000Z</time>
      </trkpt>
      <trkpt lat="48.56927" lon="-2.24737">
        <ele>75</ele>
        <time>2021-07-30T12:41:19.000Z</time>
      </trkpt>
      <trkpt lat="48.56917" lon="-2.24736">
        <ele>74</ele>
        <time>2021-07-30T12:41:22.000Z</time>
      </trkpt>
      <trkpt lat="48.5692" lon="-2.24753">
        <ele>75</ele>
        <time>2021-07-30T12:41:54.000Z</time>
      </trkpt>
      <trkpt lat="48.56929" lon="-2.24764">
        <ele>74</ele>
        <time>2021-07-30T12:41:57.000Z</time>
      </trkpt>
      <trkpt lat="48.56937" lon="-2.24771">
        <ele>74</ele>
        <time>2021-07-30T12:42:01.000Z</time>
      </trkpt>
      <trkpt lat="48.56946" lon="-2.24777">
        <ele>74</ele>
        <time>2021-07-30T12:42:04.000Z</time>
      </trkpt>
      <trkpt lat="48.56954" lon="-2.24782">
        <ele>73</ele>
        <time>2021-07-30T12:42:06.000Z</time>
      </trkpt>
      <trkpt lat="48.56967" lon="-2.24786">
        <ele>73</ele>
        <time>2021-07-30T12:42:09.000Z</time>
      </trkpt>
      <trkpt lat="48.56978" lon="-2.24786">
        <ele>72</ele>
        <time>2021-07-30T12:42:12.000Z</time>
      </trkpt>
      <trkpt lat="48.56987" lon="-2.24792">
        <ele>71</ele>
        <time>2021-07-30T12:42:15.000Z</time>
      </trkpt>
      <trkpt lat="48.56996" lon="-2.24797">
        <ele>70</ele>
        <time>2021-07-30T12:42:18.000Z</time>
      </trkpt>
      <trkpt lat="48.57005" lon="-2.24804">
        <ele>69</ele>
        <time>2021-07-30T12:42:21.000Z</time>
      </trkpt>
      <trkpt lat="48.57016" lon="-2.24817">
        <ele>68</ele>
        <time>2021-07-30T12:42:24.000Z</time>
      </trkpt>
      <trkpt lat="48.57023" lon="-2.2483">
        <ele>67</ele>
        <time>2021-07-30T12:42:27.000Z</time>
      </trkpt>
      <trkpt lat="48.5703" lon="-2.24841">
        <ele>67</ele>
        <time>2021-07-30T12:42:30.000Z</time>
      </trkpt>
      <trkpt lat="48.57036" lon="-2.24852">
        <ele>67</ele>
        <time>2021-07-30T12:42:33.000Z</time>
      </trkpt>
      <trkpt lat="48.57042" lon="-2.24866">
        <ele>67</ele>
        <time>2021-07-30T12:42:37.000Z</time>
      </trkpt>
      <trkpt lat="48.5705" lon="-2.24878">
        <ele>66</ele>
        <time>2021-07-30T12:42:41.000Z</time>
      </trkpt>
      <trkpt lat="48.57059" lon="-2.24891">
        <ele>66</ele>
        <time>2021-07-30T12:42:45.000Z</time>
      </trkpt>
      <trkpt lat="48.57066" lon="-2.24901">
        <ele>64</ele>
        <time>2021-07-30T12:42:48.000Z</time>
      </trkpt>
      <trkpt lat="48.5707" lon="-2.24915">
        <ele>64</ele>
        <time>2021-07-30T12:42:51.000Z</time>
      </trkpt>
      <trkpt lat="48.57064" lon="-2.24929">
        <ele>64</ele>
        <time>2021-07-30T12:42:55.000Z</time>
      </trkpt>
      <trkpt lat="48.57057" lon="-2.24937">
        <ele>65</ele>
        <time>2021-07-30T12:42:58.000Z</time>
      </trkpt>
      <trkpt lat="48.57048" lon="-2.24948">
        <ele>64</ele>
        <time>2021-07-30T12:43:02.000Z</time>
      </trkpt>
      <trkpt lat="48.57041" lon="-2.24959">
        <ele>63</ele>
        <time>2021-07-30T12:43:06.000Z</time>
      </trkpt>
      <trkpt lat="48.57036" lon="-2.24971">
        <ele>62</ele>
        <time>2021-07-30T12:43:09.000Z</time>
      </trkpt>
      <trkpt lat="48.5703" lon="-2.24983">
        <ele>63</ele>
        <time>2021-07-30T12:43:12.000Z</time>
      </trkpt>
      <trkpt lat="48.57021" lon="-2.24992">
        <ele>63</ele>
        <time>2021-07-30T12:43:15.000Z</time>
      </trkpt>
      <trkpt lat="48.57012" lon="-2.24999">
        <ele>64</ele>
        <time>2021-07-30T12:43:19.000Z</time>
      </trkpt>
      <trkpt lat="48.57005" lon="-2.2501">
        <ele>63</ele>
        <time>2021-07-30T12:43:26.000Z</time>
      </trkpt>
      <trkpt lat="48.56997" lon="-2.25019">
        <ele>61</ele>
        <time>2021-07-30T12:43:30.000Z</time>
      </trkpt>
      <trkpt lat="48.5699" lon="-2.25028">
        <ele>63</ele>
        <time>2021-07-30T12:43:34.000Z</time>
      </trkpt>
      <trkpt lat="48.56983" lon="-2.25039">
        <ele>63</ele>
        <time>2021-07-30T12:43:38.000Z</time>
      </trkpt>
      <trkpt lat="48.56977" lon="-2.25049">
        <ele>64</ele>
        <time>2021-07-30T12:43:41.000Z</time>
      </trkpt>
      <trkpt lat="48.5697" lon="-2.25061">
        <ele>62</ele>
        <time>2021-07-30T12:43:44.000Z</time>
      </trkpt>
      <trkpt lat="48.56965" lon="-2.25077">
        <ele>62</ele>
        <time>2021-07-30T12:43:47.000Z</time>
      </trkpt>
      <trkpt lat="48.56959" lon="-2.25089">
        <ele>60</ele>
        <time>2021-07-30T12:43:50.000Z</time>
      </trkpt>
      <trkpt lat="48.56953" lon="-2.251">
        <ele>59</ele>
        <time>2021-07-30T12:43:53.000Z</time>
      </trkpt>
      <trkpt lat="48.56946" lon="-2.25108">
        <ele>60</ele>
        <time>2021-07-30T12:43:56.000Z</time>
      </trkpt>
      <trkpt lat="48.56936" lon="-2.25115">
        <ele>63</ele>
        <time>2021-07-30T12:43:59.000Z</time>
      </trkpt>
      <trkpt lat="48.56926" lon="-2.25117">
        <ele>64</ele>
        <time>2021-07-30T12:44:02.000Z</time>
      </trkpt>
      <trkpt lat="48.56917" lon="-2.25122">
        <ele>65</ele>
        <time>2021-07-30T12:44:05.000Z</time>
      </trkpt>
      <trkpt lat="48.56909" lon="-2.25133">
        <ele>65</ele>
        <time>2021-07-30T12:44:09.000Z</time>
      </trkpt>
      <trkpt lat="48.569" lon="-2.25139">
        <ele>67</ele>
        <time>2021-07-30T12:44:14.000Z</time>
      </trkpt>
      <trkpt lat="48.56891" lon="-2.25142">
        <ele>69</ele>
        <time>2021-07-30T12:44:19.000Z</time>
      </trkpt>
      <trkpt lat="48.56881" lon="-2.2514">
        <ele>69</ele>
        <time>2021-07-30T12:44:24.000Z</time>
      </trkpt>
      <trkpt lat="48.5687" lon="-2.25141">
        <ele>70</ele>
        <time>2021-07-30T12:44:29.000Z</time>
      </trkpt>
      <trkpt lat="48.5686" lon="-2.25143">
        <ele>71</ele>
        <time>2021-07-30T12:44:34.000Z</time>
      </trkpt>
      <trkpt lat="48.56849" lon="-2.25143">
        <ele>69</ele>
        <time>2021-07-30T12:44:39.000Z</time>
      </trkpt>
      <trkpt lat="48.5684" lon="-2.25143">
        <ele>69</ele>
        <time>2021-07-30T12:44:44.000Z</time>
      </trkpt>
      <trkpt lat="48.56831" lon="-2.25143">
        <ele>70</ele>
        <time>2021-07-30T12:44:48.000Z</time>
      </trkpt>
      <trkpt lat="48.56821" lon="-2.25139">
        <ele>69</ele>
        <time>2021-07-30T12:44:52.000Z</time>
      </trkpt>
      <trkpt lat="48.5681" lon="-2.25131">
        <ele>68</ele>
        <time>2021-07-30T12:44:56.000Z</time>
      </trkpt>
      <trkpt lat="48.56801" lon="-2.25129">
        <ele>67</ele>
        <time>2021-07-30T12:44:59.000Z</time>
      </trkpt>
      <trkpt lat="48.5679" lon="-2.25125">
        <ele>67</ele>
        <time>2021-07-30T12:45:02.000Z</time>
      </trkpt>
      <trkpt lat="48.5678" lon="-2.25121">
        <ele>67</ele>
        <time>2021-07-30T12:45:05.000Z</time>
      </trkpt>
      <trkpt lat="48.5677" lon="-2.25112">
        <ele>67</ele>
        <time>2021-07-30T12:45:09.000Z</time>
      </trkpt>
      <trkpt lat="48.5676" lon="-2.25108">
        <ele>66</ele>
        <time>2021-07-30T12:45:12.000Z</time>
      </trkpt>
      <trkpt lat="48.56751" lon="-2.25103">
        <ele>65</ele>
        <time>2021-07-30T12:45:14.000Z</time>
      </trkpt>
      <trkpt lat="48.5674" lon="-2.25103">
        <ele>66</ele>
        <time>2021-07-30T12:45:17.000Z</time>
      </trkpt>
      <trkpt lat="48.56731" lon="-2.25102">
        <ele>65</ele>
        <time>2021-07-30T12:45:20.000Z</time>
      </trkpt>
      <trkpt lat="48.56722" lon="-2.2511">
        <ele>67</ele>
        <time>2021-07-30T12:45:26.000Z</time>
      </trkpt>
      <trkpt lat="48.56714" lon="-2.25121">
        <ele>73</ele>
        <time>2021-07-30T12:45:32.000Z</time>
      </trkpt>
      <trkpt lat="48.56711" lon="-2.25137">
        <ele>77</ele>
        <time>2021-07-30T12:45:38.000Z</time>
      </trkpt>
      <trkpt lat="48.56709" lon="-2.25152">
        <ele>79</ele>
        <time>2021-07-30T12:45:43.000Z</time>
      </trkpt>
      <trkpt lat="48.56708" lon="-2.25166">
        <ele>81</ele>
        <time>2021-07-30T12:45:48.000Z</time>
      </trkpt>
      <trkpt lat="48.5671" lon="-2.25179">
        <ele>84</ele>
        <time>2021-07-30T12:45:53.000Z</time>
      </trkpt>
      <trkpt lat="48.56712" lon="-2.25195">
        <ele>84</ele>
        <time>2021-07-30T12:45:58.000Z</time>
      </trkpt>
      <trkpt lat="48.5671" lon="-2.25211">
        <ele>85</ele>
        <time>2021-07-30T12:46:03.000Z</time>
      </trkpt>
      <trkpt lat="48.56709" lon="-2.25227">
        <ele>87</ele>
        <time>2021-07-30T12:46:08.000Z</time>
      </trkpt>
      <trkpt lat="48.56706" lon="-2.25241">
        <ele>88</ele>
        <time>2021-07-30T12:46:12.000Z</time>
      </trkpt>
      <trkpt lat="48.56702" lon="-2.25256">
        <ele>88</ele>
        <time>2021-07-30T12:46:17.000Z</time>
      </trkpt>
      <trkpt lat="48.56698" lon="-2.25268">
        <ele>88</ele>
        <time>2021-07-30T12:46:21.000Z</time>
      </trkpt>
      <trkpt lat="48.56696" lon="-2.25282">
        <ele>89</ele>
        <time>2021-07-30T12:46:25.000Z</time>
      </trkpt>
      <trkpt lat="48.56694" lon="-2.25296">
        <ele>90</ele>
        <time>2021-07-30T12:46:29.000Z</time>
      </trkpt>
      <trkpt lat="48.56691" lon="-2.25312">
        <ele>90</ele>
        <time>2021-07-30T12:46:33.000Z</time>
      </trkpt>
      <trkpt lat="48.56688" lon="-2.2533">
        <ele>91</ele>
        <time>2021-07-30T12:46:37.000Z</time>
      </trkpt>
      <trkpt lat="48.56686" lon="-2.25344">
        <ele>91</ele>
        <time>2021-07-30T12:46:40.000Z</time>
      </trkpt>
      <trkpt lat="48.56684" lon="-2.25358">
        <ele>91</ele>
        <time>2021-07-30T12:46:43.000Z</time>
      </trkpt>
      <trkpt lat="48.56682" lon="-2.25371">
        <ele>91</ele>
        <time>2021-07-30T12:46:46.000Z</time>
      </trkpt>
      <trkpt lat="48.5668" lon="-2.25385">
        <ele>91</ele>
        <time>2021-07-30T12:46:49.000Z</time>
      </trkpt>
      <trkpt lat="48.56677" lon="-2.25402">
        <ele>92</ele>
        <time>2021-07-30T12:46:53.000Z</time>
      </trkpt>
      <trkpt lat="48.56674" lon="-2.25415">
        <ele>92</ele>
        <time>2021-07-30T12:46:56.000Z</time>
      </trkpt>
      <trkpt lat="48.56667" lon="-2.25429">
        <ele>94</ele>
        <time>2021-07-30T12:47:00.000Z</time>
      </trkpt>
      <trkpt lat="48.56657" lon="-2.25439">
        <ele>93</ele>
        <time>2021-07-30T12:47:04.000Z</time>
      </trkpt>
      <trkpt lat="48.56649" lon="-2.25447">
        <ele>94</ele>
        <time>2021-07-30T12:47:07.000Z</time>
      </trkpt>
      <trkpt lat="48.5664" lon="-2.25456">
        <ele>94</ele>
        <time>2021-07-30T12:47:11.000Z</time>
      </trkpt>
      <trkpt lat="48.56633" lon="-2.25464">
        <ele>94</ele>
        <time>2021-07-30T12:47:14.000Z</time>
      </trkpt>
      <trkpt lat="48.56623" lon="-2.25473">
        <ele>94</ele>
        <time>2021-07-30T12:47:18.000Z</time>
      </trkpt>
      <trkpt lat="48.56613" lon="-2.25483">
        <ele>95</ele>
        <time>2021-07-30T12:47:22.000Z</time>
      </trkpt>
      <trkpt lat="48.56603" lon="-2.25492">
        <ele>96</ele>
        <time>2021-07-30T12:47:26.000Z</time>
      </trkpt>
      <trkpt lat="48.56594" lon="-2.255">
        <ele>97</ele>
        <time>2021-07-30T12:47:30.000Z</time>
      </trkpt>
      <trkpt lat="48.56586" lon="-2.25512">
        <ele>97</ele>
        <time>2021-07-30T12:47:34.000Z</time>
      </trkpt>
      <trkpt lat="48.56586" lon="-2.25526">
        <ele>97</ele>
        <time>2021-07-30T12:47:37.000Z</time>
      </trkpt>
      <trkpt lat="48.56584" lon="-2.25544">
        <ele>98</ele>
        <time>2021-07-30T12:47:41.000Z</time>
      </trkpt>
      <trkpt lat="48.56583" lon="-2.25558">
        <ele>98</ele>
        <time>2021-07-30T12:47:44.000Z</time>
      </trkpt>
      <trkpt lat="48.56582" lon="-2.25573">
        <ele>98</ele>
        <time>2021-07-30T12:47:47.000Z</time>
      </trkpt>
      <trkpt lat="48.56582" lon="-2.25589">
        <ele>96</ele>
        <time>2021-07-30T12:49:09.000Z</time>
      </trkpt>
      <trkpt lat="48.5658" lon="-2.25604">
        <ele>96</ele>
        <time>2021-07-30T12:49:12.000Z</time>
      </trkpt>
      <trkpt lat="48.5658" lon="-2.25621">
        <ele>95</ele>
        <time>2021-07-30T12:49:14.000Z</time>
      </trkpt>
      <trkpt lat="48.56579" lon="-2.25641">
        <ele>93</ele>
        <time>2021-07-30T12:49:16.000Z</time>
      </trkpt>
      <trkpt lat="48.56576" lon="-2.25658">
        <ele>91</ele>
        <time>2021-07-30T12:49:18.000Z</time>
      </trkpt>
      <trkpt lat="48.56573" lon="-2.25673">
        <ele>91</ele>
        <time>2021-07-30T12:49:20.000Z</time>
      </trkpt>
      <trkpt lat="48.56571" lon="-2.25687">
        <ele>91</ele>
        <time>2021-07-30T12:49:22.000Z</time>
      </trkpt>
      <trkpt lat="48.56568" lon="-2.25701">
        <ele>90</ele>
        <time>2021-07-30T12:49:24.000Z</time>
      </trkpt>
      <trkpt lat="48.56564" lon="-2.25716">
        <ele>89</ele>
        <time>2021-07-30T12:49:26.000Z</time>
      </trkpt>
      <trkpt lat="48.56559" lon="-2.25734">
        <ele>88</ele>
        <time>2021-07-30T12:49:28.000Z</time>
      </trkpt>
      <trkpt lat="48.56554" lon="-2.25751">
        <ele>88</ele>
        <time>2021-07-30T12:49:30.000Z</time>
      </trkpt>
      <trkpt lat="48.5655" lon="-2.25765">
        <ele>87</ele>
        <time>2021-07-30T12:49:32.000Z</time>
      </trkpt>
      <trkpt lat="48.56543" lon="-2.25775">
        <ele>86</ele>
        <time>2021-07-30T12:49:35.000Z</time>
      </trkpt>
      <trkpt lat="48.56533" lon="-2.25769">
        <ele>85</ele>
        <time>2021-07-30T12:49:39.000Z</time>
      </trkpt>
      <trkpt lat="48.56522" lon="-2.25761">
        <ele>84</ele>
        <time>2021-07-30T12:49:43.000Z</time>
      </trkpt>
      <trkpt lat="48.56515" lon="-2.25751">
        <ele>83</ele>
        <time>2021-07-30T12:49:46.000Z</time>
      </trkpt>
      <trkpt lat="48.56507" lon="-2.25741">
        <ele>81</ele>
        <time>2021-07-30T12:49:50.000Z</time>
      </trkpt>
      <trkpt lat="48.56497" lon="-2.25733">
        <ele>80</ele>
        <time>2021-07-30T12:49:55.000Z</time>
      </trkpt>
      <trkpt lat="48.56488" lon="-2.25725">
        <ele>80</ele>
        <time>2021-07-30T12:49:59.000Z</time>
      </trkpt>
      <trkpt lat="48.5648" lon="-2.25717">
        <ele>79</ele>
        <time>2021-07-30T12:50:02.000Z</time>
      </trkpt>
      <trkpt lat="48.56472" lon="-2.25708">
        <ele>78</ele>
        <time>2021-07-30T12:50:05.000Z</time>
      </trkpt>
      <trkpt lat="48.56462" lon="-2.25699">
        <ele>78</ele>
        <time>2021-07-30T12:50:08.000Z</time>
      </trkpt>
      <trkpt lat="48.56453" lon="-2.25687">
        <ele>77</ele>
        <time>2021-07-30T12:50:11.000Z</time>
      </trkpt>
      <trkpt lat="48.56444" lon="-2.25672">
        <ele>76</ele>
        <time>2021-07-30T12:50:14.000Z</time>
      </trkpt>
      <trkpt lat="48.56435" lon="-2.25658">
        <ele>76</ele>
        <time>2021-07-30T12:50:17.000Z</time>
      </trkpt>
      <trkpt lat="48.56428" lon="-2.25648">
        <ele>74</ele>
        <time>2021-07-30T12:50:19.000Z</time>
      </trkpt>
      <trkpt lat="48.56423" lon="-2.25636">
        <ele>74</ele>
        <time>2021-07-30T12:50:21.000Z</time>
      </trkpt>
      <trkpt lat="48.56417" lon="-2.2562">
        <ele>74</ele>
        <time>2021-07-30T12:50:24.000Z</time>
      </trkpt>
      <trkpt lat="48.5641" lon="-2.25605">
        <ele>77</ele>
        <time>2021-07-30T12:50:26.000Z</time>
      </trkpt>
      <trkpt lat="48.56405" lon="-2.25593">
        <ele>79</ele>
        <time>2021-07-30T12:50:28.000Z</time>
      </trkpt>
      <trkpt lat="48.56398" lon="-2.25578">
        <ele>80</ele>
        <time>2021-07-30T12:50:31.000Z</time>
      </trkpt>
      <trkpt lat="48.56393" lon="-2.25564">
        <ele>80</ele>
        <time>2021-07-30T12:50:34.000Z</time>
      </trkpt>
      <trkpt lat="48.56388" lon="-2.25548">
        <ele>79</ele>
        <time>2021-07-30T12:50:37.000Z</time>
      </trkpt>
      <trkpt lat="48.56383" lon="-2.25535">
        <ele>80</ele>
        <time>2021-07-30T12:50:40.000Z</time>
      </trkpt>
      <trkpt lat="48.56378" lon="-2.25521">
        <ele>80</ele>
        <time>2021-07-30T12:50:43.000Z</time>
      </trkpt>
      <trkpt lat="48.56373" lon="-2.25507">
        <ele>80</ele>
        <time>2021-07-30T12:50:46.000Z</time>
      </trkpt>
      <trkpt lat="48.56369" lon="-2.25494">
        <ele>80</ele>
        <time>2021-07-30T12:50:49.000Z</time>
      </trkpt>
      <trkpt lat="48.56363" lon="-2.25481">
        <ele>81</ele>
        <time>2021-07-30T12:50:53.000Z</time>
      </trkpt>
      <trkpt lat="48.5636" lon="-2.25467">
        <ele>83</ele>
        <time>2021-07-30T12:51:40.000Z</time>
      </trkpt>
      <trkpt lat="48.5636" lon="-2.25454">
        <ele>85</ele>
        <time>2021-07-30T12:51:44.000Z</time>
      </trkpt>
      <trkpt lat="48.56358" lon="-2.25437">
        <ele>85</ele>
        <time>2021-07-30T12:51:48.000Z</time>
      </trkpt>
      <trkpt lat="48.56348" lon="-2.25433">
        <ele>85</ele>
        <time>2021-07-30T12:51:52.000Z</time>
      </trkpt>
      <trkpt lat="48.56337" lon="-2.2543">
        <ele>84</ele>
        <time>2021-07-30T12:51:55.000Z</time>
      </trkpt>
      <trkpt lat="48.56327" lon="-2.25426">
        <ele>83</ele>
        <time>2021-07-30T12:51:58.000Z</time>
      </trkpt>
      <trkpt lat="48.56315" lon="-2.25423">
        <ele>84</ele>
        <time>2021-07-30T12:52:02.000Z</time>
      </trkpt>
      <trkpt lat="48.56305" lon="-2.25419">
        <ele>83</ele>
        <time>2021-07-30T12:52:05.000Z</time>
      </trkpt>
      <trkpt lat="48.56295" lon="-2.25416">
        <ele>84</ele>
        <time>2021-07-30T12:52:08.000Z</time>
      </trkpt>
      <trkpt lat="48.56285" lon="-2.25416">
        <ele>84</ele>
        <time>2021-07-30T12:52:11.000Z</time>
      </trkpt>
      <trkpt lat="48.56275" lon="-2.25416">
        <ele>85</ele>
        <time>2021-07-30T12:52:14.000Z</time>
      </trkpt>
      <trkpt lat="48.56265" lon="-2.25416">
        <ele>85</ele>
        <time>2021-07-30T12:52:17.000Z</time>
      </trkpt>
      <trkpt lat="48.56254" lon="-2.25417">
        <ele>86</ele>
        <time>2021-07-30T12:52:21.000Z</time>
      </trkpt>
      <trkpt lat="48.56242" lon="-2.25414">
        <ele>86</ele>
        <time>2021-07-30T12:52:25.000Z</time>
      </trkpt>
      <trkpt lat="48.56231" lon="-2.2541">
        <ele>86</ele>
        <time>2021-07-30T12:52:29.000Z</time>
      </trkpt>
      <trkpt lat="48.56223" lon="-2.25406">
        <ele>86</ele>
        <time>2021-07-30T12:52:32.000Z</time>
      </trkpt>
      <trkpt lat="48.56213" lon="-2.25404">
        <ele>87</ele>
        <time>2021-07-30T12:52:35.000Z</time>
      </trkpt>
      <trkpt lat="48.56201" lon="-2.25401">
        <ele>88</ele>
        <time>2021-07-30T12:52:39.000Z</time>
      </trkpt>
      <trkpt lat="48.5619" lon="-2.25398">
        <ele>89</ele>
        <time>2021-07-30T12:52:43.000Z</time>
      </trkpt>
      <trkpt lat="48.56181" lon="-2.25396">
        <ele>90</ele>
        <time>2021-07-30T12:52:46.000Z</time>
      </trkpt>
      <trkpt lat="48.56171" lon="-2.25394">
        <ele>90</ele>
        <time>2021-07-30T12:52:49.000Z</time>
      </trkpt>
      <trkpt lat="48.5616" lon="-2.2539">
        <ele>90</ele>
        <time>2021-07-30T12:52:53.000Z</time>
      </trkpt>
      <trkpt lat="48.56151" lon="-2.25388">
        <ele>90</ele>
        <time>2021-07-30T12:52:56.000Z</time>
      </trkpt>
      <trkpt lat="48.56141" lon="-2.25386">
        <ele>91</ele>
        <time>2021-07-30T12:52:59.000Z</time>
      </trkpt>
      <trkpt lat="48.56132" lon="-2.25384">
        <ele>91</ele>
        <time>2021-07-30T12:53:02.000Z</time>
      </trkpt>
      <trkpt lat="48.56123" lon="-2.25382">
        <ele>91</ele>
        <time>2021-07-30T12:53:05.000Z</time>
      </trkpt>
      <trkpt lat="48.56114" lon="-2.25381">
        <ele>91</ele>
        <time>2021-07-30T12:53:08.000Z</time>
      </trkpt>
      <trkpt lat="48.56104" lon="-2.25377">
        <ele>92</ele>
        <time>2021-07-30T12:53:11.000Z</time>
      </trkpt>
      <trkpt lat="48.56095" lon="-2.25373">
        <ele>93</ele>
        <time>2021-07-30T12:53:13.000Z</time>
      </trkpt>
      <trkpt lat="48.56083" lon="-2.25367">
        <ele>93</ele>
        <time>2021-07-30T12:53:16.000Z</time>
      </trkpt>
      <trkpt lat="48.56072" lon="-2.25358">
        <ele>94</ele>
        <time>2021-07-30T12:53:19.000Z</time>
      </trkpt>
      <trkpt lat="48.5606" lon="-2.25352">
        <ele>94</ele>
        <time>2021-07-30T12:53:22.000Z</time>
      </trkpt>
      <trkpt lat="48.56048" lon="-2.25345">
        <ele>95</ele>
        <time>2021-07-30T12:53:25.000Z</time>
      </trkpt>
      <trkpt lat="48.56037" lon="-2.25339">
        <ele>95</ele>
        <time>2021-07-30T12:53:28.000Z</time>
      </trkpt>
      <trkpt lat="48.56025" lon="-2.25333">
        <ele>96</ele>
        <time>2021-07-30T12:53:31.000Z</time>
      </trkpt>
      <trkpt lat="48.56013" lon="-2.25327">
        <ele>96</ele>
        <time>2021-07-30T12:53:34.000Z</time>
      </trkpt>
      <trkpt lat="48.56" lon="-2.25322">
        <ele>96</ele>
        <time>2021-07-30T12:53:37.000Z</time>
      </trkpt>
      <trkpt lat="48.55988" lon="-2.25316">
        <ele>96</ele>
        <time>2021-07-30T12:53:40.000Z</time>
      </trkpt>
      <trkpt lat="48.55975" lon="-2.2531">
        <ele>95</ele>
        <time>2021-07-30T12:53:43.000Z</time>
      </trkpt>
      <trkpt lat="48.55965" lon="-2.25305">
        <ele>95</ele>
        <time>2021-07-30T12:53:45.000Z</time>
      </trkpt>
      <trkpt lat="48.55953" lon="-2.25298">
        <ele>94</ele>
        <time>2021-07-30T12:53:47.000Z</time>
      </trkpt>
      <trkpt lat="48.5594" lon="-2.25291">
        <ele>92</ele>
        <time>2021-07-30T12:53:49.000Z</time>
      </trkpt>
      <trkpt lat="48.55928" lon="-2.25284">
        <ele>91</ele>
        <time>2021-07-30T12:53:51.000Z</time>
      </trkpt>
      <trkpt lat="48.55918" lon="-2.25278">
        <ele>90</ele>
        <time>2021-07-30T12:53:54.000Z</time>
      </trkpt>
      <trkpt lat="48.55912" lon="-2.25294">
        <ele>90</ele>
        <time>2021-07-30T12:54:22.000Z</time>
      </trkpt>
      <trkpt lat="48.55911" lon="-2.25313">
        <ele>89</ele>
        <time>2021-07-30T12:54:25.000Z</time>
      </trkpt>
      <trkpt lat="48.55909" lon="-2.25327">
        <ele>90</ele>
        <time>2021-07-30T12:54:27.000Z</time>
      </trkpt>
      <trkpt lat="48.55908" lon="-2.25341">
        <ele>89</ele>
        <time>2021-07-30T12:54:29.000Z</time>
      </trkpt>
      <trkpt lat="48.55907" lon="-2.25357">
        <ele>89</ele>
        <time>2021-07-30T12:54:31.000Z</time>
      </trkpt>
      <trkpt lat="48.55906" lon="-2.25374">
        <ele>89</ele>
        <time>2021-07-30T12:54:33.000Z</time>
      </trkpt>
      <trkpt lat="48.55906" lon="-2.25392">
        <ele>88</ele>
        <time>2021-07-30T12:54:35.000Z</time>
      </trkpt>
      <trkpt lat="48.55906" lon="-2.25409">
        <ele>88</ele>
        <time>2021-07-30T12:54:37.000Z</time>
      </trkpt>
      <trkpt lat="48.55906" lon="-2.25427">
        <ele>88</ele>
        <time>2021-07-30T12:54:39.000Z</time>
      </trkpt>
      <trkpt lat="48.55906" lon="-2.25444">
        <ele>87</ele>
        <time>2021-07-30T12:54:41.000Z</time>
      </trkpt>
      <trkpt lat="48.55905" lon="-2.25462">
        <ele>86</ele>
        <time>2021-07-30T12:54:43.000Z</time>
      </trkpt>
      <trkpt lat="48.55902" lon="-2.25481">
        <ele>85</ele>
        <time>2021-07-30T12:54:45.000Z</time>
      </trkpt>
      <trkpt lat="48.559" lon="-2.25502">
        <ele>84</ele>
        <time>2021-07-30T12:54:47.000Z</time>
      </trkpt>
      <trkpt lat="48.559" lon="-2.25524">
        <ele>83</ele>
        <time>2021-07-30T12:54:49.000Z</time>
      </trkpt>
      <trkpt lat="48.55902" lon="-2.25549">
        <ele>82</ele>
        <time>2021-07-30T12:54:51.000Z</time>
      </trkpt>
      <trkpt lat="48.55906" lon="-2.25574">
        <ele>80</ele>
        <time>2021-07-30T12:54:53.000Z</time>
      </trkpt>
      <trkpt lat="48.5591" lon="-2.256">
        <ele>79</ele>
        <time>2021-07-30T12:54:55.000Z</time>
      </trkpt>
      <trkpt lat="48.55913" lon="-2.25613">
        <ele>79</ele>
        <time>2021-07-30T12:54:56.000Z</time>
      </trkpt>
      <trkpt lat="48.55916" lon="-2.25626">
        <ele>78</ele>
        <time>2021-07-30T12:54:57.000Z</time>
      </trkpt>
      <trkpt lat="48.55919" lon="-2.2564">
        <ele>77</ele>
        <time>2021-07-30T12:54:58.000Z</time>
      </trkpt>
      <trkpt lat="48.55922" lon="-2.25655">
        <ele>77</ele>
        <time>2021-07-30T12:54:59.000Z</time>
      </trkpt>
      <trkpt lat="48.55925" lon="-2.2567">
        <ele>76</ele>
        <time>2021-07-30T12:55:00.000Z</time>
      </trkpt>
      <trkpt lat="48.55927" lon="-2.25685">
        <ele>75</ele>
        <time>2021-07-30T12:55:01.000Z</time>
      </trkpt>
      <trkpt lat="48.55929" lon="-2.25702">
        <ele>74</ele>
        <time>2021-07-30T12:55:02.000Z</time>
      </trkpt>
      <trkpt lat="48.5593" lon="-2.25718">
        <ele>73</ele>
        <time>2021-07-30T12:55:03.000Z</time>
      </trkpt>
      <trkpt lat="48.55931" lon="-2.25734">
        <ele>72</ele>
        <time>2021-07-30T12:55:04.000Z</time>
      </trkpt>
      <trkpt lat="48.5593" lon="-2.25748">
        <ele>71</ele>
        <time>2021-07-30T12:55:05.000Z</time>
      </trkpt>
      <trkpt lat="48.5593" lon="-2.25771">
        <ele>70</ele>
        <time>2021-07-30T12:55:07.000Z</time>
      </trkpt>
      <trkpt lat="48.55928" lon="-2.25793">
        <ele>70</ele>
        <time>2021-07-30T12:55:09.000Z</time>
      </trkpt>
      <trkpt lat="48.55927" lon="-2.25811">
        <ele>71</ele>
        <time>2021-07-30T12:55:11.000Z</time>
      </trkpt>
      <trkpt lat="48.55926" lon="-2.25828">
        <ele>71</ele>
        <time>2021-07-30T12:55:13.000Z</time>
      </trkpt>
      <trkpt lat="48.55926" lon="-2.25842">
        <ele>71</ele>
        <time>2021-07-30T12:55:16.000Z</time>
      </trkpt>
      <trkpt lat="48.55915" lon="-2.25834">
        <ele>71</ele>
        <time>2021-07-30T12:55:40.000Z</time>
      </trkpt>
      <trkpt lat="48.55904" lon="-2.25836">
        <ele>70</ele>
        <time>2021-07-30T12:55:44.000Z</time>
      </trkpt>
      <trkpt lat="48.55897" lon="-2.25846">
        <ele>69</ele>
        <time>2021-07-30T12:55:49.000Z</time>
      </trkpt>
      <trkpt lat="48.5589" lon="-2.25858">
        <ele>69</ele>
        <time>2021-07-30T12:55:53.000Z</time>
      </trkpt>
      <trkpt lat="48.55882" lon="-2.25866">
        <ele>69</ele>
        <time>2021-07-30T12:55:57.000Z</time>
      </trkpt>
      <trkpt lat="48.55873" lon="-2.25872">
        <ele>69</ele>
        <time>2021-07-30T12:56:02.000Z</time>
      </trkpt>
      <trkpt lat="48.55865" lon="-2.25883">
        <ele>68</ele>
        <time>2021-07-30T12:56:07.000Z</time>
      </trkpt>
      <trkpt lat="48.55858" lon="-2.25893">
        <ele>69</ele>
        <time>2021-07-30T12:56:10.000Z</time>
      </trkpt>
      <trkpt lat="48.55846" lon="-2.25895">
        <ele>69</ele>
        <time>2021-07-30T12:56:14.000Z</time>
      </trkpt>
      <trkpt lat="48.55835" lon="-2.25898">
        <ele>69</ele>
        <time>2021-07-30T12:56:18.000Z</time>
      </trkpt>
      <trkpt lat="48.55831" lon="-2.25912">
        <ele>70</ele>
        <time>2021-07-30T12:56:22.000Z</time>
      </trkpt>
      <trkpt lat="48.55829" lon="-2.25926">
        <ele>70</ele>
        <time>2021-07-30T12:56:25.000Z</time>
      </trkpt>
      <trkpt lat="48.55825" lon="-2.25939">
        <ele>70</ele>
        <time>2021-07-30T12:56:28.000Z</time>
      </trkpt>
      <trkpt lat="48.55814" lon="-2.25942">
        <ele>70</ele>
        <time>2021-07-30T12:56:32.000Z</time>
      </trkpt>
      <trkpt lat="48.55805" lon="-2.25943">
        <ele>70</ele>
        <time>2021-07-30T12:56:35.000Z</time>
      </trkpt>
      <trkpt lat="48.55795" lon="-2.25948">
        <ele>69</ele>
        <time>2021-07-30T12:56:40.000Z</time>
      </trkpt>
      <trkpt lat="48.55788" lon="-2.25957">
        <ele>69</ele>
        <time>2021-07-30T12:56:45.000Z</time>
      </trkpt>
      <trkpt lat="48.55782" lon="-2.25972">
        <ele>70</ele>
        <time>2021-07-30T12:56:49.000Z</time>
      </trkpt>
      <trkpt lat="48.55781" lon="-2.25987">
        <ele>70</ele>
        <time>2021-07-30T12:56:52.000Z</time>
      </trkpt>
      <trkpt lat="48.55773" lon="-2.25999">
        <ele>70</ele>
        <time>2021-07-30T12:56:56.000Z</time>
      </trkpt>
      <trkpt lat="48.55762" lon="-2.26002">
        <ele>70</ele>
        <time>2021-07-30T12:56:59.000Z</time>
      </trkpt>
      <trkpt lat="48.55753" lon="-2.26005">
        <ele>69</ele>
        <time>2021-07-30T12:57:01.000Z</time>
      </trkpt>
      <trkpt lat="48.55741" lon="-2.26012">
        <ele>70</ele>
        <time>2021-07-30T12:57:04.000Z</time>
      </trkpt>
      <trkpt lat="48.55729" lon="-2.26018">
        <ele>69</ele>
        <time>2021-07-30T12:57:07.000Z</time>
      </trkpt>
      <trkpt lat="48.55721" lon="-2.26024">
        <ele>70</ele>
        <time>2021-07-30T12:57:09.000Z</time>
      </trkpt>
      <trkpt lat="48.55709" lon="-2.26034">
        <ele>70</ele>
        <time>2021-07-30T12:57:12.000Z</time>
      </trkpt>
      <trkpt lat="48.55704" lon="-2.26047">
        <ele>71</ele>
        <time>2021-07-30T12:57:15.000Z</time>
      </trkpt>
      <trkpt lat="48.55701" lon="-2.26064">
        <ele>71</ele>
        <time>2021-07-30T12:57:18.000Z</time>
      </trkpt>
      <trkpt lat="48.55696" lon="-2.26083">
        <ele>72</ele>
        <time>2021-07-30T12:57:21.000Z</time>
      </trkpt>
      <trkpt lat="48.55694" lon="-2.26102">
        <ele>71</ele>
        <time>2021-07-30T12:57:24.000Z</time>
      </trkpt>
      <trkpt lat="48.55693" lon="-2.26116">
        <ele>71</ele>
        <time>2021-07-30T12:57:26.000Z</time>
      </trkpt>
      <trkpt lat="48.55688" lon="-2.26133">
        <ele>71</ele>
        <time>2021-07-30T12:57:29.000Z</time>
      </trkpt>
      <trkpt lat="48.55682" lon="-2.26153">
        <ele>71</ele>
        <time>2021-07-30T12:57:32.000Z</time>
      </trkpt>
      <trkpt lat="48.55675" lon="-2.26163">
        <ele>70</ele>
        <time>2021-07-30T12:57:36.000Z</time>
      </trkpt>
      <trkpt lat="48.55667" lon="-2.26167">
        <ele>70</ele>
        <time>2021-07-30T12:57:39.000Z</time>
      </trkpt>
      <trkpt lat="48.55658" lon="-2.26177">
        <ele>70</ele>
        <time>2021-07-30T12:57:42.000Z</time>
      </trkpt>
      <trkpt lat="48.55649" lon="-2.26187">
        <ele>71</ele>
        <time>2021-07-30T12:57:44.000Z</time>
      </trkpt>
      <trkpt lat="48.55642" lon="-2.26197">
        <ele>71</ele>
        <time>2021-07-30T12:57:46.000Z</time>
      </trkpt>
      <trkpt lat="48.55636" lon="-2.26215">
        <ele>71</ele>
        <time>2021-07-30T12:57:49.000Z</time>
      </trkpt>
      <trkpt lat="48.55635" lon="-2.2623">
        <ele>72</ele>
        <time>2021-07-30T12:57:51.000Z</time>
      </trkpt>
      <trkpt lat="48.55635" lon="-2.2625">
        <ele>72</ele>
        <time>2021-07-30T12:57:54.000Z</time>
      </trkpt>
      <trkpt lat="48.55634" lon="-2.26269">
        <ele>71</ele>
        <time>2021-07-30T12:57:57.000Z</time>
      </trkpt>
      <trkpt lat="48.55628" lon="-2.26282">
        <ele>70</ele>
        <time>2021-07-30T12:58:00.000Z</time>
      </trkpt>
      <trkpt lat="48.55621" lon="-2.26292">
        <ele>70</ele>
        <time>2021-07-30T12:58:03.000Z</time>
      </trkpt>
      <trkpt lat="48.55611" lon="-2.26305">
        <ele>69</ele>
        <time>2021-07-30T12:58:06.000Z</time>
      </trkpt>
      <trkpt lat="48.556" lon="-2.2631">
        <ele>68</ele>
        <time>2021-07-30T12:58:08.000Z</time>
      </trkpt>
      <trkpt lat="48.55586" lon="-2.26313">
        <ele>68</ele>
        <time>2021-07-30T12:58:11.000Z</time>
      </trkpt>
      <trkpt lat="48.55577" lon="-2.2632">
        <ele>67</ele>
        <time>2021-07-30T12:58:13.000Z</time>
      </trkpt>
      <trkpt lat="48.5557" lon="-2.26328">
        <ele>68</ele>
        <time>2021-07-30T12:58:15.000Z</time>
      </trkpt>
      <trkpt lat="48.5556" lon="-2.26338">
        <ele>67</ele>
        <time>2021-07-30T12:58:18.000Z</time>
      </trkpt>
      <trkpt lat="48.55549" lon="-2.26347">
        <ele>68</ele>
        <time>2021-07-30T12:58:21.000Z</time>
      </trkpt>
      <trkpt lat="48.55538" lon="-2.26353">
        <ele>69</ele>
        <time>2021-07-30T12:58:24.000Z</time>
      </trkpt>
      <trkpt lat="48.55526" lon="-2.26354">
        <ele>69</ele>
        <time>2021-07-30T12:58:30.000Z</time>
      </trkpt>
      <trkpt lat="48.55517" lon="-2.2636">
        <ele>69</ele>
        <time>2021-07-30T12:58:33.000Z</time>
      </trkpt>
      <trkpt lat="48.55509" lon="-2.26372">
        <ele>69</ele>
        <time>2021-07-30T12:58:37.000Z</time>
      </trkpt>
      <trkpt lat="48.55501" lon="-2.2638">
        <ele>71</ele>
        <time>2021-07-30T12:58:50.000Z</time>
      </trkpt>
      <trkpt lat="48.55491" lon="-2.26387">
        <ele>71</ele>
        <time>2021-07-30T12:58:56.000Z</time>
      </trkpt>
      <trkpt lat="48.55481" lon="-2.26391">
        <ele>72</ele>
        <time>2021-07-30T12:59:01.000Z</time>
      </trkpt>
      <trkpt lat="48.55471" lon="-2.26395">
        <ele>72</ele>
        <time>2021-07-30T12:59:08.000Z</time>
      </trkpt>
      <trkpt lat="48.55461" lon="-2.26401">
        <ele>73</ele>
        <time>2021-07-30T12:59:11.000Z</time>
      </trkpt>
      <trkpt lat="48.55452" lon="-2.2641">
        <ele>73</ele>
        <time>2021-07-30T12:59:14.000Z</time>
      </trkpt>
      <trkpt lat="48.55447" lon="-2.26425">
        <ele>73</ele>
        <time>2021-07-30T12:59:18.000Z</time>
      </trkpt>
      <trkpt lat="48.55441" lon="-2.26434">
        <ele>74</ele>
        <time>2021-07-30T12:59:30.000Z</time>
      </trkpt>
      <trkpt lat="48.55431" lon="-2.26439">
        <ele>74</ele>
        <time>2021-07-30T13:00:00.000Z</time>
      </trkpt>
      <trkpt lat="48.55421" lon="-2.26446">
        <ele>74</ele>
        <time>2021-07-30T13:00:05.000Z</time>
      </trkpt>
      <trkpt lat="48.55414" lon="-2.26458">
        <ele>79</ele>
        <time>2021-07-30T13:00:40.000Z</time>
      </trkpt>
      <trkpt lat="48.55409" lon="-2.26471">
        <ele>79</ele>
        <time>2021-07-30T13:00:42.000Z</time>
      </trkpt>
      <trkpt lat="48.55403" lon="-2.26488">
        <ele>81</ele>
        <time>2021-07-30T13:00:44.000Z</time>
      </trkpt>
      <trkpt lat="48.55397" lon="-2.26507">
        <ele>81</ele>
        <time>2021-07-30T13:00:46.000Z</time>
      </trkpt>
      <trkpt lat="48.55392" lon="-2.26528">
        <ele>79</ele>
        <time>2021-07-30T13:00:48.000Z</time>
      </trkpt>
      <trkpt lat="48.55387" lon="-2.26545">
        <ele>78</ele>
        <time>2021-07-30T13:00:50.000Z</time>
      </trkpt>
      <trkpt lat="48.55382" lon="-2.2656">
        <ele>78</ele>
        <time>2021-07-30T13:00:52.000Z</time>
      </trkpt>
      <trkpt lat="48.55378" lon="-2.26574">
        <ele>78</ele>
        <time>2021-07-30T13:00:54.000Z</time>
      </trkpt>
      <trkpt lat="48.55373" lon="-2.26588">
        <ele>78</ele>
        <time>2021-07-30T13:00:57.000Z</time>
      </trkpt>
      <trkpt lat="48.55365" lon="-2.26597">
        <ele>79</ele>
        <time>2021-07-30T13:01:01.000Z</time>
      </trkpt>
      <trkpt lat="48.55357" lon="-2.26606">
        <ele>78</ele>
        <time>2021-07-30T13:01:06.000Z</time>
      </trkpt>
      <trkpt lat="48.55349" lon="-2.26618">
        <ele>78</ele>
        <time>2021-07-30T13:01:11.000Z</time>
      </trkpt>
      <trkpt lat="48.55342" lon="-2.26632">
        <ele>79</ele>
        <time>2021-07-30T13:01:16.000Z</time>
      </trkpt>
      <trkpt lat="48.55337" lon="-2.26644">
        <ele>78</ele>
        <time>2021-07-30T13:01:20.000Z</time>
      </trkpt>
      <trkpt lat="48.5533" lon="-2.26656">
        <ele>77</ele>
        <time>2021-07-30T13:01:25.000Z</time>
      </trkpt>
      <trkpt lat="48.5532" lon="-2.26667">
        <ele>77</ele>
        <time>2021-07-30T13:01:29.000Z</time>
      </trkpt>
      <trkpt lat="48.55313" lon="-2.26676">
        <ele>77</ele>
        <time>2021-07-30T13:01:32.000Z</time>
      </trkpt>
      <trkpt lat="48.55306" lon="-2.26685">
        <ele>78</ele>
        <time>2021-07-30T13:01:35.000Z</time>
      </trkpt>
      <trkpt lat="48.55298" lon="-2.26694">
        <ele>77</ele>
        <time>2021-07-30T13:01:39.000Z</time>
      </trkpt>
      <trkpt lat="48.55295" lon="-2.26709">
        <ele>77</ele>
        <time>2021-07-30T13:01:42.000Z</time>
      </trkpt>
      <trkpt lat="48.5529" lon="-2.26723">
        <ele>75</ele>
        <time>2021-07-30T13:01:44.000Z</time>
      </trkpt>
      <trkpt lat="48.5528" lon="-2.26736">
        <ele>73</ele>
        <time>2021-07-30T13:01:46.000Z</time>
      </trkpt>
      <trkpt lat="48.55266" lon="-2.26744">
        <ele>74</ele>
        <time>2021-07-30T13:01:48.000Z</time>
      </trkpt>
      <trkpt lat="48.55255" lon="-2.26753">
        <ele>75</ele>
        <time>2021-07-30T13:01:50.000Z</time>
      </trkpt>
      <trkpt lat="48.55246" lon="-2.2676">
        <ele>75</ele>
        <time>2021-07-30T13:01:52.000Z</time>
      </trkpt>
      <trkpt lat="48.55237" lon="-2.2677">
        <ele>75</ele>
        <time>2021-07-30T13:01:55.000Z</time>
      </trkpt>
      <trkpt lat="48.55227" lon="-2.26781">
        <ele>76</ele>
        <time>2021-07-30T13:01:58.000Z</time>
      </trkpt>
      <trkpt lat="48.55218" lon="-2.26791">
        <ele>76</ele>
        <time>2021-07-30T13:02:01.000Z</time>
      </trkpt>
      <trkpt lat="48.5521" lon="-2.26803">
        <ele>76</ele>
        <time>2021-07-30T13:02:04.000Z</time>
      </trkpt>
      <trkpt lat="48.55201" lon="-2.26816">
        <ele>76</ele>
        <time>2021-07-30T13:02:07.000Z</time>
      </trkpt>
      <trkpt lat="48.55193" lon="-2.26831">
        <ele>77</ele>
        <time>2021-07-30T13:02:10.000Z</time>
      </trkpt>
      <trkpt lat="48.55187" lon="-2.26841">
        <ele>77</ele>
        <time>2021-07-30T13:02:12.000Z</time>
      </trkpt>
      <trkpt lat="48.55178" lon="-2.26856">
        <ele>76</ele>
        <time>2021-07-30T13:02:15.000Z</time>
      </trkpt>
      <trkpt lat="48.55169" lon="-2.2687">
        <ele>76</ele>
        <time>2021-07-30T13:02:18.000Z</time>
      </trkpt>
      <trkpt lat="48.55163" lon="-2.26882">
        <ele>75</ele>
        <time>2021-07-30T13:02:20.000Z</time>
      </trkpt>
      <trkpt lat="48.55158" lon="-2.26893">
        <ele>75</ele>
        <time>2021-07-30T13:02:22.000Z</time>
      </trkpt>
      <trkpt lat="48.5515" lon="-2.2691">
        <ele>74</ele>
        <time>2021-07-30T13:02:25.000Z</time>
      </trkpt>
      <trkpt lat="48.55146" lon="-2.26922">
        <ele>74</ele>
        <time>2021-07-30T13:02:27.000Z</time>
      </trkpt>
      <trkpt lat="48.55139" lon="-2.26936">
        <ele>74</ele>
        <time>2021-07-30T13:02:29.000Z</time>
      </trkpt>
      <trkpt lat="48.55129" lon="-2.26948">
        <ele>75</ele>
        <time>2021-07-30T13:02:31.000Z</time>
      </trkpt>
      <trkpt lat="48.55119" lon="-2.26956">
        <ele>76</ele>
        <time>2021-07-30T13:02:33.000Z</time>
      </trkpt>
      <trkpt lat="48.5511" lon="-2.26967">
        <ele>77</ele>
        <time>2021-07-30T13:02:36.000Z</time>
      </trkpt>
      <trkpt lat="48.55105" lon="-2.26978">
        <ele>78</ele>
        <time>2021-07-30T13:02:39.000Z</time>
      </trkpt>
      <trkpt lat="48.55098" lon="-2.2699">
        <ele>78</ele>
        <time>2021-07-30T13:03:39.000Z</time>
      </trkpt>
      <trkpt lat="48.5509" lon="-2.26999">
        <ele>78</ele>
        <time>2021-07-30T13:03:43.000Z</time>
      </trkpt>
      <trkpt lat="48.55088" lon="-2.27013">
        <ele>80</ele>
        <time>2021-07-30T13:04:35.000Z</time>
      </trkpt>
      <trkpt lat="48.55081" lon="-2.27028">
        <ele>83</ele>
        <time>2021-07-30T13:04:41.000Z</time>
      </trkpt>
      <trkpt lat="48.55075" lon="-2.27041">
        <ele>87</ele>
        <time>2021-07-30T13:04:44.000Z</time>
      </trkpt>
      <trkpt lat="48.55069" lon="-2.27053">
        <ele>85</ele>
        <time>2021-07-30T13:05:12.000Z</time>
      </trkpt>
      <trkpt lat="48.55062" lon="-2.27063">
        <ele>85</ele>
        <time>2021-07-30T13:05:18.000Z</time>
      </trkpt>
      <trkpt lat="48.55056" lon="-2.27076">
        <ele>84</ele>
        <time>2021-07-30T13:05:22.000Z</time>
      </trkpt>
      <trkpt lat="48.55048" lon="-2.2709">
        <ele>82</ele>
        <time>2021-07-30T13:05:26.000Z</time>
      </trkpt>
      <trkpt lat="48.55038" lon="-2.271">
        <ele>79</ele>
        <time>2021-07-30T13:05:29.000Z</time>
      </trkpt>
      <trkpt lat="48.55028" lon="-2.27108">
        <ele>78</ele>
        <time>2021-07-30T13:05:31.000Z</time>
      </trkpt>
      <trkpt lat="48.55019" lon="-2.27112">
        <ele>77</ele>
        <time>2021-07-30T13:05:33.000Z</time>
      </trkpt>
      <trkpt lat="48.55008" lon="-2.27113">
        <ele>75</ele>
        <time>2021-07-30T13:05:36.000Z</time>
      </trkpt>
      <trkpt lat="48.54998" lon="-2.27108">
        <ele>76</ele>
        <time>2021-07-30T13:05:41.000Z</time>
      </trkpt>
      <trkpt lat="48.54989" lon="-2.27102">
        <ele>77</ele>
        <time>2021-07-30T13:05:46.000Z</time>
      </trkpt>
      <trkpt lat="48.54981" lon="-2.27093">
        <ele>78</ele>
        <time>2021-07-30T13:05:51.000Z</time>
      </trkpt>
      <trkpt lat="48.54979" lon="-2.27077">
        <ele>80</ele>
        <time>2021-07-30T13:05:56.000Z</time>
      </trkpt>
      <trkpt lat="48.54968" lon="-2.2708">
        <ele>81</ele>
        <time>2021-07-30T13:06:02.000Z</time>
      </trkpt>
      <trkpt lat="48.54955" lon="-2.27091">
        <ele>81</ele>
        <time>2021-07-30T13:06:04.000Z</time>
      </trkpt>
      <trkpt lat="48.54942" lon="-2.27096">
        <ele>81</ele>
        <time>2021-07-30T13:06:06.000Z</time>
      </trkpt>
      <trkpt lat="48.54931" lon="-2.27097">
        <ele>81</ele>
        <time>2021-07-30T13:06:08.000Z</time>
      </trkpt>
      <trkpt lat="48.54922" lon="-2.27098">
        <ele>79</ele>
        <time>2021-07-30T13:06:10.000Z</time>
      </trkpt>
      <trkpt lat="48.54912" lon="-2.27097">
        <ele>77</ele>
        <time>2021-07-30T13:06:12.000Z</time>
      </trkpt>
      <trkpt lat="48.54901" lon="-2.27106">
        <ele>78</ele>
        <time>2021-07-30T13:06:15.000Z</time>
      </trkpt>
      <trkpt lat="48.54889" lon="-2.27116">
        <ele>79</ele>
        <time>2021-07-30T13:06:18.000Z</time>
      </trkpt>
      <trkpt lat="48.54878" lon="-2.27127">
        <ele>81</ele>
        <time>2021-07-30T13:06:21.000Z</time>
      </trkpt>
      <trkpt lat="48.54869" lon="-2.2714">
        <ele>81</ele>
        <time>2021-07-30T13:06:24.000Z</time>
      </trkpt>
      <trkpt lat="48.54867" lon="-2.27157">
        <ele>81</ele>
        <time>2021-07-30T13:06:27.000Z</time>
      </trkpt>
      <trkpt lat="48.54869" lon="-2.27172">
        <ele>81</ele>
        <time>2021-07-30T13:06:30.000Z</time>
      </trkpt>
      <trkpt lat="48.54873" lon="-2.27186">
        <ele>80</ele>
        <time>2021-07-30T13:06:33.000Z</time>
      </trkpt>
      <trkpt lat="48.54874" lon="-2.27204">
        <ele>79</ele>
        <time>2021-07-30T13:06:36.000Z</time>
      </trkpt>
      <trkpt lat="48.54881" lon="-2.27217">
        <ele>79</ele>
        <time>2021-07-30T13:06:39.000Z</time>
      </trkpt>
      <trkpt lat="48.5489" lon="-2.27211">
        <ele>78</ele>
        <time>2021-07-30T13:06:43.000Z</time>
      </trkpt>
      <trkpt lat="48.54902" lon="-2.27217">
        <ele>80</ele>
        <time>2021-07-30T13:06:47.000Z</time>
      </trkpt>
      <trkpt lat="48.54908" lon="-2.27231">
        <ele>79</ele>
        <time>2021-07-30T13:06:50.000Z</time>
      </trkpt>
      <trkpt lat="48.54908" lon="-2.27245">
        <ele>79</ele>
        <time>2021-07-30T13:06:53.000Z</time>
      </trkpt>
      <trkpt lat="48.54906" lon="-2.27259">
        <ele>79</ele>
        <time>2021-07-30T13:06:56.000Z</time>
      </trkpt>
      <trkpt lat="48.54901" lon="-2.27271">
        <ele>79</ele>
        <time>2021-07-30T13:06:59.000Z</time>
      </trkpt>
      <trkpt lat="48.54895" lon="-2.27283">
        <ele>80</ele>
        <time>2021-07-30T13:07:02.000Z</time>
      </trkpt>
      <trkpt lat="48.54889" lon="-2.27293">
        <ele>80</ele>
        <time>2021-07-30T13:07:04.000Z</time>
      </trkpt>
      <trkpt lat="48.54882" lon="-2.27308">
        <ele>81</ele>
        <time>2021-07-30T13:07:07.000Z</time>
      </trkpt>
      <trkpt lat="48.54875" lon="-2.27324">
        <ele>82</ele>
        <time>2021-07-30T13:07:10.000Z</time>
      </trkpt>
      <trkpt lat="48.54867" lon="-2.27341">
        <ele>82</ele>
        <time>2021-07-30T13:07:13.000Z</time>
      </trkpt>
      <trkpt lat="48.54861" lon="-2.27354">
        <ele>82</ele>
        <time>2021-07-30T13:07:15.000Z</time>
      </trkpt>
      <trkpt lat="48.54855" lon="-2.27369">
        <ele>82</ele>
        <time>2021-07-30T13:07:17.000Z</time>
      </trkpt>
      <trkpt lat="48.5485" lon="-2.27388">
        <ele>82</ele>
        <time>2021-07-30T13:07:19.000Z</time>
      </trkpt>
      <trkpt lat="48.54846" lon="-2.27402">
        <ele>83</ele>
        <time>2021-07-30T13:07:21.000Z</time>
      </trkpt>
      <trkpt lat="48.5484" lon="-2.27412">
        <ele>84</ele>
        <time>2021-07-30T13:07:24.000Z</time>
      </trkpt>
      <trkpt lat="48.54831" lon="-2.27417">
        <ele>84</ele>
        <time>2021-07-30T13:07:27.000Z</time>
      </trkpt>
      <trkpt lat="48.5482" lon="-2.27424">
        <ele>84</ele>
        <time>2021-07-30T13:07:30.000Z</time>
      </trkpt>
      <trkpt lat="48.54812" lon="-2.27436">
        <ele>84</ele>
        <time>2021-07-30T13:07:33.000Z</time>
      </trkpt>
      <trkpt lat="48.54803" lon="-2.27449">
        <ele>84</ele>
        <time>2021-07-30T13:07:36.000Z</time>
      </trkpt>
      <trkpt lat="48.54793" lon="-2.27462">
        <ele>84</ele>
        <time>2021-07-30T13:07:39.000Z</time>
      </trkpt>
      <trkpt lat="48.54783" lon="-2.27468">
        <ele>83</ele>
        <time>2021-07-30T13:07:42.000Z</time>
      </trkpt>
      <trkpt lat="48.54773" lon="-2.27477">
        <ele>83</ele>
        <time>2021-07-30T13:07:46.000Z</time>
      </trkpt>
      <trkpt lat="48.54763" lon="-2.27482">
        <ele>83</ele>
        <time>2021-07-30T13:07:50.000Z</time>
      </trkpt>
      <trkpt lat="48.54754" lon="-2.27493">
        <ele>83</ele>
        <time>2021-07-30T13:07:54.000Z</time>
      </trkpt>
      <trkpt lat="48.54747" lon="-2.27503">
        <ele>83</ele>
        <time>2021-07-30T13:07:58.000Z</time>
      </trkpt>
      <trkpt lat="48.54739" lon="-2.27515">
        <ele>83</ele>
        <time>2021-07-30T13:08:02.000Z</time>
      </trkpt>
      <trkpt lat="48.54732" lon="-2.27524">
        <ele>83</ele>
        <time>2021-07-30T13:08:05.000Z</time>
      </trkpt>
      <trkpt lat="48.54723" lon="-2.27533">
        <ele>83</ele>
        <time>2021-07-30T13:08:08.000Z</time>
      </trkpt>
      <trkpt lat="48.54715" lon="-2.27542">
        <ele>83</ele>
        <time>2021-07-30T13:08:10.000Z</time>
      </trkpt>
      <trkpt lat="48.54707" lon="-2.2755">
        <ele>84</ele>
        <time>2021-07-30T13:08:12.000Z</time>
      </trkpt>
      <trkpt lat="48.54699" lon="-2.27558">
        <ele>84</ele>
        <time>2021-07-30T13:08:14.000Z</time>
      </trkpt>
      <trkpt lat="48.54688" lon="-2.27566">
        <ele>83</ele>
        <time>2021-07-30T13:08:17.000Z</time>
      </trkpt>
      <trkpt lat="48.54676" lon="-2.27575">
        <ele>84</ele>
        <time>2021-07-30T13:08:20.000Z</time>
      </trkpt>
      <trkpt lat="48.54666" lon="-2.27582">
        <ele>85</ele>
        <time>2021-07-30T13:08:23.000Z</time>
      </trkpt>
      <trkpt lat="48.54655" lon="-2.27586">
        <ele>86</ele>
        <time>2021-07-30T13:08:27.000Z</time>
      </trkpt>
      <trkpt lat="48.54647" lon="-2.2759">
        <ele>87</ele>
        <time>2021-07-30T13:08:31.000Z</time>
      </trkpt>
      <trkpt lat="48.54638" lon="-2.27595">
        <ele>87</ele>
        <time>2021-07-30T13:08:37.000Z</time>
      </trkpt>
      <trkpt lat="48.54629" lon="-2.27599">
        <ele>88</ele>
        <time>2021-07-30T13:08:41.000Z</time>
      </trkpt>
      <trkpt lat="48.54619" lon="-2.27603">
        <ele>88</ele>
        <time>2021-07-30T13:08:46.000Z</time>
      </trkpt>
      <trkpt lat="48.54608" lon="-2.27605">
        <ele>87</ele>
        <time>2021-07-30T13:08:51.000Z</time>
      </trkpt>
      <trkpt lat="48.54599" lon="-2.27608">
        <ele>88</ele>
        <time>2021-07-30T13:08:55.000Z</time>
      </trkpt>
      <trkpt lat="48.5459" lon="-2.27614">
        <ele>90</ele>
        <time>2021-07-30T13:08:59.000Z</time>
      </trkpt>
      <trkpt lat="48.54581" lon="-2.27619">
        <ele>90</ele>
        <time>2021-07-30T13:09:03.000Z</time>
      </trkpt>
      <trkpt lat="48.5457" lon="-2.27626">
        <ele>90</ele>
        <time>2021-07-30T13:09:07.000Z</time>
      </trkpt>
      <trkpt lat="48.54562" lon="-2.27637">
        <ele>90</ele>
        <time>2021-07-30T13:09:11.000Z</time>
      </trkpt>
      <trkpt lat="48.54553" lon="-2.27644">
        <ele>91</ele>
        <time>2021-07-30T13:09:15.000Z</time>
      </trkpt>
      <trkpt lat="48.54545" lon="-2.27652">
        <ele>90</ele>
        <time>2021-07-30T13:09:19.000Z</time>
      </trkpt>
      <trkpt lat="48.54537" lon="-2.2766">
        <ele>91</ele>
        <time>2021-07-30T13:09:22.000Z</time>
      </trkpt>
      <trkpt lat="48.54527" lon="-2.27665">
        <ele>90</ele>
        <time>2021-07-30T13:09:25.000Z</time>
      </trkpt>
      <trkpt lat="48.54518" lon="-2.27669">
        <ele>92</ele>
        <time>2021-07-30T13:09:28.000Z</time>
      </trkpt>
      <trkpt lat="48.54506" lon="-2.27672">
        <ele>93</ele>
        <time>2021-07-30T13:09:32.000Z</time>
      </trkpt>
      <trkpt lat="48.54495" lon="-2.27674">
        <ele>93</ele>
        <time>2021-07-30T13:09:35.000Z</time>
      </trkpt>
      <trkpt lat="48.54484" lon="-2.27672">
        <ele>95</ele>
        <time>2021-07-30T13:09:39.000Z</time>
      </trkpt>
      <trkpt lat="48.54473" lon="-2.27667">
        <ele>95</ele>
        <time>2021-07-30T13:09:43.000Z</time>
      </trkpt>
      <trkpt lat="48.54463" lon="-2.27672">
        <ele>95</ele>
        <time>2021-07-30T13:09:48.000Z</time>
      </trkpt>
      <trkpt lat="48.54455" lon="-2.27683">
        <ele>96</ele>
        <time>2021-07-30T13:09:52.000Z</time>
      </trkpt>
      <trkpt lat="48.54449" lon="-2.27694">
        <ele>95</ele>
        <time>2021-07-30T13:09:55.000Z</time>
      </trkpt>
      <trkpt lat="48.54439" lon="-2.27708">
        <ele>95</ele>
        <time>2021-07-30T13:09:58.000Z</time>
      </trkpt>
      <trkpt lat="48.5443" lon="-2.27718">
        <ele>94</ele>
        <time>2021-07-30T13:10:00.000Z</time>
      </trkpt>
      <trkpt lat="48.54416" lon="-2.27729">
        <ele>93</ele>
        <time>2021-07-30T13:10:02.000Z</time>
      </trkpt>
      <trkpt lat="48.54403" lon="-2.27744">
        <ele>92</ele>
        <time>2021-07-30T13:10:04.000Z</time>
      </trkpt>
      <trkpt lat="48.5439" lon="-2.27762">
        <ele>91</ele>
        <time>2021-07-30T13:10:06.000Z</time>
      </trkpt>
      <trkpt lat="48.54379" lon="-2.27781">
        <ele>91</ele>
        <time>2021-07-30T13:10:08.000Z</time>
      </trkpt>
      <trkpt lat="48.54369" lon="-2.27798">
        <ele>90</ele>
        <time>2021-07-30T13:10:10.000Z</time>
      </trkpt>
      <trkpt lat="48.5436" lon="-2.27812">
        <ele>90</ele>
        <time>2021-07-30T13:10:12.000Z</time>
      </trkpt>
      <trkpt lat="48.54352" lon="-2.27822">
        <ele>89</ele>
        <time>2021-07-30T13:10:14.000Z</time>
      </trkpt>
      <trkpt lat="48.54344" lon="-2.27829">
        <ele>89</ele>
        <time>2021-07-30T13:10:16.000Z</time>
      </trkpt>
      <trkpt lat="48.54335" lon="-2.27833">
        <ele>88</ele>
        <time>2021-07-30T13:10:18.000Z</time>
      </trkpt>
      <trkpt lat="48.54325" lon="-2.27834">
        <ele>88</ele>
        <time>2021-07-30T13:10:20.000Z</time>
      </trkpt>
      <trkpt lat="48.54313" lon="-2.27834">
        <ele>87</ele>
        <time>2021-07-30T13:10:23.000Z</time>
      </trkpt>
      <trkpt lat="48.543" lon="-2.27834">
        <ele>87</ele>
        <time>2021-07-30T13:10:26.000Z</time>
      </trkpt>
      <trkpt lat="48.5429" lon="-2.27835">
        <ele>86</ele>
        <time>2021-07-30T13:10:29.000Z</time>
      </trkpt>
      <trkpt lat="48.54281" lon="-2.27835">
        <ele>86</ele>
        <time>2021-07-30T13:10:32.000Z</time>
      </trkpt>
      <trkpt lat="48.54272" lon="-2.27836">
        <ele>87</ele>
        <time>2021-07-30T13:10:35.000Z</time>
      </trkpt>
      <trkpt lat="48.54261" lon="-2.27839">
        <ele>86</ele>
        <time>2021-07-30T13:10:39.000Z</time>
      </trkpt>
      <trkpt lat="48.54248" lon="-2.27841">
        <ele>85</ele>
        <time>2021-07-30T13:10:43.000Z</time>
      </trkpt>
      <trkpt lat="48.54237" lon="-2.27844">
        <ele>85</ele>
        <time>2021-07-30T13:10:47.000Z</time>
      </trkpt>
      <trkpt lat="48.54227" lon="-2.27848">
        <ele>84</ele>
        <time>2021-07-30T13:10:50.000Z</time>
      </trkpt>
      <trkpt lat="48.54217" lon="-2.27852">
        <ele>84</ele>
        <time>2021-07-30T13:10:53.000Z</time>
      </trkpt>
      <trkpt lat="48.54208" lon="-2.27857">
        <ele>85</ele>
        <time>2021-07-30T13:10:56.000Z</time>
      </trkpt>
      <trkpt lat="48.542" lon="-2.27864">
        <ele>85</ele>
        <time>2021-07-30T13:10:59.000Z</time>
      </trkpt>
      <trkpt lat="48.54191" lon="-2.27875">
        <ele>85</ele>
        <time>2021-07-30T13:11:02.000Z</time>
      </trkpt>
      <trkpt lat="48.54183" lon="-2.27888">
        <ele>85</ele>
        <time>2021-07-30T13:11:05.000Z</time>
      </trkpt>
      <trkpt lat="48.54173" lon="-2.27909">
        <ele>85</ele>
        <time>2021-07-30T13:11:09.000Z</time>
      </trkpt>
      <trkpt lat="48.54168" lon="-2.27923">
        <ele>85</ele>
        <time>2021-07-30T13:11:12.000Z</time>
      </trkpt>
      <trkpt lat="48.54164" lon="-2.27938">
        <ele>85</ele>
        <time>2021-07-30T13:11:15.000Z</time>
      </trkpt>
      <trkpt lat="48.54158" lon="-2.27955">
        <ele>85</ele>
        <time>2021-07-30T13:11:19.000Z</time>
      </trkpt>
      <trkpt lat="48.54152" lon="-2.27967">
        <ele>86</ele>
        <time>2021-07-30T13:11:22.000Z</time>
      </trkpt>
      <trkpt lat="48.54147" lon="-2.27979">
        <ele>86</ele>
        <time>2021-07-30T13:11:25.000Z</time>
      </trkpt>
      <trkpt lat="48.5414" lon="-2.27992">
        <ele>85</ele>
        <time>2021-07-30T13:11:29.000Z</time>
      </trkpt>
      <trkpt lat="48.54137" lon="-2.28005">
        <ele>84</ele>
        <time>2021-07-30T13:11:32.000Z</time>
      </trkpt>
      <trkpt lat="48.5413" lon="-2.28025">
        <ele>82</ele>
        <time>2021-07-30T13:11:37.000Z</time>
      </trkpt>
      <trkpt lat="48.54125" lon="-2.28038">
        <ele>82</ele>
        <time>2021-07-30T13:11:40.000Z</time>
      </trkpt>
      <trkpt lat="48.5412" lon="-2.28053">
        <ele>82</ele>
        <time>2021-07-30T13:11:43.000Z</time>
      </trkpt>
      <trkpt lat="48.54115" lon="-2.28067">
        <ele>81</ele>
        <time>2021-07-30T13:11:46.000Z</time>
      </trkpt>
      <trkpt lat="48.5411" lon="-2.28083">
        <ele>80</ele>
        <time>2021-07-30T13:11:49.000Z</time>
      </trkpt>
      <trkpt lat="48.54105" lon="-2.28098">
        <ele>81</ele>
        <time>2021-07-30T13:11:52.000Z</time>
      </trkpt>
      <trkpt lat="48.54101" lon="-2.28114">
        <ele>81</ele>
        <time>2021-07-30T13:11:55.000Z</time>
      </trkpt>
      <trkpt lat="48.54094" lon="-2.28131">
        <ele>82</ele>
        <time>2021-07-30T13:11:58.000Z</time>
      </trkpt>
      <trkpt lat="48.54087" lon="-2.28146">
        <ele>82</ele>
        <time>2021-07-30T13:12:01.000Z</time>
      </trkpt>
      <trkpt lat="48.5408" lon="-2.2816">
        <ele>82</ele>
        <time>2021-07-30T13:12:04.000Z</time>
      </trkpt>
      <trkpt lat="48.54071" lon="-2.28173">
        <ele>82</ele>
        <time>2021-07-30T13:12:07.000Z</time>
      </trkpt>
      <trkpt lat="48.54064" lon="-2.28186">
        <ele>82</ele>
        <time>2021-07-30T13:12:10.000Z</time>
      </trkpt>
      <trkpt lat="48.54057" lon="-2.28198">
        <ele>83</ele>
        <time>2021-07-30T13:12:13.000Z</time>
      </trkpt>
      <trkpt lat="48.54045" lon="-2.28215">
        <ele>85</ele>
        <time>2021-07-30T13:12:17.000Z</time>
      </trkpt>
      <trkpt lat="48.54038" lon="-2.28226">
        <ele>85</ele>
        <time>2021-07-30T13:12:20.000Z</time>
      </trkpt>
      <trkpt lat="48.5403" lon="-2.28238">
        <ele>86</ele>
        <time>2021-07-30T13:12:23.000Z</time>
      </trkpt>
      <trkpt lat="48.54023" lon="-2.28249">
        <ele>86</ele>
        <time>2021-07-30T13:12:26.000Z</time>
      </trkpt>
      <trkpt lat="48.54013" lon="-2.28266">
        <ele>85</ele>
        <time>2021-07-30T13:12:30.000Z</time>
      </trkpt>
      <trkpt lat="48.54003" lon="-2.28279">
        <ele>85</ele>
        <time>2021-07-30T13:12:33.000Z</time>
      </trkpt>
      <trkpt lat="48.53991" lon="-2.28295">
        <ele>84</ele>
        <time>2021-07-30T13:12:37.000Z</time>
      </trkpt>
      <trkpt lat="48.53983" lon="-2.28305">
        <ele>84</ele>
        <time>2021-07-30T13:12:40.000Z</time>
      </trkpt>
      <trkpt lat="48.53969" lon="-2.28317">
        <ele>84</ele>
        <time>2021-07-30T13:12:44.000Z</time>
      </trkpt>
      <trkpt lat="48.53959" lon="-2.28324">
        <ele>84</ele>
        <time>2021-07-30T13:12:47.000Z</time>
      </trkpt>
      <trkpt lat="48.5395" lon="-2.28334">
        <ele>84</ele>
        <time>2021-07-30T13:12:51.000Z</time>
      </trkpt>
      <trkpt lat="48.53943" lon="-2.28343">
        <ele>83</ele>
        <time>2021-07-30T13:12:54.000Z</time>
      </trkpt>
      <trkpt lat="48.53934" lon="-2.28351">
        <ele>83</ele>
        <time>2021-07-30T13:12:58.000Z</time>
      </trkpt>
      <trkpt lat="48.53926" lon="-2.28364">
        <ele>82</ele>
        <time>2021-07-30T13:13:02.000Z</time>
      </trkpt>
      <trkpt lat="48.53918" lon="-2.28376">
        <ele>82</ele>
        <time>2021-07-30T13:13:05.000Z</time>
      </trkpt>
      <trkpt lat="48.53908" lon="-2.28387">
        <ele>82</ele>
        <time>2021-07-30T13:13:07.000Z</time>
      </trkpt>
      <trkpt lat="48.53899" lon="-2.28398">
        <ele>82</ele>
        <time>2021-07-30T13:13:09.000Z</time>
      </trkpt>
      <trkpt lat="48.5389" lon="-2.28409">
        <ele>83</ele>
        <time>2021-07-30T13:13:11.000Z</time>
      </trkpt>
      <trkpt lat="48.53881" lon="-2.28418">
        <ele>84</ele>
        <time>2021-07-30T13:13:13.000Z</time>
      </trkpt>
      <trkpt lat="48.53873" lon="-2.28427">
        <ele>86</ele>
        <time>2021-07-30T13:13:15.000Z</time>
      </trkpt>
      <trkpt lat="48.53863" lon="-2.28435">
        <ele>85</ele>
        <time>2021-07-30T13:13:18.000Z</time>
      </trkpt>
      <trkpt lat="48.53853" lon="-2.28446">
        <ele>85</ele>
        <time>2021-07-30T13:13:21.000Z</time>
      </trkpt>
      <trkpt lat="48.53843" lon="-2.28457">
        <ele>85</ele>
        <time>2021-07-30T13:13:24.000Z</time>
      </trkpt>
      <trkpt lat="48.53834" lon="-2.28466">
        <ele>85</ele>
        <time>2021-07-30T13:13:26.000Z</time>
      </trkpt>
      <trkpt lat="48.53827" lon="-2.28476">
        <ele>85</ele>
        <time>2021-07-30T13:13:28.000Z</time>
      </trkpt>
      <trkpt lat="48.53821" lon="-2.28487">
        <ele>85</ele>
        <time>2021-07-30T13:13:30.000Z</time>
      </trkpt>
      <trkpt lat="48.53814" lon="-2.28502">
        <ele>87</ele>
        <time>2021-07-30T13:13:33.000Z</time>
      </trkpt>
      <trkpt lat="48.53806" lon="-2.28517">
        <ele>87</ele>
        <time>2021-07-30T13:13:36.000Z</time>
      </trkpt>
      <trkpt lat="48.53798" lon="-2.2853">
        <ele>86</ele>
        <time>2021-07-30T13:13:39.000Z</time>
      </trkpt>
      <trkpt lat="48.53792" lon="-2.28544">
        <ele>86</ele>
        <time>2021-07-30T13:13:42.000Z</time>
      </trkpt>
      <trkpt lat="48.53785" lon="-2.28556">
        <ele>86</ele>
        <time>2021-07-30T13:13:45.000Z</time>
      </trkpt>
      <trkpt lat="48.53777" lon="-2.28567">
        <ele>86</ele>
        <time>2021-07-30T13:13:48.000Z</time>
      </trkpt>
      <trkpt lat="48.53767" lon="-2.28576">
        <ele>86</ele>
        <time>2021-07-30T13:13:51.000Z</time>
      </trkpt>
      <trkpt lat="48.53759" lon="-2.28581">
        <ele>85</ele>
        <time>2021-07-30T13:13:53.000Z</time>
      </trkpt>
      <trkpt lat="48.53749" lon="-2.28585">
        <ele>85</ele>
        <time>2021-07-30T13:13:55.000Z</time>
      </trkpt>
      <trkpt lat="48.5374" lon="-2.28587">
        <ele>84</ele>
        <time>2021-07-30T13:13:57.000Z</time>
      </trkpt>
      <trkpt lat="48.5373" lon="-2.28586">
        <ele>82</ele>
        <time>2021-07-30T13:13:59.000Z</time>
      </trkpt>
      <trkpt lat="48.5372" lon="-2.28584">
        <ele>80</ele>
        <time>2021-07-30T13:14:01.000Z</time>
      </trkpt>
      <trkpt lat="48.53711" lon="-2.2858">
        <ele>80</ele>
        <time>2021-07-30T13:14:03.000Z</time>
      </trkpt>
      <trkpt lat="48.53699" lon="-2.28576">
        <ele>84</ele>
        <time>2021-07-30T13:14:05.000Z</time>
      </trkpt>
      <trkpt lat="48.53685" lon="-2.28569">
        <ele>85</ele>
        <time>2021-07-30T13:14:08.000Z</time>
      </trkpt>
      <trkpt lat="48.53679" lon="-2.28557">
        <ele>86</ele>
        <time>2021-07-30T13:14:11.000Z</time>
      </trkpt>
      <trkpt lat="48.53671" lon="-2.28545">
        <ele>87</ele>
        <time>2021-07-30T13:14:15.000Z</time>
      </trkpt>
      <trkpt lat="48.53662" lon="-2.28533">
        <ele>88</ele>
        <time>2021-07-30T13:14:18.000Z</time>
      </trkpt>
      <trkpt lat="48.53655" lon="-2.28518">
        <ele>88</ele>
        <time>2021-07-30T13:14:21.000Z</time>
      </trkpt>
      <trkpt lat="48.53646" lon="-2.28506">
        <ele>88</ele>
        <time>2021-07-30T13:14:24.000Z</time>
      </trkpt>
      <trkpt lat="48.5364" lon="-2.28493">
        <ele>88</ele>
        <time>2021-07-30T13:14:27.000Z</time>
      </trkpt>
      <trkpt lat="48.53632" lon="-2.28486">
        <ele>88</ele>
        <time>2021-07-30T13:14:30.000Z</time>
      </trkpt>
      <trkpt lat="48.53625" lon="-2.28473">
        <ele>88</ele>
        <time>2021-07-30T13:14:33.000Z</time>
      </trkpt>
      <trkpt lat="48.53616" lon="-2.28462">
        <ele>88</ele>
        <time>2021-07-30T13:14:36.000Z</time>
      </trkpt>
      <trkpt lat="48.53606" lon="-2.28455">
        <ele>88</ele>
        <time>2021-07-30T13:14:39.000Z</time>
      </trkpt>
      <trkpt lat="48.53596" lon="-2.28447">
        <ele>86</ele>
        <time>2021-07-30T13:14:42.000Z</time>
      </trkpt>
      <trkpt lat="48.53589" lon="-2.28436">
        <ele>86</ele>
        <time>2021-07-30T13:14:44.000Z</time>
      </trkpt>
      <trkpt lat="48.5358" lon="-2.28429">
        <ele>85</ele>
        <time>2021-07-30T13:14:46.000Z</time>
      </trkpt>
      <trkpt lat="48.5357" lon="-2.28423">
        <ele>86</ele>
        <time>2021-07-30T13:14:48.000Z</time>
      </trkpt>
      <trkpt lat="48.53562" lon="-2.28414">
        <ele>86</ele>
        <time>2021-07-30T13:14:51.000Z</time>
      </trkpt>
      <trkpt lat="48.53559" lon="-2.28401">
        <ele>88</ele>
        <time>2021-07-30T13:14:56.000Z</time>
      </trkpt>
      <trkpt lat="48.53551" lon="-2.28394">
        <ele>87</ele>
        <time>2021-07-30T13:15:02.000Z</time>
      </trkpt>
      <trkpt lat="48.53541" lon="-2.28394">
        <ele>89</ele>
        <time>2021-07-30T13:15:09.000Z</time>
      </trkpt>
      <trkpt lat="48.53531" lon="-2.28401">
        <ele>90</ele>
        <time>2021-07-30T13:15:14.000Z</time>
      </trkpt>
      <trkpt lat="48.53521" lon="-2.28409">
        <ele>90</ele>
        <time>2021-07-30T13:15:18.000Z</time>
      </trkpt>
      <trkpt lat="48.53511" lon="-2.28413">
        <ele>90</ele>
        <time>2021-07-30T13:15:21.000Z</time>
      </trkpt>
      <trkpt lat="48.53502" lon="-2.28419">
        <ele>90</ele>
        <time>2021-07-30T13:15:24.000Z</time>
      </trkpt>
      <trkpt lat="48.53491" lon="-2.28427">
        <ele>90</ele>
        <time>2021-07-30T13:15:27.000Z</time>
      </trkpt>
      <trkpt lat="48.53479" lon="-2.28433">
        <ele>90</ele>
        <time>2021-07-30T13:15:30.000Z</time>
      </trkpt>
      <trkpt lat="48.53469" lon="-2.28436">
        <ele>90</ele>
        <time>2021-07-30T13:15:32.000Z</time>
      </trkpt>
      <trkpt lat="48.53459" lon="-2.28441">
        <ele>88</ele>
        <time>2021-07-30T13:15:35.000Z</time>
      </trkpt>
      <trkpt lat="48.53449" lon="-2.2845">
        <ele>88</ele>
        <time>2021-07-30T13:15:39.000Z</time>
      </trkpt>
      <trkpt lat="48.5344" lon="-2.28458">
        <ele>88</ele>
        <time>2021-07-30T13:15:43.000Z</time>
      </trkpt>
      <trkpt lat="48.53427" lon="-2.28462">
        <ele>87</ele>
        <time>2021-07-30T13:15:47.000Z</time>
      </trkpt>
      <trkpt lat="48.53412" lon="-2.28468">
        <ele>90</ele>
        <time>2021-07-30T13:15:49.000Z</time>
      </trkpt>
      <trkpt lat="48.53401" lon="-2.28471">
        <ele>90</ele>
        <time>2021-07-30T13:15:51.000Z</time>
      </trkpt>
      <trkpt lat="48.53391" lon="-2.28481">
        <ele>90</ele>
        <time>2021-07-30T13:15:54.000Z</time>
      </trkpt>
      <trkpt lat="48.53382" lon="-2.28491">
        <ele>90</ele>
        <time>2021-07-30T13:15:57.000Z</time>
      </trkpt>
      <trkpt lat="48.53376" lon="-2.28501">
        <ele>90</ele>
        <time>2021-07-30T13:16:04.000Z</time>
      </trkpt>
      <trkpt lat="48.53376" lon="-2.28516">
        <ele>89</ele>
        <time>2021-07-30T13:16:10.000Z</time>
      </trkpt>
      <trkpt lat="48.53372" lon="-2.28532">
        <ele>91</ele>
        <time>2021-07-30T13:16:41.000Z</time>
      </trkpt>
      <trkpt lat="48.5337" lon="-2.28551">
        <ele>91</ele>
        <time>2021-07-30T13:16:44.000Z</time>
      </trkpt>
      <trkpt lat="48.53364" lon="-2.28561">
        <ele>93</ele>
        <time>2021-07-30T13:16:48.000Z</time>
      </trkpt>
      <trkpt lat="48.53353" lon="-2.28552">
        <ele>92</ele>
        <time>2021-07-30T13:16:53.000Z</time>
      </trkpt>
      <trkpt lat="48.53343" lon="-2.28548">
        <ele>92</ele>
        <time>2021-07-30T13:16:56.000Z</time>
      </trkpt>
      <trkpt lat="48.53331" lon="-2.28548">
        <ele>91</ele>
        <time>2021-07-30T13:17:00.000Z</time>
      </trkpt>
      <trkpt lat="48.53323" lon="-2.28543">
        <ele>90</ele>
        <time>2021-07-30T13:17:03.000Z</time>
      </trkpt>
      <trkpt lat="48.53313" lon="-2.28539">
        <ele>87</ele>
        <time>2021-07-30T13:17:10.000Z</time>
      </trkpt>
      <trkpt lat="48.53302" lon="-2.28542">
        <ele>86</ele>
        <time>2021-07-30T13:17:14.000Z</time>
      </trkpt>
      <trkpt lat="48.53294" lon="-2.28555">
        <ele>86</ele>
        <time>2021-07-30T13:17:18.000Z</time>
      </trkpt>
      <trkpt lat="48.53285" lon="-2.28564">
        <ele>85</ele>
        <time>2021-07-30T13:17:22.000Z</time>
      </trkpt>
      <trkpt lat="48.53275" lon="-2.28567">
        <ele>86</ele>
        <time>2021-07-30T13:18:11.000Z</time>
      </trkpt>
      <trkpt lat="48.53265" lon="-2.2857">
        <ele>85</ele>
        <time>2021-07-30T13:18:15.000Z</time>
      </trkpt>
      <trkpt lat="48.53255" lon="-2.28578">
        <ele>85</ele>
        <time>2021-07-30T13:18:18.000Z</time>
      </trkpt>
      <trkpt lat="48.53247" lon="-2.28589">
        <ele>85</ele>
        <time>2021-07-30T13:18:21.000Z</time>
      </trkpt>
      <trkpt lat="48.5324" lon="-2.286">
        <ele>85</ele>
        <time>2021-07-30T13:18:24.000Z</time>
      </trkpt>
      <trkpt lat="48.53232" lon="-2.28611">
        <ele>85</ele>
        <time>2021-07-30T13:18:27.000Z</time>
      </trkpt>
      <trkpt lat="48.53225" lon="-2.28624">
        <ele>84</ele>
        <time>2021-07-30T13:18:30.000Z</time>
      </trkpt>
      <trkpt lat="48.53218" lon="-2.28637">
        <ele>83</ele>
        <time>2021-07-30T13:18:33.000Z</time>
      </trkpt>
      <trkpt lat="48.53211" lon="-2.2865">
        <ele>83</ele>
        <time>2021-07-30T13:18:36.000Z</time>
      </trkpt>
      <trkpt lat="48.53203" lon="-2.28663">
        <ele>84</ele>
        <time>2021-07-30T13:18:39.000Z</time>
      </trkpt>
      <trkpt lat="48.53199" lon="-2.2868">
        <ele>83</ele>
        <time>2021-07-30T13:18:42.000Z</time>
      </trkpt>
      <trkpt lat="48.53195" lon="-2.28692">
        <ele>84</ele>
        <time>2021-07-30T13:18:45.000Z</time>
      </trkpt>
      <trkpt lat="48.53187" lon="-2.287">
        <ele>85</ele>
        <time>2021-07-30T13:18:49.000Z</time>
      </trkpt>
      <trkpt lat="48.53185" lon="-2.28714">
        <ele>84</ele>
        <time>2021-07-30T13:18:54.000Z</time>
      </trkpt>
      <trkpt lat="48.5318" lon="-2.28728">
        <ele>85</ele>
        <time>2021-07-30T13:19:00.000Z</time>
      </trkpt>
      <trkpt lat="48.53176" lon="-2.28744">
        <ele>87</ele>
        <time>2021-07-30T13:19:04.000Z</time>
      </trkpt>
      <trkpt lat="48.53174" lon="-2.28759">
        <ele>88</ele>
        <time>2021-07-30T13:19:08.000Z</time>
      </trkpt>
      <trkpt lat="48.53167" lon="-2.28768">
        <ele>89</ele>
        <time>2021-07-30T13:19:11.000Z</time>
      </trkpt>
      <trkpt lat="48.53159" lon="-2.28778">
        <ele>89</ele>
        <time>2021-07-30T13:19:14.000Z</time>
      </trkpt>
      <trkpt lat="48.53152" lon="-2.28789">
        <ele>89</ele>
        <time>2021-07-30T13:19:17.000Z</time>
      </trkpt>
      <trkpt lat="48.53148" lon="-2.28804">
        <ele>88</ele>
        <time>2021-07-30T13:19:20.000Z</time>
      </trkpt>
      <trkpt lat="48.53144" lon="-2.2882">
        <ele>89</ele>
        <time>2021-07-30T13:19:23.000Z</time>
      </trkpt>
      <trkpt lat="48.53139" lon="-2.28836">
        <ele>87</ele>
        <time>2021-07-30T13:19:26.000Z</time>
      </trkpt>
      <trkpt lat="48.53129" lon="-2.28841">
        <ele>86</ele>
        <time>2021-07-30T13:19:29.000Z</time>
      </trkpt>
      <trkpt lat="48.53119" lon="-2.28846">
        <ele>86</ele>
        <time>2021-07-30T13:19:32.000Z</time>
      </trkpt>
      <trkpt lat="48.53108" lon="-2.28842">
        <ele>87</ele>
        <time>2021-07-30T13:19:37.000Z</time>
      </trkpt>
      <trkpt lat="48.53098" lon="-2.28846">
        <ele>86</ele>
        <time>2021-07-30T13:20:10.000Z</time>
      </trkpt>
      <trkpt lat="48.53088" lon="-2.28839">
        <ele>86</ele>
        <time>2021-07-30T13:20:15.000Z</time>
      </trkpt>
      <trkpt lat="48.53079" lon="-2.2883">
        <ele>86</ele>
        <time>2021-07-30T13:20:19.000Z</time>
      </trkpt>
      <trkpt lat="48.53066" lon="-2.28821">
        <ele>85</ele>
        <time>2021-07-30T13:20:24.000Z</time>
      </trkpt>
      <trkpt lat="48.53055" lon="-2.28815">
        <ele>84</ele>
        <time>2021-07-30T13:20:27.000Z</time>
      </trkpt>
      <trkpt lat="48.53045" lon="-2.28803">
        <ele>83</ele>
        <time>2021-07-30T13:20:30.000Z</time>
      </trkpt>
      <trkpt lat="48.5304" lon="-2.28788">
        <ele>83</ele>
        <time>2021-07-30T13:20:33.000Z</time>
      </trkpt>
      <trkpt lat="48.53034" lon="-2.28778">
        <ele>83</ele>
        <time>2021-07-30T13:20:36.000Z</time>
      </trkpt>
      <trkpt lat="48.53025" lon="-2.28772">
        <ele>82</ele>
        <time>2021-07-30T13:20:41.000Z</time>
      </trkpt>
      <trkpt lat="48.53015" lon="-2.28773">
        <ele>82</ele>
        <time>2021-07-30T13:20:48.000Z</time>
      </trkpt>
      <trkpt lat="48.53006" lon="-2.2877">
        <ele>82</ele>
        <time>2021-07-30T13:20:52.000Z</time>
      </trkpt>
      <trkpt lat="48.52997" lon="-2.28765">
        <ele>83</ele>
        <time>2021-07-30T13:22:52.000Z</time>
      </trkpt>
      <trkpt lat="48.52989" lon="-2.28757">
        <ele>88</ele>
        <time>2021-07-30T13:24:32.000Z</time>
      </trkpt>
      <trkpt lat="48.52988" lon="-2.28743">
        <ele>88</ele>
        <time>2021-07-30T13:24:40.000Z</time>
      </trkpt>
      <trkpt lat="48.52979" lon="-2.28733">
        <ele>91</ele>
        <time>2021-07-30T13:24:47.000Z</time>
      </trkpt>
      <trkpt lat="48.5297" lon="-2.28726">
        <ele>91</ele>
        <time>2021-07-30T13:24:52.000Z</time>
      </trkpt>
      <trkpt lat="48.52964" lon="-2.28715">
        <ele>91</ele>
        <time>2021-07-30T13:25:30.000Z</time>
      </trkpt>
      <trkpt lat="48.52963" lon="-2.28699">
        <ele>92</ele>
        <time>2021-07-30T13:25:45.000Z</time>
      </trkpt>
      <trkpt lat="48.52962" lon="-2.28684">
        <ele>94</ele>
        <time>2021-07-30T13:25:51.000Z</time>
      </trkpt>
      <trkpt lat="48.5296" lon="-2.28669">
        <ele>95</ele>
        <time>2021-07-30T13:25:56.000Z</time>
      </trkpt>
      <trkpt lat="48.52958" lon="-2.28653">
        <ele>96</ele>
        <time>2021-07-30T13:26:01.000Z</time>
      </trkpt>
      <trkpt lat="48.52955" lon="-2.28637">
        <ele>97</ele>
        <time>2021-07-30T13:26:06.000Z</time>
      </trkpt>
      <trkpt lat="48.52953" lon="-2.28622">
        <ele>97</ele>
        <time>2021-07-30T13:26:11.000Z</time>
      </trkpt>
      <trkpt lat="48.52951" lon="-2.28607">
        <ele>97</ele>
        <time>2021-07-30T13:26:16.000Z</time>
      </trkpt>
      <trkpt lat="48.52949" lon="-2.28591">
        <ele>98</ele>
        <time>2021-07-30T13:26:21.000Z</time>
      </trkpt>
      <trkpt lat="48.52947" lon="-2.28577">
        <ele>97</ele>
        <time>2021-07-30T13:26:25.000Z</time>
      </trkpt>
      <trkpt lat="48.52944" lon="-2.28561">
        <ele>97</ele>
        <time>2021-07-30T13:26:30.000Z</time>
      </trkpt>
      <trkpt lat="48.52942" lon="-2.28547">
        <ele>98</ele>
        <time>2021-07-30T13:26:34.000Z</time>
      </trkpt>
      <trkpt lat="48.52939" lon="-2.2853">
        <ele>99</ele>
        <time>2021-07-30T13:26:39.000Z</time>
      </trkpt>
      <trkpt lat="48.52937" lon="-2.28514">
        <ele>100</ele>
        <time>2021-07-30T13:26:44.000Z</time>
      </trkpt>
      <trkpt lat="48.52935" lon="-2.28499">
        <ele>100</ele>
        <time>2021-07-30T13:26:48.000Z</time>
      </trkpt>
      <trkpt lat="48.52933" lon="-2.28485">
        <ele>101</ele>
        <time>2021-07-30T13:26:52.000Z</time>
      </trkpt>
      <trkpt lat="48.52931" lon="-2.28469">
        <ele>101</ele>
        <time>2021-07-30T13:26:57.000Z</time>
      </trkpt>
      <trkpt lat="48.52929" lon="-2.28456">
        <ele>101</ele>
        <time>2021-07-30T13:27:01.000Z</time>
      </trkpt>
      <trkpt lat="48.52928" lon="-2.28441">
        <ele>101</ele>
        <time>2021-07-30T13:27:05.000Z</time>
      </trkpt>
      <trkpt lat="48.52925" lon="-2.28426">
        <ele>100</ele>
        <time>2021-07-30T13:27:09.000Z</time>
      </trkpt>
      <trkpt lat="48.52922" lon="-2.28412">
        <ele>100</ele>
        <time>2021-07-30T13:27:13.000Z</time>
      </trkpt>
      <trkpt lat="48.5292" lon="-2.28397">
        <ele>100</ele>
        <time>2021-07-30T13:27:17.000Z</time>
      </trkpt>
      <trkpt lat="48.5292" lon="-2.28383">
        <ele>101</ele>
        <time>2021-07-30T13:27:21.000Z</time>
      </trkpt>
      <trkpt lat="48.52909" lon="-2.28376">
        <ele>103</ele>
        <time>2021-07-30T13:27:26.000Z</time>
      </trkpt>
      <trkpt lat="48.52899" lon="-2.28373">
        <ele>103</ele>
        <time>2021-07-30T13:27:30.000Z</time>
      </trkpt>
      <trkpt lat="48.52889" lon="-2.28371">
        <ele>103</ele>
        <time>2021-07-30T13:27:33.000Z</time>
      </trkpt>
      <trkpt lat="48.52879" lon="-2.28369">
        <ele>102</ele>
        <time>2021-07-30T13:27:36.000Z</time>
      </trkpt>
      <trkpt lat="48.52867" lon="-2.28371">
        <ele>101</ele>
        <time>2021-07-30T13:27:39.000Z</time>
      </trkpt>
      <trkpt lat="48.52854" lon="-2.28373">
        <ele>101</ele>
        <time>2021-07-30T13:27:42.000Z</time>
      </trkpt>
      <trkpt lat="48.52844" lon="-2.28374">
        <ele>101</ele>
        <time>2021-07-30T13:27:45.000Z</time>
      </trkpt>
      <trkpt lat="48.52835" lon="-2.28375">
        <ele>102</ele>
        <time>2021-07-30T13:27:48.000Z</time>
      </trkpt>
      <trkpt lat="48.52825" lon="-2.28375">
        <ele>102</ele>
        <time>2021-07-30T13:27:51.000Z</time>
      </trkpt>
      <trkpt lat="48.52813" lon="-2.28378">
        <ele>102</ele>
        <time>2021-07-30T13:27:54.000Z</time>
      </trkpt>
      <trkpt lat="48.52808" lon="-2.2839">
        <ele>102</ele>
        <time>2021-07-30T13:27:57.000Z</time>
      </trkpt>
      <trkpt lat="48.5281" lon="-2.28404">
        <ele>102</ele>
        <time>2021-07-30T13:28:00.000Z</time>
      </trkpt>
      <trkpt lat="48.52811" lon="-2.28422">
        <ele>101</ele>
        <time>2021-07-30T13:28:03.000Z</time>
      </trkpt>
      <trkpt lat="48.52812" lon="-2.28444">
        <ele>101</ele>
        <time>2021-07-30T13:28:06.000Z</time>
      </trkpt>
      <trkpt lat="48.52813" lon="-2.28459">
        <ele>100</ele>
        <time>2021-07-30T13:28:08.000Z</time>
      </trkpt>
      <trkpt lat="48.52813" lon="-2.28473">
        <ele>100</ele>
        <time>2021-07-30T13:28:10.000Z</time>
      </trkpt>
      <trkpt lat="48.52813" lon="-2.28487">
        <ele>99</ele>
        <time>2021-07-30T13:28:12.000Z</time>
      </trkpt>
      <trkpt lat="48.52813" lon="-2.28502">
        <ele>98</ele>
        <time>2021-07-30T13:28:14.000Z</time>
      </trkpt>
      <trkpt lat="48.52814" lon="-2.28518">
        <ele>97</ele>
        <time>2021-07-30T13:28:16.000Z</time>
      </trkpt>
      <trkpt lat="48.52814" lon="-2.28534">
        <ele>97</ele>
        <time>2021-07-30T13:28:18.000Z</time>
      </trkpt>
      <trkpt lat="48.52814" lon="-2.28551">
        <ele>97</ele>
        <time>2021-07-30T13:28:20.000Z</time>
      </trkpt>
      <trkpt lat="48.52813" lon="-2.28568">
        <ele>96</ele>
        <time>2021-07-30T13:28:22.000Z</time>
      </trkpt>
      <trkpt lat="48.52814" lon="-2.28586">
        <ele>96</ele>
        <time>2021-07-30T13:28:24.000Z</time>
      </trkpt>
      <trkpt lat="48.52814" lon="-2.28603">
        <ele>96</ele>
        <time>2021-07-30T13:28:26.000Z</time>
      </trkpt>
      <trkpt lat="48.52814" lon="-2.28622">
        <ele>96</ele>
        <time>2021-07-30T13:28:28.000Z</time>
      </trkpt>
      <trkpt lat="48.52814" lon="-2.28639">
        <ele>95</ele>
        <time>2021-07-30T13:28:30.000Z</time>
      </trkpt>
      <trkpt lat="48.52814" lon="-2.28656">
        <ele>95</ele>
        <time>2021-07-30T13:28:32.000Z</time>
      </trkpt>
      <trkpt lat="48.52814" lon="-2.28674">
        <ele>95</ele>
        <time>2021-07-30T13:28:34.000Z</time>
      </trkpt>
      <trkpt lat="48.52815" lon="-2.28692">
        <ele>95</ele>
        <time>2021-07-30T13:28:36.000Z</time>
      </trkpt>
      <trkpt lat="48.52816" lon="-2.2871">
        <ele>94</ele>
        <time>2021-07-30T13:28:38.000Z</time>
      </trkpt>
      <trkpt lat="48.52818" lon="-2.28729">
        <ele>94</ele>
        <time>2021-07-30T13:28:40.000Z</time>
      </trkpt>
      <trkpt lat="48.52819" lon="-2.28749">
        <ele>94</ele>
        <time>2021-07-30T13:28:42.000Z</time>
      </trkpt>
      <trkpt lat="48.52821" lon="-2.28769">
        <ele>94</ele>
        <time>2021-07-30T13:28:44.000Z</time>
      </trkpt>
      <trkpt lat="48.52823" lon="-2.28789">
        <ele>93</ele>
        <time>2021-07-30T13:28:46.000Z</time>
      </trkpt>
      <trkpt lat="48.52823" lon="-2.28809">
        <ele>93</ele>
        <time>2021-07-30T13:28:48.000Z</time>
      </trkpt>
      <trkpt lat="48.52825" lon="-2.28828">
        <ele>93</ele>
        <time>2021-07-30T13:28:50.000Z</time>
      </trkpt>
      <trkpt lat="48.52828" lon="-2.28848">
        <ele>93</ele>
        <time>2021-07-30T13:28:52.000Z</time>
      </trkpt>
      <trkpt lat="48.52829" lon="-2.28866">
        <ele>93</ele>
        <time>2021-07-30T13:28:54.000Z</time>
      </trkpt>
      <trkpt lat="48.5283" lon="-2.28883">
        <ele>93</ele>
        <time>2021-07-30T13:28:56.000Z</time>
      </trkpt>
      <trkpt lat="48.5283" lon="-2.28899">
        <ele>93</ele>
        <time>2021-07-30T13:28:58.000Z</time>
      </trkpt>
      <trkpt lat="48.52826" lon="-2.28912">
        <ele>93</ele>
        <time>2021-07-30T13:29:00.000Z</time>
      </trkpt>
      <trkpt lat="48.52817" lon="-2.28921">
        <ele>94</ele>
        <time>2021-07-30T13:29:02.000Z</time>
      </trkpt>
      <trkpt lat="48.52806" lon="-2.28925">
        <ele>95</ele>
        <time>2021-07-30T13:29:05.000Z</time>
      </trkpt>
      <trkpt lat="48.52794" lon="-2.28925">
        <ele>94</ele>
        <time>2021-07-30T13:29:48.000Z</time>
      </trkpt>
      <trkpt lat="48.52781" lon="-2.28922">
        <ele>94</ele>
        <time>2021-07-30T13:29:51.000Z</time>
      </trkpt>
      <trkpt lat="48.52772" lon="-2.28919">
        <ele>94</ele>
        <time>2021-07-30T13:29:53.000Z</time>
      </trkpt>
      <trkpt lat="48.52761" lon="-2.28914">
        <ele>93</ele>
        <time>2021-07-30T13:29:55.000Z</time>
      </trkpt>
      <trkpt lat="48.52753" lon="-2.28906">
        <ele>91</ele>
        <time>2021-07-30T13:29:57.000Z</time>
      </trkpt>
      <trkpt lat="48.52746" lon="-2.28898">
        <ele>91</ele>
        <time>2021-07-30T13:29:59.000Z</time>
      </trkpt>
      <trkpt lat="48.52738" lon="-2.2889">
        <ele>91</ele>
        <time>2021-07-30T13:30:01.000Z</time>
      </trkpt>
      <trkpt lat="48.52728" lon="-2.28878">
        <ele>91</ele>
        <time>2021-07-30T13:30:04.000Z</time>
      </trkpt>
      <trkpt lat="48.52721" lon="-2.2887">
        <ele>91</ele>
        <time>2021-07-30T13:30:06.000Z</time>
      </trkpt>
      <trkpt lat="48.52714" lon="-2.28861">
        <ele>91</ele>
        <time>2021-07-30T13:30:08.000Z</time>
      </trkpt>
      <trkpt lat="48.52706" lon="-2.28854">
        <ele>90</ele>
        <time>2021-07-30T13:30:10.000Z</time>
      </trkpt>
      <trkpt lat="48.52698" lon="-2.28846">
        <ele>90</ele>
        <time>2021-07-30T13:30:12.000Z</time>
      </trkpt>
      <trkpt lat="48.52691" lon="-2.28831">
        <ele>90</ele>
        <time>2021-07-30T13:30:15.000Z</time>
      </trkpt>
      <trkpt lat="48.52686" lon="-2.2882">
        <ele>90</ele>
        <time>2021-07-30T13:30:17.000Z</time>
      </trkpt>
      <trkpt lat="48.52678" lon="-2.28805">
        <ele>90</ele>
        <time>2021-07-30T13:30:20.000Z</time>
      </trkpt>
      <trkpt lat="48.5267" lon="-2.28796">
        <ele>90</ele>
        <time>2021-07-30T13:30:22.000Z</time>
      </trkpt>
      <trkpt lat="48.52661" lon="-2.28788">
        <ele>90</ele>
        <time>2021-07-30T13:30:24.000Z</time>
      </trkpt>
      <trkpt lat="48.52651" lon="-2.28781">
        <ele>89</ele>
        <time>2021-07-30T13:30:26.000Z</time>
      </trkpt>
      <trkpt lat="48.52641" lon="-2.28778">
        <ele>90</ele>
        <time>2021-07-30T13:30:28.000Z</time>
      </trkpt>
      <trkpt lat="48.52631" lon="-2.28778">
        <ele>90</ele>
        <time>2021-07-30T13:30:30.000Z</time>
      </trkpt>
      <trkpt lat="48.52621" lon="-2.28781">
        <ele>90</ele>
        <time>2021-07-30T13:30:32.000Z</time>
      </trkpt>
      <trkpt lat="48.52612" lon="-2.28782">
        <ele>91</ele>
        <time>2021-07-30T13:30:34.000Z</time>
      </trkpt>
      <trkpt lat="48.52602" lon="-2.28781">
        <ele>90</ele>
        <time>2021-07-30T13:30:36.000Z</time>
      </trkpt>
      <trkpt lat="48.52592" lon="-2.2878">
        <ele>91</ele>
        <time>2021-07-30T13:30:38.000Z</time>
      </trkpt>
      <trkpt lat="48.52583" lon="-2.28784">
        <ele>91</ele>
        <time>2021-07-30T13:30:40.000Z</time>
      </trkpt>
      <trkpt lat="48.52575" lon="-2.2879">
        <ele>92</ele>
        <time>2021-07-30T13:30:54.000Z</time>
      </trkpt>
      <trkpt lat="48.52564" lon="-2.28797">
        <ele>94</ele>
        <time>2021-07-30T13:31:00.000Z</time>
      </trkpt>
      <trkpt lat="48.52554" lon="-2.28803">
        <ele>93</ele>
        <time>2021-07-30T13:31:03.000Z</time>
      </trkpt>
      <trkpt lat="48.52545" lon="-2.28808">
        <ele>93</ele>
        <time>2021-07-30T13:31:05.000Z</time>
      </trkpt>
      <trkpt lat="48.52536" lon="-2.28814">
        <ele>94</ele>
        <time>2021-07-30T13:31:07.000Z</time>
      </trkpt>
      <trkpt lat="48.52524" lon="-2.28822">
        <ele>93</ele>
        <time>2021-07-30T13:31:10.000Z</time>
      </trkpt>
      <trkpt lat="48.52512" lon="-2.2883">
        <ele>94</ele>
        <time>2021-07-30T13:31:13.000Z</time>
      </trkpt>
      <trkpt lat="48.52501" lon="-2.2884">
        <ele>94</ele>
        <time>2021-07-30T13:31:16.000Z</time>
      </trkpt>
      <trkpt lat="48.5249" lon="-2.2885">
        <ele>95</ele>
        <time>2021-07-30T13:31:19.000Z</time>
      </trkpt>
      <trkpt lat="48.5248" lon="-2.28859">
        <ele>95</ele>
        <time>2021-07-30T13:31:22.000Z</time>
      </trkpt>
      <trkpt lat="48.52469" lon="-2.2887">
        <ele>95</ele>
        <time>2021-07-30T13:31:25.000Z</time>
      </trkpt>
      <trkpt lat="48.52462" lon="-2.2888">
        <ele>95</ele>
        <time>2021-07-30T13:31:27.000Z</time>
      </trkpt>
      <trkpt lat="48.52454" lon="-2.28889">
        <ele>94</ele>
        <time>2021-07-30T13:31:29.000Z</time>
      </trkpt>
      <trkpt lat="48.52448" lon="-2.28901">
        <ele>94</ele>
        <time>2021-07-30T13:31:31.000Z</time>
      </trkpt>
      <trkpt lat="48.52437" lon="-2.28914">
        <ele>95</ele>
        <time>2021-07-30T13:31:34.000Z</time>
      </trkpt>
      <trkpt lat="48.52429" lon="-2.28922">
        <ele>95</ele>
        <time>2021-07-30T13:31:36.000Z</time>
      </trkpt>
      <trkpt lat="48.52417" lon="-2.28932">
        <ele>94</ele>
        <time>2021-07-30T13:31:39.000Z</time>
      </trkpt>
      <trkpt lat="48.5241" lon="-2.28941">
        <ele>94</ele>
        <time>2021-07-30T13:31:41.000Z</time>
      </trkpt>
      <trkpt lat="48.52404" lon="-2.28952">
        <ele>94</ele>
        <time>2021-07-30T13:31:43.000Z</time>
      </trkpt>
      <trkpt lat="48.52397" lon="-2.28963">
        <ele>94</ele>
        <time>2021-07-30T13:31:45.000Z</time>
      </trkpt>
      <trkpt lat="48.52387" lon="-2.28977">
        <ele>95</ele>
        <time>2021-07-30T13:31:48.000Z</time>
      </trkpt>
      <trkpt lat="48.52378" lon="-2.28992">
        <ele>95</ele>
        <time>2021-07-30T13:31:51.000Z</time>
      </trkpt>
      <trkpt lat="48.5237" lon="-2.29008">
        <ele>95</ele>
        <time>2021-07-30T13:31:54.000Z</time>
      </trkpt>
      <trkpt lat="48.52365" lon="-2.2902">
        <ele>96</ele>
        <time>2021-07-30T13:31:56.000Z</time>
      </trkpt>
      <trkpt lat="48.5236" lon="-2.29032">
        <ele>96</ele>
        <time>2021-07-30T13:31:58.000Z</time>
      </trkpt>
      <trkpt lat="48.52355" lon="-2.29044">
        <ele>96</ele>
        <time>2021-07-30T13:32:00.000Z</time>
      </trkpt>
      <trkpt lat="48.52348" lon="-2.29056">
        <ele>95</ele>
        <time>2021-07-30T13:32:02.000Z</time>
      </trkpt>
      <trkpt lat="48.52341" lon="-2.29068">
        <ele>95</ele>
        <time>2021-07-30T13:32:04.000Z</time>
      </trkpt>
      <trkpt lat="48.52334" lon="-2.29082">
        <ele>95</ele>
        <time>2021-07-30T13:32:06.000Z</time>
      </trkpt>
      <trkpt lat="48.52327" lon="-2.29095">
        <ele>95</ele>
        <time>2021-07-30T13:32:08.000Z</time>
      </trkpt>
      <trkpt lat="48.52318" lon="-2.29105">
        <ele>95</ele>
        <time>2021-07-30T13:32:10.000Z</time>
      </trkpt>
      <trkpt lat="48.5231" lon="-2.29116">
        <ele>95</ele>
        <time>2021-07-30T13:32:12.000Z</time>
      </trkpt>
      <trkpt lat="48.52301" lon="-2.29123">
        <ele>94</ele>
        <time>2021-07-30T13:32:14.000Z</time>
      </trkpt>
      <trkpt lat="48.52293" lon="-2.2913">
        <ele>94</ele>
        <time>2021-07-30T13:32:16.000Z</time>
      </trkpt>
      <trkpt lat="48.52284" lon="-2.29135">
        <ele>94</ele>
        <time>2021-07-30T13:32:20.000Z</time>
      </trkpt>
      <trkpt lat="48.52275" lon="-2.29146">
        <ele>94</ele>
        <time>2021-07-30T13:32:39.000Z</time>
      </trkpt>
      <trkpt lat="48.52265" lon="-2.29152">
        <ele>93</ele>
        <time>2021-07-30T13:32:42.000Z</time>
      </trkpt>
      <trkpt lat="48.52252" lon="-2.29156">
        <ele>92</ele>
        <time>2021-07-30T13:32:45.000Z</time>
      </trkpt>
      <trkpt lat="48.52242" lon="-2.2916">
        <ele>91</ele>
        <time>2021-07-30T13:32:47.000Z</time>
      </trkpt>
      <trkpt lat="48.52234" lon="-2.29168">
        <ele>90</ele>
        <time>2021-07-30T13:32:49.000Z</time>
      </trkpt>
      <trkpt lat="48.52227" lon="-2.29176">
        <ele>91</ele>
        <time>2021-07-30T13:32:51.000Z</time>
      </trkpt>
      <trkpt lat="48.52215" lon="-2.29181">
        <ele>90</ele>
        <time>2021-07-30T13:32:54.000Z</time>
      </trkpt>
      <trkpt lat="48.52202" lon="-2.29185">
        <ele>89</ele>
        <time>2021-07-30T13:32:57.000Z</time>
      </trkpt>
      <trkpt lat="48.5219" lon="-2.29187">
        <ele>89</ele>
        <time>2021-07-30T13:33:00.000Z</time>
      </trkpt>
      <trkpt lat="48.52179" lon="-2.29192">
        <ele>89</ele>
        <time>2021-07-30T13:33:03.000Z</time>
      </trkpt>
      <trkpt lat="48.52167" lon="-2.29197">
        <ele>90</ele>
        <time>2021-07-30T13:33:06.000Z</time>
      </trkpt>
      <trkpt lat="48.52155" lon="-2.29205">
        <ele>88</ele>
        <time>2021-07-30T13:33:09.000Z</time>
      </trkpt>
      <trkpt lat="48.52148" lon="-2.29213">
        <ele>88</ele>
        <time>2021-07-30T13:33:11.000Z</time>
      </trkpt>
      <trkpt lat="48.52135" lon="-2.29223">
        <ele>88</ele>
        <time>2021-07-30T13:33:14.000Z</time>
      </trkpt>
      <trkpt lat="48.52127" lon="-2.29231">
        <ele>89</ele>
        <time>2021-07-30T13:33:16.000Z</time>
      </trkpt>
      <trkpt lat="48.52117" lon="-2.29242">
        <ele>90</ele>
        <time>2021-07-30T13:33:19.000Z</time>
      </trkpt>
      <trkpt lat="48.52107" lon="-2.29253">
        <ele>91</ele>
        <time>2021-07-30T13:33:22.000Z</time>
      </trkpt>
      <trkpt lat="48.52096" lon="-2.2926">
        <ele>90</ele>
        <time>2021-07-30T13:33:25.000Z</time>
      </trkpt>
      <trkpt lat="48.52084" lon="-2.29265">
        <ele>90</ele>
        <time>2021-07-30T13:33:28.000Z</time>
      </trkpt>
      <trkpt lat="48.52075" lon="-2.29274">
        <ele>91</ele>
        <time>2021-07-30T13:33:31.000Z</time>
      </trkpt>
      <trkpt lat="48.52067" lon="-2.29287">
        <ele>91</ele>
        <time>2021-07-30T13:33:34.000Z</time>
      </trkpt>
      <trkpt lat="48.52059" lon="-2.29301">
        <ele>92</ele>
        <time>2021-07-30T13:33:37.000Z</time>
      </trkpt>
      <trkpt lat="48.52049" lon="-2.29313">
        <ele>93</ele>
        <time>2021-07-30T13:33:40.000Z</time>
      </trkpt>
      <trkpt lat="48.5204" lon="-2.29324">
        <ele>93</ele>
        <time>2021-07-30T13:33:43.000Z</time>
      </trkpt>
      <trkpt lat="48.52032" lon="-2.29337">
        <ele>92</ele>
        <time>2021-07-30T13:33:46.000Z</time>
      </trkpt>
      <trkpt lat="48.52023" lon="-2.2935">
        <ele>92</ele>
        <time>2021-07-30T13:33:49.000Z</time>
      </trkpt>
      <trkpt lat="48.52013" lon="-2.29362">
        <ele>91</ele>
        <time>2021-07-30T13:33:52.000Z</time>
      </trkpt>
      <trkpt lat="48.52005" lon="-2.29373">
        <ele>91</ele>
        <time>2021-07-30T13:33:55.000Z</time>
      </trkpt>
      <trkpt lat="48.51997" lon="-2.29385">
        <ele>91</ele>
        <time>2021-07-30T13:33:58.000Z</time>
      </trkpt>
      <trkpt lat="48.51991" lon="-2.29399">
        <ele>91</ele>
        <time>2021-07-30T13:34:02.000Z</time>
      </trkpt>
      <trkpt lat="48.51986" lon="-2.29414">
        <ele>92</ele>
        <time>2021-07-30T13:34:05.000Z</time>
      </trkpt>
      <trkpt lat="48.51983" lon="-2.29428">
        <ele>91</ele>
        <time>2021-07-30T13:34:08.000Z</time>
      </trkpt>
      <trkpt lat="48.5198" lon="-2.29447">
        <ele>91</ele>
        <time>2021-07-30T13:34:11.000Z</time>
      </trkpt>
      <trkpt lat="48.5198" lon="-2.29462">
        <ele>91</ele>
        <time>2021-07-30T13:34:13.000Z</time>
      </trkpt>
      <trkpt lat="48.51979" lon="-2.29476">
        <ele>92</ele>
        <time>2021-07-30T13:34:15.000Z</time>
      </trkpt>
      <trkpt lat="48.51976" lon="-2.29496">
        <ele>92</ele>
        <time>2021-07-30T13:34:18.000Z</time>
      </trkpt>
      <trkpt lat="48.51974" lon="-2.29511">
        <ele>93</ele>
        <time>2021-07-30T13:34:20.000Z</time>
      </trkpt>
      <trkpt lat="48.51976" lon="-2.29528">
        <ele>93</ele>
        <time>2021-07-30T13:34:23.000Z</time>
      </trkpt>
      <trkpt lat="48.51979" lon="-2.29546">
        <ele>94</ele>
        <time>2021-07-30T13:34:26.000Z</time>
      </trkpt>
      <trkpt lat="48.51984" lon="-2.29563">
        <ele>95</ele>
        <time>2021-07-30T13:34:29.000Z</time>
      </trkpt>
      <trkpt lat="48.51988" lon="-2.29579">
        <ele>95</ele>
        <time>2021-07-30T13:34:32.000Z</time>
      </trkpt>
      <trkpt lat="48.5198" lon="-2.29588">
        <ele>94</ele>
        <time>2021-07-30T13:35:07.000Z</time>
      </trkpt>
      <trkpt lat="48.51971" lon="-2.29594">
        <ele>94</ele>
        <time>2021-07-30T13:35:10.000Z</time>
      </trkpt>
      <trkpt lat="48.51961" lon="-2.29602">
        <ele>94</ele>
        <time>2021-07-30T13:35:13.000Z</time>
      </trkpt>
      <trkpt lat="48.51952" lon="-2.29605">
        <ele>94</ele>
        <time>2021-07-30T13:35:16.000Z</time>
      </trkpt>
      <trkpt lat="48.51943" lon="-2.29598">
        <ele>94</ele>
        <time>2021-07-30T13:35:19.000Z</time>
      </trkpt>
      <trkpt lat="48.51937" lon="-2.29587">
        <ele>93</ele>
        <time>2021-07-30T13:35:22.000Z</time>
      </trkpt>
      <trkpt lat="48.51934" lon="-2.29573">
        <ele>94</ele>
        <time>2021-07-30T13:35:25.000Z</time>
      </trkpt>
      <trkpt lat="48.51933" lon="-2.29556">
        <ele>95</ele>
        <time>2021-07-30T13:35:28.000Z</time>
      </trkpt>
      <trkpt lat="48.51931" lon="-2.29537">
        <ele>95</ele>
        <time>2021-07-30T13:35:31.000Z</time>
      </trkpt>
      <trkpt lat="48.51931" lon="-2.29517">
        <ele>95</ele>
        <time>2021-07-30T13:35:34.000Z</time>
      </trkpt>
      <trkpt lat="48.51929" lon="-2.29499">
        <ele>96</ele>
        <time>2021-07-30T13:35:36.000Z</time>
      </trkpt>
      <trkpt lat="48.51928" lon="-2.29484">
        <ele>94</ele>
        <time>2021-07-30T13:35:38.000Z</time>
      </trkpt>
      <trkpt lat="48.5193" lon="-2.29463">
        <ele>94</ele>
        <time>2021-07-30T13:35:41.000Z</time>
      </trkpt>
      <trkpt lat="48.51932" lon="-2.29448">
        <ele>94</ele>
        <time>2021-07-30T13:35:43.000Z</time>
      </trkpt>
      <trkpt lat="48.51934" lon="-2.29429">
        <ele>94</ele>
        <time>2021-07-30T13:35:46.000Z</time>
      </trkpt>
      <trkpt lat="48.51938" lon="-2.29411">
        <ele>95</ele>
        <time>2021-07-30T13:35:49.000Z</time>
      </trkpt>
      <trkpt lat="48.51943" lon="-2.29395">
        <ele>94</ele>
        <time>2021-07-30T13:35:52.000Z</time>
      </trkpt>
      <trkpt lat="48.51945" lon="-2.2938">
        <ele>95</ele>
        <time>2021-07-30T13:35:55.000Z</time>
      </trkpt>
      <trkpt lat="48.5195" lon="-2.29365">
        <ele>95</ele>
        <time>2021-07-30T13:35:58.000Z</time>
      </trkpt>
      <trkpt lat="48.51956" lon="-2.29351">
        <ele>95</ele>
        <time>2021-07-30T13:36:01.000Z</time>
      </trkpt>
      <trkpt lat="48.51964" lon="-2.29342">
        <ele>95</ele>
        <time>2021-07-30T13:36:04.000Z</time>
      </trkpt>
      <trkpt lat="48.51972" lon="-2.2933">
        <ele>96</ele>
        <time>2021-07-30T13:36:07.000Z</time>
      </trkpt>
      <trkpt lat="48.5198" lon="-2.29317">
        <ele>97</ele>
        <time>2021-07-30T13:36:10.000Z</time>
      </trkpt>
      <trkpt lat="48.51988" lon="-2.29301">
        <ele>98</ele>
        <time>2021-07-30T13:36:13.000Z</time>
      </trkpt>
      <trkpt lat="48.51996" lon="-2.29286">
        <ele>98</ele>
        <time>2021-07-30T13:36:15.000Z</time>
      </trkpt>
      <trkpt lat="48.52004" lon="-2.29277">
        <ele>97</ele>
        <time>2021-07-30T13:36:17.000Z</time>
      </trkpt>
      <trkpt lat="48.52014" lon="-2.29265">
        <ele>95</ele>
        <time>2021-07-30T13:36:20.000Z</time>
      </trkpt>
      <trkpt lat="48.52022" lon="-2.29256">
        <ele>95</ele>
        <time>2021-07-30T13:36:22.000Z</time>
      </trkpt>
      <trkpt lat="48.5203" lon="-2.29245">
        <ele>95</ele>
        <time>2021-07-30T13:36:24.000Z</time>
      </trkpt>
      <trkpt lat="48.52038" lon="-2.29238">
        <ele>94</ele>
        <time>2021-07-30T13:37:04.000Z</time>
      </trkpt>
      <trkpt lat="48.52045" lon="-2.29225">
        <ele>93</ele>
        <time>2021-07-30T13:37:10.000Z</time>
      </trkpt>
      <trkpt lat="48.52054" lon="-2.29215">
        <ele>92</ele>
        <time>2021-07-30T13:37:14.000Z</time>
      </trkpt>
      <trkpt lat="48.52063" lon="-2.29205">
        <ele>91</ele>
        <time>2021-07-30T13:37:18.000Z</time>
      </trkpt>
      <trkpt lat="48.52072" lon="-2.29196">
        <ele>90</ele>
        <time>2021-07-30T13:37:21.000Z</time>
      </trkpt>
      <trkpt lat="48.52082" lon="-2.29188">
        <ele>89</ele>
        <time>2021-07-30T13:37:24.000Z</time>
      </trkpt>
      <trkpt lat="48.52091" lon="-2.2918">
        <ele>88</ele>
        <time>2021-07-30T13:37:26.000Z</time>
      </trkpt>
      <trkpt lat="48.521" lon="-2.29173">
        <ele>88</ele>
        <time>2021-07-30T13:37:28.000Z</time>
      </trkpt>
      <trkpt lat="48.5211" lon="-2.29164">
        <ele>87</ele>
        <time>2021-07-30T13:37:30.000Z</time>
      </trkpt>
      <trkpt lat="48.52122" lon="-2.29157">
        <ele>86</ele>
        <time>2021-07-30T13:37:32.000Z</time>
      </trkpt>
      <trkpt lat="48.52134" lon="-2.29149">
        <ele>85</ele>
        <time>2021-07-30T13:37:34.000Z</time>
      </trkpt>
      <trkpt lat="48.52146" lon="-2.29144">
        <ele>84</ele>
        <time>2021-07-30T13:37:36.000Z</time>
      </trkpt>
      <trkpt lat="48.52157" lon="-2.29138">
        <ele>84</ele>
        <time>2021-07-30T13:37:39.000Z</time>
      </trkpt>
      <trkpt lat="48.52167" lon="-2.29132">
        <ele>83</ele>
        <time>2021-07-30T13:37:42.000Z</time>
      </trkpt>
      <trkpt lat="48.52179" lon="-2.29123">
        <ele>84</ele>
        <time>2021-07-30T13:37:45.000Z</time>
      </trkpt>
      <trkpt lat="48.5219" lon="-2.29114">
        <ele>84</ele>
        <time>2021-07-30T13:37:47.000Z</time>
      </trkpt>
      <trkpt lat="48.52198" lon="-2.29109">
        <ele>84</ele>
        <time>2021-07-30T13:37:49.000Z</time>
      </trkpt>
      <trkpt lat="48.52207" lon="-2.29103">
        <ele>85</ele>
        <time>2021-07-30T13:37:51.000Z</time>
      </trkpt>
      <trkpt lat="48.52215" lon="-2.29096">
        <ele>85</ele>
        <time>2021-07-30T13:37:53.000Z</time>
      </trkpt>
      <trkpt lat="48.52229" lon="-2.29085">
        <ele>85</ele>
        <time>2021-07-30T13:37:56.000Z</time>
      </trkpt>
      <trkpt lat="48.52237" lon="-2.29075">
        <ele>86</ele>
        <time>2021-07-30T13:37:58.000Z</time>
      </trkpt>
      <trkpt lat="48.52243" lon="-2.29066">
        <ele>86</ele>
        <time>2021-07-30T13:38:00.000Z</time>
      </trkpt>
      <trkpt lat="48.52253" lon="-2.29052">
        <ele>86</ele>
        <time>2021-07-30T13:38:02.000Z</time>
      </trkpt>
      <trkpt lat="48.52262" lon="-2.29041">
        <ele>87</ele>
        <time>2021-07-30T13:38:04.000Z</time>
      </trkpt>
      <trkpt lat="48.52271" lon="-2.29029">
        <ele>87</ele>
        <time>2021-07-30T13:38:07.000Z</time>
      </trkpt>
      <trkpt lat="48.52278" lon="-2.29019">
        <ele>87</ele>
        <time>2021-07-30T13:38:09.000Z</time>
      </trkpt>
      <trkpt lat="48.5229" lon="-2.29003">
        <ele>87</ele>
        <time>2021-07-30T13:38:12.000Z</time>
      </trkpt>
      <trkpt lat="48.52294" lon="-2.28988">
        <ele>88</ele>
        <time>2021-07-30T13:38:14.000Z</time>
      </trkpt>
      <trkpt lat="48.52298" lon="-2.28973">
        <ele>88</ele>
        <time>2021-07-30T13:38:17.000Z</time>
      </trkpt>
      <trkpt lat="48.52306" lon="-2.28961">
        <ele>89</ele>
        <time>2021-07-30T13:38:19.000Z</time>
      </trkpt>
      <trkpt lat="48.52313" lon="-2.2895">
        <ele>89</ele>
        <time>2021-07-30T13:38:21.000Z</time>
      </trkpt>
      <trkpt lat="48.52323" lon="-2.28939">
        <ele>89</ele>
        <time>2021-07-30T13:38:23.000Z</time>
      </trkpt>
      <trkpt lat="48.52332" lon="-2.28927">
        <ele>90</ele>
        <time>2021-07-30T13:38:25.000Z</time>
      </trkpt>
      <trkpt lat="48.52339" lon="-2.28915">
        <ele>91</ele>
        <time>2021-07-30T13:38:28.000Z</time>
      </trkpt>
      <trkpt lat="48.52346" lon="-2.28901">
        <ele>91</ele>
        <time>2021-07-30T13:38:31.000Z</time>
      </trkpt>
      <trkpt lat="48.52351" lon="-2.28887">
        <ele>92</ele>
        <time>2021-07-30T13:38:34.000Z</time>
      </trkpt>
      <trkpt lat="48.52359" lon="-2.28872">
        <ele>91</ele>
        <time>2021-07-30T13:38:37.000Z</time>
      </trkpt>
      <trkpt lat="48.52366" lon="-2.28858">
        <ele>91</ele>
        <time>2021-07-30T13:38:39.000Z</time>
      </trkpt>
      <trkpt lat="48.52371" lon="-2.28842">
        <ele>92</ele>
        <time>2021-07-30T13:38:41.000Z</time>
      </trkpt>
      <trkpt lat="48.52374" lon="-2.28825">
        <ele>91</ele>
        <time>2021-07-30T13:38:44.000Z</time>
      </trkpt>
      <trkpt lat="48.52381" lon="-2.28816">
        <ele>91</ele>
        <time>2021-07-30T13:38:47.000Z</time>
      </trkpt>
      <trkpt lat="48.52388" lon="-2.28804">
        <ele>91</ele>
        <time>2021-07-30T13:38:50.000Z</time>
      </trkpt>
      <trkpt lat="48.52395" lon="-2.28795">
        <ele>91</ele>
        <time>2021-07-30T13:38:52.000Z</time>
      </trkpt>
      <trkpt lat="48.52405" lon="-2.2879">
        <ele>90</ele>
        <time>2021-07-30T13:38:54.000Z</time>
      </trkpt>
      <trkpt lat="48.52416" lon="-2.28788">
        <ele>90</ele>
        <time>2021-07-30T13:38:57.000Z</time>
      </trkpt>
      <trkpt lat="48.52425" lon="-2.28784">
        <ele>90</ele>
        <time>2021-07-30T13:39:00.000Z</time>
      </trkpt>
      <trkpt lat="48.52432" lon="-2.28772">
        <ele>90</ele>
        <time>2021-07-30T13:39:03.000Z</time>
      </trkpt>
      <trkpt lat="48.52439" lon="-2.28757">
        <ele>89</ele>
        <time>2021-07-30T13:39:06.000Z</time>
      </trkpt>
      <trkpt lat="48.52447" lon="-2.28745">
        <ele>89</ele>
        <time>2021-07-30T13:39:09.000Z</time>
      </trkpt>
      <trkpt lat="48.52456" lon="-2.28733">
        <ele>89</ele>
        <time>2021-07-30T13:39:12.000Z</time>
      </trkpt>
      <trkpt lat="48.52465" lon="-2.28723">
        <ele>89</ele>
        <time>2021-07-30T13:39:15.000Z</time>
      </trkpt>
      <trkpt lat="48.52474" lon="-2.28716">
        <ele>88</ele>
        <time>2021-07-30T13:39:18.000Z</time>
      </trkpt>
      <trkpt lat="48.52485" lon="-2.28705">
        <ele>88</ele>
        <time>2021-07-30T13:39:21.000Z</time>
      </trkpt>
      <trkpt lat="48.52497" lon="-2.2869">
        <ele>88</ele>
        <time>2021-07-30T13:39:23.000Z</time>
      </trkpt>
      <trkpt lat="48.52501" lon="-2.28678">
        <ele>88</ele>
        <time>2021-07-30T13:39:25.000Z</time>
      </trkpt>
      <trkpt lat="48.52503" lon="-2.28661">
        <ele>89</ele>
        <time>2021-07-30T13:39:28.000Z</time>
      </trkpt>
      <trkpt lat="48.52504" lon="-2.28648">
        <ele>90</ele>
        <time>2021-07-30T13:39:31.000Z</time>
      </trkpt>
      <trkpt lat="48.52514" lon="-2.28637">
        <ele>91</ele>
        <time>2021-07-30T13:39:34.000Z</time>
      </trkpt>
      <trkpt lat="48.52525" lon="-2.28634">
        <ele>91</ele>
        <time>2021-07-30T13:39:37.000Z</time>
      </trkpt>
      <trkpt lat="48.52538" lon="-2.28633">
        <ele>91</ele>
        <time>2021-07-30T13:39:40.000Z</time>
      </trkpt>
      <trkpt lat="48.52548" lon="-2.28632">
        <ele>93</ele>
        <time>2021-07-30T13:39:55.000Z</time>
      </trkpt>
      <trkpt lat="48.52559" lon="-2.28639">
        <ele>95</ele>
        <time>2021-07-30T13:41:13.000Z</time>
      </trkpt>
      <trkpt lat="48.5257" lon="-2.28642">
        <ele>95</ele>
        <time>2021-07-30T13:41:18.000Z</time>
      </trkpt>
      <trkpt lat="48.52579" lon="-2.28643">
        <ele>94</ele>
        <time>2021-07-30T13:41:23.000Z</time>
      </trkpt>
      <trkpt lat="48.52589" lon="-2.28643">
        <ele>95</ele>
        <time>2021-07-30T13:41:27.000Z</time>
      </trkpt>
      <trkpt lat="48.526" lon="-2.28643">
        <ele>95</ele>
        <time>2021-07-30T13:41:31.000Z</time>
      </trkpt>
      <trkpt lat="48.52611" lon="-2.28642">
        <ele>95</ele>
        <time>2021-07-30T13:41:35.000Z</time>
      </trkpt>
      <trkpt lat="48.52623" lon="-2.28641">
        <ele>95</ele>
        <time>2021-07-30T13:41:38.000Z</time>
      </trkpt>
      <trkpt lat="48.52633" lon="-2.28639">
        <ele>95</ele>
        <time>2021-07-30T13:41:40.000Z</time>
      </trkpt>
      <trkpt lat="48.52646" lon="-2.28642">
        <ele>94</ele>
        <time>2021-07-30T13:41:43.000Z</time>
      </trkpt>
      <trkpt lat="48.52655" lon="-2.28647">
        <ele>94</ele>
        <time>2021-07-30T13:41:45.000Z</time>
      </trkpt>
      <trkpt lat="48.52664" lon="-2.28652">
        <ele>94</ele>
        <time>2021-07-30T13:41:47.000Z</time>
      </trkpt>
      <trkpt lat="48.52674" lon="-2.28655">
        <ele>95</ele>
        <time>2021-07-30T13:41:49.000Z</time>
      </trkpt>
      <trkpt lat="48.52683" lon="-2.28659">
        <ele>94</ele>
        <time>2021-07-30T13:41:51.000Z</time>
      </trkpt>
      <trkpt lat="48.52692" lon="-2.28666">
        <ele>94</ele>
        <time>2021-07-30T13:41:53.000Z</time>
      </trkpt>
      <trkpt lat="48.52701" lon="-2.2868">
        <ele>94</ele>
        <time>2021-07-30T13:41:56.000Z</time>
      </trkpt>
      <trkpt lat="48.5271" lon="-2.28693">
        <ele>94</ele>
        <time>2021-07-30T13:41:59.000Z</time>
      </trkpt>
      <trkpt lat="48.5272" lon="-2.28699">
        <ele>94</ele>
        <time>2021-07-30T13:42:02.000Z</time>
      </trkpt>
      <trkpt lat="48.52732" lon="-2.28696">
        <ele>95</ele>
        <time>2021-07-30T13:42:05.000Z</time>
      </trkpt>
      <trkpt lat="48.52743" lon="-2.28689">
        <ele>95</ele>
        <time>2021-07-30T13:42:08.000Z</time>
      </trkpt>
      <trkpt lat="48.52755" lon="-2.28686">
        <ele>95</ele>
        <time>2021-07-30T13:42:11.000Z</time>
      </trkpt>
      <trkpt lat="48.52768" lon="-2.28682">
        <ele>94</ele>
        <time>2021-07-30T13:42:14.000Z</time>
      </trkpt>
      <trkpt lat="48.5278" lon="-2.28679">
        <ele>94</ele>
        <time>2021-07-30T13:42:17.000Z</time>
      </trkpt>
      <trkpt lat="48.52793" lon="-2.28677">
        <ele>95</ele>
        <time>2021-07-30T13:42:20.000Z</time>
      </trkpt>
      <trkpt lat="48.52805" lon="-2.28675">
        <ele>95</ele>
        <time>2021-07-30T13:42:23.000Z</time>
      </trkpt>
      <trkpt lat="48.52808" lon="-2.28659">
        <ele>96</ele>
        <time>2021-07-30T13:42:28.000Z</time>
      </trkpt>
      <trkpt lat="48.52808" lon="-2.2864">
        <ele>97</ele>
        <time>2021-07-30T13:42:32.000Z</time>
      </trkpt>
      <trkpt lat="48.52808" lon="-2.28624">
        <ele>97</ele>
        <time>2021-07-30T13:42:35.000Z</time>
      </trkpt>
      <trkpt lat="48.52807" lon="-2.28608">
        <ele>98</ele>
        <time>2021-07-30T13:42:38.000Z</time>
      </trkpt>
      <trkpt lat="48.52807" lon="-2.28585">
        <ele>99</ele>
        <time>2021-07-30T13:42:42.000Z</time>
      </trkpt>
      <trkpt lat="48.52807" lon="-2.28567">
        <ele>99</ele>
        <time>2021-07-30T13:42:45.000Z</time>
      </trkpt>
      <trkpt lat="48.52806" lon="-2.28549">
        <ele>99</ele>
        <time>2021-07-30T13:42:48.000Z</time>
      </trkpt>
      <trkpt lat="48.52806" lon="-2.2853">
        <ele>100</ele>
        <time>2021-07-30T13:42:51.000Z</time>
      </trkpt>
      <trkpt lat="48.52806" lon="-2.2851">
        <ele>99</ele>
        <time>2021-07-30T13:42:54.000Z</time>
      </trkpt>
      <trkpt lat="48.52806" lon="-2.28492">
        <ele>100</ele>
        <time>2021-07-30T13:42:57.000Z</time>
      </trkpt>
      <trkpt lat="48.52806" lon="-2.28474">
        <ele>100</ele>
        <time>2021-07-30T13:43:00.000Z</time>
      </trkpt>
      <trkpt lat="48.52805" lon="-2.28456">
        <ele>101</ele>
        <time>2021-07-30T13:43:03.000Z</time>
      </trkpt>
      <trkpt lat="48.52804" lon="-2.28439">
        <ele>101</ele>
        <time>2021-07-30T13:43:06.000Z</time>
      </trkpt>
      <trkpt lat="48.52802" lon="-2.28421">
        <ele>102</ele>
        <time>2021-07-30T13:43:09.000Z</time>
      </trkpt>
      <trkpt lat="48.52801" lon="-2.28403">
        <ele>102</ele>
        <time>2021-07-30T13:43:12.000Z</time>
      </trkpt>
      <trkpt lat="48.52803" lon="-2.28387">
        <ele>102</ele>
        <time>2021-07-30T13:43:15.000Z</time>
      </trkpt>
      <trkpt lat="48.52812" lon="-2.28381">
        <ele>103</ele>
        <time>2021-07-30T13:43:18.000Z</time>
      </trkpt>
      <trkpt lat="48.5282" lon="-2.28388">
        <ele>102</ele>
        <time>2021-07-30T13:43:25.000Z</time>
      </trkpt>
      <trkpt lat="48.52816" lon="-2.28374">
        <ele>100</ele>
        <time>2021-07-30T13:46:01.000Z</time>
      </trkpt>
      <trkpt lat="48.52807" lon="-2.28366">
        <ele>101</ele>
        <time>2021-07-30T13:46:06.000Z</time>
      </trkpt>
      <trkpt lat="48.52801" lon="-2.28355">
        <ele>102</ele>
        <time>2021-07-30T13:46:09.000Z</time>
      </trkpt>
      <trkpt lat="48.52796" lon="-2.2834">
        <ele>102</ele>
        <time>2021-07-30T13:46:12.000Z</time>
      </trkpt>
      <trkpt lat="48.52794" lon="-2.28324">
        <ele>103</ele>
        <time>2021-07-30T13:46:15.000Z</time>
      </trkpt>
      <trkpt lat="48.52792" lon="-2.28308">
        <ele>103</ele>
        <time>2021-07-30T13:46:18.000Z</time>
      </trkpt>
      <trkpt lat="48.52789" lon="-2.28293">
        <ele>103</ele>
        <time>2021-07-30T13:46:21.000Z</time>
      </trkpt>
      <trkpt lat="48.52786" lon="-2.28278">
        <ele>104</ele>
        <time>2021-07-30T13:46:24.000Z</time>
      </trkpt>
      <trkpt lat="48.52782" lon="-2.28262">
        <ele>104</ele>
        <time>2021-07-30T13:46:27.000Z</time>
      </trkpt>
      <trkpt lat="48.52781" lon="-2.28246">
        <ele>104</ele>
        <time>2021-07-30T13:46:30.000Z</time>
      </trkpt>
      <trkpt lat="48.52778" lon="-2.2823">
        <ele>104</ele>
        <time>2021-07-30T13:46:33.000Z</time>
      </trkpt>
      <trkpt lat="48.52776" lon="-2.28213">
        <ele>104</ele>
        <time>2021-07-30T13:46:36.000Z</time>
      </trkpt>
      <trkpt lat="48.52773" lon="-2.28195">
        <ele>104</ele>
        <time>2021-07-30T13:46:39.000Z</time>
      </trkpt>
      <trkpt lat="48.5277" lon="-2.28179">
        <ele>105</ele>
        <time>2021-07-30T13:46:42.000Z</time>
      </trkpt>
      <trkpt lat="48.52768" lon="-2.28162">
        <ele>105</ele>
        <time>2021-07-30T13:46:45.000Z</time>
      </trkpt>
      <trkpt lat="48.52765" lon="-2.28145">
        <ele>105</ele>
        <time>2021-07-30T13:46:48.000Z</time>
      </trkpt>
      <trkpt lat="48.52763" lon="-2.28127">
        <ele>105</ele>
        <time>2021-07-30T13:46:51.000Z</time>
      </trkpt>
      <trkpt lat="48.52759" lon="-2.28108">
        <ele>105</ele>
        <time>2021-07-30T13:46:54.000Z</time>
      </trkpt>
      <trkpt lat="48.52755" lon="-2.2809">
        <ele>105</ele>
        <time>2021-07-30T13:46:57.000Z</time>
      </trkpt>
      <trkpt lat="48.52751" lon="-2.28077">
        <ele>105</ele>
        <time>2021-07-30T13:46:59.000Z</time>
      </trkpt>
      <trkpt lat="48.52746" lon="-2.28059">
        <ele>105</ele>
        <time>2021-07-30T13:47:02.000Z</time>
      </trkpt>
      <trkpt lat="48.5274" lon="-2.28041">
        <ele>105</ele>
        <time>2021-07-30T13:47:05.000Z</time>
      </trkpt>
      <trkpt lat="48.52735" lon="-2.28029">
        <ele>105</ele>
        <time>2021-07-30T13:47:07.000Z</time>
      </trkpt>
      <trkpt lat="48.5273" lon="-2.28017">
        <ele>105</ele>
        <time>2021-07-30T13:47:09.000Z</time>
      </trkpt>
      <trkpt lat="48.52725" lon="-2.28006">
        <ele>106</ele>
        <time>2021-07-30T13:47:11.000Z</time>
      </trkpt>
      <trkpt lat="48.52716" lon="-2.2799">
        <ele>106</ele>
        <time>2021-07-30T13:47:14.000Z</time>
      </trkpt>
      <trkpt lat="48.5271" lon="-2.27979">
        <ele>106</ele>
        <time>2021-07-30T13:47:16.000Z</time>
      </trkpt>
      <trkpt lat="48.52704" lon="-2.27968">
        <ele>106</ele>
        <time>2021-07-30T13:47:18.000Z</time>
      </trkpt>
      <trkpt lat="48.52698" lon="-2.27958">
        <ele>106</ele>
        <time>2021-07-30T13:47:20.000Z</time>
      </trkpt>
      <trkpt lat="48.52691" lon="-2.27948">
        <ele>106</ele>
        <time>2021-07-30T13:47:22.000Z</time>
      </trkpt>
      <trkpt lat="48.52684" lon="-2.27938">
        <ele>106</ele>
        <time>2021-07-30T13:47:24.000Z</time>
      </trkpt>
      <trkpt lat="48.52677" lon="-2.27928">
        <ele>107</ele>
        <time>2021-07-30T13:47:26.000Z</time>
      </trkpt>
      <trkpt lat="48.5267" lon="-2.27919">
        <ele>107</ele>
        <time>2021-07-30T13:47:28.000Z</time>
      </trkpt>
      <trkpt lat="48.52663" lon="-2.27909">
        <ele>107</ele>
        <time>2021-07-30T13:47:30.000Z</time>
      </trkpt>
      <trkpt lat="48.52657" lon="-2.279">
        <ele>107</ele>
        <time>2021-07-30T13:47:32.000Z</time>
      </trkpt>
      <trkpt lat="48.5265" lon="-2.27891">
        <ele>108</ele>
        <time>2021-07-30T13:47:34.000Z</time>
      </trkpt>
      <trkpt lat="48.52643" lon="-2.27882">
        <ele>108</ele>
        <time>2021-07-30T13:47:36.000Z</time>
      </trkpt>
      <trkpt lat="48.52633" lon="-2.27868">
        <ele>109</ele>
        <time>2021-07-30T13:47:39.000Z</time>
      </trkpt>
      <trkpt lat="48.52625" lon="-2.27858">
        <ele>109</ele>
        <time>2021-07-30T13:47:41.000Z</time>
      </trkpt>
      <trkpt lat="48.52619" lon="-2.27848">
        <ele>109</ele>
        <time>2021-07-30T13:47:43.000Z</time>
      </trkpt>
      <trkpt lat="48.52612" lon="-2.27838">
        <ele>109</ele>
        <time>2021-07-30T13:47:45.000Z</time>
      </trkpt>
      <trkpt lat="48.52602" lon="-2.27824">
        <ele>109</ele>
        <time>2021-07-30T13:47:48.000Z</time>
      </trkpt>
      <trkpt lat="48.52596" lon="-2.27814">
        <ele>110</ele>
        <time>2021-07-30T13:47:50.000Z</time>
      </trkpt>
      <trkpt lat="48.52589" lon="-2.27804">
        <ele>110</ele>
        <time>2021-07-30T13:47:52.000Z</time>
      </trkpt>
      <trkpt lat="48.52579" lon="-2.27789">
        <ele>110</ele>
        <time>2021-07-30T13:47:55.000Z</time>
      </trkpt>
      <trkpt lat="48.52573" lon="-2.27778">
        <ele>111</ele>
        <time>2021-07-30T13:47:57.000Z</time>
      </trkpt>
      <trkpt lat="48.52567" lon="-2.27767">
        <ele>111</ele>
        <time>2021-07-30T13:47:59.000Z</time>
      </trkpt>
      <trkpt lat="48.52562" lon="-2.27756">
        <ele>111</ele>
        <time>2021-07-30T13:48:01.000Z</time>
      </trkpt>
      <trkpt lat="48.52556" lon="-2.27745">
        <ele>111</ele>
        <time>2021-07-30T13:48:03.000Z</time>
      </trkpt>
      <trkpt lat="48.52549" lon="-2.27729">
        <ele>112</ele>
        <time>2021-07-30T13:48:06.000Z</time>
      </trkpt>
      <trkpt lat="48.52542" lon="-2.27713">
        <ele>112</ele>
        <time>2021-07-30T13:48:09.000Z</time>
      </trkpt>
      <trkpt lat="48.52535" lon="-2.27697">
        <ele>111</ele>
        <time>2021-07-30T13:48:12.000Z</time>
      </trkpt>
      <trkpt lat="48.52531" lon="-2.27685">
        <ele>111</ele>
        <time>2021-07-30T13:48:14.000Z</time>
      </trkpt>
      <trkpt lat="48.52527" lon="-2.27672">
        <ele>112</ele>
        <time>2021-07-30T13:48:16.000Z</time>
      </trkpt>
      <trkpt lat="48.52525" lon="-2.27657">
        <ele>112</ele>
        <time>2021-07-30T13:48:18.000Z</time>
      </trkpt>
      <trkpt lat="48.52522" lon="-2.27643">
        <ele>112</ele>
        <time>2021-07-30T13:48:20.000Z</time>
      </trkpt>
      <trkpt lat="48.5252" lon="-2.27629">
        <ele>112</ele>
        <time>2021-07-30T13:48:22.000Z</time>
      </trkpt>
      <trkpt lat="48.52517" lon="-2.27615">
        <ele>113</ele>
        <time>2021-07-30T13:48:24.000Z</time>
      </trkpt>
      <trkpt lat="48.52515" lon="-2.27601">
        <ele>113</ele>
        <time>2021-07-30T13:48:26.000Z</time>
      </trkpt>
      <trkpt lat="48.52513" lon="-2.27586">
        <ele>113</ele>
        <time>2021-07-30T13:48:28.000Z</time>
      </trkpt>
      <trkpt lat="48.52511" lon="-2.27572">
        <ele>114</ele>
        <time>2021-07-30T13:48:30.000Z</time>
      </trkpt>
      <trkpt lat="48.52509" lon="-2.27557">
        <ele>114</ele>
        <time>2021-07-30T13:48:32.000Z</time>
      </trkpt>
      <trkpt lat="48.52506" lon="-2.27544">
        <ele>114</ele>
        <time>2021-07-30T13:48:34.000Z</time>
      </trkpt>
      <trkpt lat="48.52505" lon="-2.2753">
        <ele>114</ele>
        <time>2021-07-30T13:48:36.000Z</time>
      </trkpt>
      <trkpt lat="48.52502" lon="-2.27506">
        <ele>115</ele>
        <time>2021-07-30T13:48:39.000Z</time>
      </trkpt>
      <trkpt lat="48.525" lon="-2.27492">
        <ele>115</ele>
        <time>2021-07-30T13:48:41.000Z</time>
      </trkpt>
      <trkpt lat="48.52497" lon="-2.27476">
        <ele>115</ele>
        <time>2021-07-30T13:48:43.000Z</time>
      </trkpt>
      <trkpt lat="48.52495" lon="-2.27461">
        <ele>115</ele>
        <time>2021-07-30T13:48:45.000Z</time>
      </trkpt>
      <trkpt lat="48.52493" lon="-2.27446">
        <ele>115</ele>
        <time>2021-07-30T13:48:47.000Z</time>
      </trkpt>
      <trkpt lat="48.52492" lon="-2.27431">
        <ele>115</ele>
        <time>2021-07-30T13:48:49.000Z</time>
      </trkpt>
      <trkpt lat="48.52489" lon="-2.27417">
        <ele>115</ele>
        <time>2021-07-30T13:48:51.000Z</time>
      </trkpt>
      <trkpt lat="48.52488" lon="-2.27403">
        <ele>115</ele>
        <time>2021-07-30T13:48:53.000Z</time>
      </trkpt>
      <trkpt lat="48.52486" lon="-2.27389">
        <ele>115</ele>
        <time>2021-07-30T13:48:55.000Z</time>
      </trkpt>
      <trkpt lat="48.52484" lon="-2.27374">
        <ele>115</ele>
        <time>2021-07-30T13:48:57.000Z</time>
      </trkpt>
      <trkpt lat="48.52482" lon="-2.2736">
        <ele>115</ele>
        <time>2021-07-30T13:48:59.000Z</time>
      </trkpt>
      <trkpt lat="48.52481" lon="-2.27346">
        <ele>116</ele>
        <time>2021-07-30T13:49:01.000Z</time>
      </trkpt>
      <trkpt lat="48.52479" lon="-2.27332">
        <ele>115</ele>
        <time>2021-07-30T13:49:03.000Z</time>
      </trkpt>
      <trkpt lat="48.52477" lon="-2.27317">
        <ele>115</ele>
        <time>2021-07-30T13:49:05.000Z</time>
      </trkpt>
      <trkpt lat="48.52475" lon="-2.27302">
        <ele>116</ele>
        <time>2021-07-30T13:49:07.000Z</time>
      </trkpt>
      <trkpt lat="48.52474" lon="-2.27288">
        <ele>117</ele>
        <time>2021-07-30T13:49:09.000Z</time>
      </trkpt>
      <trkpt lat="48.52472" lon="-2.27274">
        <ele>117</ele>
        <time>2021-07-30T13:49:11.000Z</time>
      </trkpt>
      <trkpt lat="48.52471" lon="-2.27259">
        <ele>117</ele>
        <time>2021-07-30T13:49:13.000Z</time>
      </trkpt>
      <trkpt lat="48.52473" lon="-2.27244">
        <ele>118</ele>
        <time>2021-07-30T13:49:15.000Z</time>
      </trkpt>
      <trkpt lat="48.52474" lon="-2.27229">
        <ele>118</ele>
        <time>2021-07-30T13:49:17.000Z</time>
      </trkpt>
      <trkpt lat="48.52475" lon="-2.27213">
        <ele>119</ele>
        <time>2021-07-30T13:49:19.000Z</time>
      </trkpt>
      <trkpt lat="48.52479" lon="-2.27199">
        <ele>119</ele>
        <time>2021-07-30T13:49:21.000Z</time>
      </trkpt>
      <trkpt lat="48.52486" lon="-2.27185">
        <ele>118</ele>
        <time>2021-07-30T13:49:23.000Z</time>
      </trkpt>
      <trkpt lat="48.52492" lon="-2.27174">
        <ele>118</ele>
        <time>2021-07-30T13:49:25.000Z</time>
      </trkpt>
      <trkpt lat="48.52499" lon="-2.27155">
        <ele>118</ele>
        <time>2021-07-30T13:49:28.000Z</time>
      </trkpt>
      <trkpt lat="48.52505" lon="-2.27141">
        <ele>118</ele>
        <time>2021-07-30T13:49:30.000Z</time>
      </trkpt>
      <trkpt lat="48.52512" lon="-2.27128">
        <ele>118</ele>
        <time>2021-07-30T13:49:32.000Z</time>
      </trkpt>
      <trkpt lat="48.52519" lon="-2.27116">
        <ele>118</ele>
        <time>2021-07-30T13:49:34.000Z</time>
      </trkpt>
      <trkpt lat="48.52527" lon="-2.27105">
        <ele>118</ele>
        <time>2021-07-30T13:49:36.000Z</time>
      </trkpt>
      <trkpt lat="48.52536" lon="-2.27095">
        <ele>118</ele>
        <time>2021-07-30T13:49:38.000Z</time>
      </trkpt>
      <trkpt lat="48.52547" lon="-2.27087">
        <ele>118</ele>
        <time>2021-07-30T13:49:40.000Z</time>
      </trkpt>
      <trkpt lat="48.52558" lon="-2.2708">
        <ele>119</ele>
        <time>2021-07-30T13:49:42.000Z</time>
      </trkpt>
      <trkpt lat="48.52565" lon="-2.27068">
        <ele>118</ele>
        <time>2021-07-30T13:49:44.000Z</time>
      </trkpt>
      <trkpt lat="48.52569" lon="-2.2705">
        <ele>117</ele>
        <time>2021-07-30T13:49:46.000Z</time>
      </trkpt>
      <trkpt lat="48.52573" lon="-2.27032">
        <ele>117</ele>
        <time>2021-07-30T13:49:48.000Z</time>
      </trkpt>
      <trkpt lat="48.52578" lon="-2.27013">
        <ele>118</ele>
        <time>2021-07-30T13:49:50.000Z</time>
      </trkpt>
      <trkpt lat="48.52584" lon="-2.26994">
        <ele>117</ele>
        <time>2021-07-30T13:49:52.000Z</time>
      </trkpt>
      <trkpt lat="48.52591" lon="-2.26975">
        <ele>116</ele>
        <time>2021-07-30T13:49:54.000Z</time>
      </trkpt>
      <trkpt lat="48.52597" lon="-2.26956">
        <ele>116</ele>
        <time>2021-07-30T13:49:56.000Z</time>
      </trkpt>
      <trkpt lat="48.52604" lon="-2.26938">
        <ele>116</ele>
        <time>2021-07-30T13:49:58.000Z</time>
      </trkpt>
      <trkpt lat="48.52611" lon="-2.26919">
        <ele>116</ele>
        <time>2021-07-30T13:50:00.000Z</time>
      </trkpt>
      <trkpt lat="48.52618" lon="-2.269">
        <ele>116</ele>
        <time>2021-07-30T13:50:02.000Z</time>
      </trkpt>
      <trkpt lat="48.52625" lon="-2.26882">
        <ele>116</ele>
        <time>2021-07-30T13:50:04.000Z</time>
      </trkpt>
      <trkpt lat="48.52633" lon="-2.26865">
        <ele>115</ele>
        <time>2021-07-30T13:50:06.000Z</time>
      </trkpt>
      <trkpt lat="48.52639" lon="-2.26848">
        <ele>115</ele>
        <time>2021-07-30T13:50:08.000Z</time>
      </trkpt>
      <trkpt lat="48.52646" lon="-2.26832">
        <ele>115</ele>
        <time>2021-07-30T13:50:10.000Z</time>
      </trkpt>
      <trkpt lat="48.52651" lon="-2.26815">
        <ele>115</ele>
        <time>2021-07-30T13:50:12.000Z</time>
      </trkpt>
      <trkpt lat="48.52657" lon="-2.26798">
        <ele>114</ele>
        <time>2021-07-30T13:50:14.000Z</time>
      </trkpt>
      <trkpt lat="48.52663" lon="-2.26781">
        <ele>114</ele>
        <time>2021-07-30T13:50:16.000Z</time>
      </trkpt>
      <trkpt lat="48.52669" lon="-2.26762">
        <ele>114</ele>
        <time>2021-07-30T13:50:18.000Z</time>
      </trkpt>
      <trkpt lat="48.52674" lon="-2.26743">
        <ele>114</ele>
        <time>2021-07-30T13:50:20.000Z</time>
      </trkpt>
      <trkpt lat="48.52679" lon="-2.26724">
        <ele>114</ele>
        <time>2021-07-30T13:50:22.000Z</time>
      </trkpt>
      <trkpt lat="48.52684" lon="-2.26705">
        <ele>114</ele>
        <time>2021-07-30T13:50:24.000Z</time>
      </trkpt>
      <trkpt lat="48.5269" lon="-2.26686">
        <ele>113</ele>
        <time>2021-07-30T13:50:26.000Z</time>
      </trkpt>
      <trkpt lat="48.52696" lon="-2.26668">
        <ele>113</ele>
        <time>2021-07-30T13:50:28.000Z</time>
      </trkpt>
      <trkpt lat="48.52702" lon="-2.26649">
        <ele>113</ele>
        <time>2021-07-30T13:50:30.000Z</time>
      </trkpt>
      <trkpt lat="48.52708" lon="-2.2663">
        <ele>113</ele>
        <time>2021-07-30T13:50:32.000Z</time>
      </trkpt>
      <trkpt lat="48.52714" lon="-2.26613">
        <ele>113</ele>
        <time>2021-07-30T13:50:34.000Z</time>
      </trkpt>
      <trkpt lat="48.52721" lon="-2.26596">
        <ele>113</ele>
        <time>2021-07-30T13:50:36.000Z</time>
      </trkpt>
      <trkpt lat="48.52728" lon="-2.2658">
        <ele>113</ele>
        <time>2021-07-30T13:50:38.000Z</time>
      </trkpt>
      <trkpt lat="48.52735" lon="-2.26564">
        <ele>113</ele>
        <time>2021-07-30T13:50:40.000Z</time>
      </trkpt>
      <trkpt lat="48.52742" lon="-2.26548">
        <ele>112</ele>
        <time>2021-07-30T13:50:42.000Z</time>
      </trkpt>
      <trkpt lat="48.5275" lon="-2.26532">
        <ele>112</ele>
        <time>2021-07-30T13:50:44.000Z</time>
      </trkpt>
      <trkpt lat="48.52758" lon="-2.26517">
        <ele>112</ele>
        <time>2021-07-30T13:50:46.000Z</time>
      </trkpt>
      <trkpt lat="48.52766" lon="-2.26501">
        <ele>111</ele>
        <time>2021-07-30T13:50:48.000Z</time>
      </trkpt>
      <trkpt lat="48.52773" lon="-2.26487">
        <ele>111</ele>
        <time>2021-07-30T13:50:50.000Z</time>
      </trkpt>
      <trkpt lat="48.52781" lon="-2.26473">
        <ele>111</ele>
        <time>2021-07-30T13:50:52.000Z</time>
      </trkpt>
      <trkpt lat="48.52789" lon="-2.26458">
        <ele>111</ele>
        <time>2021-07-30T13:50:54.000Z</time>
      </trkpt>
      <trkpt lat="48.52796" lon="-2.26443">
        <ele>110</ele>
        <time>2021-07-30T13:50:56.000Z</time>
      </trkpt>
      <trkpt lat="48.52805" lon="-2.26431">
        <ele>109</ele>
        <time>2021-07-30T13:50:58.000Z</time>
      </trkpt>
      <trkpt lat="48.52818" lon="-2.26425">
        <ele>109</ele>
        <time>2021-07-30T13:51:00.000Z</time>
      </trkpt>
      <trkpt lat="48.52829" lon="-2.26418">
        <ele>110</ele>
        <time>2021-07-30T13:51:02.000Z</time>
      </trkpt>
      <trkpt lat="48.5284" lon="-2.26409">
        <ele>110</ele>
        <time>2021-07-30T13:51:04.000Z</time>
      </trkpt>
      <trkpt lat="48.5285" lon="-2.26401">
        <ele>110</ele>
        <time>2021-07-30T13:51:06.000Z</time>
      </trkpt>
      <trkpt lat="48.52859" lon="-2.26393">
        <ele>110</ele>
        <time>2021-07-30T13:51:08.000Z</time>
      </trkpt>
      <trkpt lat="48.52869" lon="-2.26384">
        <ele>110</ele>
        <time>2021-07-30T13:51:10.000Z</time>
      </trkpt>
      <trkpt lat="48.52874" lon="-2.26373">
        <ele>110</ele>
        <time>2021-07-30T13:51:12.000Z</time>
      </trkpt>
      <trkpt lat="48.52884" lon="-2.26363">
        <ele>110</ele>
        <time>2021-07-30T13:51:15.000Z</time>
      </trkpt>
      <trkpt lat="48.52888" lon="-2.26351">
        <ele>113</ele>
        <time>2021-07-30T13:52:12.000Z</time>
      </trkpt>
      <trkpt lat="48.52883" lon="-2.26334">
        <ele>113</ele>
        <time>2021-07-30T13:52:16.000Z</time>
      </trkpt>
      <trkpt lat="48.52876" lon="-2.26319">
        <ele>112</ele>
        <time>2021-07-30T13:52:19.000Z</time>
      </trkpt>
      <trkpt lat="48.5287" lon="-2.26307">
        <ele>114</ele>
        <time>2021-07-30T13:52:54.000Z</time>
      </trkpt>
      <trkpt lat="48.52864" lon="-2.26291">
        <ele>114</ele>
        <time>2021-07-30T13:52:58.000Z</time>
      </trkpt>
      <trkpt lat="48.52859" lon="-2.26274">
        <ele>112</ele>
        <time>2021-07-30T13:53:01.000Z</time>
      </trkpt>
      <trkpt lat="48.52856" lon="-2.26261">
        <ele>112</ele>
        <time>2021-07-30T13:53:03.000Z</time>
      </trkpt>
      <trkpt lat="48.52852" lon="-2.26247">
        <ele>112</ele>
        <time>2021-07-30T13:53:05.000Z</time>
      </trkpt>
      <trkpt lat="48.52849" lon="-2.26231">
        <ele>112</ele>
        <time>2021-07-30T13:53:07.000Z</time>
      </trkpt>
      <trkpt lat="48.52846" lon="-2.26216">
        <ele>112</ele>
        <time>2021-07-30T13:53:09.000Z</time>
      </trkpt>
      <trkpt lat="48.5284" lon="-2.262">
        <ele>112</ele>
        <time>2021-07-30T13:53:11.000Z</time>
      </trkpt>
      <trkpt lat="48.52835" lon="-2.26183">
        <ele>111</ele>
        <time>2021-07-30T13:53:13.000Z</time>
      </trkpt>
      <trkpt lat="48.52832" lon="-2.26167">
        <ele>111</ele>
        <time>2021-07-30T13:53:15.000Z</time>
      </trkpt>
      <trkpt lat="48.5283" lon="-2.2615">
        <ele>111</ele>
        <time>2021-07-30T13:53:17.000Z</time>
      </trkpt>
      <trkpt lat="48.52827" lon="-2.26134">
        <ele>111</ele>
        <time>2021-07-30T13:53:19.000Z</time>
      </trkpt>
      <trkpt lat="48.52824" lon="-2.26117">
        <ele>111</ele>
        <time>2021-07-30T13:53:21.000Z</time>
      </trkpt>
      <trkpt lat="48.52822" lon="-2.261">
        <ele>111</ele>
        <time>2021-07-30T13:53:23.000Z</time>
      </trkpt>
      <trkpt lat="48.5282" lon="-2.26083">
        <ele>111</ele>
        <time>2021-07-30T13:53:25.000Z</time>
      </trkpt>
      <trkpt lat="48.52817" lon="-2.26068">
        <ele>111</ele>
        <time>2021-07-30T13:53:27.000Z</time>
      </trkpt>
      <trkpt lat="48.52814" lon="-2.26052">
        <ele>112</ele>
        <time>2021-07-30T13:53:29.000Z</time>
      </trkpt>
      <trkpt lat="48.52811" lon="-2.26036">
        <ele>112</ele>
        <time>2021-07-30T13:53:31.000Z</time>
      </trkpt>
      <trkpt lat="48.52808" lon="-2.2602">
        <ele>112</ele>
        <time>2021-07-30T13:53:33.000Z</time>
      </trkpt>
      <trkpt lat="48.52805" lon="-2.26003">
        <ele>112</ele>
        <time>2021-07-30T13:53:35.000Z</time>
      </trkpt>
      <trkpt lat="48.52802" lon="-2.25986">
        <ele>112</ele>
        <time>2021-07-30T13:53:37.000Z</time>
      </trkpt>
      <trkpt lat="48.52799" lon="-2.25969">
        <ele>112</ele>
        <time>2021-07-30T13:53:39.000Z</time>
      </trkpt>
      <trkpt lat="48.52797" lon="-2.25952">
        <ele>112</ele>
        <time>2021-07-30T13:53:41.000Z</time>
      </trkpt>
      <trkpt lat="48.52794" lon="-2.25935">
        <ele>112</ele>
        <time>2021-07-30T13:53:43.000Z</time>
      </trkpt>
      <trkpt lat="48.52791" lon="-2.25918">
        <ele>112</ele>
        <time>2021-07-30T13:53:45.000Z</time>
      </trkpt>
      <trkpt lat="48.52789" lon="-2.25901">
        <ele>112</ele>
        <time>2021-07-30T13:53:47.000Z</time>
      </trkpt>
      <trkpt lat="48.52787" lon="-2.25884">
        <ele>112</ele>
        <time>2021-07-30T13:53:49.000Z</time>
      </trkpt>
      <trkpt lat="48.52785" lon="-2.25867">
        <ele>112</ele>
        <time>2021-07-30T13:53:51.000Z</time>
      </trkpt>
      <trkpt lat="48.52784" lon="-2.2585">
        <ele>112</ele>
        <time>2021-07-30T13:53:53.000Z</time>
      </trkpt>
      <trkpt lat="48.52782" lon="-2.25833">
        <ele>112</ele>
        <time>2021-07-30T13:53:55.000Z</time>
      </trkpt>
      <trkpt lat="48.5278" lon="-2.25816">
        <ele>112</ele>
        <time>2021-07-30T13:53:57.000Z</time>
      </trkpt>
      <trkpt lat="48.52779" lon="-2.25798">
        <ele>111</ele>
        <time>2021-07-30T13:53:59.000Z</time>
      </trkpt>
      <trkpt lat="48.52781" lon="-2.25779">
        <ele>111</ele>
        <time>2021-07-30T13:54:01.000Z</time>
      </trkpt>
      <trkpt lat="48.52781" lon="-2.2576">
        <ele>111</ele>
        <time>2021-07-30T13:54:03.000Z</time>
      </trkpt>
      <trkpt lat="48.5278" lon="-2.2574">
        <ele>111</ele>
        <time>2021-07-30T13:54:05.000Z</time>
      </trkpt>
      <trkpt lat="48.52779" lon="-2.25722">
        <ele>111</ele>
        <time>2021-07-30T13:54:07.000Z</time>
      </trkpt>
      <trkpt lat="48.52777" lon="-2.25704">
        <ele>111</ele>
        <time>2021-07-30T13:54:09.000Z</time>
      </trkpt>
      <trkpt lat="48.52774" lon="-2.25686">
        <ele>112</ele>
        <time>2021-07-30T13:54:11.000Z</time>
      </trkpt>
      <trkpt lat="48.52772" lon="-2.25668">
        <ele>112</ele>
        <time>2021-07-30T13:54:13.000Z</time>
      </trkpt>
      <trkpt lat="48.52769" lon="-2.25649">
        <ele>113</ele>
        <time>2021-07-30T13:54:15.000Z</time>
      </trkpt>
      <trkpt lat="48.52767" lon="-2.2563">
        <ele>112</ele>
        <time>2021-07-30T13:54:17.000Z</time>
      </trkpt>
      <trkpt lat="48.52763" lon="-2.25612">
        <ele>113</ele>
        <time>2021-07-30T13:54:19.000Z</time>
      </trkpt>
      <trkpt lat="48.5276" lon="-2.25595">
        <ele>113</ele>
        <time>2021-07-30T13:54:21.000Z</time>
      </trkpt>
      <trkpt lat="48.52756" lon="-2.25577">
        <ele>113</ele>
        <time>2021-07-30T13:54:23.000Z</time>
      </trkpt>
      <trkpt lat="48.52751" lon="-2.25559">
        <ele>112</ele>
        <time>2021-07-30T13:54:25.000Z</time>
      </trkpt>
      <trkpt lat="48.52746" lon="-2.25539">
        <ele>112</ele>
        <time>2021-07-30T13:54:27.000Z</time>
      </trkpt>
      <trkpt lat="48.5274" lon="-2.25519">
        <ele>111</ele>
        <time>2021-07-30T13:54:29.000Z</time>
      </trkpt>
      <trkpt lat="48.52734" lon="-2.25498">
        <ele>111</ele>
        <time>2021-07-30T13:54:31.000Z</time>
      </trkpt>
      <trkpt lat="48.52728" lon="-2.25477">
        <ele>111</ele>
        <time>2021-07-30T13:54:33.000Z</time>
      </trkpt>
      <trkpt lat="48.52722" lon="-2.25457">
        <ele>110</ele>
        <time>2021-07-30T13:54:35.000Z</time>
      </trkpt>
      <trkpt lat="48.52716" lon="-2.25438">
        <ele>111</ele>
        <time>2021-07-30T13:54:37.000Z</time>
      </trkpt>
      <trkpt lat="48.5271" lon="-2.25418">
        <ele>111</ele>
        <time>2021-07-30T13:54:39.000Z</time>
      </trkpt>
      <trkpt lat="48.52704" lon="-2.254">
        <ele>110</ele>
        <time>2021-07-30T13:54:41.000Z</time>
      </trkpt>
      <trkpt lat="48.52698" lon="-2.2538">
        <ele>110</ele>
        <time>2021-07-30T13:54:43.000Z</time>
      </trkpt>
      <trkpt lat="48.52692" lon="-2.25362">
        <ele>110</ele>
        <time>2021-07-30T13:54:45.000Z</time>
      </trkpt>
      <trkpt lat="48.52687" lon="-2.25344">
        <ele>109</ele>
        <time>2021-07-30T13:54:47.000Z</time>
      </trkpt>
      <trkpt lat="48.52681" lon="-2.25325">
        <ele>109</ele>
        <time>2021-07-30T13:54:49.000Z</time>
      </trkpt>
      <trkpt lat="48.52675" lon="-2.25307">
        <ele>108</ele>
        <time>2021-07-30T13:54:51.000Z</time>
      </trkpt>
      <trkpt lat="48.52669" lon="-2.25291">
        <ele>108</ele>
        <time>2021-07-30T13:54:53.000Z</time>
      </trkpt>
      <trkpt lat="48.5266" lon="-2.25278">
        <ele>109</ele>
        <time>2021-07-30T13:54:55.000Z</time>
      </trkpt>
      <trkpt lat="48.52654" lon="-2.25267">
        <ele>109</ele>
        <time>2021-07-30T13:54:57.000Z</time>
      </trkpt>
      <trkpt lat="48.52651" lon="-2.2525">
        <ele>110</ele>
        <time>2021-07-30T13:54:59.000Z</time>
      </trkpt>
      <trkpt lat="48.52647" lon="-2.25234">
        <ele>109</ele>
        <time>2021-07-30T13:55:01.000Z</time>
      </trkpt>
      <trkpt lat="48.52643" lon="-2.25219">
        <ele>109</ele>
        <time>2021-07-30T13:55:03.000Z</time>
      </trkpt>
      <trkpt lat="48.52648" lon="-2.25204">
        <ele>109</ele>
        <time>2021-07-30T13:55:06.000Z</time>
      </trkpt>
      <trkpt lat="48.52652" lon="-2.25187">
        <ele>110</ele>
        <time>2021-07-30T13:55:09.000Z</time>
      </trkpt>
      <trkpt lat="48.52649" lon="-2.25168">
        <ele>110</ele>
        <time>2021-07-30T13:55:12.000Z</time>
      </trkpt>
      <trkpt lat="48.52647" lon="-2.25154">
        <ele>110</ele>
        <time>2021-07-30T13:55:14.000Z</time>
      </trkpt>
      <trkpt lat="48.52643" lon="-2.25142">
        <ele>109</ele>
        <time>2021-07-30T13:55:16.000Z</time>
      </trkpt>
      <trkpt lat="48.52636" lon="-2.2513">
        <ele>109</ele>
        <time>2021-07-30T13:55:18.000Z</time>
      </trkpt>
      <trkpt lat="48.5263" lon="-2.25117">
        <ele>109</ele>
        <time>2021-07-30T13:55:20.000Z</time>
      </trkpt>
      <trkpt lat="48.52627" lon="-2.25102">
        <ele>108</ele>
        <time>2021-07-30T13:55:22.000Z</time>
      </trkpt>
      <trkpt lat="48.52624" lon="-2.25086">
        <ele>107</ele>
        <time>2021-07-30T13:55:24.000Z</time>
      </trkpt>
      <trkpt lat="48.52624" lon="-2.25068">
        <ele>107</ele>
        <time>2021-07-30T13:55:26.000Z</time>
      </trkpt>
      <trkpt lat="48.52624" lon="-2.2505">
        <ele>107</ele>
        <time>2021-07-30T13:55:28.000Z</time>
      </trkpt>
      <trkpt lat="48.52621" lon="-2.25032">
        <ele>107</ele>
        <time>2021-07-30T13:55:30.000Z</time>
      </trkpt>
      <trkpt lat="48.52617" lon="-2.25013">
        <ele>107</ele>
        <time>2021-07-30T13:55:32.000Z</time>
      </trkpt>
      <trkpt lat="48.52614" lon="-2.24995">
        <ele>107</ele>
        <time>2021-07-30T13:55:34.000Z</time>
      </trkpt>
      <trkpt lat="48.5261" lon="-2.24978">
        <ele>107</ele>
        <time>2021-07-30T13:55:36.000Z</time>
      </trkpt>
      <trkpt lat="48.52605" lon="-2.24962">
        <ele>106</ele>
        <time>2021-07-30T13:55:38.000Z</time>
      </trkpt>
      <trkpt lat="48.52603" lon="-2.24946">
        <ele>107</ele>
        <time>2021-07-30T13:55:40.000Z</time>
      </trkpt>
      <trkpt lat="48.52603" lon="-2.24932">
        <ele>108</ele>
        <time>2021-07-30T13:55:42.000Z</time>
      </trkpt>
      <trkpt lat="48.52602" lon="-2.24915">
        <ele>107</ele>
        <time>2021-07-30T13:55:44.000Z</time>
      </trkpt>
      <trkpt lat="48.526" lon="-2.24897">
        <ele>106</ele>
        <time>2021-07-30T13:55:46.000Z</time>
      </trkpt>
      <trkpt lat="48.52597" lon="-2.24878">
        <ele>106</ele>
        <time>2021-07-30T13:55:48.000Z</time>
      </trkpt>
      <trkpt lat="48.52595" lon="-2.2486">
        <ele>105</ele>
        <time>2021-07-30T13:55:50.000Z</time>
      </trkpt>
      <trkpt lat="48.52592" lon="-2.24842">
        <ele>105</ele>
        <time>2021-07-30T13:55:52.000Z</time>
      </trkpt>
      <trkpt lat="48.5259" lon="-2.24823">
        <ele>104</ele>
        <time>2021-07-30T13:55:54.000Z</time>
      </trkpt>
      <trkpt lat="48.52587" lon="-2.24805">
        <ele>104</ele>
        <time>2021-07-30T13:55:56.000Z</time>
      </trkpt>
      <trkpt lat="48.52585" lon="-2.24786">
        <ele>104</ele>
        <time>2021-07-30T13:55:58.000Z</time>
      </trkpt>
      <trkpt lat="48.52582" lon="-2.24767">
        <ele>104</ele>
        <time>2021-07-30T13:56:00.000Z</time>
      </trkpt>
      <trkpt lat="48.5258" lon="-2.24747">
        <ele>103</ele>
        <time>2021-07-30T13:56:02.000Z</time>
      </trkpt>
      <trkpt lat="48.52577" lon="-2.24726">
        <ele>103</ele>
        <time>2021-07-30T13:56:04.000Z</time>
      </trkpt>
      <trkpt lat="48.52573" lon="-2.24704">
        <ele>102</ele>
        <time>2021-07-30T13:56:06.000Z</time>
      </trkpt>
      <trkpt lat="48.52568" lon="-2.24681">
        <ele>101</ele>
        <time>2021-07-30T13:56:08.000Z</time>
      </trkpt>
      <trkpt lat="48.52563" lon="-2.24657">
        <ele>101</ele>
        <time>2021-07-30T13:56:10.000Z</time>
      </trkpt>
      <trkpt lat="48.52557" lon="-2.24634">
        <ele>100</ele>
        <time>2021-07-30T13:56:12.000Z</time>
      </trkpt>
      <trkpt lat="48.52551" lon="-2.24609">
        <ele>99</ele>
        <time>2021-07-30T13:56:14.000Z</time>
      </trkpt>
      <trkpt lat="48.52543" lon="-2.24586">
        <ele>99</ele>
        <time>2021-07-30T13:56:16.000Z</time>
      </trkpt>
      <trkpt lat="48.52536" lon="-2.24567">
        <ele>98</ele>
        <time>2021-07-30T13:56:18.000Z</time>
      </trkpt>
      <trkpt lat="48.52527" lon="-2.24547">
        <ele>97</ele>
        <time>2021-07-30T13:56:20.000Z</time>
      </trkpt>
      <trkpt lat="48.5252" lon="-2.24526">
        <ele>96</ele>
        <time>2021-07-30T13:56:22.000Z</time>
      </trkpt>
      <trkpt lat="48.52512" lon="-2.24505">
        <ele>96</ele>
        <time>2021-07-30T13:56:24.000Z</time>
      </trkpt>
      <trkpt lat="48.52505" lon="-2.24484">
        <ele>96</ele>
        <time>2021-07-30T13:56:26.000Z</time>
      </trkpt>
      <trkpt lat="48.52498" lon="-2.24463">
        <ele>96</ele>
        <time>2021-07-30T13:56:28.000Z</time>
      </trkpt>
      <trkpt lat="48.5249" lon="-2.24442">
        <ele>96</ele>
        <time>2021-07-30T13:56:30.000Z</time>
      </trkpt>
      <trkpt lat="48.52483" lon="-2.2442">
        <ele>95</ele>
        <time>2021-07-30T13:56:32.000Z</time>
      </trkpt>
      <trkpt lat="48.52475" lon="-2.24399">
        <ele>95</ele>
        <time>2021-07-30T13:56:34.000Z</time>
      </trkpt>
      <trkpt lat="48.52468" lon="-2.24378">
        <ele>95</ele>
        <time>2021-07-30T13:56:36.000Z</time>
      </trkpt>
      <trkpt lat="48.5246" lon="-2.24358">
        <ele>95</ele>
        <time>2021-07-30T13:56:38.000Z</time>
      </trkpt>
      <trkpt lat="48.5245" lon="-2.24338">
        <ele>95</ele>
        <time>2021-07-30T13:56:40.000Z</time>
      </trkpt>
      <trkpt lat="48.52441" lon="-2.24319">
        <ele>95</ele>
        <time>2021-07-30T13:56:42.000Z</time>
      </trkpt>
      <trkpt lat="48.52438" lon="-2.24297">
        <ele>94</ele>
        <time>2021-07-30T13:56:44.000Z</time>
      </trkpt>
      <trkpt lat="48.52436" lon="-2.24275">
        <ele>94</ele>
        <time>2021-07-30T13:56:46.000Z</time>
      </trkpt>
      <trkpt lat="48.52429" lon="-2.24254">
        <ele>94</ele>
        <time>2021-07-30T13:56:48.000Z</time>
      </trkpt>
      <trkpt lat="48.52421" lon="-2.24233">
        <ele>93</ele>
        <time>2021-07-30T13:56:50.000Z</time>
      </trkpt>
      <trkpt lat="48.52413" lon="-2.2421">
        <ele>93</ele>
        <time>2021-07-30T13:56:52.000Z</time>
      </trkpt>
      <trkpt lat="48.52406" lon="-2.24188">
        <ele>92</ele>
        <time>2021-07-30T13:56:54.000Z</time>
      </trkpt>
      <trkpt lat="48.52397" lon="-2.24165">
        <ele>91</ele>
        <time>2021-07-30T13:56:56.000Z</time>
      </trkpt>
      <trkpt lat="48.5239" lon="-2.24142">
        <ele>90</ele>
        <time>2021-07-30T13:56:58.000Z</time>
      </trkpt>
      <trkpt lat="48.52382" lon="-2.24119">
        <ele>90</ele>
        <time>2021-07-30T13:57:00.000Z</time>
      </trkpt>
      <trkpt lat="48.52377" lon="-2.24107">
        <ele>90</ele>
        <time>2021-07-30T13:57:01.000Z</time>
      </trkpt>
      <trkpt lat="48.52368" lon="-2.24085">
        <ele>90</ele>
        <time>2021-07-30T13:57:03.000Z</time>
      </trkpt>
      <trkpt lat="48.52364" lon="-2.24073">
        <ele>89</ele>
        <time>2021-07-30T13:57:04.000Z</time>
      </trkpt>
      <trkpt lat="48.52355" lon="-2.24049">
        <ele>88</ele>
        <time>2021-07-30T13:57:06.000Z</time>
      </trkpt>
      <trkpt lat="48.52351" lon="-2.24037">
        <ele>88</ele>
        <time>2021-07-30T13:57:07.000Z</time>
      </trkpt>
      <trkpt lat="48.52342" lon="-2.24014">
        <ele>88</ele>
        <time>2021-07-30T13:57:09.000Z</time>
      </trkpt>
      <trkpt lat="48.52334" lon="-2.23992">
        <ele>88</ele>
        <time>2021-07-30T13:57:11.000Z</time>
      </trkpt>
      <trkpt lat="48.52326" lon="-2.23971">
        <ele>88</ele>
        <time>2021-07-30T13:57:13.000Z</time>
      </trkpt>
      <trkpt lat="48.5232" lon="-2.23949">
        <ele>87</ele>
        <time>2021-07-30T13:57:15.000Z</time>
      </trkpt>
      <trkpt lat="48.52314" lon="-2.23926">
        <ele>87</ele>
        <time>2021-07-30T13:57:17.000Z</time>
      </trkpt>
      <trkpt lat="48.52307" lon="-2.23903">
        <ele>86</ele>
        <time>2021-07-30T13:57:19.000Z</time>
      </trkpt>
      <trkpt lat="48.52299" lon="-2.23881">
        <ele>85</ele>
        <time>2021-07-30T13:57:21.000Z</time>
      </trkpt>
      <trkpt lat="48.52291" lon="-2.23857">
        <ele>84</ele>
        <time>2021-07-30T13:57:23.000Z</time>
      </trkpt>
      <trkpt lat="48.52283" lon="-2.23834">
        <ele>84</ele>
        <time>2021-07-30T13:57:25.000Z</time>
      </trkpt>
      <trkpt lat="48.52279" lon="-2.23821">
        <ele>83</ele>
        <time>2021-07-30T13:57:26.000Z</time>
      </trkpt>
      <trkpt lat="48.52275" lon="-2.23809">
        <ele>83</ele>
        <time>2021-07-30T13:57:27.000Z</time>
      </trkpt>
      <trkpt lat="48.5227" lon="-2.23796">
        <ele>83</ele>
        <time>2021-07-30T13:57:28.000Z</time>
      </trkpt>
      <trkpt lat="48.52266" lon="-2.23783">
        <ele>83</ele>
        <time>2021-07-30T13:57:29.000Z</time>
      </trkpt>
      <trkpt lat="48.52262" lon="-2.23771">
        <ele>83</ele>
        <time>2021-07-30T13:57:30.000Z</time>
      </trkpt>
      <trkpt lat="48.52257" lon="-2.23758">
        <ele>82</ele>
        <time>2021-07-30T13:57:31.000Z</time>
      </trkpt>
      <trkpt lat="48.52252" lon="-2.23745">
        <ele>82</ele>
        <time>2021-07-30T13:57:32.000Z</time>
      </trkpt>
      <trkpt lat="48.52248" lon="-2.23731">
        <ele>81</ele>
        <time>2021-07-30T13:57:33.000Z</time>
      </trkpt>
      <trkpt lat="48.52244" lon="-2.23718">
        <ele>80</ele>
        <time>2021-07-30T13:57:34.000Z</time>
      </trkpt>
      <trkpt lat="48.52239" lon="-2.23705">
        <ele>80</ele>
        <time>2021-07-30T13:57:35.000Z</time>
      </trkpt>
      <trkpt lat="48.52235" lon="-2.23691">
        <ele>80</ele>
        <time>2021-07-30T13:57:36.000Z</time>
      </trkpt>
      <trkpt lat="48.52231" lon="-2.23677">
        <ele>80</ele>
        <time>2021-07-30T13:57:37.000Z</time>
      </trkpt>
      <trkpt lat="48.52228" lon="-2.23662">
        <ele>79</ele>
        <time>2021-07-30T13:57:38.000Z</time>
      </trkpt>
      <trkpt lat="48.52225" lon="-2.23648">
        <ele>79</ele>
        <time>2021-07-30T13:57:39.000Z</time>
      </trkpt>
      <trkpt lat="48.52219" lon="-2.23627">
        <ele>80</ele>
        <time>2021-07-30T13:57:41.000Z</time>
      </trkpt>
      <trkpt lat="48.52216" lon="-2.23612">
        <ele>80</ele>
        <time>2021-07-30T13:57:43.000Z</time>
      </trkpt>
      <trkpt lat="48.52213" lon="-2.23598">
        <ele>79</ele>
        <time>2021-07-30T13:57:45.000Z</time>
      </trkpt>
      <trkpt lat="48.52209" lon="-2.23583">
        <ele>79</ele>
        <time>2021-07-30T13:57:47.000Z</time>
      </trkpt>
      <trkpt lat="48.52206" lon="-2.23566">
        <ele>79</ele>
        <time>2021-07-30T13:57:49.000Z</time>
      </trkpt>
      <trkpt lat="48.52202" lon="-2.2355">
        <ele>79</ele>
        <time>2021-07-30T13:57:51.000Z</time>
      </trkpt>
      <trkpt lat="48.52198" lon="-2.23532">
        <ele>80</ele>
        <time>2021-07-30T13:57:53.000Z</time>
      </trkpt>
      <trkpt lat="48.522" lon="-2.23515">
        <ele>80</ele>
        <time>2021-07-30T13:57:55.000Z</time>
      </trkpt>
      <trkpt lat="48.52209" lon="-2.23504">
        <ele>79</ele>
        <time>2021-07-30T13:57:58.000Z</time>
      </trkpt>
      <trkpt lat="48.52215" lon="-2.23494">
        <ele>80</ele>
        <time>2021-07-30T13:58:01.000Z</time>
      </trkpt>
      <trkpt lat="48.52219" lon="-2.23481">
        <ele>81</ele>
        <time>2021-07-30T13:58:03.000Z</time>
      </trkpt>
      <trkpt lat="48.52224" lon="-2.23467">
        <ele>81</ele>
        <time>2021-07-30T13:58:05.000Z</time>
      </trkpt>
      <trkpt lat="48.52229" lon="-2.2345">
        <ele>80</ele>
        <time>2021-07-30T13:58:07.000Z</time>
      </trkpt>
      <trkpt lat="48.52236" lon="-2.23432">
        <ele>80</ele>
        <time>2021-07-30T13:58:09.000Z</time>
      </trkpt>
      <trkpt lat="48.52241" lon="-2.23414">
        <ele>79</ele>
        <time>2021-07-30T13:58:11.000Z</time>
      </trkpt>
      <trkpt lat="48.52245" lon="-2.23398">
        <ele>78</ele>
        <time>2021-07-30T13:58:13.000Z</time>
      </trkpt>
      <trkpt lat="48.52249" lon="-2.2338">
        <ele>77</ele>
        <time>2021-07-30T13:58:15.000Z</time>
      </trkpt>
      <trkpt lat="48.52251" lon="-2.23362">
        <ele>76</ele>
        <time>2021-07-30T13:58:17.000Z</time>
      </trkpt>
      <trkpt lat="48.52254" lon="-2.23342">
        <ele>75</ele>
        <time>2021-07-30T13:58:19.000Z</time>
      </trkpt>
      <trkpt lat="48.52258" lon="-2.23322">
        <ele>74</ele>
        <time>2021-07-30T13:58:21.000Z</time>
      </trkpt>
      <trkpt lat="48.52262" lon="-2.23301">
        <ele>72</ele>
        <time>2021-07-30T13:58:23.000Z</time>
      </trkpt>
      <trkpt lat="48.52263" lon="-2.2328">
        <ele>71</ele>
        <time>2021-07-30T13:58:25.000Z</time>
      </trkpt>
      <trkpt lat="48.52263" lon="-2.23258">
        <ele>72</ele>
        <time>2021-07-30T13:58:27.000Z</time>
      </trkpt>
      <trkpt lat="48.52262" lon="-2.23237">
        <ele>73</ele>
        <time>2021-07-30T13:58:29.000Z</time>
      </trkpt>
      <trkpt lat="48.52259" lon="-2.23223">
        <ele>72</ele>
        <time>2021-07-30T13:58:31.000Z</time>
      </trkpt>
      <trkpt lat="48.52253" lon="-2.23209">
        <ele>71</ele>
        <time>2021-07-30T13:58:33.000Z</time>
      </trkpt>
      <trkpt lat="48.5225" lon="-2.23197">
        <ele>70</ele>
        <time>2021-07-30T13:58:35.000Z</time>
      </trkpt>
      <trkpt lat="48.52247" lon="-2.23176">
        <ele>66</ele>
        <time>2021-07-30T13:58:38.000Z</time>
      </trkpt>
      <trkpt lat="48.52238" lon="-2.23159">
        <ele>64</ele>
        <time>2021-07-30T13:58:40.000Z</time>
      </trkpt>
      <trkpt lat="48.52229" lon="-2.23138">
        <ele>63</ele>
        <time>2021-07-30T13:58:42.000Z</time>
      </trkpt>
      <trkpt lat="48.52218" lon="-2.23118">
        <ele>62</ele>
        <time>2021-07-30T13:58:44.000Z</time>
      </trkpt>
      <trkpt lat="48.52203" lon="-2.23108">
        <ele>61</ele>
        <time>2021-07-30T13:58:46.000Z</time>
      </trkpt>
      <trkpt lat="48.52191" lon="-2.2311">
        <ele>61</ele>
        <time>2021-07-30T13:58:48.000Z</time>
      </trkpt>
      <trkpt lat="48.52184" lon="-2.23091">
        <ele>60</ele>
        <time>2021-07-30T13:58:51.000Z</time>
      </trkpt>
      <trkpt lat="48.52181" lon="-2.23075">
        <ele>60</ele>
        <time>2021-07-30T13:58:53.000Z</time>
      </trkpt>
      <trkpt lat="48.52178" lon="-2.2306">
        <ele>60</ele>
        <time>2021-07-30T13:58:55.000Z</time>
      </trkpt>
      <trkpt lat="48.5218" lon="-2.23042">
        <ele>60</ele>
        <time>2021-07-30T13:58:58.000Z</time>
      </trkpt>
      <trkpt lat="48.52188" lon="-2.23034">
        <ele>61</ele>
        <time>2021-07-30T13:59:01.000Z</time>
      </trkpt>
      <trkpt lat="48.52177" lon="-2.23043">
        <ele>60</ele>
        <time>2021-07-30T14:00:18.000Z</time>
      </trkpt>
      <trkpt lat="48.52169" lon="-2.23036">
        <ele>61</ele>
        <time>2021-07-30T14:00:28.000Z</time>
      </trkpt>
      <trkpt lat="48.52164" lon="-2.23025">
        <ele>63</ele>
        <time>2021-07-30T14:00:34.000Z</time>
      </trkpt>
      <trkpt lat="48.52168" lon="-2.23012">
        <ele>62</ele>
        <time>2021-07-30T14:00:39.000Z</time>
      </trkpt>
      <trkpt lat="48.52178" lon="-2.23008">
        <ele>62</ele>
        <time>2021-07-30T14:00:42.000Z</time>
      </trkpt>
      <trkpt lat="48.52187" lon="-2.23006">
        <ele>61</ele>
        <time>2021-07-30T14:00:44.000Z</time>
      </trkpt>
      <trkpt lat="48.52204" lon="-2.23004">
        <ele>60</ele>
        <time>2021-07-30T14:00:48.000Z</time>
      </trkpt>
      <trkpt lat="48.52219" lon="-2.23001">
        <ele>59</ele>
        <time>2021-07-30T14:00:51.000Z</time>
      </trkpt>
      <trkpt lat="48.52228" lon="-2.23">
        <ele>60</ele>
        <time>2021-07-30T14:00:53.000Z</time>
      </trkpt>
      <trkpt lat="48.52237" lon="-2.22999">
        <ele>60</ele>
        <time>2021-07-30T14:00:55.000Z</time>
      </trkpt>
      <trkpt lat="48.52247" lon="-2.22999">
        <ele>60</ele>
        <time>2021-07-30T14:00:57.000Z</time>
      </trkpt>
      <trkpt lat="48.52256" lon="-2.22998">
        <ele>60</ele>
        <time>2021-07-30T14:00:59.000Z</time>
      </trkpt>
      <trkpt lat="48.52266" lon="-2.22997">
        <ele>61</ele>
        <time>2021-07-30T14:01:01.000Z</time>
      </trkpt>
      <trkpt lat="48.52275" lon="-2.22997">
        <ele>62</ele>
        <time>2021-07-30T14:01:03.000Z</time>
      </trkpt>
      <trkpt lat="48.52285" lon="-2.22997">
        <ele>62</ele>
        <time>2021-07-30T14:01:05.000Z</time>
      </trkpt>
      <trkpt lat="48.52295" lon="-2.22997">
        <ele>62</ele>
        <time>2021-07-30T14:01:07.000Z</time>
      </trkpt>
      <trkpt lat="48.52309" lon="-2.22997">
        <ele>62</ele>
        <time>2021-07-30T14:01:10.000Z</time>
      </trkpt>
      <trkpt lat="48.52319" lon="-2.22996">
        <ele>62</ele>
        <time>2021-07-30T14:01:12.000Z</time>
      </trkpt>
      <trkpt lat="48.52328" lon="-2.22996">
        <ele>62</ele>
        <time>2021-07-30T14:01:14.000Z</time>
      </trkpt>
      <trkpt lat="48.52338" lon="-2.22997">
        <ele>63</ele>
        <time>2021-07-30T14:01:16.000Z</time>
      </trkpt>
      <trkpt lat="48.52353" lon="-2.22995">
        <ele>62</ele>
        <time>2021-07-30T14:01:19.000Z</time>
      </trkpt>
      <trkpt lat="48.52367" lon="-2.22995">
        <ele>62</ele>
        <time>2021-07-30T14:01:22.000Z</time>
      </trkpt>
      <trkpt lat="48.52377" lon="-2.22995">
        <ele>62</ele>
        <time>2021-07-30T14:01:24.000Z</time>
      </trkpt>
      <trkpt lat="48.52387" lon="-2.22996">
        <ele>63</ele>
        <time>2021-07-30T14:01:26.000Z</time>
      </trkpt>
      <trkpt lat="48.52397" lon="-2.22996">
        <ele>64</ele>
        <time>2021-07-30T14:01:28.000Z</time>
      </trkpt>
      <trkpt lat="48.52407" lon="-2.22996">
        <ele>63</ele>
        <time>2021-07-30T14:01:30.000Z</time>
      </trkpt>
      <trkpt lat="48.52416" lon="-2.22997">
        <ele>63</ele>
        <time>2021-07-30T14:01:32.000Z</time>
      </trkpt>
      <trkpt lat="48.52426" lon="-2.22998">
        <ele>63</ele>
        <time>2021-07-30T14:01:34.000Z</time>
      </trkpt>
      <trkpt lat="48.52437" lon="-2.22996">
        <ele>63</ele>
        <time>2021-07-30T14:01:36.000Z</time>
      </trkpt>
      <trkpt lat="48.52448" lon="-2.22991">
        <ele>64</ele>
        <time>2021-07-30T14:01:38.000Z</time>
      </trkpt>
      <trkpt lat="48.52456" lon="-2.22983">
        <ele>63</ele>
        <time>2021-07-30T14:01:40.000Z</time>
      </trkpt>
      <trkpt lat="48.52463" lon="-2.22973">
        <ele>63</ele>
        <time>2021-07-30T14:01:42.000Z</time>
      </trkpt>
      <trkpt lat="48.52471" lon="-2.22963">
        <ele>63</ele>
        <time>2021-07-30T14:01:44.000Z</time>
      </trkpt>
      <trkpt lat="48.52479" lon="-2.22952">
        <ele>63</ele>
        <time>2021-07-30T14:01:46.000Z</time>
      </trkpt>
      <trkpt lat="48.52486" lon="-2.2294">
        <ele>63</ele>
        <time>2021-07-30T14:01:48.000Z</time>
      </trkpt>
      <trkpt lat="48.52492" lon="-2.22929">
        <ele>63</ele>
        <time>2021-07-30T14:01:50.000Z</time>
      </trkpt>
      <trkpt lat="48.52498" lon="-2.22918">
        <ele>62</ele>
        <time>2021-07-30T14:01:52.000Z</time>
      </trkpt>
      <trkpt lat="48.52504" lon="-2.22906">
        <ele>62</ele>
        <time>2021-07-30T14:01:54.000Z</time>
      </trkpt>
      <trkpt lat="48.52516" lon="-2.22896">
        <ele>62</ele>
        <time>2021-07-30T14:01:57.000Z</time>
      </trkpt>
      <trkpt lat="48.52526" lon="-2.22892">
        <ele>63</ele>
        <time>2021-07-30T14:01:59.000Z</time>
      </trkpt>
      <trkpt lat="48.52536" lon="-2.22887">
        <ele>63</ele>
        <time>2021-07-30T14:02:01.000Z</time>
      </trkpt>
      <trkpt lat="48.52547" lon="-2.22882">
        <ele>63</ele>
        <time>2021-07-30T14:02:03.000Z</time>
      </trkpt>
      <trkpt lat="48.52557" lon="-2.22878">
        <ele>63</ele>
        <time>2021-07-30T14:02:05.000Z</time>
      </trkpt>
      <trkpt lat="48.52568" lon="-2.22874">
        <ele>63</ele>
        <time>2021-07-30T14:02:07.000Z</time>
      </trkpt>
      <trkpt lat="48.5258" lon="-2.2287">
        <ele>63</ele>
        <time>2021-07-30T14:02:09.000Z</time>
      </trkpt>
      <trkpt lat="48.52591" lon="-2.22866">
        <ele>63</ele>
        <time>2021-07-30T14:02:11.000Z</time>
      </trkpt>
      <trkpt lat="48.52602" lon="-2.22862">
        <ele>63</ele>
        <time>2021-07-30T14:02:13.000Z</time>
      </trkpt>
      <trkpt lat="48.52612" lon="-2.22859">
        <ele>64</ele>
        <time>2021-07-30T14:02:15.000Z</time>
      </trkpt>
      <trkpt lat="48.52623" lon="-2.22858">
        <ele>64</ele>
        <time>2021-07-30T14:02:18.000Z</time>
      </trkpt>
      <trkpt lat="48.52629" lon="-2.22875">
        <ele>64</ele>
        <time>2021-07-30T14:02:22.000Z</time>
      </trkpt>
      <trkpt lat="48.52635" lon="-2.2289">
        <ele>63</ele>
        <time>2021-07-30T14:02:26.000Z</time>
      </trkpt>
      <trkpt lat="48.52646" lon="-2.22883">
        <ele>62</ele>
        <time>2021-07-30T14:02:29.000Z</time>
      </trkpt>
      <trkpt lat="48.52658" lon="-2.22876">
        <ele>61</ele>
        <time>2021-07-30T14:02:32.000Z</time>
      </trkpt>
      <trkpt lat="48.52668" lon="-2.22871">
        <ele>60</ele>
        <time>2021-07-30T14:02:34.000Z</time>
      </trkpt>
      <trkpt lat="48.52678" lon="-2.22867">
        <ele>60</ele>
        <time>2021-07-30T14:02:36.000Z</time>
      </trkpt>
      <trkpt lat="48.52688" lon="-2.22863">
        <ele>58</ele>
        <time>2021-07-30T14:02:38.000Z</time>
      </trkpt>
      <trkpt lat="48.52698" lon="-2.22858">
        <ele>58</ele>
        <time>2021-07-30T14:02:40.000Z</time>
      </trkpt>
      <trkpt lat="48.52709" lon="-2.22853">
        <ele>58</ele>
        <time>2021-07-30T14:02:42.000Z</time>
      </trkpt>
      <trkpt lat="48.5272" lon="-2.22849">
        <ele>58</ele>
        <time>2021-07-30T14:02:44.000Z</time>
      </trkpt>
      <trkpt lat="48.5273" lon="-2.22845">
        <ele>58</ele>
        <time>2021-07-30T14:02:46.000Z</time>
      </trkpt>
      <trkpt lat="48.52742" lon="-2.22841">
        <ele>58</ele>
        <time>2021-07-30T14:02:48.000Z</time>
      </trkpt>
      <trkpt lat="48.52752" lon="-2.22837">
        <ele>58</ele>
        <time>2021-07-30T14:02:50.000Z</time>
      </trkpt>
      <trkpt lat="48.52764" lon="-2.22833">
        <ele>57</ele>
        <time>2021-07-30T14:02:52.000Z</time>
      </trkpt>
      <trkpt lat="48.52775" lon="-2.2283">
        <ele>57</ele>
        <time>2021-07-30T14:02:54.000Z</time>
      </trkpt>
      <trkpt lat="48.52787" lon="-2.22824">
        <ele>57</ele>
        <time>2021-07-30T14:02:56.000Z</time>
      </trkpt>
      <trkpt lat="48.52799" lon="-2.2282">
        <ele>58</ele>
        <time>2021-07-30T14:02:58.000Z</time>
      </trkpt>
      <trkpt lat="48.5281" lon="-2.22816">
        <ele>60</ele>
        <time>2021-07-30T14:03:00.000Z</time>
      </trkpt>
      <trkpt lat="48.52822" lon="-2.22811">
        <ele>61</ele>
        <time>2021-07-30T14:03:02.000Z</time>
      </trkpt>
      <trkpt lat="48.52832" lon="-2.22808">
        <ele>61</ele>
        <time>2021-07-30T14:03:04.000Z</time>
      </trkpt>
      <trkpt lat="48.52841" lon="-2.22805">
        <ele>60</ele>
        <time>2021-07-30T14:03:06.000Z</time>
      </trkpt>
      <trkpt lat="48.52854" lon="-2.22799">
        <ele>59</ele>
        <time>2021-07-30T14:03:09.000Z</time>
      </trkpt>
      <trkpt lat="48.52863" lon="-2.22796">
        <ele>59</ele>
        <time>2021-07-30T14:03:11.000Z</time>
      </trkpt>
      <trkpt lat="48.52873" lon="-2.22793">
        <ele>59</ele>
        <time>2021-07-30T14:03:14.000Z</time>
      </trkpt>
      <trkpt lat="48.52883" lon="-2.22789">
        <ele>59</ele>
        <time>2021-07-30T14:03:17.000Z</time>
      </trkpt>
      <trkpt lat="48.52896" lon="-2.22784">
        <ele>59</ele>
        <time>2021-07-30T14:03:20.000Z</time>
      </trkpt>
      <trkpt lat="48.52906" lon="-2.22782">
        <ele>58</ele>
        <time>2021-07-30T14:03:22.000Z</time>
      </trkpt>
      <trkpt lat="48.52916" lon="-2.22778">
        <ele>58</ele>
        <time>2021-07-30T14:03:24.000Z</time>
      </trkpt>
      <trkpt lat="48.52927" lon="-2.22773">
        <ele>58</ele>
        <time>2021-07-30T14:03:26.000Z</time>
      </trkpt>
      <trkpt lat="48.52938" lon="-2.22767">
        <ele>59</ele>
        <time>2021-07-30T14:03:28.000Z</time>
      </trkpt>
      <trkpt lat="48.52948" lon="-2.22763">
        <ele>59</ele>
        <time>2021-07-30T14:03:30.000Z</time>
      </trkpt>
      <trkpt lat="48.52958" lon="-2.22759">
        <ele>59</ele>
        <time>2021-07-30T14:03:32.000Z</time>
      </trkpt>
      <trkpt lat="48.52969" lon="-2.22756">
        <ele>58</ele>
        <time>2021-07-30T14:03:34.000Z</time>
      </trkpt>
      <trkpt lat="48.52979" lon="-2.22753">
        <ele>58</ele>
        <time>2021-07-30T14:03:36.000Z</time>
      </trkpt>
      <trkpt lat="48.5299" lon="-2.22748">
        <ele>58</ele>
        <time>2021-07-30T14:03:38.000Z</time>
      </trkpt>
      <trkpt lat="48.52999" lon="-2.22745">
        <ele>57</ele>
        <time>2021-07-30T14:03:40.000Z</time>
      </trkpt>
      <trkpt lat="48.53009" lon="-2.22742">
        <ele>57</ele>
        <time>2021-07-30T14:03:42.000Z</time>
      </trkpt>
      <trkpt lat="48.53019" lon="-2.22739">
        <ele>57</ele>
        <time>2021-07-30T14:03:44.000Z</time>
      </trkpt>
      <trkpt lat="48.5303" lon="-2.22737">
        <ele>57</ele>
        <time>2021-07-30T14:03:46.000Z</time>
      </trkpt>
      <trkpt lat="48.53041" lon="-2.22732">
        <ele>57</ele>
        <time>2021-07-30T14:03:48.000Z</time>
      </trkpt>
      <trkpt lat="48.53051" lon="-2.22728">
        <ele>57</ele>
        <time>2021-07-30T14:03:50.000Z</time>
      </trkpt>
      <trkpt lat="48.53061" lon="-2.22724">
        <ele>57</ele>
        <time>2021-07-30T14:03:52.000Z</time>
      </trkpt>
      <trkpt lat="48.5307" lon="-2.22721">
        <ele>56</ele>
        <time>2021-07-30T14:03:54.000Z</time>
      </trkpt>
      <trkpt lat="48.5308" lon="-2.22717">
        <ele>56</ele>
        <time>2021-07-30T14:03:56.000Z</time>
      </trkpt>
      <trkpt lat="48.5309" lon="-2.22712">
        <ele>56</ele>
        <time>2021-07-30T14:03:58.000Z</time>
      </trkpt>
      <trkpt lat="48.531" lon="-2.22708">
        <ele>57</ele>
        <time>2021-07-30T14:04:00.000Z</time>
      </trkpt>
      <trkpt lat="48.5311" lon="-2.22705">
        <ele>56</ele>
        <time>2021-07-30T14:04:02.000Z</time>
      </trkpt>
      <trkpt lat="48.5312" lon="-2.22701">
        <ele>57</ele>
        <time>2021-07-30T14:04:04.000Z</time>
      </trkpt>
      <trkpt lat="48.53131" lon="-2.22697">
        <ele>57</ele>
        <time>2021-07-30T14:04:06.000Z</time>
      </trkpt>
      <trkpt lat="48.5314" lon="-2.22693">
        <ele>57</ele>
        <time>2021-07-30T14:04:08.000Z</time>
      </trkpt>
      <trkpt lat="48.5315" lon="-2.22689">
        <ele>57</ele>
        <time>2021-07-30T14:04:10.000Z</time>
      </trkpt>
      <trkpt lat="48.53163" lon="-2.22685">
        <ele>57</ele>
        <time>2021-07-30T14:04:13.000Z</time>
      </trkpt>
      <trkpt lat="48.53173" lon="-2.22682">
        <ele>57</ele>
        <time>2021-07-30T14:04:15.000Z</time>
      </trkpt>
      <trkpt lat="48.53184" lon="-2.22678">
        <ele>56</ele>
        <time>2021-07-30T14:04:17.000Z</time>
      </trkpt>
      <trkpt lat="48.53194" lon="-2.22675">
        <ele>57</ele>
        <time>2021-07-30T14:04:19.000Z</time>
      </trkpt>
      <trkpt lat="48.53204" lon="-2.22671">
        <ele>57</ele>
        <time>2021-07-30T14:04:21.000Z</time>
      </trkpt>
      <trkpt lat="48.53215" lon="-2.22667">
        <ele>57</ele>
        <time>2021-07-30T14:04:23.000Z</time>
      </trkpt>
      <trkpt lat="48.53225" lon="-2.22663">
        <ele>57</ele>
        <time>2021-07-30T14:04:25.000Z</time>
      </trkpt>
      <trkpt lat="48.53235" lon="-2.22659">
        <ele>57</ele>
        <time>2021-07-30T14:04:27.000Z</time>
      </trkpt>
      <trkpt lat="48.53245" lon="-2.22655">
        <ele>57</ele>
        <time>2021-07-30T14:04:29.000Z</time>
      </trkpt>
      <trkpt lat="48.53257" lon="-2.22651">
        <ele>57</ele>
        <time>2021-07-30T14:04:31.000Z</time>
      </trkpt>
      <trkpt lat="48.53267" lon="-2.22645">
        <ele>59</ele>
        <time>2021-07-30T14:04:33.000Z</time>
      </trkpt>
      <trkpt lat="48.53277" lon="-2.22642">
        <ele>59</ele>
        <time>2021-07-30T14:04:35.000Z</time>
      </trkpt>
      <trkpt lat="48.53288" lon="-2.22637">
        <ele>58</ele>
        <time>2021-07-30T14:04:37.000Z</time>
      </trkpt>
      <trkpt lat="48.533" lon="-2.22635">
        <ele>58</ele>
        <time>2021-07-30T14:04:39.000Z</time>
      </trkpt>
      <trkpt lat="48.53311" lon="-2.22635">
        <ele>57</ele>
        <time>2021-07-30T14:04:41.000Z</time>
      </trkpt>
      <trkpt lat="48.53322" lon="-2.22639">
        <ele>57</ele>
        <time>2021-07-30T14:04:43.000Z</time>
      </trkpt>
      <trkpt lat="48.53334" lon="-2.22642">
        <ele>57</ele>
        <time>2021-07-30T14:04:45.000Z</time>
      </trkpt>
      <trkpt lat="48.53346" lon="-2.22644">
        <ele>58</ele>
        <time>2021-07-30T14:04:47.000Z</time>
      </trkpt>
      <trkpt lat="48.53357" lon="-2.22647">
        <ele>58</ele>
        <time>2021-07-30T14:04:49.000Z</time>
      </trkpt>
      <trkpt lat="48.53368" lon="-2.2265">
        <ele>58</ele>
        <time>2021-07-30T14:04:51.000Z</time>
      </trkpt>
      <trkpt lat="48.53379" lon="-2.22653">
        <ele>57</ele>
        <time>2021-07-30T14:04:53.000Z</time>
      </trkpt>
      <trkpt lat="48.53391" lon="-2.22656">
        <ele>57</ele>
        <time>2021-07-30T14:04:55.000Z</time>
      </trkpt>
      <trkpt lat="48.53401" lon="-2.22662">
        <ele>57</ele>
        <time>2021-07-30T14:04:57.000Z</time>
      </trkpt>
      <trkpt lat="48.53412" lon="-2.22668">
        <ele>57</ele>
        <time>2021-07-30T14:04:59.000Z</time>
      </trkpt>
      <trkpt lat="48.53421" lon="-2.22676">
        <ele>57</ele>
        <time>2021-07-30T14:05:01.000Z</time>
      </trkpt>
      <trkpt lat="48.53431" lon="-2.22682">
        <ele>57</ele>
        <time>2021-07-30T14:05:03.000Z</time>
      </trkpt>
      <trkpt lat="48.53441" lon="-2.22681">
        <ele>57</ele>
        <time>2021-07-30T14:05:05.000Z</time>
      </trkpt>
      <trkpt lat="48.53452" lon="-2.22678">
        <ele>57</ele>
        <time>2021-07-30T14:05:07.000Z</time>
      </trkpt>
      <trkpt lat="48.53464" lon="-2.22676">
        <ele>58</ele>
        <time>2021-07-30T14:05:09.000Z</time>
      </trkpt>
      <trkpt lat="48.53477" lon="-2.22671">
        <ele>58</ele>
        <time>2021-07-30T14:05:11.000Z</time>
      </trkpt>
      <trkpt lat="48.53488" lon="-2.22665">
        <ele>58</ele>
        <time>2021-07-30T14:05:13.000Z</time>
      </trkpt>
      <trkpt lat="48.53497" lon="-2.2266">
        <ele>58</ele>
        <time>2021-07-30T14:05:15.000Z</time>
      </trkpt>
      <trkpt lat="48.53507" lon="-2.22659">
        <ele>58</ele>
        <time>2021-07-30T14:05:17.000Z</time>
      </trkpt>
      <trkpt lat="48.53518" lon="-2.22659">
        <ele>58</ele>
        <time>2021-07-30T14:05:19.000Z</time>
      </trkpt>
      <trkpt lat="48.53528" lon="-2.22662">
        <ele>59</ele>
        <time>2021-07-30T14:05:21.000Z</time>
      </trkpt>
      <trkpt lat="48.53538" lon="-2.22668">
        <ele>59</ele>
        <time>2021-07-30T14:05:23.000Z</time>
      </trkpt>
      <trkpt lat="48.53547" lon="-2.22678">
        <ele>59</ele>
        <time>2021-07-30T14:05:26.000Z</time>
      </trkpt>
      <trkpt lat="48.53555" lon="-2.22693">
        <ele>57</ele>
        <time>2021-07-30T14:05:29.000Z</time>
      </trkpt>
      <trkpt lat="48.53564" lon="-2.22708">
        <ele>57</ele>
        <time>2021-07-30T14:05:32.000Z</time>
      </trkpt>
      <trkpt lat="48.53574" lon="-2.22721">
        <ele>56</ele>
        <time>2021-07-30T14:05:35.000Z</time>
      </trkpt>
      <trkpt lat="48.53583" lon="-2.2273">
        <ele>56</ele>
        <time>2021-07-30T14:05:37.000Z</time>
      </trkpt>
      <trkpt lat="48.53592" lon="-2.22737">
        <ele>56</ele>
        <time>2021-07-30T14:05:39.000Z</time>
      </trkpt>
      <trkpt lat="48.53602" lon="-2.22741">
        <ele>55</ele>
        <time>2021-07-30T14:05:41.000Z</time>
      </trkpt>
      <trkpt lat="48.53613" lon="-2.22739">
        <ele>56</ele>
        <time>2021-07-30T14:05:43.000Z</time>
      </trkpt>
      <trkpt lat="48.53624" lon="-2.22738">
        <ele>56</ele>
        <time>2021-07-30T14:05:45.000Z</time>
      </trkpt>
      <trkpt lat="48.53634" lon="-2.22738">
        <ele>55</ele>
        <time>2021-07-30T14:05:47.000Z</time>
      </trkpt>
      <trkpt lat="48.53646" lon="-2.22737">
        <ele>56</ele>
        <time>2021-07-30T14:05:49.000Z</time>
      </trkpt>
      <trkpt lat="48.53657" lon="-2.22737">
        <ele>56</ele>
        <time>2021-07-30T14:05:51.000Z</time>
      </trkpt>
      <trkpt lat="48.53669" lon="-2.22739">
        <ele>56</ele>
        <time>2021-07-30T14:05:53.000Z</time>
      </trkpt>
      <trkpt lat="48.5368" lon="-2.22742">
        <ele>58</ele>
        <time>2021-07-30T14:05:55.000Z</time>
      </trkpt>
      <trkpt lat="48.5369" lon="-2.22743">
        <ele>59</ele>
        <time>2021-07-30T14:05:57.000Z</time>
      </trkpt>
      <trkpt lat="48.53698" lon="-2.22751">
        <ele>59</ele>
        <time>2021-07-30T14:05:59.000Z</time>
      </trkpt>
      <trkpt lat="48.53699" lon="-2.22767">
        <ele>59</ele>
        <time>2021-07-30T14:06:01.000Z</time>
      </trkpt>
      <trkpt lat="48.53698" lon="-2.22782">
        <ele>59</ele>
        <time>2021-07-30T14:06:03.000Z</time>
      </trkpt>
      <trkpt lat="48.53698" lon="-2.22797">
        <ele>58</ele>
        <time>2021-07-30T14:06:05.000Z</time>
      </trkpt>
      <trkpt lat="48.53697" lon="-2.22812">
        <ele>59</ele>
        <time>2021-07-30T14:06:07.000Z</time>
      </trkpt>
      <trkpt lat="48.53704" lon="-2.22821">
        <ele>59</ele>
        <time>2021-07-30T14:06:10.000Z</time>
      </trkpt>
      <trkpt lat="48.53709" lon="-2.22809">
        <ele>59</ele>
        <time>2021-07-30T14:06:13.000Z</time>
      </trkpt>
      <trkpt lat="48.53709" lon="-2.22791">
        <ele>59</ele>
        <time>2021-07-30T14:06:16.000Z</time>
      </trkpt>
      <trkpt lat="48.5371" lon="-2.22773">
        <ele>58</ele>
        <time>2021-07-30T14:06:19.000Z</time>
      </trkpt>
      <trkpt lat="48.53716" lon="-2.22759">
        <ele>58</ele>
        <time>2021-07-30T14:06:23.000Z</time>
      </trkpt>
      <trkpt lat="48.53726" lon="-2.22749">
        <ele>58</ele>
        <time>2021-07-30T14:06:26.000Z</time>
      </trkpt>
      <trkpt lat="48.5373" lon="-2.22732">
        <ele>58</ele>
        <time>2021-07-30T14:06:29.000Z</time>
      </trkpt>
      <trkpt lat="48.53742" lon="-2.22724">
        <ele>59</ele>
        <time>2021-07-30T14:06:32.000Z</time>
      </trkpt>
      <trkpt lat="48.53755" lon="-2.22717">
        <ele>59</ele>
        <time>2021-07-30T14:06:35.000Z</time>
      </trkpt>
      <trkpt lat="48.53766" lon="-2.22708">
        <ele>59</ele>
        <time>2021-07-30T14:06:38.000Z</time>
      </trkpt>
      <trkpt lat="48.53777" lon="-2.22699">
        <ele>59</ele>
        <time>2021-07-30T14:06:41.000Z</time>
      </trkpt>
      <trkpt lat="48.53786" lon="-2.22686">
        <ele>59</ele>
        <time>2021-07-30T14:06:44.000Z</time>
      </trkpt>
      <trkpt lat="48.53795" lon="-2.22681">
        <ele>60</ele>
        <time>2021-07-30T14:06:47.000Z</time>
      </trkpt>
      <trkpt lat="48.53802" lon="-2.22672">
        <ele>61</ele>
        <time>2021-07-30T14:06:51.000Z</time>
      </trkpt>
      <trkpt lat="48.53802" lon="-2.22658">
        <ele>61</ele>
        <time>2021-07-30T14:07:41.000Z</time>
      </trkpt>
      <trkpt lat="48.53811" lon="-2.22667">
        <ele>61</ele>
        <time>2021-07-30T14:07:46.000Z</time>
      </trkpt>
      <trkpt lat="48.53815" lon="-2.22682">
        <ele>60</ele>
        <time>2021-07-30T14:07:49.000Z</time>
      </trkpt>
      <trkpt lat="48.53819" lon="-2.22701">
        <ele>60</ele>
        <time>2021-07-30T14:07:52.000Z</time>
      </trkpt>
      <trkpt lat="48.53823" lon="-2.2272">
        <ele>60</ele>
        <time>2021-07-30T14:07:55.000Z</time>
      </trkpt>
      <trkpt lat="48.53827" lon="-2.22739">
        <ele>60</ele>
        <time>2021-07-30T14:07:58.000Z</time>
      </trkpt>
      <trkpt lat="48.53833" lon="-2.22756">
        <ele>60</ele>
        <time>2021-07-30T14:08:01.000Z</time>
      </trkpt>
      <trkpt lat="48.5384" lon="-2.22773">
        <ele>60</ele>
        <time>2021-07-30T14:08:04.000Z</time>
      </trkpt>
      <trkpt lat="48.53851" lon="-2.22782">
        <ele>61</ele>
        <time>2021-07-30T14:08:07.000Z</time>
      </trkpt>
      <trkpt lat="48.53863" lon="-2.22787">
        <ele>62</ele>
        <time>2021-07-30T14:08:10.000Z</time>
      </trkpt>
      <trkpt lat="48.53874" lon="-2.22784">
        <ele>62</ele>
        <time>2021-07-30T14:08:13.000Z</time>
      </trkpt>
      <trkpt lat="48.53885" lon="-2.2278">
        <ele>61</ele>
        <time>2021-07-30T14:08:16.000Z</time>
      </trkpt>
      <trkpt lat="48.53896" lon="-2.22775">
        <ele>61</ele>
        <time>2021-07-30T14:08:19.000Z</time>
      </trkpt>
      <trkpt lat="48.53906" lon="-2.22773">
        <ele>61</ele>
        <time>2021-07-30T14:08:21.000Z</time>
      </trkpt>
      <trkpt lat="48.53915" lon="-2.2277">
        <ele>60</ele>
        <time>2021-07-30T14:08:23.000Z</time>
      </trkpt>
      <trkpt lat="48.53927" lon="-2.22766">
        <ele>60</ele>
        <time>2021-07-30T14:08:25.000Z</time>
      </trkpt>
      <trkpt lat="48.53939" lon="-2.22762">
        <ele>61</ele>
        <time>2021-07-30T14:08:27.000Z</time>
      </trkpt>
      <trkpt lat="48.53951" lon="-2.22758">
        <ele>61</ele>
        <time>2021-07-30T14:08:29.000Z</time>
      </trkpt>
      <trkpt lat="48.53965" lon="-2.22755">
        <ele>61</ele>
        <time>2021-07-30T14:08:31.000Z</time>
      </trkpt>
      <trkpt lat="48.53978" lon="-2.22756">
        <ele>62</ele>
        <time>2021-07-30T14:08:33.000Z</time>
      </trkpt>
      <trkpt lat="48.53988" lon="-2.22753">
        <ele>62</ele>
        <time>2021-07-30T14:08:36.000Z</time>
      </trkpt>
      <trkpt lat="48.53995" lon="-2.22741">
        <ele>62</ele>
        <time>2021-07-30T14:08:38.000Z</time>
      </trkpt>
      <trkpt lat="48.54001" lon="-2.22728">
        <ele>62</ele>
        <time>2021-07-30T14:08:40.000Z</time>
      </trkpt>
      <trkpt lat="48.54005" lon="-2.22716">
        <ele>62</ele>
        <time>2021-07-30T14:08:42.000Z</time>
      </trkpt>
      <trkpt lat="48.5401" lon="-2.22704">
        <ele>62</ele>
        <time>2021-07-30T14:08:44.000Z</time>
      </trkpt>
      <trkpt lat="48.54014" lon="-2.22688">
        <ele>63</ele>
        <time>2021-07-30T14:08:47.000Z</time>
      </trkpt>
      <trkpt lat="48.54017" lon="-2.22673">
        <ele>63</ele>
        <time>2021-07-30T14:08:50.000Z</time>
      </trkpt>
      <trkpt lat="48.5402" lon="-2.22658">
        <ele>64</ele>
        <time>2021-07-30T14:08:54.000Z</time>
      </trkpt>
      <trkpt lat="48.54029" lon="-2.22651">
        <ele>67</ele>
        <time>2021-07-30T14:09:15.000Z</time>
      </trkpt>
      <trkpt lat="48.54038" lon="-2.22647">
        <ele>68</ele>
        <time>2021-07-30T14:09:19.000Z</time>
      </trkpt>
      <trkpt lat="48.54047" lon="-2.22644">
        <ele>69</ele>
        <time>2021-07-30T14:09:23.000Z</time>
      </trkpt>
      <trkpt lat="48.54057" lon="-2.22642">
        <ele>69</ele>
        <time>2021-07-30T14:09:27.000Z</time>
      </trkpt>
      <trkpt lat="48.54067" lon="-2.22636">
        <ele>69</ele>
        <time>2021-07-30T14:09:30.000Z</time>
      </trkpt>
      <trkpt lat="48.54077" lon="-2.22633">
        <ele>69</ele>
        <time>2021-07-30T14:09:33.000Z</time>
      </trkpt>
      <trkpt lat="48.54086" lon="-2.22636">
        <ele>70</ele>
        <time>2021-07-30T14:09:36.000Z</time>
      </trkpt>
      <trkpt lat="48.54098" lon="-2.2264">
        <ele>71</ele>
        <time>2021-07-30T14:09:40.000Z</time>
      </trkpt>
      <trkpt lat="48.54107" lon="-2.22644">
        <ele>71</ele>
        <time>2021-07-30T14:09:43.000Z</time>
      </trkpt>
      <trkpt lat="48.54116" lon="-2.22647">
        <ele>71</ele>
        <time>2021-07-30T14:09:46.000Z</time>
      </trkpt>
      <trkpt lat="48.54126" lon="-2.22652">
        <ele>71</ele>
        <time>2021-07-30T14:09:49.000Z</time>
      </trkpt>
      <trkpt lat="48.54136" lon="-2.22657">
        <ele>71</ele>
        <time>2021-07-30T14:09:52.000Z</time>
      </trkpt>
      <trkpt lat="48.54145" lon="-2.2266">
        <ele>71</ele>
        <time>2021-07-30T14:09:55.000Z</time>
      </trkpt>
      <trkpt lat="48.54154" lon="-2.22664">
        <ele>72</ele>
        <time>2021-07-30T14:09:58.000Z</time>
      </trkpt>
      <trkpt lat="48.54163" lon="-2.22664">
        <ele>73</ele>
        <time>2021-07-30T14:10:01.000Z</time>
      </trkpt>
      <trkpt lat="48.54171" lon="-2.22656">
        <ele>75</ele>
        <time>2021-07-30T14:10:04.000Z</time>
      </trkpt>
      <trkpt lat="48.54172" lon="-2.22639">
        <ele>77</ele>
        <time>2021-07-30T14:10:08.000Z</time>
      </trkpt>
      <trkpt lat="48.54167" lon="-2.22626">
        <ele>78</ele>
        <time>2021-07-30T14:10:11.000Z</time>
      </trkpt>
      <trkpt lat="48.54161" lon="-2.2261">
        <ele>77</ele>
        <time>2021-07-30T14:10:14.000Z</time>
      </trkpt>
      <trkpt lat="48.54159" lon="-2.22594">
        <ele>77</ele>
        <time>2021-07-30T14:10:17.000Z</time>
      </trkpt>
      <trkpt lat="48.54156" lon="-2.2258">
        <ele>76</ele>
        <time>2021-07-30T14:10:20.000Z</time>
      </trkpt>
      <trkpt lat="48.54153" lon="-2.22564">
        <ele>77</ele>
        <time>2021-07-30T14:10:24.000Z</time>
      </trkpt>
      <trkpt lat="48.54162" lon="-2.22554">
        <ele>76</ele>
        <time>2021-07-30T14:10:29.000Z</time>
      </trkpt>
      <trkpt lat="48.54174" lon="-2.22554">
        <ele>76</ele>
        <time>2021-07-30T14:10:33.000Z</time>
      </trkpt>
      <trkpt lat="48.54181" lon="-2.22541">
        <ele>76</ele>
        <time>2021-07-30T14:10:37.000Z</time>
      </trkpt>
      <trkpt lat="48.54188" lon="-2.22528">
        <ele>76</ele>
        <time>2021-07-30T14:10:41.000Z</time>
      </trkpt>
      <trkpt lat="48.54199" lon="-2.22525">
        <ele>76</ele>
        <time>2021-07-30T14:10:45.000Z</time>
      </trkpt>
      <trkpt lat="48.54208" lon="-2.22528">
        <ele>76</ele>
        <time>2021-07-30T14:10:48.000Z</time>
      </trkpt>
      <trkpt lat="48.54219" lon="-2.22532">
        <ele>76</ele>
        <time>2021-07-30T14:10:51.000Z</time>
      </trkpt>
      <trkpt lat="48.54229" lon="-2.22535">
        <ele>76</ele>
        <time>2021-07-30T14:10:54.000Z</time>
      </trkpt>
      <trkpt lat="48.5424" lon="-2.2254">
        <ele>77</ele>
        <time>2021-07-30T14:10:57.000Z</time>
      </trkpt>
      <trkpt lat="48.54252" lon="-2.22546">
        <ele>78</ele>
        <time>2021-07-30T14:11:00.000Z</time>
      </trkpt>
      <trkpt lat="48.54261" lon="-2.22552">
        <ele>78</ele>
        <time>2021-07-30T14:11:02.000Z</time>
      </trkpt>
      <trkpt lat="48.5427" lon="-2.22558">
        <ele>78</ele>
        <time>2021-07-30T14:11:04.000Z</time>
      </trkpt>
      <trkpt lat="48.54279" lon="-2.22563">
        <ele>79</ele>
        <time>2021-07-30T14:11:06.000Z</time>
      </trkpt>
      <trkpt lat="48.5429" lon="-2.22569">
        <ele>80</ele>
        <time>2021-07-30T14:11:09.000Z</time>
      </trkpt>
      <trkpt lat="48.54303" lon="-2.22575">
        <ele>80</ele>
        <time>2021-07-30T14:11:12.000Z</time>
      </trkpt>
      <trkpt lat="48.54312" lon="-2.2258">
        <ele>80</ele>
        <time>2021-07-30T14:11:14.000Z</time>
      </trkpt>
      <trkpt lat="48.54321" lon="-2.22584">
        <ele>81</ele>
        <time>2021-07-30T14:11:16.000Z</time>
      </trkpt>
      <trkpt lat="48.54334" lon="-2.22591">
        <ele>81</ele>
        <time>2021-07-30T14:11:19.000Z</time>
      </trkpt>
      <trkpt lat="48.54347" lon="-2.22597">
        <ele>81</ele>
        <time>2021-07-30T14:11:22.000Z</time>
      </trkpt>
      <trkpt lat="48.54359" lon="-2.22602">
        <ele>81</ele>
        <time>2021-07-30T14:11:25.000Z</time>
      </trkpt>
      <trkpt lat="48.5437" lon="-2.22607">
        <ele>82</ele>
        <time>2021-07-30T14:11:28.000Z</time>
      </trkpt>
      <trkpt lat="48.54381" lon="-2.22613">
        <ele>82</ele>
        <time>2021-07-30T14:11:31.000Z</time>
      </trkpt>
      <trkpt lat="48.54392" lon="-2.22618">
        <ele>82</ele>
        <time>2021-07-30T14:11:34.000Z</time>
      </trkpt>
      <trkpt lat="48.54402" lon="-2.22623">
        <ele>82</ele>
        <time>2021-07-30T14:11:37.000Z</time>
      </trkpt>
      <trkpt lat="48.54412" lon="-2.22628">
        <ele>83</ele>
        <time>2021-07-30T14:11:40.000Z</time>
      </trkpt>
      <trkpt lat="48.54422" lon="-2.2263">
        <ele>84</ele>
        <time>2021-07-30T14:11:45.000Z</time>
      </trkpt>
      <trkpt lat="48.5443" lon="-2.22639">
        <ele>84</ele>
        <time>2021-07-30T14:12:15.000Z</time>
      </trkpt>
      <trkpt lat="48.54441" lon="-2.22644">
        <ele>85</ele>
        <time>2021-07-30T14:12:19.000Z</time>
      </trkpt>
      <trkpt lat="48.5445" lon="-2.22652">
        <ele>86</ele>
        <time>2021-07-30T14:12:23.000Z</time>
      </trkpt>
      <trkpt lat="48.54461" lon="-2.22658">
        <ele>87</ele>
        <time>2021-07-30T14:12:27.000Z</time>
      </trkpt>
      <trkpt lat="48.54471" lon="-2.22662">
        <ele>87</ele>
        <time>2021-07-30T14:12:30.000Z</time>
      </trkpt>
      <trkpt lat="48.54482" lon="-2.22666">
        <ele>88</ele>
        <time>2021-07-30T14:12:33.000Z</time>
      </trkpt>
      <trkpt lat="48.54492" lon="-2.22671">
        <ele>87</ele>
        <time>2021-07-30T14:12:36.000Z</time>
      </trkpt>
      <trkpt lat="48.54501" lon="-2.22676">
        <ele>87</ele>
        <time>2021-07-30T14:12:39.000Z</time>
      </trkpt>
      <trkpt lat="48.5451" lon="-2.22679">
        <ele>88</ele>
        <time>2021-07-30T14:12:42.000Z</time>
      </trkpt>
      <trkpt lat="48.54521" lon="-2.22685">
        <ele>88</ele>
        <time>2021-07-30T14:12:45.000Z</time>
      </trkpt>
      <trkpt lat="48.5453" lon="-2.2269">
        <ele>88</ele>
        <time>2021-07-30T14:12:48.000Z</time>
      </trkpt>
      <trkpt lat="48.54541" lon="-2.22696">
        <ele>89</ele>
        <time>2021-07-30T14:12:51.000Z</time>
      </trkpt>
      <trkpt lat="48.5455" lon="-2.227">
        <ele>90</ele>
        <time>2021-07-30T14:12:54.000Z</time>
      </trkpt>
      <trkpt lat="48.5456" lon="-2.22706">
        <ele>90</ele>
        <time>2021-07-30T14:12:57.000Z</time>
      </trkpt>
      <trkpt lat="48.54569" lon="-2.2271">
        <ele>91</ele>
        <time>2021-07-30T14:13:00.000Z</time>
      </trkpt>
      <trkpt lat="48.5458" lon="-2.22715">
        <ele>92</ele>
        <time>2021-07-30T14:13:03.000Z</time>
      </trkpt>
      <trkpt lat="48.5459" lon="-2.22722">
        <ele>93</ele>
        <time>2021-07-30T14:13:06.000Z</time>
      </trkpt>
      <trkpt lat="48.546" lon="-2.22728">
        <ele>93</ele>
        <time>2021-07-30T14:13:09.000Z</time>
      </trkpt>
      <trkpt lat="48.5461" lon="-2.22734">
        <ele>93</ele>
        <time>2021-07-30T14:13:12.000Z</time>
      </trkpt>
      <trkpt lat="48.5462" lon="-2.2274">
        <ele>93</ele>
        <time>2021-07-30T14:13:15.000Z</time>
      </trkpt>
      <trkpt lat="48.5463" lon="-2.22745">
        <ele>94</ele>
        <time>2021-07-30T14:13:18.000Z</time>
      </trkpt>
      <trkpt lat="48.54639" lon="-2.22752">
        <ele>94</ele>
        <time>2021-07-30T14:13:20.000Z</time>
      </trkpt>
      <trkpt lat="48.54651" lon="-2.22761">
        <ele>93</ele>
        <time>2021-07-30T14:13:23.000Z</time>
      </trkpt>
      <trkpt lat="48.54659" lon="-2.22767">
        <ele>94</ele>
        <time>2021-07-30T14:13:25.000Z</time>
      </trkpt>
      <trkpt lat="48.54669" lon="-2.22772">
        <ele>95</ele>
        <time>2021-07-30T14:13:27.000Z</time>
      </trkpt>
      <trkpt lat="48.54679" lon="-2.22781">
        <ele>96</ele>
        <time>2021-07-30T14:13:29.000Z</time>
      </trkpt>
      <trkpt lat="48.54687" lon="-2.22788">
        <ele>97</ele>
        <time>2021-07-30T14:13:31.000Z</time>
      </trkpt>
      <trkpt lat="48.54696" lon="-2.22796">
        <ele>97</ele>
        <time>2021-07-30T14:13:33.000Z</time>
      </trkpt>
      <trkpt lat="48.54708" lon="-2.22805">
        <ele>97</ele>
        <time>2021-07-30T14:13:36.000Z</time>
      </trkpt>
      <trkpt lat="48.54718" lon="-2.22813">
        <ele>97</ele>
        <time>2021-07-30T14:13:38.000Z</time>
      </trkpt>
      <trkpt lat="48.54727" lon="-2.22821">
        <ele>96</ele>
        <time>2021-07-30T14:13:40.000Z</time>
      </trkpt>
      <trkpt lat="48.54736" lon="-2.22827">
        <ele>96</ele>
        <time>2021-07-30T14:13:42.000Z</time>
      </trkpt>
      <trkpt lat="48.54745" lon="-2.22833">
        <ele>94</ele>
        <time>2021-07-30T14:13:44.000Z</time>
      </trkpt>
      <trkpt lat="48.54756" lon="-2.22842">
        <ele>94</ele>
        <time>2021-07-30T14:13:46.000Z</time>
      </trkpt>
      <trkpt lat="48.54766" lon="-2.22849">
        <ele>93</ele>
        <time>2021-07-30T14:13:48.000Z</time>
      </trkpt>
      <trkpt lat="48.54776" lon="-2.22855">
        <ele>92</ele>
        <time>2021-07-30T14:13:50.000Z</time>
      </trkpt>
      <trkpt lat="48.54786" lon="-2.22862">
        <ele>92</ele>
        <time>2021-07-30T14:13:52.000Z</time>
      </trkpt>
      <trkpt lat="48.54795" lon="-2.22869">
        <ele>92</ele>
        <time>2021-07-30T14:13:54.000Z</time>
      </trkpt>
      <trkpt lat="48.54803" lon="-2.22876">
        <ele>92</ele>
        <time>2021-07-30T14:13:56.000Z</time>
      </trkpt>
      <trkpt lat="48.54812" lon="-2.22883">
        <ele>93</ele>
        <time>2021-07-30T14:13:58.000Z</time>
      </trkpt>
      <trkpt lat="48.5482" lon="-2.2289">
        <ele>95</ele>
        <time>2021-07-30T14:14:00.000Z</time>
      </trkpt>
      <trkpt lat="48.54829" lon="-2.22897">
        <ele>95</ele>
        <time>2021-07-30T14:14:02.000Z</time>
      </trkpt>
      <trkpt lat="48.54842" lon="-2.22905">
        <ele>95</ele>
        <time>2021-07-30T14:14:05.000Z</time>
      </trkpt>
      <trkpt lat="48.54851" lon="-2.22912">
        <ele>95</ele>
        <time>2021-07-30T14:14:07.000Z</time>
      </trkpt>
      <trkpt lat="48.5486" lon="-2.22918">
        <ele>95</ele>
        <time>2021-07-30T14:14:09.000Z</time>
      </trkpt>
      <trkpt lat="48.54869" lon="-2.22925">
        <ele>95</ele>
        <time>2021-07-30T14:14:11.000Z</time>
      </trkpt>
      <trkpt lat="48.54878" lon="-2.22933">
        <ele>96</ele>
        <time>2021-07-30T14:14:13.000Z</time>
      </trkpt>
      <trkpt lat="48.54886" lon="-2.22939">
        <ele>96</ele>
        <time>2021-07-30T14:14:15.000Z</time>
      </trkpt>
      <trkpt lat="48.54894" lon="-2.22947">
        <ele>96</ele>
        <time>2021-07-30T14:14:17.000Z</time>
      </trkpt>
      <trkpt lat="48.54905" lon="-2.22956">
        <ele>96</ele>
        <time>2021-07-30T14:14:20.000Z</time>
      </trkpt>
      <trkpt lat="48.54913" lon="-2.22961">
        <ele>96</ele>
        <time>2021-07-30T14:14:22.000Z</time>
      </trkpt>
      <trkpt lat="48.54924" lon="-2.22968">
        <ele>96</ele>
        <time>2021-07-30T14:14:25.000Z</time>
      </trkpt>
      <trkpt lat="48.54933" lon="-2.22973">
        <ele>95</ele>
        <time>2021-07-30T14:14:27.000Z</time>
      </trkpt>
      <trkpt lat="48.54941" lon="-2.2298">
        <ele>95</ele>
        <time>2021-07-30T14:14:29.000Z</time>
      </trkpt>
      <trkpt lat="48.54949" lon="-2.22987">
        <ele>94</ele>
        <time>2021-07-30T14:14:31.000Z</time>
      </trkpt>
      <trkpt lat="48.54961" lon="-2.22996">
        <ele>94</ele>
        <time>2021-07-30T14:14:34.000Z</time>
      </trkpt>
      <trkpt lat="48.54968" lon="-2.2301">
        <ele>93</ele>
        <time>2021-07-30T14:14:37.000Z</time>
      </trkpt>
      <trkpt lat="48.54973" lon="-2.23027">
        <ele>93</ele>
        <time>2021-07-30T14:14:40.000Z</time>
      </trkpt>
      <trkpt lat="48.54979" lon="-2.23043">
        <ele>94</ele>
        <time>2021-07-30T14:14:43.000Z</time>
      </trkpt>
      <trkpt lat="48.54984" lon="-2.23061">
        <ele>94</ele>
        <time>2021-07-30T14:14:46.000Z</time>
      </trkpt>
      <trkpt lat="48.54989" lon="-2.23077">
        <ele>93</ele>
        <time>2021-07-30T14:14:49.000Z</time>
      </trkpt>
      <trkpt lat="48.54994" lon="-2.23094">
        <ele>94</ele>
        <time>2021-07-30T14:14:52.000Z</time>
      </trkpt>
      <trkpt lat="48.54999" lon="-2.23111">
        <ele>94</ele>
        <time>2021-07-30T14:14:55.000Z</time>
      </trkpt>
      <trkpt lat="48.55002" lon="-2.23128">
        <ele>95</ele>
        <time>2021-07-30T14:14:58.000Z</time>
      </trkpt>
      <trkpt lat="48.55007" lon="-2.23144">
        <ele>95</ele>
        <time>2021-07-30T14:15:01.000Z</time>
      </trkpt>
      <trkpt lat="48.55012" lon="-2.23159">
        <ele>95</ele>
        <time>2021-07-30T14:15:04.000Z</time>
      </trkpt>
      <trkpt lat="48.55024" lon="-2.23161">
        <ele>96</ele>
        <time>2021-07-30T14:15:07.000Z</time>
      </trkpt>
      <trkpt lat="48.5503" lon="-2.23145">
        <ele>96</ele>
        <time>2021-07-30T14:15:10.000Z</time>
      </trkpt>
      <trkpt lat="48.5503" lon="-2.23131">
        <ele>97</ele>
        <time>2021-07-30T14:15:12.000Z</time>
      </trkpt>
      <trkpt lat="48.55031" lon="-2.23115">
        <ele>97</ele>
        <time>2021-07-30T14:15:14.000Z</time>
      </trkpt>
      <trkpt lat="48.55031" lon="-2.23102">
        <ele>98</ele>
        <time>2021-07-30T14:15:16.000Z</time>
      </trkpt>
      <trkpt lat="48.55041" lon="-2.2309">
        <ele>97</ele>
        <time>2021-07-30T14:15:19.000Z</time>
      </trkpt>
      <trkpt lat="48.5505" lon="-2.2309">
        <ele>98</ele>
        <time>2021-07-30T14:15:21.000Z</time>
      </trkpt>
      <trkpt lat="48.55059" lon="-2.23087">
        <ele>97</ele>
        <time>2021-07-30T14:15:23.000Z</time>
      </trkpt>
      <trkpt lat="48.55067" lon="-2.23076">
        <ele>96</ele>
        <time>2021-07-30T14:15:26.000Z</time>
      </trkpt>
      <trkpt lat="48.55067" lon="-2.23061">
        <ele>95</ele>
        <time>2021-07-30T14:15:28.000Z</time>
      </trkpt>
      <trkpt lat="48.55067" lon="-2.23045">
        <ele>95</ele>
        <time>2021-07-30T14:15:30.000Z</time>
      </trkpt>
      <trkpt lat="48.55067" lon="-2.23025">
        <ele>94</ele>
        <time>2021-07-30T14:15:32.000Z</time>
      </trkpt>
      <trkpt lat="48.55067" lon="-2.23005">
        <ele>93</ele>
        <time>2021-07-30T14:15:34.000Z</time>
      </trkpt>
      <trkpt lat="48.55067" lon="-2.22984">
        <ele>92</ele>
        <time>2021-07-30T14:15:36.000Z</time>
      </trkpt>
      <trkpt lat="48.55065" lon="-2.22962">
        <ele>91</ele>
        <time>2021-07-30T14:15:38.000Z</time>
      </trkpt>
      <trkpt lat="48.55063" lon="-2.2294">
        <ele>91</ele>
        <time>2021-07-30T14:15:40.000Z</time>
      </trkpt>
      <trkpt lat="48.55059" lon="-2.22917">
        <ele>91</ele>
        <time>2021-07-30T14:15:42.000Z</time>
      </trkpt>
      <trkpt lat="48.55056" lon="-2.22895">
        <ele>90</ele>
        <time>2021-07-30T14:15:44.000Z</time>
      </trkpt>
      <trkpt lat="48.55055" lon="-2.22873">
        <ele>90</ele>
        <time>2021-07-30T14:15:46.000Z</time>
      </trkpt>
      <trkpt lat="48.55058" lon="-2.22851">
        <ele>90</ele>
        <time>2021-07-30T14:15:48.000Z</time>
      </trkpt>
      <trkpt lat="48.55066" lon="-2.22833">
        <ele>89</ele>
        <time>2021-07-30T14:15:50.000Z</time>
      </trkpt>
      <trkpt lat="48.55074" lon="-2.22814">
        <ele>88</ele>
        <time>2021-07-30T14:15:52.000Z</time>
      </trkpt>
      <trkpt lat="48.55084" lon="-2.22794">
        <ele>87</ele>
        <time>2021-07-30T14:15:54.000Z</time>
      </trkpt>
      <trkpt lat="48.55092" lon="-2.22773">
        <ele>87</ele>
        <time>2021-07-30T14:15:56.000Z</time>
      </trkpt>
      <trkpt lat="48.551" lon="-2.22752">
        <ele>86</ele>
        <time>2021-07-30T14:15:58.000Z</time>
      </trkpt>
      <trkpt lat="48.55107" lon="-2.22727">
        <ele>84</ele>
        <time>2021-07-30T14:16:00.000Z</time>
      </trkpt>
      <trkpt lat="48.55111" lon="-2.22714">
        <ele>84</ele>
        <time>2021-07-30T14:16:01.000Z</time>
      </trkpt>
      <trkpt lat="48.55114" lon="-2.22701">
        <ele>83</ele>
        <time>2021-07-30T14:16:02.000Z</time>
      </trkpt>
      <trkpt lat="48.55118" lon="-2.22688">
        <ele>82</ele>
        <time>2021-07-30T14:16:03.000Z</time>
      </trkpt>
      <trkpt lat="48.55122" lon="-2.22675">
        <ele>81</ele>
        <time>2021-07-30T14:16:04.000Z</time>
      </trkpt>
      <trkpt lat="48.55123" lon="-2.22661">
        <ele>81</ele>
        <time>2021-07-30T14:16:05.000Z</time>
      </trkpt>
      <trkpt lat="48.55124" lon="-2.22647">
        <ele>80</ele>
        <time>2021-07-30T14:16:06.000Z</time>
      </trkpt>
      <trkpt lat="48.55125" lon="-2.22633">
        <ele>79</ele>
        <time>2021-07-30T14:16:07.000Z</time>
      </trkpt>
      <trkpt lat="48.55126" lon="-2.22619">
        <ele>79</ele>
        <time>2021-07-30T14:16:08.000Z</time>
      </trkpt>
      <trkpt lat="48.55126" lon="-2.22604">
        <ele>78</ele>
        <time>2021-07-30T14:16:09.000Z</time>
      </trkpt>
      <trkpt lat="48.55127" lon="-2.22591">
        <ele>78</ele>
        <time>2021-07-30T14:16:10.000Z</time>
      </trkpt>
      <trkpt lat="48.55128" lon="-2.22576">
        <ele>77</ele>
        <time>2021-07-30T14:16:11.000Z</time>
      </trkpt>
      <trkpt lat="48.55129" lon="-2.22562">
        <ele>76</ele>
        <time>2021-07-30T14:16:12.000Z</time>
      </trkpt>
      <trkpt lat="48.55131" lon="-2.22542">
        <ele>75</ele>
        <time>2021-07-30T14:16:14.000Z</time>
      </trkpt>
      <trkpt lat="48.55133" lon="-2.22521">
        <ele>73</ele>
        <time>2021-07-30T14:16:16.000Z</time>
      </trkpt>
      <trkpt lat="48.55136" lon="-2.22496">
        <ele>72</ele>
        <time>2021-07-30T14:16:18.000Z</time>
      </trkpt>
      <trkpt lat="48.5514" lon="-2.22473">
        <ele>71</ele>
        <time>2021-07-30T14:16:20.000Z</time>
      </trkpt>
      <trkpt lat="48.55148" lon="-2.22451">
        <ele>71</ele>
        <time>2021-07-30T14:16:22.000Z</time>
      </trkpt>
      <trkpt lat="48.55155" lon="-2.22432">
        <ele>70</ele>
        <time>2021-07-30T14:16:24.000Z</time>
      </trkpt>
      <trkpt lat="48.55159" lon="-2.22412">
        <ele>69</ele>
        <time>2021-07-30T14:16:26.000Z</time>
      </trkpt>
      <trkpt lat="48.55164" lon="-2.22394">
        <ele>68</ele>
        <time>2021-07-30T14:16:28.000Z</time>
      </trkpt>
      <trkpt lat="48.55172" lon="-2.22381">
        <ele>68</ele>
        <time>2021-07-30T14:16:30.000Z</time>
      </trkpt>
      <trkpt lat="48.55185" lon="-2.22375">
        <ele>67</ele>
        <time>2021-07-30T14:16:32.000Z</time>
      </trkpt>
      <trkpt lat="48.55199" lon="-2.22366">
        <ele>67</ele>
        <time>2021-07-30T14:16:34.000Z</time>
      </trkpt>
      <trkpt lat="48.55215" lon="-2.22356">
        <ele>66</ele>
        <time>2021-07-30T14:16:36.000Z</time>
      </trkpt>
      <trkpt lat="48.55227" lon="-2.22348">
        <ele>66</ele>
        <time>2021-07-30T14:16:38.000Z</time>
      </trkpt>
      <trkpt lat="48.55234" lon="-2.22337">
        <ele>65</ele>
        <time>2021-07-30T14:16:42.000Z</time>
      </trkpt>
      <trkpt lat="48.55235" lon="-2.22322">
        <ele>65</ele>
        <time>2021-07-30T14:16:46.000Z</time>
      </trkpt>
      <trkpt lat="48.55245" lon="-2.22315">
        <ele>63</ele>
        <time>2021-07-30T14:17:13.000Z</time>
      </trkpt>
      <trkpt lat="48.55253" lon="-2.22308">
        <ele>60</ele>
        <time>2021-07-30T14:17:33.000Z</time>
      </trkpt>
      <trkpt lat="48.55258" lon="-2.22296">
        <ele>59</ele>
        <time>2021-07-30T14:17:37.000Z</time>
      </trkpt>
      <trkpt lat="48.55262" lon="-2.22282">
        <ele>57</ele>
        <time>2021-07-30T14:19:46.000Z</time>
      </trkpt>
      <trkpt lat="48.55268" lon="-2.22267">
        <ele>57</ele>
        <time>2021-07-30T14:19:50.000Z</time>
      </trkpt>
      <trkpt lat="48.55277" lon="-2.22263">
        <ele>58</ele>
        <time>2021-07-30T14:20:00.000Z</time>
      </trkpt>
      <trkpt lat="48.5528" lon="-2.22246">
        <ele>60</ele>
        <time>2021-07-30T14:20:08.000Z</time>
      </trkpt>
      <trkpt lat="48.55282" lon="-2.2223">
        <ele>60</ele>
        <time>2021-07-30T14:20:12.000Z</time>
      </trkpt>
      <trkpt lat="48.55287" lon="-2.22214">
        <ele>60</ele>
        <time>2021-07-30T14:20:16.000Z</time>
      </trkpt>
      <trkpt lat="48.5529" lon="-2.222">
        <ele>61</ele>
        <time>2021-07-30T14:20:19.000Z</time>
      </trkpt>
      <trkpt lat="48.55293" lon="-2.22187">
        <ele>61</ele>
        <time>2021-07-30T14:20:22.000Z</time>
      </trkpt>
      <trkpt lat="48.55294" lon="-2.22172">
        <ele>60</ele>
        <time>2021-07-30T14:20:26.000Z</time>
      </trkpt>
      <trkpt lat="48.55301" lon="-2.22161">
        <ele>61</ele>
        <time>2021-07-30T14:20:29.000Z</time>
      </trkpt>
      <trkpt lat="48.55309" lon="-2.22147">
        <ele>58</ele>
        <time>2021-07-30T14:20:32.000Z</time>
      </trkpt>
      <trkpt lat="48.55317" lon="-2.22131">
        <ele>56</ele>
        <time>2021-07-30T14:20:35.000Z</time>
      </trkpt>
      <trkpt lat="48.55323" lon="-2.22114">
        <ele>56</ele>
        <time>2021-07-30T14:20:38.000Z</time>
      </trkpt>
      <trkpt lat="48.55328" lon="-2.22103">
        <ele>56</ele>
        <time>2021-07-30T14:20:40.000Z</time>
      </trkpt>
      <trkpt lat="48.55332" lon="-2.2209">
        <ele>56</ele>
        <time>2021-07-30T14:20:42.000Z</time>
      </trkpt>
      <trkpt lat="48.55337" lon="-2.22078">
        <ele>56</ele>
        <time>2021-07-30T14:20:44.000Z</time>
      </trkpt>
      <trkpt lat="48.55342" lon="-2.22061">
        <ele>55</ele>
        <time>2021-07-30T14:20:47.000Z</time>
      </trkpt>
      <trkpt lat="48.55348" lon="-2.22048">
        <ele>55</ele>
        <time>2021-07-30T14:20:50.000Z</time>
      </trkpt>
      <trkpt lat="48.55355" lon="-2.22038">
        <ele>55</ele>
        <time>2021-07-30T14:20:53.000Z</time>
      </trkpt>
      <trkpt lat="48.55362" lon="-2.22025">
        <ele>56</ele>
        <time>2021-07-30T14:20:56.000Z</time>
      </trkpt>
      <trkpt lat="48.55366" lon="-2.22012">
        <ele>55</ele>
        <time>2021-07-30T14:20:58.000Z</time>
      </trkpt>
      <trkpt lat="48.55369" lon="-2.21998">
        <ele>55</ele>
        <time>2021-07-30T14:21:00.000Z</time>
      </trkpt>
      <trkpt lat="48.55372" lon="-2.21985">
        <ele>55</ele>
        <time>2021-07-30T14:21:02.000Z</time>
      </trkpt>
      <trkpt lat="48.55378" lon="-2.21967">
        <ele>55</ele>
        <time>2021-07-30T14:21:05.000Z</time>
      </trkpt>
      <trkpt lat="48.55377" lon="-2.21947">
        <ele>55</ele>
        <time>2021-07-30T14:21:08.000Z</time>
      </trkpt>
      <trkpt lat="48.55379" lon="-2.21934">
        <ele>55</ele>
        <time>2021-07-30T14:21:10.000Z</time>
      </trkpt>
      <trkpt lat="48.55382" lon="-2.21915">
        <ele>55</ele>
        <time>2021-07-30T14:21:13.000Z</time>
      </trkpt>
      <trkpt lat="48.55385" lon="-2.21896">
        <ele>55</ele>
        <time>2021-07-30T14:21:16.000Z</time>
      </trkpt>
      <trkpt lat="48.55388" lon="-2.21882">
        <ele>54</ele>
        <time>2021-07-30T14:21:18.000Z</time>
      </trkpt>
      <trkpt lat="48.55391" lon="-2.21868">
        <ele>54</ele>
        <time>2021-07-30T14:21:20.000Z</time>
      </trkpt>
      <trkpt lat="48.55392" lon="-2.21854">
        <ele>54</ele>
        <time>2021-07-30T14:21:22.000Z</time>
      </trkpt>
      <trkpt lat="48.55394" lon="-2.21834">
        <ele>54</ele>
        <time>2021-07-30T14:21:25.000Z</time>
      </trkpt>
      <trkpt lat="48.55397" lon="-2.21815">
        <ele>54</ele>
        <time>2021-07-30T14:21:28.000Z</time>
      </trkpt>
      <trkpt lat="48.55401" lon="-2.21796">
        <ele>54</ele>
        <time>2021-07-30T14:21:31.000Z</time>
      </trkpt>
      <trkpt lat="48.55405" lon="-2.21779">
        <ele>54</ele>
        <time>2021-07-30T14:21:34.000Z</time>
      </trkpt>
      <trkpt lat="48.55412" lon="-2.21763">
        <ele>54</ele>
        <time>2021-07-30T14:21:37.000Z</time>
      </trkpt>
      <trkpt lat="48.5542" lon="-2.21747">
        <ele>54</ele>
        <time>2021-07-30T14:21:40.000Z</time>
      </trkpt>
      <trkpt lat="48.55429" lon="-2.21733">
        <ele>54</ele>
        <time>2021-07-30T14:21:43.000Z</time>
      </trkpt>
      <trkpt lat="48.55437" lon="-2.21717">
        <ele>54</ele>
        <time>2021-07-30T14:21:46.000Z</time>
      </trkpt>
      <trkpt lat="48.55444" lon="-2.21707">
        <ele>55</ele>
        <time>2021-07-30T14:21:48.000Z</time>
      </trkpt>
      <trkpt lat="48.55452" lon="-2.21701">
        <ele>55</ele>
        <time>2021-07-30T14:21:50.000Z</time>
      </trkpt>
      <trkpt lat="48.55459" lon="-2.21692">
        <ele>55</ele>
        <time>2021-07-30T14:21:52.000Z</time>
      </trkpt>
      <trkpt lat="48.55468" lon="-2.21689">
        <ele>55</ele>
        <time>2021-07-30T14:21:54.000Z</time>
      </trkpt>
      <trkpt lat="48.5548" lon="-2.21682">
        <ele>55</ele>
        <time>2021-07-30T14:21:57.000Z</time>
      </trkpt>
      <trkpt lat="48.5549" lon="-2.21682">
        <ele>56</ele>
        <time>2021-07-30T14:21:59.000Z</time>
      </trkpt>
      <trkpt lat="48.55502" lon="-2.21687">
        <ele>56</ele>
        <time>2021-07-30T14:22:02.000Z</time>
      </trkpt>
      <trkpt lat="48.55512" lon="-2.21697">
        <ele>55</ele>
        <time>2021-07-30T14:22:05.000Z</time>
      </trkpt>
      <trkpt lat="48.5552" lon="-2.21706">
        <ele>54</ele>
        <time>2021-07-30T14:22:47.000Z</time>
      </trkpt>
      <trkpt lat="48.55527" lon="-2.21716">
        <ele>54</ele>
        <time>2021-07-30T14:22:50.000Z</time>
      </trkpt>
      <trkpt lat="48.55537" lon="-2.21724">
        <ele>53</ele>
        <time>2021-07-30T14:22:53.000Z</time>
      </trkpt>
      <trkpt lat="48.55547" lon="-2.21734">
        <ele>53</ele>
        <time>2021-07-30T14:22:56.000Z</time>
      </trkpt>
      <trkpt lat="48.55556" lon="-2.21746">
        <ele>53</ele>
        <time>2021-07-30T14:22:59.000Z</time>
      </trkpt>
      <trkpt lat="48.55563" lon="-2.21761">
        <ele>53</ele>
        <time>2021-07-30T14:23:02.000Z</time>
      </trkpt>
      <trkpt lat="48.55568" lon="-2.21778">
        <ele>53</ele>
        <time>2021-07-30T14:23:05.000Z</time>
      </trkpt>
      <trkpt lat="48.55574" lon="-2.21793">
        <ele>53</ele>
        <time>2021-07-30T14:23:08.000Z</time>
      </trkpt>
      <trkpt lat="48.55582" lon="-2.21809">
        <ele>53</ele>
        <time>2021-07-30T14:23:11.000Z</time>
      </trkpt>
      <trkpt lat="48.55591" lon="-2.21823">
        <ele>53</ele>
        <time>2021-07-30T14:23:14.000Z</time>
      </trkpt>
      <trkpt lat="48.55597" lon="-2.21833">
        <ele>53</ele>
        <time>2021-07-30T14:23:16.000Z</time>
      </trkpt>
      <trkpt lat="48.55606" lon="-2.21846">
        <ele>53</ele>
        <time>2021-07-30T14:23:19.000Z</time>
      </trkpt>
      <trkpt lat="48.55616" lon="-2.21856">
        <ele>54</ele>
        <time>2021-07-30T14:23:22.000Z</time>
      </trkpt>
      <trkpt lat="48.55626" lon="-2.21864">
        <ele>54</ele>
        <time>2021-07-30T14:23:25.000Z</time>
      </trkpt>
      <trkpt lat="48.55638" lon="-2.21866">
        <ele>55</ele>
        <time>2021-07-30T14:23:28.000Z</time>
      </trkpt>
      <trkpt lat="48.5565" lon="-2.2187">
        <ele>56</ele>
        <time>2021-07-30T14:23:31.000Z</time>
      </trkpt>
      <trkpt lat="48.55661" lon="-2.21878">
        <ele>56</ele>
        <time>2021-07-30T14:23:34.000Z</time>
      </trkpt>
      <trkpt lat="48.55669" lon="-2.21887">
        <ele>57</ele>
        <time>2021-07-30T14:23:38.000Z</time>
      </trkpt>
      <trkpt lat="48.55679" lon="-2.21895">
        <ele>57</ele>
        <time>2021-07-30T14:23:42.000Z</time>
      </trkpt>
      <trkpt lat="48.5569" lon="-2.21897">
        <ele>58</ele>
        <time>2021-07-30T14:23:45.000Z</time>
      </trkpt>
      <trkpt lat="48.55701" lon="-2.21901">
        <ele>58</ele>
        <time>2021-07-30T14:23:48.000Z</time>
      </trkpt>
      <trkpt lat="48.55711" lon="-2.21907">
        <ele>58</ele>
        <time>2021-07-30T14:23:50.000Z</time>
      </trkpt>
      <trkpt lat="48.55723" lon="-2.2191">
        <ele>55</ele>
        <time>2021-07-30T14:23:52.000Z</time>
      </trkpt>
      <trkpt lat="48.55735" lon="-2.21906">
        <ele>53</ele>
        <time>2021-07-30T14:23:54.000Z</time>
      </trkpt>
      <trkpt lat="48.55746" lon="-2.2191">
        <ele>54</ele>
        <time>2021-07-30T14:23:56.000Z</time>
      </trkpt>
      <trkpt lat="48.55757" lon="-2.21918">
        <ele>54</ele>
        <time>2021-07-30T14:23:59.000Z</time>
      </trkpt>
      <trkpt lat="48.55769" lon="-2.21917">
        <ele>54</ele>
        <time>2021-07-30T14:24:02.000Z</time>
      </trkpt>
      <trkpt lat="48.5578" lon="-2.21923">
        <ele>54</ele>
        <time>2021-07-30T14:24:05.000Z</time>
      </trkpt>
      <trkpt lat="48.55788" lon="-2.21936">
        <ele>54</ele>
        <time>2021-07-30T14:24:08.000Z</time>
      </trkpt>
      <trkpt lat="48.558" lon="-2.21942">
        <ele>54</ele>
        <time>2021-07-30T14:24:11.000Z</time>
      </trkpt>
      <trkpt lat="48.55811" lon="-2.21949">
        <ele>54</ele>
        <time>2021-07-30T14:24:14.000Z</time>
      </trkpt>
      <trkpt lat="48.5582" lon="-2.21953">
        <ele>55</ele>
        <time>2021-07-30T14:24:16.000Z</time>
      </trkpt>
      <trkpt lat="48.55832" lon="-2.21959">
        <ele>55</ele>
        <time>2021-07-30T14:24:19.000Z</time>
      </trkpt>
      <trkpt lat="48.55844" lon="-2.21968">
        <ele>55</ele>
        <time>2021-07-30T14:24:22.000Z</time>
      </trkpt>
      <trkpt lat="48.55851" lon="-2.21976">
        <ele>55</ele>
        <time>2021-07-30T14:24:24.000Z</time>
      </trkpt>
      <trkpt lat="48.55862" lon="-2.21984">
        <ele>55</ele>
        <time>2021-07-30T14:24:27.000Z</time>
      </trkpt>
      <trkpt lat="48.55873" lon="-2.21993">
        <ele>55</ele>
        <time>2021-07-30T14:24:30.000Z</time>
      </trkpt>
      <trkpt lat="48.55884" lon="-2.21999">
        <ele>56</ele>
        <time>2021-07-30T14:24:34.000Z</time>
      </trkpt>
      <trkpt lat="48.55893" lon="-2.22009">
        <ele>55</ele>
        <time>2021-07-30T14:24:37.000Z</time>
      </trkpt>
      <trkpt lat="48.55902" lon="-2.22022">
        <ele>55</ele>
        <time>2021-07-30T14:24:40.000Z</time>
      </trkpt>
      <trkpt lat="48.55912" lon="-2.22035">
        <ele>55</ele>
        <time>2021-07-30T14:24:43.000Z</time>
      </trkpt>
      <trkpt lat="48.55921" lon="-2.22047">
        <ele>54</ele>
        <time>2021-07-30T14:24:46.000Z</time>
      </trkpt>
      <trkpt lat="48.55931" lon="-2.22057">
        <ele>54</ele>
        <time>2021-07-30T14:24:49.000Z</time>
      </trkpt>
      <trkpt lat="48.55942" lon="-2.22065">
        <ele>54</ele>
        <time>2021-07-30T14:24:52.000Z</time>
      </trkpt>
      <trkpt lat="48.55953" lon="-2.2207">
        <ele>54</ele>
        <time>2021-07-30T14:24:55.000Z</time>
      </trkpt>
      <trkpt lat="48.55964" lon="-2.22077">
        <ele>55</ele>
        <time>2021-07-30T14:24:58.000Z</time>
      </trkpt>
      <trkpt lat="48.55973" lon="-2.22086">
        <ele>55</ele>
        <time>2021-07-30T14:25:01.000Z</time>
      </trkpt>
      <trkpt lat="48.55981" lon="-2.22096">
        <ele>55</ele>
        <time>2021-07-30T14:25:04.000Z</time>
      </trkpt>
      <trkpt lat="48.55989" lon="-2.22105">
        <ele>54</ele>
        <time>2021-07-30T14:25:42.000Z</time>
      </trkpt>
      <trkpt lat="48.55995" lon="-2.22116">
        <ele>54</ele>
        <time>2021-07-30T14:25:47.000Z</time>
      </trkpt>
      <trkpt lat="48.56" lon="-2.22128">
        <ele>56</ele>
        <time>2021-07-30T14:25:54.000Z</time>
      </trkpt>
      <trkpt lat="48.56008" lon="-2.22135">
        <ele>57</ele>
        <time>2021-07-30T14:26:00.000Z</time>
      </trkpt>
      <trkpt lat="48.56017" lon="-2.22136">
        <ele>61</ele>
        <time>2021-07-30T14:26:37.000Z</time>
      </trkpt>
      <trkpt lat="48.56027" lon="-2.22138">
        <ele>61</ele>
        <time>2021-07-30T14:26:51.000Z</time>
      </trkpt>
      <trkpt lat="48.56035" lon="-2.22145">
        <ele>60</ele>
        <time>2021-07-30T14:26:55.000Z</time>
      </trkpt>
      <trkpt lat="48.56045" lon="-2.22147">
        <ele>60</ele>
        <time>2021-07-30T14:26:59.000Z</time>
      </trkpt>
      <trkpt lat="48.56055" lon="-2.22146">
        <ele>60</ele>
        <time>2021-07-30T14:27:02.000Z</time>
      </trkpt>
      <trkpt lat="48.56065" lon="-2.22144">
        <ele>61</ele>
        <time>2021-07-30T14:27:05.000Z</time>
      </trkpt>
      <trkpt lat="48.56075" lon="-2.22139">
        <ele>60</ele>
        <time>2021-07-30T14:27:07.000Z</time>
      </trkpt>
      <trkpt lat="48.56085" lon="-2.22133">
        <ele>58</ele>
        <time>2021-07-30T14:27:09.000Z</time>
      </trkpt>
      <trkpt lat="48.56096" lon="-2.22126">
        <ele>58</ele>
        <time>2021-07-30T14:27:12.000Z</time>
      </trkpt>
      <trkpt lat="48.56105" lon="-2.22122">
        <ele>59</ele>
        <time>2021-07-30T14:27:15.000Z</time>
      </trkpt>
      <trkpt lat="48.56114" lon="-2.22118">
        <ele>61</ele>
        <time>2021-07-30T14:27:29.000Z</time>
      </trkpt>
      <trkpt lat="48.56123" lon="-2.22118">
        <ele>61</ele>
        <time>2021-07-30T14:27:33.000Z</time>
      </trkpt>
      <trkpt lat="48.56132" lon="-2.22125">
        <ele>60</ele>
        <time>2021-07-30T14:27:39.000Z</time>
      </trkpt>
      <trkpt lat="48.56139" lon="-2.22113">
        <ele>59</ele>
        <time>2021-07-30T14:27:47.000Z</time>
      </trkpt>
      <trkpt lat="48.56147" lon="-2.22102">
        <ele>59</ele>
        <time>2021-07-30T14:27:50.000Z</time>
      </trkpt>
      <trkpt lat="48.56154" lon="-2.22093">
        <ele>59</ele>
        <time>2021-07-30T14:27:53.000Z</time>
      </trkpt>
      <trkpt lat="48.56165" lon="-2.22086">
        <ele>60</ele>
        <time>2021-07-30T14:27:57.000Z</time>
      </trkpt>
      <trkpt lat="48.56176" lon="-2.22077">
        <ele>60</ele>
        <time>2021-07-30T14:28:00.000Z</time>
      </trkpt>
      <trkpt lat="48.56186" lon="-2.22065">
        <ele>58</ele>
        <time>2021-07-30T14:28:03.000Z</time>
      </trkpt>
      <trkpt lat="48.56195" lon="-2.22054">
        <ele>58</ele>
        <time>2021-07-30T14:28:06.000Z</time>
      </trkpt>
      <trkpt lat="48.56204" lon="-2.22047">
        <ele>58</ele>
        <time>2021-07-30T14:28:09.000Z</time>
      </trkpt>
      <trkpt lat="48.56213" lon="-2.22052">
        <ele>58</ele>
        <time>2021-07-30T14:28:12.000Z</time>
      </trkpt>
      <trkpt lat="48.56223" lon="-2.22057">
        <ele>58</ele>
        <time>2021-07-30T14:28:16.000Z</time>
      </trkpt>
      <trkpt lat="48.56229" lon="-2.22067">
        <ele>57</ele>
        <time>2021-07-30T14:28:22.000Z</time>
      </trkpt>
      <trkpt lat="48.56237" lon="-2.22076">
        <ele>57</ele>
        <time>2021-07-30T14:28:56.000Z</time>
      </trkpt>
      <trkpt lat="48.56246" lon="-2.22071">
        <ele>57</ele>
        <time>2021-07-30T14:29:11.000Z</time>
      </trkpt>
      <trkpt lat="48.5625" lon="-2.22057">
        <ele>56</ele>
        <time>2021-07-30T14:29:17.000Z</time>
      </trkpt>
      <trkpt lat="48.5625" lon="-2.22041">
        <ele>55</ele>
        <time>2021-07-30T14:29:24.000Z</time>
      </trkpt>
      <trkpt lat="48.56249" lon="-2.22026">
        <ele>50</ele>
        <time>2021-07-30T14:29:33.000Z</time>
      </trkpt>
      <trkpt lat="48.56244" lon="-2.22013">
        <ele>48</ele>
        <time>2021-07-30T14:29:46.000Z</time>
      </trkpt>
      <trkpt lat="48.56244" lon="-2.21997">
        <ele>50</ele>
        <time>2021-07-30T14:29:55.000Z</time>
      </trkpt>
      <trkpt lat="48.5625" lon="-2.21985">
        <ele>49</ele>
        <time>2021-07-30T14:29:59.000Z</time>
      </trkpt>
      <trkpt lat="48.56255" lon="-2.21973">
        <ele>49</ele>
        <time>2021-07-30T14:30:02.000Z</time>
      </trkpt>
      <trkpt lat="48.56255" lon="-2.21956">
        <ele>49</ele>
        <time>2021-07-30T14:30:05.000Z</time>
      </trkpt>
      <trkpt lat="48.56254" lon="-2.21937">
        <ele>50</ele>
        <time>2021-07-30T14:30:08.000Z</time>
      </trkpt>
      <trkpt lat="48.56262" lon="-2.21927">
        <ele>52</ele>
        <time>2021-07-30T14:30:11.000Z</time>
      </trkpt>
      <trkpt lat="48.56268" lon="-2.21913">
        <ele>52</ele>
        <time>2021-07-30T14:30:14.000Z</time>
      </trkpt>
      <trkpt lat="48.56273" lon="-2.21897">
        <ele>53</ele>
        <time>2021-07-30T14:30:17.000Z</time>
      </trkpt>
      <trkpt lat="48.56278" lon="-2.21883">
        <ele>53</ele>
        <time>2021-07-30T14:30:20.000Z</time>
      </trkpt>
      <trkpt lat="48.56283" lon="-2.21869">
        <ele>53</ele>
        <time>2021-07-30T14:30:23.000Z</time>
      </trkpt>
      <trkpt lat="48.56289" lon="-2.21853">
        <ele>53</ele>
        <time>2021-07-30T14:30:26.000Z</time>
      </trkpt>
      <trkpt lat="48.56294" lon="-2.21838">
        <ele>53</ele>
        <time>2021-07-30T14:30:29.000Z</time>
      </trkpt>
      <trkpt lat="48.56302" lon="-2.21825">
        <ele>54</ele>
        <time>2021-07-30T14:30:32.000Z</time>
      </trkpt>
      <trkpt lat="48.56312" lon="-2.21816">
        <ele>55</ele>
        <time>2021-07-30T14:30:35.000Z</time>
      </trkpt>
      <trkpt lat="48.56316" lon="-2.21801">
        <ele>54</ele>
        <time>2021-07-30T14:30:38.000Z</time>
      </trkpt>
      <trkpt lat="48.56325" lon="-2.21788">
        <ele>55</ele>
        <time>2021-07-30T14:30:41.000Z</time>
      </trkpt>
      <trkpt lat="48.56336" lon="-2.2178">
        <ele>56</ele>
        <time>2021-07-30T14:30:44.000Z</time>
      </trkpt>
      <trkpt lat="48.56344" lon="-2.21772">
        <ele>56</ele>
        <time>2021-07-30T14:30:47.000Z</time>
      </trkpt>
      <trkpt lat="48.56354" lon="-2.21766">
        <ele>56</ele>
        <time>2021-07-30T14:30:51.000Z</time>
      </trkpt>
      <trkpt lat="48.56356" lon="-2.2178">
        <ele>55</ele>
        <time>2021-07-30T14:30:56.000Z</time>
      </trkpt>
      <trkpt lat="48.56358" lon="-2.21795">
        <ele>56</ele>
        <time>2021-07-30T14:31:03.000Z</time>
      </trkpt>
      <trkpt lat="48.56366" lon="-2.21805">
        <ele>56</ele>
        <time>2021-07-30T14:31:10.000Z</time>
      </trkpt>
      <trkpt lat="48.56375" lon="-2.21811">
        <ele>58</ele>
        <time>2021-07-30T14:31:19.000Z</time>
      </trkpt>
      <trkpt lat="48.56383" lon="-2.21821">
        <ele>59</ele>
        <time>2021-07-30T14:31:29.000Z</time>
      </trkpt>
      <trkpt lat="48.56392" lon="-2.21835">
        <ele>60</ele>
        <time>2021-07-30T14:31:35.000Z</time>
      </trkpt>
      <trkpt lat="48.56399" lon="-2.21846">
        <ele>61</ele>
        <time>2021-07-30T14:31:42.000Z</time>
      </trkpt>
      <trkpt lat="48.56404" lon="-2.21859">
        <ele>62</ele>
        <time>2021-07-30T14:31:48.000Z</time>
      </trkpt>
      <trkpt lat="48.5641" lon="-2.21872">
        <ele>65</ele>
        <time>2021-07-30T14:31:54.000Z</time>
      </trkpt>
      <trkpt lat="48.56418" lon="-2.21882">
        <ele>66</ele>
        <time>2021-07-30T14:32:00.000Z</time>
      </trkpt>
      <trkpt lat="48.56428" lon="-2.2189">
        <ele>68</ele>
        <time>2021-07-30T14:32:06.000Z</time>
      </trkpt>
      <trkpt lat="48.56436" lon="-2.21897">
        <ele>69</ele>
        <time>2021-07-30T14:32:12.000Z</time>
      </trkpt>
      <trkpt lat="48.56444" lon="-2.21903">
        <ele>70</ele>
        <time>2021-07-30T14:32:17.000Z</time>
      </trkpt>
      <trkpt lat="48.56452" lon="-2.2191">
        <ele>71</ele>
        <time>2021-07-30T14:32:22.000Z</time>
      </trkpt>
      <trkpt lat="48.5646" lon="-2.21921">
        <ele>74</ele>
        <time>2021-07-30T14:32:28.000Z</time>
      </trkpt>
      <trkpt lat="48.56468" lon="-2.2193">
        <ele>76</ele>
        <time>2021-07-30T14:32:33.000Z</time>
      </trkpt>
      <trkpt lat="48.56473" lon="-2.21941">
        <ele>76</ele>
        <time>2021-07-30T14:32:39.000Z</time>
      </trkpt>
      <trkpt lat="48.56476" lon="-2.21955">
        <ele>75</ele>
        <time>2021-07-30T14:32:45.000Z</time>
      </trkpt>
      <trkpt lat="48.56476" lon="-2.21971">
        <ele>75</ele>
        <time>2021-07-30T14:32:51.000Z</time>
      </trkpt>
      <trkpt lat="48.56478" lon="-2.21986">
        <ele>76</ele>
        <time>2021-07-30T14:32:56.000Z</time>
      </trkpt>
      <trkpt lat="48.56478" lon="-2.22002">
        <ele>75</ele>
        <time>2021-07-30T14:33:01.000Z</time>
      </trkpt>
      <trkpt lat="48.56479" lon="-2.22016">
        <ele>76</ele>
        <time>2021-07-30T14:33:05.000Z</time>
      </trkpt>
      <trkpt lat="48.56479" lon="-2.22032">
        <ele>76</ele>
        <time>2021-07-30T14:33:10.000Z</time>
      </trkpt>
      <trkpt lat="48.5648" lon="-2.22047">
        <ele>77</ele>
        <time>2021-07-30T14:33:15.000Z</time>
      </trkpt>
      <trkpt lat="48.5648" lon="-2.22062">
        <ele>78</ele>
        <time>2021-07-30T14:33:20.000Z</time>
      </trkpt>
      <trkpt lat="48.56479" lon="-2.22078">
        <ele>78</ele>
        <time>2021-07-30T14:33:25.000Z</time>
      </trkpt>
      <trkpt lat="48.56479" lon="-2.22093">
        <ele>78</ele>
        <time>2021-07-30T14:33:30.000Z</time>
      </trkpt>
      <trkpt lat="48.56479" lon="-2.22109">
        <ele>78</ele>
        <time>2021-07-30T14:33:35.000Z</time>
      </trkpt>
      <trkpt lat="48.56479" lon="-2.22123">
        <ele>78</ele>
        <time>2021-07-30T14:33:39.000Z</time>
      </trkpt>
      <trkpt lat="48.56479" lon="-2.2214">
        <ele>79</ele>
        <time>2021-07-30T14:33:43.000Z</time>
      </trkpt>
      <trkpt lat="48.56478" lon="-2.22157">
        <ele>80</ele>
        <time>2021-07-30T14:33:47.000Z</time>
      </trkpt>
      <trkpt lat="48.5648" lon="-2.22172">
        <ele>80</ele>
        <time>2021-07-30T14:33:51.000Z</time>
      </trkpt>
      <trkpt lat="48.5649" lon="-2.22173">
        <ele>82</ele>
        <time>2021-07-30T14:33:55.000Z</time>
      </trkpt>
      <trkpt lat="48.56499" lon="-2.22166">
        <ele>85</ele>
        <time>2021-07-30T14:33:59.000Z</time>
      </trkpt>
      <trkpt lat="48.56509" lon="-2.22161">
        <ele>87</ele>
        <time>2021-07-30T14:34:03.000Z</time>
      </trkpt>
      <trkpt lat="48.56519" lon="-2.22161">
        <ele>88</ele>
        <time>2021-07-30T14:34:29.000Z</time>
      </trkpt>
      <trkpt lat="48.56524" lon="-2.22149">
        <ele>88</ele>
        <time>2021-07-30T14:34:32.000Z</time>
      </trkpt>
      <trkpt lat="48.56533" lon="-2.22137">
        <ele>86</ele>
        <time>2021-07-30T14:34:35.000Z</time>
      </trkpt>
      <trkpt lat="48.56541" lon="-2.22129">
        <ele>87</ele>
        <time>2021-07-30T14:34:37.000Z</time>
      </trkpt>
      <trkpt lat="48.5655" lon="-2.22118">
        <ele>87</ele>
        <time>2021-07-30T14:34:39.000Z</time>
      </trkpt>
      <trkpt lat="48.56561" lon="-2.22107">
        <ele>86</ele>
        <time>2021-07-30T14:34:41.000Z</time>
      </trkpt>
      <trkpt lat="48.56572" lon="-2.22096">
        <ele>85</ele>
        <time>2021-07-30T14:34:43.000Z</time>
      </trkpt>
      <trkpt lat="48.56585" lon="-2.22083">
        <ele>84</ele>
        <time>2021-07-30T14:34:45.000Z</time>
      </trkpt>
      <trkpt lat="48.56598" lon="-2.22069">
        <ele>83</ele>
        <time>2021-07-30T14:34:47.000Z</time>
      </trkpt>
      <trkpt lat="48.56611" lon="-2.22054">
        <ele>83</ele>
        <time>2021-07-30T14:34:49.000Z</time>
      </trkpt>
      <trkpt lat="48.56625" lon="-2.2204">
        <ele>83</ele>
        <time>2021-07-30T14:34:51.000Z</time>
      </trkpt>
      <trkpt lat="48.56638" lon="-2.22026">
        <ele>82</ele>
        <time>2021-07-30T14:34:53.000Z</time>
      </trkpt>
      <trkpt lat="48.56651" lon="-2.2201">
        <ele>82</ele>
        <time>2021-07-30T14:34:55.000Z</time>
      </trkpt>
      <trkpt lat="48.56664" lon="-2.21994">
        <ele>81</ele>
        <time>2021-07-30T14:34:57.000Z</time>
      </trkpt>
      <trkpt lat="48.56677" lon="-2.21978">
        <ele>81</ele>
        <time>2021-07-30T14:34:59.000Z</time>
      </trkpt>
      <trkpt lat="48.56689" lon="-2.21963">
        <ele>81</ele>
        <time>2021-07-30T14:35:01.000Z</time>
      </trkpt>
      <trkpt lat="48.56702" lon="-2.21949">
        <ele>81</ele>
        <time>2021-07-30T14:35:03.000Z</time>
      </trkpt>
      <trkpt lat="48.56717" lon="-2.21939">
        <ele>80</ele>
        <time>2021-07-30T14:35:05.000Z</time>
      </trkpt>
      <trkpt lat="48.56731" lon="-2.21943">
        <ele>80</ele>
        <time>2021-07-30T14:35:07.000Z</time>
      </trkpt>
      <trkpt lat="48.56741" lon="-2.21958">
        <ele>79</ele>
        <time>2021-07-30T14:35:09.000Z</time>
      </trkpt>
      <trkpt lat="48.56745" lon="-2.21978">
        <ele>78</ele>
        <time>2021-07-30T14:35:11.000Z</time>
      </trkpt>
      <trkpt lat="48.56744" lon="-2.21997">
        <ele>78</ele>
        <time>2021-07-30T14:35:13.000Z</time>
      </trkpt>
      <trkpt lat="48.56745" lon="-2.22016">
        <ele>78</ele>
        <time>2021-07-30T14:35:15.000Z</time>
      </trkpt>
      <trkpt lat="48.56745" lon="-2.22033">
        <ele>78</ele>
        <time>2021-07-30T14:35:17.000Z</time>
      </trkpt>
      <trkpt lat="48.56748" lon="-2.22047">
        <ele>78</ele>
        <time>2021-07-30T14:35:39.000Z</time>
      </trkpt>
      <trkpt lat="48.56743" lon="-2.22062">
        <ele>77</ele>
        <time>2021-07-30T14:35:43.000Z</time>
      </trkpt>
      <trkpt lat="48.56738" lon="-2.2208">
        <ele>76</ele>
        <time>2021-07-30T14:35:46.000Z</time>
      </trkpt>
      <trkpt lat="48.56734" lon="-2.22093">
        <ele>76</ele>
        <time>2021-07-30T14:35:48.000Z</time>
      </trkpt>
      <trkpt lat="48.5673" lon="-2.22105">
        <ele>76</ele>
        <time>2021-07-30T14:35:50.000Z</time>
      </trkpt>
      <trkpt lat="48.56725" lon="-2.22123">
        <ele>76</ele>
        <time>2021-07-30T14:35:53.000Z</time>
      </trkpt>
      <trkpt lat="48.56722" lon="-2.22141">
        <ele>77</ele>
        <time>2021-07-30T14:35:56.000Z</time>
      </trkpt>
      <trkpt lat="48.5672" lon="-2.22159">
        <ele>78</ele>
        <time>2021-07-30T14:35:59.000Z</time>
      </trkpt>
      <trkpt lat="48.56719" lon="-2.22178">
        <ele>78</ele>
        <time>2021-07-30T14:36:02.000Z</time>
      </trkpt>
      <trkpt lat="48.56721" lon="-2.22197">
        <ele>78</ele>
        <time>2021-07-30T14:36:05.000Z</time>
      </trkpt>
      <trkpt lat="48.56723" lon="-2.22215">
        <ele>78</ele>
        <time>2021-07-30T14:36:08.000Z</time>
      </trkpt>
      <trkpt lat="48.56722" lon="-2.22233">
        <ele>78</ele>
        <time>2021-07-30T14:36:11.000Z</time>
      </trkpt>
      <trkpt lat="48.56719" lon="-2.22248">
        <ele>78</ele>
        <time>2021-07-30T14:36:14.000Z</time>
      </trkpt>
      <trkpt lat="48.56716" lon="-2.22261">
        <ele>78</ele>
        <time>2021-07-30T14:36:17.000Z</time>
      </trkpt>
      <trkpt lat="48.56712" lon="-2.22275">
        <ele>78</ele>
        <time>2021-07-30T14:36:21.000Z</time>
      </trkpt>
      <trkpt lat="48.56705" lon="-2.22287">
        <ele>78</ele>
        <time>2021-07-30T14:36:25.000Z</time>
      </trkpt>
      <trkpt lat="48.56698" lon="-2.22302">
        <ele>78</ele>
        <time>2021-07-30T14:36:29.000Z</time>
      </trkpt>
      <trkpt lat="48.56689" lon="-2.22312">
        <ele>79</ele>
        <time>2021-07-30T14:36:32.000Z</time>
      </trkpt>
      <trkpt lat="48.56683" lon="-2.22326">
        <ele>78</ele>
        <time>2021-07-30T14:36:36.000Z</time>
      </trkpt>
      <trkpt lat="48.56693" lon="-2.2233">
        <ele>80</ele>
        <time>2021-07-30T14:36:41.000Z</time>
      </trkpt>
      <trkpt lat="48.56703" lon="-2.22328">
        <ele>80</ele>
        <time>2021-07-30T14:36:44.000Z</time>
      </trkpt>
      <trkpt lat="48.56715" lon="-2.22325">
        <ele>80</ele>
        <time>2021-07-30T14:36:48.000Z</time>
      </trkpt>
      <trkpt lat="48.56724" lon="-2.22321">
        <ele>79</ele>
        <time>2021-07-30T14:36:50.000Z</time>
      </trkpt>
      <trkpt lat="48.56736" lon="-2.22309">
        <ele>79</ele>
        <time>2021-07-30T14:36:53.000Z</time>
      </trkpt>
      <trkpt lat="48.56748" lon="-2.22296">
        <ele>79</ele>
        <time>2021-07-30T14:36:55.000Z</time>
      </trkpt>
      <trkpt lat="48.5676" lon="-2.22283">
        <ele>79</ele>
        <time>2021-07-30T14:36:57.000Z</time>
      </trkpt>
      <trkpt lat="48.56772" lon="-2.2227">
        <ele>79</ele>
        <time>2021-07-30T14:36:59.000Z</time>
      </trkpt>
      <trkpt lat="48.56785" lon="-2.22259">
        <ele>79</ele>
        <time>2021-07-30T14:37:01.000Z</time>
      </trkpt>
      <trkpt lat="48.56798" lon="-2.22249">
        <ele>79</ele>
        <time>2021-07-30T14:37:03.000Z</time>
      </trkpt>
      <trkpt lat="48.5681" lon="-2.22243">
        <ele>78</ele>
        <time>2021-07-30T14:37:05.000Z</time>
      </trkpt>
      <trkpt lat="48.5682" lon="-2.22235">
        <ele>77</ele>
        <time>2021-07-30T14:37:07.000Z</time>
      </trkpt>
      <trkpt lat="48.56831" lon="-2.22224">
        <ele>76</ele>
        <time>2021-07-30T14:37:09.000Z</time>
      </trkpt>
      <trkpt lat="48.56844" lon="-2.22212">
        <ele>76</ele>
        <time>2021-07-30T14:37:11.000Z</time>
      </trkpt>
      <trkpt lat="48.56856" lon="-2.22205">
        <ele>76</ele>
        <time>2021-07-30T14:37:13.000Z</time>
      </trkpt>
      <trkpt lat="48.5687" lon="-2.222">
        <ele>76</ele>
        <time>2021-07-30T14:37:15.000Z</time>
      </trkpt>
      <trkpt lat="48.5688" lon="-2.22196">
        <ele>78</ele>
        <time>2021-07-30T14:37:16.000Z</time>
      </trkpt>
      <trkpt lat="48.56889" lon="-2.22195">
        <ele>79</ele>
        <time>2021-07-30T14:37:17.000Z</time>
      </trkpt>
      <trkpt lat="48.56904" lon="-2.22199">
        <ele>80</ele>
        <time>2021-07-30T14:37:19.000Z</time>
      </trkpt>
      <trkpt lat="48.56916" lon="-2.22205">
        <ele>80</ele>
        <time>2021-07-30T14:37:21.000Z</time>
      </trkpt>
      <trkpt lat="48.56927" lon="-2.22217">
        <ele>80</ele>
        <time>2021-07-30T14:37:23.000Z</time>
      </trkpt>
      <trkpt lat="48.56937" lon="-2.2223">
        <ele>81</ele>
        <time>2021-07-30T14:37:25.000Z</time>
      </trkpt>
      <trkpt lat="48.56947" lon="-2.22241">
        <ele>81</ele>
        <time>2021-07-30T14:37:28.000Z</time>
      </trkpt>
      <trkpt lat="48.56956" lon="-2.22252">
        <ele>81</ele>
        <time>2021-07-30T14:37:31.000Z</time>
      </trkpt>
      <trkpt lat="48.56965" lon="-2.22263">
        <ele>81</ele>
        <time>2021-07-30T14:37:34.000Z</time>
      </trkpt>
      <trkpt lat="48.56975" lon="-2.22275">
        <ele>81</ele>
        <time>2021-07-30T14:37:37.000Z</time>
      </trkpt>
      <trkpt lat="48.56983" lon="-2.22285">
        <ele>81</ele>
        <time>2021-07-30T14:37:40.000Z</time>
      </trkpt>
      <trkpt lat="48.56995" lon="-2.22294">
        <ele>80</ele>
        <time>2021-07-30T14:37:43.000Z</time>
      </trkpt>
      <trkpt lat="48.57006" lon="-2.22302">
        <ele>81</ele>
        <time>2021-07-30T14:37:46.000Z</time>
      </trkpt>
      <trkpt lat="48.5701" lon="-2.22314">
        <ele>81</ele>
        <time>2021-07-30T14:37:49.000Z</time>
      </trkpt>
      <trkpt lat="48.57013" lon="-2.22331">
        <ele>82</ele>
        <time>2021-07-30T14:37:54.000Z</time>
      </trkpt>
      <trkpt lat="48.57012" lon="-2.22347">
        <ele>82</ele>
        <time>2021-07-30T14:37:58.000Z</time>
      </trkpt>
      <trkpt lat="48.57009" lon="-2.22363">
        <ele>81</ele>
        <time>2021-07-30T14:38:02.000Z</time>
      </trkpt>
      <trkpt lat="48.57" lon="-2.22373">
        <ele>80</ele>
        <time>2021-07-30T14:38:06.000Z</time>
      </trkpt>
      <trkpt lat="48.56991" lon="-2.22382">
        <ele>80</ele>
        <time>2021-07-30T14:38:10.000Z</time>
      </trkpt>
      <trkpt lat="48.56982" lon="-2.2239">
        <ele>80</ele>
        <time>2021-07-30T14:38:14.000Z</time>
      </trkpt>
      <trkpt lat="48.56975" lon="-2.22399">
        <ele>80</ele>
        <time>2021-07-30T14:38:17.000Z</time>
      </trkpt>
      <trkpt lat="48.56968" lon="-2.22409">
        <ele>80</ele>
        <time>2021-07-30T14:38:20.000Z</time>
      </trkpt>
      <trkpt lat="48.56962" lon="-2.22423">
        <ele>81</ele>
        <time>2021-07-30T14:38:24.000Z</time>
      </trkpt>
      <trkpt lat="48.56957" lon="-2.22438">
        <ele>81</ele>
        <time>2021-07-30T14:38:28.000Z</time>
      </trkpt>
      <trkpt lat="48.56953" lon="-2.22453">
        <ele>80</ele>
        <time>2021-07-30T14:38:32.000Z</time>
      </trkpt>
      <trkpt lat="48.56949" lon="-2.22467">
        <ele>82</ele>
        <time>2021-07-30T14:38:36.000Z</time>
      </trkpt>
      <trkpt lat="48.56945" lon="-2.22482">
        <ele>82</ele>
        <time>2021-07-30T14:38:40.000Z</time>
      </trkpt>
      <trkpt lat="48.56941" lon="-2.22496">
        <ele>82</ele>
        <time>2021-07-30T14:38:44.000Z</time>
      </trkpt>
      <trkpt lat="48.56938" lon="-2.22512">
        <ele>83</ele>
        <time>2021-07-30T14:38:48.000Z</time>
      </trkpt>
      <trkpt lat="48.56936" lon="-2.22529">
        <ele>84</ele>
        <time>2021-07-30T14:38:52.000Z</time>
      </trkpt>
      <trkpt lat="48.56934" lon="-2.22545">
        <ele>84</ele>
        <time>2021-07-30T14:38:56.000Z</time>
      </trkpt>
      <trkpt lat="48.56935" lon="-2.22559">
        <ele>85</ele>
        <time>2021-07-30T14:38:59.000Z</time>
      </trkpt>
      <trkpt lat="48.56935" lon="-2.22575">
        <ele>85</ele>
        <time>2021-07-30T14:39:03.000Z</time>
      </trkpt>
      <trkpt lat="48.56937" lon="-2.22592">
        <ele>85</ele>
        <time>2021-07-30T14:39:07.000Z</time>
      </trkpt>
      <trkpt lat="48.56939" lon="-2.22607">
        <ele>85</ele>
        <time>2021-07-30T14:39:10.000Z</time>
      </trkpt>
      <trkpt lat="48.56939" lon="-2.22621">
        <ele>84</ele>
        <time>2021-07-30T14:39:13.000Z</time>
      </trkpt>
      <trkpt lat="48.56935" lon="-2.22633">
        <ele>83</ele>
        <time>2021-07-30T14:39:17.000Z</time>
      </trkpt>
      <trkpt lat="48.56931" lon="-2.22648">
        <ele>83</ele>
        <time>2021-07-30T14:39:21.000Z</time>
      </trkpt>
      <trkpt lat="48.56927" lon="-2.22661">
        <ele>83</ele>
        <time>2021-07-30T14:39:24.000Z</time>
      </trkpt>
      <trkpt lat="48.56923" lon="-2.22676">
        <ele>84</ele>
        <time>2021-07-30T14:39:28.000Z</time>
      </trkpt>
      <trkpt lat="48.5693" lon="-2.22687">
        <ele>85</ele>
        <time>2021-07-30T14:39:33.000Z</time>
      </trkpt>
      <trkpt lat="48.56937" lon="-2.22695">
        <ele>85</ele>
        <time>2021-07-30T14:39:41.000Z</time>
      </trkpt>
      <trkpt lat="48.56944" lon="-2.22706">
        <ele>84</ele>
        <time>2021-07-30T14:40:02.000Z</time>
      </trkpt>
      <trkpt lat="48.56948" lon="-2.2272">
        <ele>84</ele>
        <time>2021-07-30T14:40:05.000Z</time>
      </trkpt>
      <trkpt lat="48.5695" lon="-2.22738">
        <ele>84</ele>
        <time>2021-07-30T14:40:08.000Z</time>
      </trkpt>
      <trkpt lat="48.56951" lon="-2.22751">
        <ele>84</ele>
        <time>2021-07-30T14:40:10.000Z</time>
      </trkpt>
      <trkpt lat="48.56951" lon="-2.22769">
        <ele>83</ele>
        <time>2021-07-30T14:40:13.000Z</time>
      </trkpt>
      <trkpt lat="48.56949" lon="-2.22787">
        <ele>84</ele>
        <time>2021-07-30T14:40:16.000Z</time>
      </trkpt>
      <trkpt lat="48.56957" lon="-2.2278">
        <ele>84</ele>
        <time>2021-07-30T14:40:36.000Z</time>
      </trkpt>
      <trkpt lat="48.56967" lon="-2.22775">
        <ele>83</ele>
        <time>2021-07-30T14:40:40.000Z</time>
      </trkpt>
      <trkpt lat="48.56977" lon="-2.22768">
        <ele>82</ele>
        <time>2021-07-30T14:40:43.000Z</time>
      </trkpt>
      <trkpt lat="48.56987" lon="-2.22771">
        <ele>82</ele>
        <time>2021-07-30T14:40:45.000Z</time>
      </trkpt>
      <trkpt lat="48.56997" lon="-2.22782">
        <ele>82</ele>
        <time>2021-07-30T14:40:47.000Z</time>
      </trkpt>
      <trkpt lat="48.57006" lon="-2.22794">
        <ele>82</ele>
        <time>2021-07-30T14:40:49.000Z</time>
      </trkpt>
      <trkpt lat="48.57014" lon="-2.22801">
        <ele>80</ele>
        <time>2021-07-30T14:40:52.000Z</time>
      </trkpt>
      <trkpt lat="48.57014" lon="-2.22783">
        <ele>80</ele>
        <time>2021-07-30T14:40:55.000Z</time>
      </trkpt>
      <trkpt lat="48.57011" lon="-2.22769">
        <ele>80</ele>
        <time>2021-07-30T14:40:57.000Z</time>
      </trkpt>
      <trkpt lat="48.57006" lon="-2.22751">
        <ele>79</ele>
        <time>2021-07-30T14:40:59.000Z</time>
      </trkpt>
      <trkpt lat="48.57004" lon="-2.22732">
        <ele>78</ele>
        <time>2021-07-30T14:41:01.000Z</time>
      </trkpt>
      <trkpt lat="48.57004" lon="-2.22714">
        <ele>76</ele>
        <time>2021-07-30T14:41:03.000Z</time>
      </trkpt>
      <trkpt lat="48.57008" lon="-2.22698">
        <ele>75</ele>
        <time>2021-07-30T14:41:05.000Z</time>
      </trkpt>
      <trkpt lat="48.5701" lon="-2.22684">
        <ele>74</ele>
        <time>2021-07-30T14:41:07.000Z</time>
      </trkpt>
      <trkpt lat="48.57013" lon="-2.2267">
        <ele>71</ele>
        <time>2021-07-30T14:41:12.000Z</time>
      </trkpt>
      <trkpt lat="48.57012" lon="-2.22655">
        <ele>68</ele>
        <time>2021-07-30T14:41:18.000Z</time>
      </trkpt>
      <trkpt lat="48.57009" lon="-2.22639">
        <ele>66</ele>
        <time>2021-07-30T14:41:20.000Z</time>
      </trkpt>
      <trkpt lat="48.57011" lon="-2.22622">
        <ele>63</ele>
        <time>2021-07-30T14:41:22.000Z</time>
      </trkpt>
      <trkpt lat="48.5702" lon="-2.22608">
        <ele>61</ele>
        <time>2021-07-30T14:41:24.000Z</time>
      </trkpt>
      <trkpt lat="48.57031" lon="-2.22601">
        <ele>60</ele>
        <time>2021-07-30T14:41:26.000Z</time>
      </trkpt>
      <trkpt lat="48.57042" lon="-2.22597">
        <ele>60</ele>
        <time>2021-07-30T14:41:28.000Z</time>
      </trkpt>
      <trkpt lat="48.57053" lon="-2.22596">
        <ele>56</ele>
        <time>2021-07-30T14:42:01.000Z</time>
      </trkpt>
      <trkpt lat="48.57064" lon="-2.22594">
        <ele>55</ele>
        <time>2021-07-30T14:42:05.000Z</time>
      </trkpt>
      <trkpt lat="48.57072" lon="-2.22589">
        <ele>55</ele>
        <time>2021-07-30T14:42:08.000Z</time>
      </trkpt>
      <trkpt lat="48.57077" lon="-2.22577">
        <ele>54</ele>
        <time>2021-07-30T14:42:12.000Z</time>
      </trkpt>
      <trkpt lat="48.57074" lon="-2.22563">
        <ele>53</ele>
        <time>2021-07-30T14:42:17.000Z</time>
      </trkpt>
      <trkpt lat="48.5707" lon="-2.22551">
        <ele>52</ele>
        <time>2021-07-30T14:42:21.000Z</time>
      </trkpt>
      <trkpt lat="48.57071" lon="-2.22536">
        <ele>53</ele>
        <time>2021-07-30T14:42:26.000Z</time>
      </trkpt>
      <trkpt lat="48.57075" lon="-2.22521">
        <ele>53</ele>
        <time>2021-07-30T14:42:32.000Z</time>
      </trkpt>
      <trkpt lat="48.57083" lon="-2.22509">
        <ele>54</ele>
        <time>2021-07-30T14:42:37.000Z</time>
      </trkpt>
      <trkpt lat="48.57092" lon="-2.22503">
        <ele>55</ele>
        <time>2021-07-30T14:42:42.000Z</time>
      </trkpt>
      <trkpt lat="48.571" lon="-2.22497">
        <ele>56</ele>
        <time>2021-07-30T14:42:48.000Z</time>
      </trkpt>
      <trkpt lat="48.57109" lon="-2.22489">
        <ele>57</ele>
        <time>2021-07-30T14:42:54.000Z</time>
      </trkpt>
      <trkpt lat="48.57117" lon="-2.22484">
        <ele>58</ele>
        <time>2021-07-30T14:43:01.000Z</time>
      </trkpt>
      <trkpt lat="48.57128" lon="-2.22475">
        <ele>61</ele>
        <time>2021-07-30T14:43:12.000Z</time>
      </trkpt>
      <trkpt lat="48.57137" lon="-2.2247">
        <ele>63</ele>
        <time>2021-07-30T14:43:19.000Z</time>
      </trkpt>
      <trkpt lat="48.57146" lon="-2.22466">
        <ele>65</ele>
        <time>2021-07-30T14:43:27.000Z</time>
      </trkpt>
      <trkpt lat="48.57154" lon="-2.2246">
        <ele>67</ele>
        <time>2021-07-30T14:43:37.000Z</time>
      </trkpt>
      <trkpt lat="48.57165" lon="-2.22451">
        <ele>73</ele>
        <time>2021-07-30T14:43:48.000Z</time>
      </trkpt>
      <trkpt lat="48.57174" lon="-2.22448">
        <ele>74</ele>
        <time>2021-07-30T14:43:56.000Z</time>
      </trkpt>
      <trkpt lat="48.57185" lon="-2.22447">
        <ele>77</ele>
        <time>2021-07-30T14:44:06.000Z</time>
      </trkpt>
      <trkpt lat="48.57195" lon="-2.22455">
        <ele>78</ele>
        <time>2021-07-30T14:44:15.000Z</time>
      </trkpt>
      <trkpt lat="48.57203" lon="-2.22448">
        <ele>79</ele>
        <time>2021-07-30T14:44:19.000Z</time>
      </trkpt>
      <trkpt lat="48.5721" lon="-2.22435">
        <ele>80</ele>
        <time>2021-07-30T14:44:23.000Z</time>
      </trkpt>
      <trkpt lat="48.57216" lon="-2.22425">
        <ele>80</ele>
        <time>2021-07-30T14:44:26.000Z</time>
      </trkpt>
      <trkpt lat="48.57224" lon="-2.22415">
        <ele>81</ele>
        <time>2021-07-30T14:44:29.000Z</time>
      </trkpt>
      <trkpt lat="48.57231" lon="-2.22402">
        <ele>80</ele>
        <time>2021-07-30T14:44:32.000Z</time>
      </trkpt>
      <trkpt lat="48.57238" lon="-2.22387">
        <ele>80</ele>
        <time>2021-07-30T14:44:35.000Z</time>
      </trkpt>
      <trkpt lat="48.57242" lon="-2.22374">
        <ele>80</ele>
        <time>2021-07-30T14:44:37.000Z</time>
      </trkpt>
      <trkpt lat="48.57246" lon="-2.22354">
        <ele>79</ele>
        <time>2021-07-30T14:44:40.000Z</time>
      </trkpt>
      <trkpt lat="48.57248" lon="-2.2234">
        <ele>81</ele>
        <time>2021-07-30T14:44:42.000Z</time>
      </trkpt>
      <trkpt lat="48.57251" lon="-2.22326">
        <ele>80</ele>
        <time>2021-07-30T14:44:44.000Z</time>
      </trkpt>
      <trkpt lat="48.57253" lon="-2.22311">
        <ele>80</ele>
        <time>2021-07-30T14:44:46.000Z</time>
      </trkpt>
      <trkpt lat="48.57252" lon="-2.22294">
        <ele>78</ele>
        <time>2021-07-30T14:44:48.000Z</time>
      </trkpt>
      <trkpt lat="48.57249" lon="-2.22277">
        <ele>77</ele>
        <time>2021-07-30T14:44:50.000Z</time>
      </trkpt>
      <trkpt lat="48.57244" lon="-2.22261">
        <ele>76</ele>
        <time>2021-07-30T14:44:52.000Z</time>
      </trkpt>
      <trkpt lat="48.57241" lon="-2.22245">
        <ele>76</ele>
        <time>2021-07-30T14:44:54.000Z</time>
      </trkpt>
      <trkpt lat="48.57238" lon="-2.22227">
        <ele>75</ele>
        <time>2021-07-30T14:44:56.000Z</time>
      </trkpt>
      <trkpt lat="48.57235" lon="-2.22209">
        <ele>74</ele>
        <time>2021-07-30T14:44:58.000Z</time>
      </trkpt>
      <trkpt lat="48.57231" lon="-2.22192">
        <ele>75</ele>
        <time>2021-07-30T14:45:00.000Z</time>
      </trkpt>
      <trkpt lat="48.57227" lon="-2.22174">
        <ele>75</ele>
        <time>2021-07-30T14:45:02.000Z</time>
      </trkpt>
      <trkpt lat="48.57223" lon="-2.22156">
        <ele>74</ele>
        <time>2021-07-30T14:45:04.000Z</time>
      </trkpt>
      <trkpt lat="48.57221" lon="-2.22136">
        <ele>74</ele>
        <time>2021-07-30T14:45:06.000Z</time>
      </trkpt>
      <trkpt lat="48.57221" lon="-2.22115">
        <ele>74</ele>
        <time>2021-07-30T14:45:08.000Z</time>
      </trkpt>
      <trkpt lat="48.57221" lon="-2.22095">
        <ele>73</ele>
        <time>2021-07-30T14:45:10.000Z</time>
      </trkpt>
      <trkpt lat="48.57222" lon="-2.22077">
        <ele>72</ele>
        <time>2021-07-30T14:45:12.000Z</time>
      </trkpt>
      <trkpt lat="48.57223" lon="-2.22062">
        <ele>73</ele>
        <time>2021-07-30T14:45:14.000Z</time>
      </trkpt>
      <trkpt lat="48.57226" lon="-2.22043">
        <ele>72</ele>
        <time>2021-07-30T14:45:17.000Z</time>
      </trkpt>
      <trkpt lat="48.57231" lon="-2.2203">
        <ele>72</ele>
        <time>2021-07-30T14:45:19.000Z</time>
      </trkpt>
      <trkpt lat="48.57237" lon="-2.22011">
        <ele>73</ele>
        <time>2021-07-30T14:45:22.000Z</time>
      </trkpt>
      <trkpt lat="48.57243" lon="-2.21998">
        <ele>73</ele>
        <time>2021-07-30T14:45:24.000Z</time>
      </trkpt>
      <trkpt lat="48.5725" lon="-2.21984">
        <ele>73</ele>
        <time>2021-07-30T14:45:26.000Z</time>
      </trkpt>
      <trkpt lat="48.57257" lon="-2.21971">
        <ele>73</ele>
        <time>2021-07-30T14:45:28.000Z</time>
      </trkpt>
      <trkpt lat="48.57265" lon="-2.21958">
        <ele>74</ele>
        <time>2021-07-30T14:45:30.000Z</time>
      </trkpt>
      <trkpt lat="48.57274" lon="-2.21947">
        <ele>73</ele>
        <time>2021-07-30T14:45:32.000Z</time>
      </trkpt>
      <trkpt lat="48.57284" lon="-2.21938">
        <ele>73</ele>
        <time>2021-07-30T14:45:34.000Z</time>
      </trkpt>
      <trkpt lat="48.57293" lon="-2.21929">
        <ele>73</ele>
        <time>2021-07-30T14:45:36.000Z</time>
      </trkpt>
      <trkpt lat="48.57302" lon="-2.21917">
        <ele>72</ele>
        <time>2021-07-30T14:45:38.000Z</time>
      </trkpt>
      <trkpt lat="48.57311" lon="-2.21906">
        <ele>71</ele>
        <time>2021-07-30T14:45:40.000Z</time>
      </trkpt>
      <trkpt lat="48.57321" lon="-2.21897">
        <ele>70</ele>
        <time>2021-07-30T14:45:42.000Z</time>
      </trkpt>
      <trkpt lat="48.5733" lon="-2.21886">
        <ele>70</ele>
        <time>2021-07-30T14:45:44.000Z</time>
      </trkpt>
      <trkpt lat="48.57341" lon="-2.21872">
        <ele>69</ele>
        <time>2021-07-30T14:45:46.000Z</time>
      </trkpt>
      <trkpt lat="48.5735" lon="-2.21859">
        <ele>69</ele>
        <time>2021-07-30T14:45:48.000Z</time>
      </trkpt>
      <trkpt lat="48.5736" lon="-2.21845">
        <ele>68</ele>
        <time>2021-07-30T14:45:50.000Z</time>
      </trkpt>
      <trkpt lat="48.57368" lon="-2.21831">
        <ele>67</ele>
        <time>2021-07-30T14:45:52.000Z</time>
      </trkpt>
      <trkpt lat="48.57376" lon="-2.21815">
        <ele>67</ele>
        <time>2021-07-30T14:45:54.000Z</time>
      </trkpt>
      <trkpt lat="48.57382" lon="-2.21798">
        <ele>66</ele>
        <time>2021-07-30T14:45:56.000Z</time>
      </trkpt>
      <trkpt lat="48.57389" lon="-2.21779">
        <ele>65</ele>
        <time>2021-07-30T14:45:58.000Z</time>
      </trkpt>
      <trkpt lat="48.57394" lon="-2.21761">
        <ele>65</ele>
        <time>2021-07-30T14:46:00.000Z</time>
      </trkpt>
      <trkpt lat="48.57398" lon="-2.21743">
        <ele>65</ele>
        <time>2021-07-30T14:46:02.000Z</time>
      </trkpt>
      <trkpt lat="48.57403" lon="-2.21726">
        <ele>65</ele>
        <time>2021-07-30T14:46:04.000Z</time>
      </trkpt>
      <trkpt lat="48.57408" lon="-2.21708">
        <ele>64</ele>
        <time>2021-07-30T14:46:06.000Z</time>
      </trkpt>
      <trkpt lat="48.57412" lon="-2.21693">
        <ele>64</ele>
        <time>2021-07-30T14:46:08.000Z</time>
      </trkpt>
      <trkpt lat="48.57416" lon="-2.21677">
        <ele>64</ele>
        <time>2021-07-30T14:46:10.000Z</time>
      </trkpt>
      <trkpt lat="48.57421" lon="-2.21661">
        <ele>63</ele>
        <time>2021-07-30T14:46:12.000Z</time>
      </trkpt>
      <trkpt lat="48.57426" lon="-2.21646">
        <ele>63</ele>
        <time>2021-07-30T14:46:14.000Z</time>
      </trkpt>
      <trkpt lat="48.5743" lon="-2.21632">
        <ele>62</ele>
        <time>2021-07-30T14:46:16.000Z</time>
      </trkpt>
      <trkpt lat="48.57435" lon="-2.21617">
        <ele>61</ele>
        <time>2021-07-30T14:46:18.000Z</time>
      </trkpt>
      <trkpt lat="48.57438" lon="-2.21598">
        <ele>60</ele>
        <time>2021-07-30T14:46:20.000Z</time>
      </trkpt>
      <trkpt lat="48.57438" lon="-2.21576">
        <ele>58</ele>
        <time>2021-07-30T14:46:22.000Z</time>
      </trkpt>
      <trkpt lat="48.57436" lon="-2.21556">
        <ele>57</ele>
        <time>2021-07-30T14:46:24.000Z</time>
      </trkpt>
      <trkpt lat="48.57431" lon="-2.21538">
        <ele>56</ele>
        <time>2021-07-30T14:46:26.000Z</time>
      </trkpt>
      <trkpt lat="48.57427" lon="-2.2152">
        <ele>56</ele>
        <time>2021-07-30T14:46:28.000Z</time>
      </trkpt>
      <trkpt lat="48.57422" lon="-2.21507">
        <ele>56</ele>
        <time>2021-07-30T14:46:30.000Z</time>
      </trkpt>
      <trkpt lat="48.57422" lon="-2.21492">
        <ele>57</ele>
        <time>2021-07-30T14:46:33.000Z</time>
      </trkpt>
      <trkpt lat="48.57433" lon="-2.21484">
        <ele>59</ele>
        <time>2021-07-30T14:46:36.000Z</time>
      </trkpt>
      <trkpt lat="48.5744" lon="-2.21471">
        <ele>60</ele>
        <time>2021-07-30T14:46:39.000Z</time>
      </trkpt>
      <trkpt lat="48.57443" lon="-2.21455">
        <ele>60</ele>
        <time>2021-07-30T14:46:42.000Z</time>
      </trkpt>
      <trkpt lat="48.57443" lon="-2.21441">
        <ele>59</ele>
        <time>2021-07-30T14:46:46.000Z</time>
      </trkpt>
      <trkpt lat="48.57434" lon="-2.21434">
        <ele>59</ele>
        <time>2021-07-30T14:46:49.000Z</time>
      </trkpt>
      <trkpt lat="48.57423" lon="-2.21429">
        <ele>61</ele>
        <time>2021-07-30T14:46:52.000Z</time>
      </trkpt>
      <trkpt lat="48.57411" lon="-2.2142">
        <ele>61</ele>
        <time>2021-07-30T14:46:55.000Z</time>
      </trkpt>
      <trkpt lat="48.57399" lon="-2.21412">
        <ele>62</ele>
        <time>2021-07-30T14:46:58.000Z</time>
      </trkpt>
      <trkpt lat="48.5739" lon="-2.21407">
        <ele>62</ele>
        <time>2021-07-30T14:47:00.000Z</time>
      </trkpt>
      <trkpt lat="48.57381" lon="-2.214">
        <ele>62</ele>
        <time>2021-07-30T14:47:02.000Z</time>
      </trkpt>
      <trkpt lat="48.57372" lon="-2.21394">
        <ele>62</ele>
        <time>2021-07-30T14:47:04.000Z</time>
      </trkpt>
      <trkpt lat="48.57364" lon="-2.21387">
        <ele>62</ele>
        <time>2021-07-30T14:47:06.000Z</time>
      </trkpt>
      <trkpt lat="48.57355" lon="-2.2138">
        <ele>62</ele>
        <time>2021-07-30T14:47:08.000Z</time>
      </trkpt>
      <trkpt lat="48.57346" lon="-2.21373">
        <ele>62</ele>
        <time>2021-07-30T14:47:10.000Z</time>
      </trkpt>
      <trkpt lat="48.57337" lon="-2.21367">
        <ele>62</ele>
        <time>2021-07-30T14:47:12.000Z</time>
      </trkpt>
      <trkpt lat="48.57328" lon="-2.2136">
        <ele>62</ele>
        <time>2021-07-30T14:47:14.000Z</time>
      </trkpt>
      <trkpt lat="48.57318" lon="-2.21354">
        <ele>61</ele>
        <time>2021-07-30T14:47:16.000Z</time>
      </trkpt>
      <trkpt lat="48.57308" lon="-2.21347">
        <ele>62</ele>
        <time>2021-07-30T14:47:18.000Z</time>
      </trkpt>
      <trkpt lat="48.57299" lon="-2.2134">
        <ele>62</ele>
        <time>2021-07-30T14:47:20.000Z</time>
      </trkpt>
      <trkpt lat="48.5729" lon="-2.21334">
        <ele>61</ele>
        <time>2021-07-30T14:47:22.000Z</time>
      </trkpt>
      <trkpt lat="48.57281" lon="-2.21327">
        <ele>61</ele>
        <time>2021-07-30T14:47:24.000Z</time>
      </trkpt>
      <trkpt lat="48.57272" lon="-2.2132">
        <ele>61</ele>
        <time>2021-07-30T14:47:26.000Z</time>
      </trkpt>
      <trkpt lat="48.57263" lon="-2.21314">
        <ele>61</ele>
        <time>2021-07-30T14:47:28.000Z</time>
      </trkpt>
      <trkpt lat="48.57255" lon="-2.21306">
        <ele>60</ele>
        <time>2021-07-30T14:47:30.000Z</time>
      </trkpt>
      <trkpt lat="48.57246" lon="-2.21299">
        <ele>60</ele>
        <time>2021-07-30T14:47:32.000Z</time>
      </trkpt>
      <trkpt lat="48.57237" lon="-2.21293">
        <ele>60</ele>
        <time>2021-07-30T14:47:34.000Z</time>
      </trkpt>
      <trkpt lat="48.57228" lon="-2.21292">
        <ele>60</ele>
        <time>2021-07-30T14:47:36.000Z</time>
      </trkpt>
      <trkpt lat="48.57219" lon="-2.21304">
        <ele>60</ele>
        <time>2021-07-30T14:47:39.000Z</time>
      </trkpt>
      <trkpt lat="48.5721" lon="-2.21314">
        <ele>58</ele>
        <time>2021-07-30T14:47:42.000Z</time>
      </trkpt>
      <trkpt lat="48.57198" lon="-2.21308">
        <ele>58</ele>
        <time>2021-07-30T14:47:45.000Z</time>
      </trkpt>
      <trkpt lat="48.57192" lon="-2.21296">
        <ele>58</ele>
        <time>2021-07-30T14:47:48.000Z</time>
      </trkpt>
      <trkpt lat="48.5719" lon="-2.21282">
        <ele>57</ele>
        <time>2021-07-30T14:47:52.000Z</time>
      </trkpt>
      <trkpt lat="48.57181" lon="-2.21275">
        <ele>58</ele>
        <time>2021-07-30T14:47:55.000Z</time>
      </trkpt>
      <trkpt lat="48.57171" lon="-2.21267">
        <ele>58</ele>
        <time>2021-07-30T14:47:58.000Z</time>
      </trkpt>
      <trkpt lat="48.57163" lon="-2.21254">
        <ele>58</ele>
        <time>2021-07-30T14:48:01.000Z</time>
      </trkpt>
      <trkpt lat="48.57151" lon="-2.2125">
        <ele>57</ele>
        <time>2021-07-30T14:48:04.000Z</time>
      </trkpt>
      <trkpt lat="48.57142" lon="-2.21253">
        <ele>58</ele>
        <time>2021-07-30T14:48:06.000Z</time>
      </trkpt>
      <trkpt lat="48.57133" lon="-2.21257">
        <ele>59</ele>
        <time>2021-07-30T14:48:08.000Z</time>
      </trkpt>
      <trkpt lat="48.57122" lon="-2.21259">
        <ele>61</ele>
        <time>2021-07-30T14:48:11.000Z</time>
      </trkpt>
      <trkpt lat="48.57112" lon="-2.21257">
        <ele>61</ele>
        <time>2021-07-30T14:48:16.000Z</time>
      </trkpt>
      <trkpt lat="48.57102" lon="-2.21254">
        <ele>61</ele>
        <time>2021-07-30T14:48:20.000Z</time>
      </trkpt>
      <trkpt lat="48.57093" lon="-2.21251">
        <ele>61</ele>
        <time>2021-07-30T14:48:24.000Z</time>
      </trkpt>
      <trkpt lat="48.57082" lon="-2.21247">
        <ele>61</ele>
        <time>2021-07-30T14:48:29.000Z</time>
      </trkpt>
      <trkpt lat="48.57072" lon="-2.21246">
        <ele>61</ele>
        <time>2021-07-30T14:48:33.000Z</time>
      </trkpt>
      <trkpt lat="48.57062" lon="-2.21248">
        <ele>62</ele>
        <time>2021-07-30T14:48:37.000Z</time>
      </trkpt>
      <trkpt lat="48.57052" lon="-2.21251">
        <ele>63</ele>
        <time>2021-07-30T14:48:41.000Z</time>
      </trkpt>
      <trkpt lat="48.57042" lon="-2.21255">
        <ele>65</ele>
        <time>2021-07-30T14:48:45.000Z</time>
      </trkpt>
      <trkpt lat="48.57032" lon="-2.21262">
        <ele>66</ele>
        <time>2021-07-30T14:48:49.000Z</time>
      </trkpt>
      <trkpt lat="48.57024" lon="-2.21271">
        <ele>68</ele>
        <time>2021-07-30T14:48:53.000Z</time>
      </trkpt>
      <trkpt lat="48.57016" lon="-2.21279">
        <ele>70</ele>
        <time>2021-07-30T14:48:57.000Z</time>
      </trkpt>
      <trkpt lat="48.57008" lon="-2.21291">
        <ele>71</ele>
        <time>2021-07-30T14:49:01.000Z</time>
      </trkpt>
      <trkpt lat="48.57001" lon="-2.21302">
        <ele>72</ele>
        <time>2021-07-30T14:49:05.000Z</time>
      </trkpt>
      <trkpt lat="48.56994" lon="-2.21313">
        <ele>74</ele>
        <time>2021-07-30T14:49:09.000Z</time>
      </trkpt>
      <trkpt lat="48.56987" lon="-2.21324">
        <ele>75</ele>
        <time>2021-07-30T14:49:13.000Z</time>
      </trkpt>
      <trkpt lat="48.5698" lon="-2.21335">
        <ele>75</ele>
        <time>2021-07-30T14:49:17.000Z</time>
      </trkpt>
      <trkpt lat="48.56972" lon="-2.21345">
        <ele>75</ele>
        <time>2021-07-30T14:49:21.000Z</time>
      </trkpt>
      <trkpt lat="48.56961" lon="-2.21351">
        <ele>74</ele>
        <time>2021-07-30T14:49:25.000Z</time>
      </trkpt>
      <trkpt lat="48.56948" lon="-2.21348">
        <ele>75</ele>
        <time>2021-07-30T14:49:28.000Z</time>
      </trkpt>
      <trkpt lat="48.5694" lon="-2.21343">
        <ele>75</ele>
        <time>2021-07-30T14:49:30.000Z</time>
      </trkpt>
      <trkpt lat="48.56929" lon="-2.21335">
        <ele>75</ele>
        <time>2021-07-30T14:49:32.000Z</time>
      </trkpt>
      <trkpt lat="48.56918" lon="-2.21326">
        <ele>75</ele>
        <time>2021-07-30T14:49:34.000Z</time>
      </trkpt>
      <trkpt lat="48.56908" lon="-2.21318">
        <ele>75</ele>
        <time>2021-07-30T14:49:36.000Z</time>
      </trkpt>
      <trkpt lat="48.56898" lon="-2.21311">
        <ele>74</ele>
        <time>2021-07-30T14:49:38.000Z</time>
      </trkpt>
      <trkpt lat="48.56889" lon="-2.21306">
        <ele>74</ele>
        <time>2021-07-30T14:49:40.000Z</time>
      </trkpt>
      <trkpt lat="48.56878" lon="-2.213">
        <ele>75</ele>
        <time>2021-07-30T14:49:42.000Z</time>
      </trkpt>
      <trkpt lat="48.56868" lon="-2.21295">
        <ele>76</ele>
        <time>2021-07-30T14:49:44.000Z</time>
      </trkpt>
      <trkpt lat="48.56857" lon="-2.21293">
        <ele>77</ele>
        <time>2021-07-30T14:49:46.000Z</time>
      </trkpt>
      <trkpt lat="48.56846" lon="-2.21292">
        <ele>77</ele>
        <time>2021-07-30T14:49:48.000Z</time>
      </trkpt>
      <trkpt lat="48.56837" lon="-2.21291">
        <ele>78</ele>
        <time>2021-07-30T14:49:50.000Z</time>
      </trkpt>
      <trkpt lat="48.56828" lon="-2.21288">
        <ele>78</ele>
        <time>2021-07-30T14:49:52.000Z</time>
      </trkpt>
      <trkpt lat="48.56819" lon="-2.21286">
        <ele>77</ele>
        <time>2021-07-30T14:49:54.000Z</time>
      </trkpt>
      <trkpt lat="48.56806" lon="-2.21283">
        <ele>79</ele>
        <time>2021-07-30T14:49:57.000Z</time>
      </trkpt>
      <trkpt lat="48.56795" lon="-2.2128">
        <ele>79</ele>
        <time>2021-07-30T14:50:00.000Z</time>
      </trkpt>
      <trkpt lat="48.56783" lon="-2.21277">
        <ele>79</ele>
        <time>2021-07-30T14:50:03.000Z</time>
      </trkpt>
      <trkpt lat="48.56772" lon="-2.21274">
        <ele>79</ele>
        <time>2021-07-30T14:50:06.000Z</time>
      </trkpt>
      <trkpt lat="48.56761" lon="-2.2127">
        <ele>80</ele>
        <time>2021-07-30T14:50:09.000Z</time>
      </trkpt>
      <trkpt lat="48.5675" lon="-2.21266">
        <ele>80</ele>
        <time>2021-07-30T14:50:12.000Z</time>
      </trkpt>
      <trkpt lat="48.56739" lon="-2.21262">
        <ele>80</ele>
        <time>2021-07-30T14:50:15.000Z</time>
      </trkpt>
      <trkpt lat="48.56728" lon="-2.21258">
        <ele>81</ele>
        <time>2021-07-30T14:50:18.000Z</time>
      </trkpt>
      <trkpt lat="48.56716" lon="-2.21253">
        <ele>81</ele>
        <time>2021-07-30T14:50:21.000Z</time>
      </trkpt>
      <trkpt lat="48.56704" lon="-2.21249">
        <ele>81</ele>
        <time>2021-07-30T14:50:24.000Z</time>
      </trkpt>
      <trkpt lat="48.56691" lon="-2.21245">
        <ele>81</ele>
        <time>2021-07-30T14:50:27.000Z</time>
      </trkpt>
      <trkpt lat="48.56679" lon="-2.21241">
        <ele>81</ele>
        <time>2021-07-30T14:50:30.000Z</time>
      </trkpt>
      <trkpt lat="48.56666" lon="-2.21238">
        <ele>81</ele>
        <time>2021-07-30T14:50:33.000Z</time>
      </trkpt>
      <trkpt lat="48.56657" lon="-2.21236">
        <ele>82</ele>
        <time>2021-07-30T14:50:35.000Z</time>
      </trkpt>
      <trkpt lat="48.56648" lon="-2.21238">
        <ele>82</ele>
        <time>2021-07-30T14:50:37.000Z</time>
      </trkpt>
      <trkpt lat="48.56639" lon="-2.21242">
        <ele>82</ele>
        <time>2021-07-30T14:50:39.000Z</time>
      </trkpt>
      <trkpt lat="48.56626" lon="-2.21248">
        <ele>82</ele>
        <time>2021-07-30T14:50:42.000Z</time>
      </trkpt>
      <trkpt lat="48.56617" lon="-2.21252">
        <ele>82</ele>
        <time>2021-07-30T14:50:44.000Z</time>
      </trkpt>
      <trkpt lat="48.56608" lon="-2.21258">
        <ele>82</ele>
        <time>2021-07-30T14:50:46.000Z</time>
      </trkpt>
      <trkpt lat="48.566" lon="-2.21263">
        <ele>82</ele>
        <time>2021-07-30T14:50:48.000Z</time>
      </trkpt>
      <trkpt lat="48.56591" lon="-2.21268">
        <ele>83</ele>
        <time>2021-07-30T14:50:50.000Z</time>
      </trkpt>
      <trkpt lat="48.56582" lon="-2.21272">
        <ele>83</ele>
        <time>2021-07-30T14:50:52.000Z</time>
      </trkpt>
      <trkpt lat="48.56572" lon="-2.21276">
        <ele>82</ele>
        <time>2021-07-30T14:50:54.000Z</time>
      </trkpt>
      <trkpt lat="48.56562" lon="-2.2128">
        <ele>82</ele>
        <time>2021-07-30T14:50:56.000Z</time>
      </trkpt>
      <trkpt lat="48.56553" lon="-2.21284">
        <ele>82</ele>
        <time>2021-07-30T14:50:58.000Z</time>
      </trkpt>
      <trkpt lat="48.56543" lon="-2.21287">
        <ele>82</ele>
        <time>2021-07-30T14:51:00.000Z</time>
      </trkpt>
      <trkpt lat="48.56533" lon="-2.21289">
        <ele>82</ele>
        <time>2021-07-30T14:51:02.000Z</time>
      </trkpt>
      <trkpt lat="48.56523" lon="-2.2129">
        <ele>81</ele>
        <time>2021-07-30T14:51:04.000Z</time>
      </trkpt>
      <trkpt lat="48.56514" lon="-2.2129">
        <ele>81</ele>
        <time>2021-07-30T14:51:06.000Z</time>
      </trkpt>
      <trkpt lat="48.56503" lon="-2.2129">
        <ele>81</ele>
        <time>2021-07-30T14:51:08.000Z</time>
      </trkpt>
      <trkpt lat="48.56493" lon="-2.2129">
        <ele>82</ele>
        <time>2021-07-30T14:51:10.000Z</time>
      </trkpt>
      <trkpt lat="48.56484" lon="-2.2129">
        <ele>81</ele>
        <time>2021-07-30T14:51:12.000Z</time>
      </trkpt>
      <trkpt lat="48.56474" lon="-2.21291">
        <ele>82</ele>
        <time>2021-07-30T14:51:14.000Z</time>
      </trkpt>
      <trkpt lat="48.56464" lon="-2.21294">
        <ele>82</ele>
        <time>2021-07-30T14:51:16.000Z</time>
      </trkpt>
      <trkpt lat="48.56455" lon="-2.21296">
        <ele>82</ele>
        <time>2021-07-30T14:51:18.000Z</time>
      </trkpt>
      <trkpt lat="48.56443" lon="-2.21297">
        <ele>82</ele>
        <time>2021-07-30T14:51:21.000Z</time>
      </trkpt>
      <trkpt lat="48.56432" lon="-2.213">
        <ele>81</ele>
        <time>2021-07-30T14:51:24.000Z</time>
      </trkpt>
      <trkpt lat="48.56422" lon="-2.21302">
        <ele>81</ele>
        <time>2021-07-30T14:51:28.000Z</time>
      </trkpt>
      <trkpt lat="48.56415" lon="-2.21293">
        <ele>80</ele>
        <time>2021-07-30T14:51:31.000Z</time>
      </trkpt>
      <trkpt lat="48.56411" lon="-2.21276">
        <ele>81</ele>
        <time>2021-07-30T14:51:34.000Z</time>
      </trkpt>
      <trkpt lat="48.56409" lon="-2.21258">
        <ele>82</ele>
        <time>2021-07-30T14:51:37.000Z</time>
      </trkpt>
      <trkpt lat="48.56405" lon="-2.2124">
        <ele>82</ele>
        <time>2021-07-30T14:51:40.000Z</time>
      </trkpt>
      <trkpt lat="48.56402" lon="-2.21226">
        <ele>83</ele>
        <time>2021-07-30T14:51:42.000Z</time>
      </trkpt>
      <trkpt lat="48.564" lon="-2.21213">
        <ele>84</ele>
        <time>2021-07-30T14:51:44.000Z</time>
      </trkpt>
      <trkpt lat="48.56398" lon="-2.21194">
        <ele>84</ele>
        <time>2021-07-30T14:51:47.000Z</time>
      </trkpt>
      <trkpt lat="48.56395" lon="-2.21176">
        <ele>85</ele>
        <time>2021-07-30T14:51:50.000Z</time>
      </trkpt>
      <trkpt lat="48.56392" lon="-2.21157">
        <ele>85</ele>
        <time>2021-07-30T14:51:53.000Z</time>
      </trkpt>
      <trkpt lat="48.56387" lon="-2.21139">
        <ele>85</ele>
        <time>2021-07-30T14:51:56.000Z</time>
      </trkpt>
      <trkpt lat="48.56382" lon="-2.21128">
        <ele>85</ele>
        <time>2021-07-30T14:51:58.000Z</time>
      </trkpt>
      <trkpt lat="48.56373" lon="-2.21118">
        <ele>85</ele>
        <time>2021-07-30T14:52:00.000Z</time>
      </trkpt>
      <trkpt lat="48.56364" lon="-2.21104">
        <ele>85</ele>
        <time>2021-07-30T14:52:03.000Z</time>
      </trkpt>
      <trkpt lat="48.56359" lon="-2.21092">
        <ele>85</ele>
        <time>2021-07-30T14:52:05.000Z</time>
      </trkpt>
      <trkpt lat="48.56353" lon="-2.21076">
        <ele>85</ele>
        <time>2021-07-30T14:52:07.000Z</time>
      </trkpt>
      <trkpt lat="48.56349" lon="-2.21061">
        <ele>85</ele>
        <time>2021-07-30T14:52:09.000Z</time>
      </trkpt>
      <trkpt lat="48.56344" lon="-2.21048">
        <ele>85</ele>
        <time>2021-07-30T14:52:11.000Z</time>
      </trkpt>
      <trkpt lat="48.56338" lon="-2.21034">
        <ele>86</ele>
        <time>2021-07-30T14:52:13.000Z</time>
      </trkpt>
      <trkpt lat="48.56333" lon="-2.21021">
        <ele>86</ele>
        <time>2021-07-30T14:52:15.000Z</time>
      </trkpt>
      <trkpt lat="48.56327" lon="-2.21009">
        <ele>86</ele>
        <time>2021-07-30T14:52:17.000Z</time>
      </trkpt>
      <trkpt lat="48.56319" lon="-2.20995">
        <ele>86</ele>
        <time>2021-07-30T14:52:20.000Z</time>
      </trkpt>
      <trkpt lat="48.56325" lon="-2.20983">
        <ele>85</ele>
        <time>2021-07-30T14:52:23.000Z</time>
      </trkpt>
      <trkpt lat="48.56334" lon="-2.20976">
        <ele>84</ele>
        <time>2021-07-30T14:52:25.000Z</time>
      </trkpt>
      <trkpt lat="48.56343" lon="-2.20966">
        <ele>84</ele>
        <time>2021-07-30T14:52:27.000Z</time>
      </trkpt>
      <trkpt lat="48.56352" lon="-2.20956">
        <ele>84</ele>
        <time>2021-07-30T14:52:29.000Z</time>
      </trkpt>
      <trkpt lat="48.5636" lon="-2.20945">
        <ele>83</ele>
        <time>2021-07-30T14:52:31.000Z</time>
      </trkpt>
      <trkpt lat="48.56369" lon="-2.20933">
        <ele>83</ele>
        <time>2021-07-30T14:52:33.000Z</time>
      </trkpt>
      <trkpt lat="48.56379" lon="-2.20919">
        <ele>83</ele>
        <time>2021-07-30T14:52:35.000Z</time>
      </trkpt>
      <trkpt lat="48.56389" lon="-2.20904">
        <ele>82</ele>
        <time>2021-07-30T14:52:37.000Z</time>
      </trkpt>
      <trkpt lat="48.56399" lon="-2.2089">
        <ele>82</ele>
        <time>2021-07-30T14:52:39.000Z</time>
      </trkpt>
      <trkpt lat="48.56409" lon="-2.20876">
        <ele>82</ele>
        <time>2021-07-30T14:52:41.000Z</time>
      </trkpt>
      <trkpt lat="48.56418" lon="-2.20863">
        <ele>82</ele>
        <time>2021-07-30T14:52:43.000Z</time>
      </trkpt>
      <trkpt lat="48.56427" lon="-2.20852">
        <ele>82</ele>
        <time>2021-07-30T14:52:45.000Z</time>
      </trkpt>
      <trkpt lat="48.56436" lon="-2.20839">
        <ele>82</ele>
        <time>2021-07-30T14:52:47.000Z</time>
      </trkpt>
      <trkpt lat="48.56445" lon="-2.20827">
        <ele>82</ele>
        <time>2021-07-30T14:52:49.000Z</time>
      </trkpt>
      <trkpt lat="48.56453" lon="-2.20814">
        <ele>82</ele>
        <time>2021-07-30T14:52:51.000Z</time>
      </trkpt>
      <trkpt lat="48.56461" lon="-2.208">
        <ele>82</ele>
        <time>2021-07-30T14:52:53.000Z</time>
      </trkpt>
      <trkpt lat="48.5647" lon="-2.20787">
        <ele>83</ele>
        <time>2021-07-30T14:52:55.000Z</time>
      </trkpt>
      <trkpt lat="48.5648" lon="-2.20773">
        <ele>83</ele>
        <time>2021-07-30T14:52:57.000Z</time>
      </trkpt>
      <trkpt lat="48.5649" lon="-2.20757">
        <ele>82</ele>
        <time>2021-07-30T14:52:59.000Z</time>
      </trkpt>
      <trkpt lat="48.56499" lon="-2.20742">
        <ele>81</ele>
        <time>2021-07-30T14:53:01.000Z</time>
      </trkpt>
      <trkpt lat="48.56508" lon="-2.20729">
        <ele>80</ele>
        <time>2021-07-30T14:53:03.000Z</time>
      </trkpt>
      <trkpt lat="48.56518" lon="-2.20714">
        <ele>79</ele>
        <time>2021-07-30T14:53:05.000Z</time>
      </trkpt>
      <trkpt lat="48.56527" lon="-2.20701">
        <ele>80</ele>
        <time>2021-07-30T14:53:07.000Z</time>
      </trkpt>
      <trkpt lat="48.56537" lon="-2.20688">
        <ele>80</ele>
        <time>2021-07-30T14:53:09.000Z</time>
      </trkpt>
      <trkpt lat="48.56548" lon="-2.20675">
        <ele>80</ele>
        <time>2021-07-30T14:53:11.000Z</time>
      </trkpt>
      <trkpt lat="48.5656" lon="-2.20668">
        <ele>79</ele>
        <time>2021-07-30T14:53:13.000Z</time>
      </trkpt>
      <trkpt lat="48.56572" lon="-2.20659">
        <ele>79</ele>
        <time>2021-07-30T14:53:15.000Z</time>
      </trkpt>
      <trkpt lat="48.56585" lon="-2.20654">
        <ele>78</ele>
        <time>2021-07-30T14:53:17.000Z</time>
      </trkpt>
      <trkpt lat="48.56597" lon="-2.2065">
        <ele>78</ele>
        <time>2021-07-30T14:53:19.000Z</time>
      </trkpt>
      <trkpt lat="48.56612" lon="-2.20646">
        <ele>76</ele>
        <time>2021-07-30T14:53:21.000Z</time>
      </trkpt>
      <trkpt lat="48.56627" lon="-2.20644">
        <ele>75</ele>
        <time>2021-07-30T14:53:23.000Z</time>
      </trkpt>
      <trkpt lat="48.56641" lon="-2.20644">
        <ele>76</ele>
        <time>2021-07-30T14:53:25.000Z</time>
      </trkpt>
      <trkpt lat="48.56654" lon="-2.20641">
        <ele>76</ele>
        <time>2021-07-30T14:53:27.000Z</time>
      </trkpt>
      <trkpt lat="48.56667" lon="-2.20645">
        <ele>75</ele>
        <time>2021-07-30T14:53:29.000Z</time>
      </trkpt>
      <trkpt lat="48.5668" lon="-2.20652">
        <ele>74</ele>
        <time>2021-07-30T14:53:31.000Z</time>
      </trkpt>
      <trkpt lat="48.56692" lon="-2.20661">
        <ele>75</ele>
        <time>2021-07-30T14:53:33.000Z</time>
      </trkpt>
      <trkpt lat="48.56703" lon="-2.2067">
        <ele>76</ele>
        <time>2021-07-30T14:53:35.000Z</time>
      </trkpt>
      <trkpt lat="48.56715" lon="-2.20678">
        <ele>76</ele>
        <time>2021-07-30T14:53:37.000Z</time>
      </trkpt>
      <trkpt lat="48.56724" lon="-2.20688">
        <ele>76</ele>
        <time>2021-07-30T14:53:39.000Z</time>
      </trkpt>
      <trkpt lat="48.56733" lon="-2.20701">
        <ele>75</ele>
        <time>2021-07-30T14:53:41.000Z</time>
      </trkpt>
      <trkpt lat="48.56742" lon="-2.20716">
        <ele>74</ele>
        <time>2021-07-30T14:53:43.000Z</time>
      </trkpt>
      <trkpt lat="48.5675" lon="-2.20733">
        <ele>73</ele>
        <time>2021-07-30T14:53:45.000Z</time>
      </trkpt>
      <trkpt lat="48.56755" lon="-2.20748">
        <ele>72</ele>
        <time>2021-07-30T14:53:47.000Z</time>
      </trkpt>
      <trkpt lat="48.56761" lon="-2.20759">
        <ele>70</ele>
        <time>2021-07-30T14:53:52.000Z</time>
      </trkpt>
      <trkpt lat="48.56772" lon="-2.20751">
        <ele>69</ele>
        <time>2021-07-30T14:53:57.000Z</time>
      </trkpt>
      <trkpt lat="48.5678" lon="-2.20743">
        <ele>70</ele>
        <time>2021-07-30T14:53:59.000Z</time>
      </trkpt>
      <trkpt lat="48.56789" lon="-2.20736">
        <ele>70</ele>
        <time>2021-07-30T14:54:01.000Z</time>
      </trkpt>
      <trkpt lat="48.56797" lon="-2.20728">
        <ele>71</ele>
        <time>2021-07-30T14:54:03.000Z</time>
      </trkpt>
      <trkpt lat="48.56807" lon="-2.20718">
        <ele>72</ele>
        <time>2021-07-30T14:54:06.000Z</time>
      </trkpt>
      <trkpt lat="48.56816" lon="-2.2071">
        <ele>71</ele>
        <time>2021-07-30T14:54:09.000Z</time>
      </trkpt>
      <trkpt lat="48.56824" lon="-2.2072">
        <ele>71</ele>
        <time>2021-07-30T14:54:12.000Z</time>
      </trkpt>
      <trkpt lat="48.56829" lon="-2.20736">
        <ele>71</ele>
        <time>2021-07-30T14:54:15.000Z</time>
      </trkpt>
      <trkpt lat="48.56834" lon="-2.20748">
        <ele>71</ele>
        <time>2021-07-30T14:54:17.000Z</time>
      </trkpt>
      <trkpt lat="48.56839" lon="-2.2076">
        <ele>71</ele>
        <time>2021-07-30T14:54:19.000Z</time>
      </trkpt>
      <trkpt lat="48.56843" lon="-2.20773">
        <ele>71</ele>
        <time>2021-07-30T14:54:21.000Z</time>
      </trkpt>
      <trkpt lat="48.56848" lon="-2.20784">
        <ele>71</ele>
        <time>2021-07-30T14:54:23.000Z</time>
      </trkpt>
      <trkpt lat="48.56858" lon="-2.20796">
        <ele>72</ele>
        <time>2021-07-30T14:54:26.000Z</time>
      </trkpt>
      <trkpt lat="48.56865" lon="-2.20807">
        <ele>73</ele>
        <time>2021-07-30T14:54:29.000Z</time>
      </trkpt>
      <trkpt lat="48.56876" lon="-2.20806">
        <ele>73</ele>
        <time>2021-07-30T14:54:33.000Z</time>
      </trkpt>
      <trkpt lat="48.56884" lon="-2.20798">
        <ele>74</ele>
        <time>2021-07-30T14:54:37.000Z</time>
      </trkpt>
      <trkpt lat="48.56892" lon="-2.20787">
        <ele>75</ele>
        <time>2021-07-30T14:54:41.000Z</time>
      </trkpt>
      <trkpt lat="48.56901" lon="-2.2078">
        <ele>75</ele>
        <time>2021-07-30T14:54:45.000Z</time>
      </trkpt>
      <trkpt lat="48.56908" lon="-2.2077">
        <ele>75</ele>
        <time>2021-07-30T14:54:48.000Z</time>
      </trkpt>
      <trkpt lat="48.56916" lon="-2.20763">
        <ele>76</ele>
        <time>2021-07-30T14:54:51.000Z</time>
      </trkpt>
      <trkpt lat="48.56924" lon="-2.20753">
        <ele>76</ele>
        <time>2021-07-30T14:54:54.000Z</time>
      </trkpt>
      <trkpt lat="48.56932" lon="-2.20744">
        <ele>77</ele>
        <time>2021-07-30T14:54:57.000Z</time>
      </trkpt>
      <trkpt lat="48.56942" lon="-2.20735">
        <ele>78</ele>
        <time>2021-07-30T14:55:00.000Z</time>
      </trkpt>
      <trkpt lat="48.56951" lon="-2.20724">
        <ele>79</ele>
        <time>2021-07-30T14:55:03.000Z</time>
      </trkpt>
      <trkpt lat="48.5696" lon="-2.20712">
        <ele>80</ele>
        <time>2021-07-30T14:55:06.000Z</time>
      </trkpt>
      <trkpt lat="48.56969" lon="-2.20703">
        <ele>80</ele>
        <time>2021-07-30T14:55:09.000Z</time>
      </trkpt>
      <trkpt lat="48.56978" lon="-2.20695">
        <ele>80</ele>
        <time>2021-07-30T14:55:12.000Z</time>
      </trkpt>
      <trkpt lat="48.56989" lon="-2.207">
        <ele>82</ele>
        <time>2021-07-30T14:55:15.000Z</time>
      </trkpt>
      <trkpt lat="48.57" lon="-2.20706">
        <ele>82</ele>
        <time>2021-07-30T14:55:18.000Z</time>
      </trkpt>
      <trkpt lat="48.57012" lon="-2.20711">
        <ele>82</ele>
        <time>2021-07-30T14:55:21.000Z</time>
      </trkpt>
      <trkpt lat="48.57023" lon="-2.20711">
        <ele>82</ele>
        <time>2021-07-30T14:55:23.000Z</time>
      </trkpt>
      <trkpt lat="48.57033" lon="-2.20711">
        <ele>82</ele>
        <time>2021-07-30T14:55:25.000Z</time>
      </trkpt>
      <trkpt lat="48.57042" lon="-2.20711">
        <ele>82</ele>
        <time>2021-07-30T14:55:27.000Z</time>
      </trkpt>
      <trkpt lat="48.57055" lon="-2.20711">
        <ele>81</ele>
        <time>2021-07-30T14:55:30.000Z</time>
      </trkpt>
      <trkpt lat="48.57065" lon="-2.20713">
        <ele>80</ele>
        <time>2021-07-30T14:55:32.000Z</time>
      </trkpt>
      <trkpt lat="48.57074" lon="-2.20712">
        <ele>80</ele>
        <time>2021-07-30T14:55:34.000Z</time>
      </trkpt>
      <trkpt lat="48.57084" lon="-2.20712">
        <ele>79</ele>
        <time>2021-07-30T14:55:36.000Z</time>
      </trkpt>
      <trkpt lat="48.57094" lon="-2.2071">
        <ele>79</ele>
        <time>2021-07-30T14:55:38.000Z</time>
      </trkpt>
      <trkpt lat="48.57105" lon="-2.20709">
        <ele>79</ele>
        <time>2021-07-30T14:55:40.000Z</time>
      </trkpt>
      <trkpt lat="48.57115" lon="-2.20707">
        <ele>79</ele>
        <time>2021-07-30T14:55:42.000Z</time>
      </trkpt>
      <trkpt lat="48.57126" lon="-2.20706">
        <ele>79</ele>
        <time>2021-07-30T14:55:44.000Z</time>
      </trkpt>
      <trkpt lat="48.57137" lon="-2.20705">
        <ele>79</ele>
        <time>2021-07-30T14:55:46.000Z</time>
      </trkpt>
      <trkpt lat="48.57147" lon="-2.20703">
        <ele>79</ele>
        <time>2021-07-30T14:55:48.000Z</time>
      </trkpt>
      <trkpt lat="48.57157" lon="-2.20702">
        <ele>79</ele>
        <time>2021-07-30T14:55:50.000Z</time>
      </trkpt>
      <trkpt lat="48.57167" lon="-2.20701">
        <ele>78</ele>
        <time>2021-07-30T14:55:52.000Z</time>
      </trkpt>
      <trkpt lat="48.57178" lon="-2.20698">
        <ele>78</ele>
        <time>2021-07-30T14:55:54.000Z</time>
      </trkpt>
      <trkpt lat="48.57187" lon="-2.20696">
        <ele>77</ele>
        <time>2021-07-30T14:55:56.000Z</time>
      </trkpt>
      <trkpt lat="48.57196" lon="-2.20691">
        <ele>77</ele>
        <time>2021-07-30T14:55:58.000Z</time>
      </trkpt>
      <trkpt lat="48.57208" lon="-2.20684">
        <ele>77</ele>
        <time>2021-07-30T14:56:01.000Z</time>
      </trkpt>
      <trkpt lat="48.5722" lon="-2.20677">
        <ele>76</ele>
        <time>2021-07-30T14:56:04.000Z</time>
      </trkpt>
      <trkpt lat="48.57231" lon="-2.20667">
        <ele>76</ele>
        <time>2021-07-30T14:56:07.000Z</time>
      </trkpt>
      <trkpt lat="48.57233" lon="-2.20653">
        <ele>75</ele>
        <time>2021-07-30T14:56:10.000Z</time>
      </trkpt>
      <trkpt lat="48.57243" lon="-2.20644">
        <ele>75</ele>
        <time>2021-07-30T14:56:13.000Z</time>
      </trkpt>
      <trkpt lat="48.57252" lon="-2.20641">
        <ele>74</ele>
        <time>2021-07-30T14:56:15.000Z</time>
      </trkpt>
      <trkpt lat="48.57262" lon="-2.20636">
        <ele>74</ele>
        <time>2021-07-30T14:56:17.000Z</time>
      </trkpt>
      <trkpt lat="48.57272" lon="-2.20632">
        <ele>73</ele>
        <time>2021-07-30T14:56:19.000Z</time>
      </trkpt>
      <trkpt lat="48.57283" lon="-2.20629">
        <ele>73</ele>
        <time>2021-07-30T14:56:21.000Z</time>
      </trkpt>
      <trkpt lat="48.57294" lon="-2.20626">
        <ele>73</ele>
        <time>2021-07-30T14:56:23.000Z</time>
      </trkpt>
      <trkpt lat="48.57306" lon="-2.20624">
        <ele>72</ele>
        <time>2021-07-30T14:56:25.000Z</time>
      </trkpt>
      <trkpt lat="48.57318" lon="-2.20619">
        <ele>71</ele>
        <time>2021-07-30T14:56:27.000Z</time>
      </trkpt>
      <trkpt lat="48.57331" lon="-2.20615">
        <ele>70</ele>
        <time>2021-07-30T14:56:29.000Z</time>
      </trkpt>
      <trkpt lat="48.57345" lon="-2.20612">
        <ele>69</ele>
        <time>2021-07-30T14:56:31.000Z</time>
      </trkpt>
      <trkpt lat="48.57359" lon="-2.20607">
        <ele>69</ele>
        <time>2021-07-30T14:56:33.000Z</time>
      </trkpt>
      <trkpt lat="48.57372" lon="-2.20602">
        <ele>68</ele>
        <time>2021-07-30T14:56:35.000Z</time>
      </trkpt>
      <trkpt lat="48.57383" lon="-2.20597">
        <ele>67</ele>
        <time>2021-07-30T14:56:37.000Z</time>
      </trkpt>
      <trkpt lat="48.57392" lon="-2.20591">
        <ele>66</ele>
        <time>2021-07-30T14:56:39.000Z</time>
      </trkpt>
      <trkpt lat="48.57401" lon="-2.20587">
        <ele>65</ele>
        <time>2021-07-30T14:56:41.000Z</time>
      </trkpt>
      <trkpt lat="48.57412" lon="-2.20587">
        <ele>64</ele>
        <time>2021-07-30T14:56:44.000Z</time>
      </trkpt>
      <trkpt lat="48.57422" lon="-2.2059">
        <ele>64</ele>
        <time>2021-07-30T14:56:47.000Z</time>
      </trkpt>
      <trkpt lat="48.57431" lon="-2.20586">
        <ele>66</ele>
        <time>2021-07-30T14:56:51.000Z</time>
      </trkpt>
      <trkpt lat="48.57422" lon="-2.2059">
        <ele>64</ele>
        <time>2021-07-30T14:57:31.000Z</time>
      </trkpt>
      <trkpt lat="48.57411" lon="-2.20588">
        <ele>63</ele>
        <time>2021-07-30T14:57:35.000Z</time>
      </trkpt>
      <trkpt lat="48.574" lon="-2.20587">
        <ele>63</ele>
        <time>2021-07-30T14:57:39.000Z</time>
      </trkpt>
      <trkpt lat="48.5739" lon="-2.20588">
        <ele>62</ele>
        <time>2021-07-30T14:57:43.000Z</time>
      </trkpt>
      <trkpt lat="48.57381" lon="-2.20599">
        <ele>63</ele>
        <time>2021-07-30T14:57:48.000Z</time>
      </trkpt>
      <trkpt lat="48.57375" lon="-2.2061">
        <ele>64</ele>
        <time>2021-07-30T14:57:52.000Z</time>
      </trkpt>
      <trkpt lat="48.57373" lon="-2.20624">
        <ele>66</ele>
        <time>2021-07-30T14:58:19.000Z</time>
      </trkpt>
      <trkpt lat="48.57367" lon="-2.20634">
        <ele>66</ele>
        <time>2021-07-30T14:58:23.000Z</time>
      </trkpt>
      <trkpt lat="48.57368" lon="-2.20651">
        <ele>66</ele>
        <time>2021-07-30T14:58:27.000Z</time>
      </trkpt>
      <trkpt lat="48.57377" lon="-2.20652">
        <ele>66</ele>
        <time>2021-07-30T14:58:32.000Z</time>
      </trkpt>
      <trkpt lat="48.57386" lon="-2.20648">
        <ele>67</ele>
        <time>2021-07-30T14:58:36.000Z</time>
      </trkpt>
      <trkpt lat="48.57397" lon="-2.20642">
        <ele>66</ele>
        <time>2021-07-30T14:58:40.000Z</time>
      </trkpt>
      <trkpt lat="48.57407" lon="-2.2064">
        <ele>66</ele>
        <time>2021-07-30T14:58:44.000Z</time>
      </trkpt>
      <trkpt lat="48.57413" lon="-2.20629">
        <ele>65</ele>
        <time>2021-07-30T14:59:14.000Z</time>
      </trkpt>
      <trkpt lat="48.57409" lon="-2.20642">
        <ele>66</ele>
        <time>2021-07-30T15:00:33.000Z</time>
      </trkpt>
      <trkpt lat="48.574" lon="-2.20653">
        <ele>67</ele>
        <time>2021-07-30T15:00:38.000Z</time>
      </trkpt>
      <trkpt lat="48.57394" lon="-2.20663">
        <ele>67</ele>
        <time>2021-07-30T15:00:41.000Z</time>
      </trkpt>
      <trkpt lat="48.57386" lon="-2.20672">
        <ele>67</ele>
        <time>2021-07-30T15:00:44.000Z</time>
      </trkpt>
      <trkpt lat="48.57379" lon="-2.20681">
        <ele>68</ele>
        <time>2021-07-30T15:00:47.000Z</time>
      </trkpt>
      <trkpt lat="48.57372" lon="-2.2069">
        <ele>69</ele>
        <time>2021-07-30T15:00:50.000Z</time>
      </trkpt>
      <trkpt lat="48.57365" lon="-2.20698">
        <ele>69</ele>
        <time>2021-07-30T15:00:53.000Z</time>
      </trkpt>
      <trkpt lat="48.57356" lon="-2.2071">
        <ele>71</ele>
        <time>2021-07-30T15:00:57.000Z</time>
      </trkpt>
      <trkpt lat="48.57348" lon="-2.2072">
        <ele>72</ele>
        <time>2021-07-30T15:01:00.000Z</time>
      </trkpt>
      <trkpt lat="48.57341" lon="-2.2073">
        <ele>73</ele>
        <time>2021-07-30T15:01:03.000Z</time>
      </trkpt>
      <trkpt lat="48.57334" lon="-2.20742">
        <ele>73</ele>
        <time>2021-07-30T15:01:06.000Z</time>
      </trkpt>
      <trkpt lat="48.57331" lon="-2.20754">
        <ele>74</ele>
        <time>2021-07-30T15:01:08.000Z</time>
      </trkpt>
      <trkpt lat="48.57331" lon="-2.20773">
        <ele>75</ele>
        <time>2021-07-30T15:01:11.000Z</time>
      </trkpt>
      <trkpt lat="48.57333" lon="-2.20792">
        <ele>74</ele>
        <time>2021-07-30T15:01:14.000Z</time>
      </trkpt>
      <trkpt lat="48.57333" lon="-2.20808">
        <ele>74</ele>
        <time>2021-07-30T15:01:17.000Z</time>
      </trkpt>
      <trkpt lat="48.57329" lon="-2.20824">
        <ele>74</ele>
        <time>2021-07-30T15:01:21.000Z</time>
      </trkpt>
      <trkpt lat="48.57323" lon="-2.20837">
        <ele>75</ele>
        <time>2021-07-30T15:01:24.000Z</time>
      </trkpt>
      <trkpt lat="48.57317" lon="-2.20853">
        <ele>75</ele>
        <time>2021-07-30T15:01:27.000Z</time>
      </trkpt>
      <trkpt lat="48.57309" lon="-2.20866">
        <ele>74</ele>
        <time>2021-07-30T15:01:30.000Z</time>
      </trkpt>
      <trkpt lat="48.573" lon="-2.20875">
        <ele>76</ele>
        <time>2021-07-30T15:01:33.000Z</time>
      </trkpt>
      <trkpt lat="48.57294" lon="-2.20887">
        <ele>77</ele>
        <time>2021-07-30T15:01:37.000Z</time>
      </trkpt>
      <trkpt lat="48.57295" lon="-2.20902">
        <ele>77</ele>
        <time>2021-07-30T15:01:41.000Z</time>
      </trkpt>
      <trkpt lat="48.57295" lon="-2.20917">
        <ele>78</ele>
        <time>2021-07-30T15:01:45.000Z</time>
      </trkpt>
      <trkpt lat="48.57294" lon="-2.20933">
        <ele>77</ele>
        <time>2021-07-30T15:01:48.000Z</time>
      </trkpt>
      <trkpt lat="48.57294" lon="-2.20952">
        <ele>78</ele>
        <time>2021-07-30T15:01:51.000Z</time>
      </trkpt>
      <trkpt lat="48.57294" lon="-2.20977">
        <ele>77</ele>
        <time>2021-07-30T15:01:54.000Z</time>
      </trkpt>
      <trkpt lat="48.57293" lon="-2.20998">
        <ele>75</ele>
        <time>2021-07-30T15:01:56.000Z</time>
      </trkpt>
      <trkpt lat="48.57294" lon="-2.21017">
        <ele>75</ele>
        <time>2021-07-30T15:01:58.000Z</time>
      </trkpt>
      <trkpt lat="48.57297" lon="-2.21049">
        <ele>74</ele>
        <time>2021-07-30T15:02:01.000Z</time>
      </trkpt>
      <trkpt lat="48.57297" lon="-2.21069">
        <ele>72</ele>
        <time>2021-07-30T15:02:03.000Z</time>
      </trkpt>
      <trkpt lat="48.57299" lon="-2.2109">
        <ele>71</ele>
        <time>2021-07-30T15:02:05.000Z</time>
      </trkpt>
      <trkpt lat="48.57297" lon="-2.2111">
        <ele>69</ele>
        <time>2021-07-30T15:02:07.000Z</time>
      </trkpt>
      <trkpt lat="48.5729" lon="-2.21123">
        <ele>68</ele>
        <time>2021-07-30T15:02:09.000Z</time>
      </trkpt>
      <trkpt lat="48.57279" lon="-2.21127">
        <ele>67</ele>
        <time>2021-07-30T15:02:11.000Z</time>
      </trkpt>
      <trkpt lat="48.57264" lon="-2.21132">
        <ele>66</ele>
        <time>2021-07-30T15:02:13.000Z</time>
      </trkpt>
      <trkpt lat="48.57248" lon="-2.21138">
        <ele>63</ele>
        <time>2021-07-30T15:02:15.000Z</time>
      </trkpt>
      <trkpt lat="48.57239" lon="-2.2114">
        <ele>62</ele>
        <time>2021-07-30T15:02:16.000Z</time>
      </trkpt>
      <trkpt lat="48.5723" lon="-2.21143">
        <ele>60</ele>
        <time>2021-07-30T15:02:17.000Z</time>
      </trkpt>
      <trkpt lat="48.57221" lon="-2.21148">
        <ele>59</ele>
        <time>2021-07-30T15:02:18.000Z</time>
      </trkpt>
      <trkpt lat="48.57206" lon="-2.21164">
        <ele>58</ele>
        <time>2021-07-30T15:02:20.000Z</time>
      </trkpt>
      <trkpt lat="48.57197" lon="-2.21187">
        <ele>58</ele>
        <time>2021-07-30T15:02:22.000Z</time>
      </trkpt>
      <trkpt lat="48.57187" lon="-2.21207">
        <ele>59</ele>
        <time>2021-07-30T15:02:24.000Z</time>
      </trkpt>
      <trkpt lat="48.57179" lon="-2.21223">
        <ele>59</ele>
        <time>2021-07-30T15:02:26.000Z</time>
      </trkpt>
      <trkpt lat="48.57174" lon="-2.21239">
        <ele>60</ele>
        <time>2021-07-30T15:02:29.000Z</time>
      </trkpt>
      <trkpt lat="48.57177" lon="-2.21253">
        <ele>59</ele>
        <time>2021-07-30T15:02:33.000Z</time>
      </trkpt>
      <trkpt lat="48.57188" lon="-2.21256">
        <ele>59</ele>
        <time>2021-07-30T15:02:36.000Z</time>
      </trkpt>
      <trkpt lat="48.572" lon="-2.21262">
        <ele>59</ele>
        <time>2021-07-30T15:02:39.000Z</time>
      </trkpt>
      <trkpt lat="48.5721" lon="-2.21267">
        <ele>59</ele>
        <time>2021-07-30T15:02:41.000Z</time>
      </trkpt>
      <trkpt lat="48.57219" lon="-2.21272">
        <ele>60</ele>
        <time>2021-07-30T15:02:43.000Z</time>
      </trkpt>
      <trkpt lat="48.57229" lon="-2.21278">
        <ele>60</ele>
        <time>2021-07-30T15:02:45.000Z</time>
      </trkpt>
      <trkpt lat="48.57239" lon="-2.21285">
        <ele>59</ele>
        <time>2021-07-30T15:02:47.000Z</time>
      </trkpt>
      <trkpt lat="48.57251" lon="-2.21292">
        <ele>59</ele>
        <time>2021-07-30T15:02:49.000Z</time>
      </trkpt>
      <trkpt lat="48.57262" lon="-2.21299">
        <ele>59</ele>
        <time>2021-07-30T15:02:51.000Z</time>
      </trkpt>
      <trkpt lat="48.57273" lon="-2.21308">
        <ele>59</ele>
        <time>2021-07-30T15:02:53.000Z</time>
      </trkpt>
      <trkpt lat="48.57284" lon="-2.21317">
        <ele>59</ele>
        <time>2021-07-30T15:02:55.000Z</time>
      </trkpt>
      <trkpt lat="48.57294" lon="-2.21324">
        <ele>59</ele>
        <time>2021-07-30T15:02:57.000Z</time>
      </trkpt>
      <trkpt lat="48.57303" lon="-2.2133">
        <ele>59</ele>
        <time>2021-07-30T15:02:59.000Z</time>
      </trkpt>
      <trkpt lat="48.57312" lon="-2.21339">
        <ele>60</ele>
        <time>2021-07-30T15:03:02.000Z</time>
      </trkpt>
      <trkpt lat="48.57321" lon="-2.21347">
        <ele>60</ele>
        <time>2021-07-30T15:03:29.000Z</time>
      </trkpt>
      <trkpt lat="48.57332" lon="-2.21356">
        <ele>60</ele>
        <time>2021-07-30T15:03:33.000Z</time>
      </trkpt>
      <trkpt lat="48.5734" lon="-2.21364">
        <ele>61</ele>
        <time>2021-07-30T15:03:36.000Z</time>
      </trkpt>
      <trkpt lat="48.57349" lon="-2.21372">
        <ele>62</ele>
        <time>2021-07-30T15:03:39.000Z</time>
      </trkpt>
      <trkpt lat="48.57361" lon="-2.2138">
        <ele>62</ele>
        <time>2021-07-30T15:03:42.000Z</time>
      </trkpt>
      <trkpt lat="48.57373" lon="-2.21389">
        <ele>62</ele>
        <time>2021-07-30T15:03:45.000Z</time>
      </trkpt>
      <trkpt lat="48.57381" lon="-2.21397">
        <ele>63</ele>
        <time>2021-07-30T15:03:47.000Z</time>
      </trkpt>
      <trkpt lat="48.57391" lon="-2.21404">
        <ele>62</ele>
        <time>2021-07-30T15:03:49.000Z</time>
      </trkpt>
      <trkpt lat="48.57401" lon="-2.2141">
        <ele>62</ele>
        <time>2021-07-30T15:03:51.000Z</time>
      </trkpt>
      <trkpt lat="48.57411" lon="-2.21417">
        <ele>61</ele>
        <time>2021-07-30T15:03:53.000Z</time>
      </trkpt>
      <trkpt lat="48.57421" lon="-2.21424">
        <ele>61</ele>
        <time>2021-07-30T15:03:55.000Z</time>
      </trkpt>
      <trkpt lat="48.57429" lon="-2.2143">
        <ele>61</ele>
        <time>2021-07-30T15:03:57.000Z</time>
      </trkpt>
      <trkpt lat="48.57437" lon="-2.21435">
        <ele>61</ele>
        <time>2021-07-30T15:03:59.000Z</time>
      </trkpt>
      <trkpt lat="48.57446" lon="-2.21444">
        <ele>61</ele>
        <time>2021-07-30T15:04:02.000Z</time>
      </trkpt>
      <trkpt lat="48.5744" lon="-2.2146">
        <ele>60</ele>
        <time>2021-07-30T15:04:05.000Z</time>
      </trkpt>
      <trkpt lat="48.57435" lon="-2.21473">
        <ele>60</ele>
        <time>2021-07-30T15:04:07.000Z</time>
      </trkpt>
      <trkpt lat="48.57428" lon="-2.21486">
        <ele>60</ele>
        <time>2021-07-30T15:04:09.000Z</time>
      </trkpt>
      <trkpt lat="48.5742" lon="-2.21496">
        <ele>59</ele>
        <time>2021-07-30T15:04:11.000Z</time>
      </trkpt>
      <trkpt lat="48.57417" lon="-2.21514">
        <ele>59</ele>
        <time>2021-07-30T15:04:14.000Z</time>
      </trkpt>
      <trkpt lat="48.57424" lon="-2.2153">
        <ele>59</ele>
        <time>2021-07-30T15:04:17.000Z</time>
      </trkpt>
      <trkpt lat="48.5743" lon="-2.21547">
        <ele>59</ele>
        <time>2021-07-30T15:04:20.000Z</time>
      </trkpt>
      <trkpt lat="48.57433" lon="-2.2156">
        <ele>60</ele>
        <time>2021-07-30T15:04:22.000Z</time>
      </trkpt>
      <trkpt lat="48.57435" lon="-2.21586">
        <ele>60</ele>
        <time>2021-07-30T15:04:26.000Z</time>
      </trkpt>
      <trkpt lat="48.57433" lon="-2.21605">
        <ele>60</ele>
        <time>2021-07-30T15:04:29.000Z</time>
      </trkpt>
      <trkpt lat="48.57429" lon="-2.21622">
        <ele>59</ele>
        <time>2021-07-30T15:04:32.000Z</time>
      </trkpt>
      <trkpt lat="48.57423" lon="-2.21644">
        <ele>60</ele>
        <time>2021-07-30T15:04:36.000Z</time>
      </trkpt>
      <trkpt lat="48.57419" lon="-2.21662">
        <ele>60</ele>
        <time>2021-07-30T15:04:39.000Z</time>
      </trkpt>
      <trkpt lat="48.57414" lon="-2.21678">
        <ele>61</ele>
        <time>2021-07-30T15:04:42.000Z</time>
      </trkpt>
      <trkpt lat="48.57409" lon="-2.21697">
        <ele>61</ele>
        <time>2021-07-30T15:04:45.000Z</time>
      </trkpt>
      <trkpt lat="48.57405" lon="-2.21709">
        <ele>61</ele>
        <time>2021-07-30T15:04:47.000Z</time>
      </trkpt>
      <trkpt lat="48.57401" lon="-2.21722">
        <ele>62</ele>
        <time>2021-07-30T15:04:49.000Z</time>
      </trkpt>
      <trkpt lat="48.57398" lon="-2.21736">
        <ele>62</ele>
        <time>2021-07-30T15:04:51.000Z</time>
      </trkpt>
      <trkpt lat="48.57394" lon="-2.21749">
        <ele>63</ele>
        <time>2021-07-30T15:04:53.000Z</time>
      </trkpt>
      <trkpt lat="48.57391" lon="-2.21764">
        <ele>64</ele>
        <time>2021-07-30T15:04:55.000Z</time>
      </trkpt>
      <trkpt lat="48.57386" lon="-2.21777">
        <ele>65</ele>
        <time>2021-07-30T15:04:57.000Z</time>
      </trkpt>
      <trkpt lat="48.5738" lon="-2.21794">
        <ele>65</ele>
        <time>2021-07-30T15:05:00.000Z</time>
      </trkpt>
      <trkpt lat="48.57374" lon="-2.21811">
        <ele>65</ele>
        <time>2021-07-30T15:05:03.000Z</time>
      </trkpt>
      <trkpt lat="48.57368" lon="-2.21825">
        <ele>66</ele>
        <time>2021-07-30T15:05:06.000Z</time>
      </trkpt>
      <trkpt lat="48.5736" lon="-2.21839">
        <ele>66</ele>
        <time>2021-07-30T15:05:09.000Z</time>
      </trkpt>
      <trkpt lat="48.57353" lon="-2.21849">
        <ele>66</ele>
        <time>2021-07-30T15:05:11.000Z</time>
      </trkpt>
      <trkpt lat="48.57345" lon="-2.21862">
        <ele>66</ele>
        <time>2021-07-30T15:05:14.000Z</time>
      </trkpt>
      <trkpt lat="48.57336" lon="-2.21876">
        <ele>66</ele>
        <time>2021-07-30T15:05:17.000Z</time>
      </trkpt>
      <trkpt lat="48.57327" lon="-2.21886">
        <ele>67</ele>
        <time>2021-07-30T15:05:20.000Z</time>
      </trkpt>
      <trkpt lat="48.57318" lon="-2.21898">
        <ele>68</ele>
        <time>2021-07-30T15:05:23.000Z</time>
      </trkpt>
      <trkpt lat="48.57307" lon="-2.21908">
        <ele>69</ele>
        <time>2021-07-30T15:05:26.000Z</time>
      </trkpt>
      <trkpt lat="48.57298" lon="-2.21913">
        <ele>71</ele>
        <time>2021-07-30T15:06:10.000Z</time>
      </trkpt>
      <trkpt lat="48.5729" lon="-2.21924">
        <ele>71</ele>
        <time>2021-07-30T15:06:14.000Z</time>
      </trkpt>
      <trkpt lat="48.57282" lon="-2.21935">
        <ele>71</ele>
        <time>2021-07-30T15:06:17.000Z</time>
      </trkpt>
      <trkpt lat="48.57274" lon="-2.21946">
        <ele>70</ele>
        <time>2021-07-30T15:06:20.000Z</time>
      </trkpt>
      <trkpt lat="48.57267" lon="-2.21956">
        <ele>70</ele>
        <time>2021-07-30T15:06:23.000Z</time>
      </trkpt>
      <trkpt lat="48.57274" lon="-2.21969">
        <ele>71</ele>
        <time>2021-07-30T15:06:31.000Z</time>
      </trkpt>
      <trkpt lat="48.57281" lon="-2.21979">
        <ele>72</ele>
        <time>2021-07-30T15:06:35.000Z</time>
      </trkpt>
      <trkpt lat="48.5729" lon="-2.2199">
        <ele>72</ele>
        <time>2021-07-30T15:06:39.000Z</time>
      </trkpt>
      <trkpt lat="48.573" lon="-2.21999">
        <ele>73</ele>
        <time>2021-07-30T15:06:43.000Z</time>
      </trkpt>
      <trkpt lat="48.5731" lon="-2.22005">
        <ele>73</ele>
        <time>2021-07-30T15:06:48.000Z</time>
      </trkpt>
      <trkpt lat="48.57318" lon="-2.22012">
        <ele>74</ele>
        <time>2021-07-30T15:06:53.000Z</time>
      </trkpt>
      <trkpt lat="48.57328" lon="-2.22016">
        <ele>74</ele>
        <time>2021-07-30T15:07:00.000Z</time>
      </trkpt>
      <trkpt lat="48.57337" lon="-2.22023">
        <ele>75</ele>
        <time>2021-07-30T15:07:05.000Z</time>
      </trkpt>
      <trkpt lat="48.57346" lon="-2.22028">
        <ele>76</ele>
        <time>2021-07-30T15:07:12.000Z</time>
      </trkpt>
      <trkpt lat="48.57353" lon="-2.22039">
        <ele>78</ele>
        <time>2021-07-30T15:07:17.000Z</time>
      </trkpt>
      <trkpt lat="48.5736" lon="-2.22047">
        <ele>78</ele>
        <time>2021-07-30T15:07:23.000Z</time>
      </trkpt>
      <trkpt lat="48.5737" lon="-2.22054">
        <ele>78</ele>
        <time>2021-07-30T15:07:27.000Z</time>
      </trkpt>
      <trkpt lat="48.5738" lon="-2.22056">
        <ele>79</ele>
        <time>2021-07-30T15:07:31.000Z</time>
      </trkpt>
      <trkpt lat="48.57388" lon="-2.22064">
        <ele>78</ele>
        <time>2021-07-30T15:07:35.000Z</time>
      </trkpt>
      <trkpt lat="48.57398" lon="-2.22072">
        <ele>78</ele>
        <time>2021-07-30T15:07:41.000Z</time>
      </trkpt>
      <trkpt lat="48.57407" lon="-2.22075">
        <ele>80</ele>
        <time>2021-07-30T15:07:49.000Z</time>
      </trkpt>
      <trkpt lat="48.57412" lon="-2.22063">
        <ele>80</ele>
        <time>2021-07-30T15:07:55.000Z</time>
      </trkpt>
      <trkpt lat="48.57417" lon="-2.22048">
        <ele>80</ele>
        <time>2021-07-30T15:08:00.000Z</time>
      </trkpt>
      <trkpt lat="48.57422" lon="-2.22034">
        <ele>83</ele>
        <time>2021-07-30T15:08:06.000Z</time>
      </trkpt>
      <trkpt lat="48.57427" lon="-2.22021">
        <ele>83</ele>
        <time>2021-07-30T15:08:11.000Z</time>
      </trkpt>
      <trkpt lat="48.57435" lon="-2.2201">
        <ele>83</ele>
        <time>2021-07-30T15:08:16.000Z</time>
      </trkpt>
      <trkpt lat="48.57444" lon="-2.22001">
        <ele>84</ele>
        <time>2021-07-30T15:08:20.000Z</time>
      </trkpt>
      <trkpt lat="48.57453" lon="-2.21988">
        <ele>84</ele>
        <time>2021-07-30T15:08:24.000Z</time>
      </trkpt>
      <trkpt lat="48.57463" lon="-2.21974">
        <ele>84</ele>
        <time>2021-07-30T15:08:27.000Z</time>
      </trkpt>
      <trkpt lat="48.57473" lon="-2.21959">
        <ele>86</ele>
        <time>2021-07-30T15:08:30.000Z</time>
      </trkpt>
      <trkpt lat="48.57481" lon="-2.21948">
        <ele>85</ele>
        <time>2021-07-30T15:08:32.000Z</time>
      </trkpt>
      <trkpt lat="48.57488" lon="-2.21936">
        <ele>84</ele>
        <time>2021-07-30T15:08:34.000Z</time>
      </trkpt>
      <trkpt lat="48.57495" lon="-2.21925">
        <ele>84</ele>
        <time>2021-07-30T15:08:36.000Z</time>
      </trkpt>
      <trkpt lat="48.57504" lon="-2.21916">
        <ele>84</ele>
        <time>2021-07-30T15:08:39.000Z</time>
      </trkpt>
      <trkpt lat="48.57515" lon="-2.21909">
        <ele>83</ele>
        <time>2021-07-30T15:08:42.000Z</time>
      </trkpt>
      <trkpt lat="48.57524" lon="-2.21902">
        <ele>82</ele>
        <time>2021-07-30T15:08:45.000Z</time>
      </trkpt>
      <trkpt lat="48.57534" lon="-2.21895">
        <ele>82</ele>
        <time>2021-07-30T15:08:48.000Z</time>
      </trkpt>
      <trkpt lat="48.57542" lon="-2.21886">
        <ele>82</ele>
        <time>2021-07-30T15:08:51.000Z</time>
      </trkpt>
      <trkpt lat="48.57551" lon="-2.21875">
        <ele>83</ele>
        <time>2021-07-30T15:08:54.000Z</time>
      </trkpt>
      <trkpt lat="48.57559" lon="-2.21863">
        <ele>82</ele>
        <time>2021-07-30T15:08:57.000Z</time>
      </trkpt>
      <trkpt lat="48.57567" lon="-2.21852">
        <ele>82</ele>
        <time>2021-07-30T15:09:00.000Z</time>
      </trkpt>
      <trkpt lat="48.57574" lon="-2.21841">
        <ele>83</ele>
        <time>2021-07-30T15:09:03.000Z</time>
      </trkpt>
      <trkpt lat="48.57583" lon="-2.21832">
        <ele>82</ele>
        <time>2021-07-30T15:09:06.000Z</time>
      </trkpt>
      <trkpt lat="48.5759" lon="-2.21819">
        <ele>82</ele>
        <time>2021-07-30T15:09:09.000Z</time>
      </trkpt>
      <trkpt lat="48.57596" lon="-2.21802">
        <ele>82</ele>
        <time>2021-07-30T15:09:12.000Z</time>
      </trkpt>
      <trkpt lat="48.57601" lon="-2.21791">
        <ele>82</ele>
        <time>2021-07-30T15:09:14.000Z</time>
      </trkpt>
      <trkpt lat="48.57592" lon="-2.21793">
        <ele>83</ele>
        <time>2021-07-30T15:09:20.000Z</time>
      </trkpt>
      <trkpt lat="48.57592" lon="-2.21808">
        <ele>83</ele>
        <time>2021-07-30T15:09:23.000Z</time>
      </trkpt>
      <trkpt lat="48.57588" lon="-2.21821">
        <ele>84</ele>
        <time>2021-07-30T15:09:26.000Z</time>
      </trkpt>
      <trkpt lat="48.57587" lon="-2.21836">
        <ele>84</ele>
        <time>2021-07-30T15:09:29.000Z</time>
      </trkpt>
      <trkpt lat="48.57584" lon="-2.21848">
        <ele>85</ele>
        <time>2021-07-30T15:09:32.000Z</time>
      </trkpt>
      <trkpt lat="48.57583" lon="-2.21863">
        <ele>85</ele>
        <time>2021-07-30T15:09:35.000Z</time>
      </trkpt>
      <trkpt lat="48.57585" lon="-2.21878">
        <ele>85</ele>
        <time>2021-07-30T15:09:38.000Z</time>
      </trkpt>
      <trkpt lat="48.57584" lon="-2.21893">
        <ele>86</ele>
        <time>2021-07-30T15:09:41.000Z</time>
      </trkpt>
      <trkpt lat="48.57584" lon="-2.21909">
        <ele>86</ele>
        <time>2021-07-30T15:09:46.000Z</time>
      </trkpt>
      <trkpt lat="48.57584" lon="-2.21927">
        <ele>86</ele>
        <time>2021-07-30T15:09:50.000Z</time>
      </trkpt>
      <trkpt lat="48.57583" lon="-2.21941">
        <ele>86</ele>
        <time>2021-07-30T15:09:53.000Z</time>
      </trkpt>
      <trkpt lat="48.57582" lon="-2.21958">
        <ele>87</ele>
        <time>2021-07-30T15:09:57.000Z</time>
      </trkpt>
      <trkpt lat="48.57582" lon="-2.21975">
        <ele>87</ele>
        <time>2021-07-30T15:10:01.000Z</time>
      </trkpt>
      <trkpt lat="48.57581" lon="-2.21992">
        <ele>88</ele>
        <time>2021-07-30T15:10:05.000Z</time>
      </trkpt>
      <trkpt lat="48.57581" lon="-2.22006">
        <ele>88</ele>
        <time>2021-07-30T15:10:08.000Z</time>
      </trkpt>
      <trkpt lat="48.5758" lon="-2.22023">
        <ele>89</ele>
        <time>2021-07-30T15:10:12.000Z</time>
      </trkpt>
      <trkpt lat="48.57578" lon="-2.2204">
        <ele>89</ele>
        <time>2021-07-30T15:10:16.000Z</time>
      </trkpt>
      <trkpt lat="48.57575" lon="-2.22055">
        <ele>90</ele>
        <time>2021-07-30T15:10:20.000Z</time>
      </trkpt>
      <trkpt lat="48.57573" lon="-2.22072">
        <ele>92</ele>
        <time>2021-07-30T15:10:25.000Z</time>
      </trkpt>
      <trkpt lat="48.57581" lon="-2.22081">
        <ele>92</ele>
        <time>2021-07-30T15:10:31.000Z</time>
      </trkpt>
      <trkpt lat="48.5759" lon="-2.22078">
        <ele>93</ele>
        <time>2021-07-30T15:10:35.000Z</time>
      </trkpt>
      <trkpt lat="48.57599" lon="-2.22073">
        <ele>93</ele>
        <time>2021-07-30T15:10:38.000Z</time>
      </trkpt>
      <trkpt lat="48.5761" lon="-2.2207">
        <ele>93</ele>
        <time>2021-07-30T15:10:41.000Z</time>
      </trkpt>
      <trkpt lat="48.5762" lon="-2.22071">
        <ele>94</ele>
        <time>2021-07-30T15:10:44.000Z</time>
      </trkpt>
      <trkpt lat="48.57629" lon="-2.22077">
        <ele>95</ele>
        <time>2021-07-30T15:10:48.000Z</time>
      </trkpt>
      <trkpt lat="48.57637" lon="-2.22085">
        <ele>95</ele>
        <time>2021-07-30T15:10:52.000Z</time>
      </trkpt>
      <trkpt lat="48.57646" lon="-2.22093">
        <ele>95</ele>
        <time>2021-07-30T15:10:57.000Z</time>
      </trkpt>
      <trkpt lat="48.57656" lon="-2.22088">
        <ele>96</ele>
        <time>2021-07-30T15:11:02.000Z</time>
      </trkpt>
      <trkpt lat="48.57666" lon="-2.22082">
        <ele>95</ele>
        <time>2021-07-30T15:11:06.000Z</time>
      </trkpt>
      <trkpt lat="48.57674" lon="-2.22074">
        <ele>95</ele>
        <time>2021-07-30T15:11:09.000Z</time>
      </trkpt>
      <trkpt lat="48.57666" lon="-2.2208">
        <ele>96</ele>
        <time>2021-07-30T15:11:33.000Z</time>
      </trkpt>
      <trkpt lat="48.57657" lon="-2.22088">
        <ele>97</ele>
        <time>2021-07-30T15:11:38.000Z</time>
      </trkpt>
      <trkpt lat="48.5765" lon="-2.22096">
        <ele>98</ele>
        <time>2021-07-30T15:11:42.000Z</time>
      </trkpt>
      <trkpt lat="48.57643" lon="-2.22106">
        <ele>99</ele>
        <time>2021-07-30T15:11:48.000Z</time>
      </trkpt>
      <trkpt lat="48.57634" lon="-2.2211">
        <ele>100</ele>
        <time>2021-07-30T15:11:59.000Z</time>
      </trkpt>
      <trkpt lat="48.57625" lon="-2.22108">
        <ele>100</ele>
        <time>2021-07-30T15:12:03.000Z</time>
      </trkpt>
      <trkpt lat="48.57613" lon="-2.22112">
        <ele>100</ele>
        <time>2021-07-30T15:12:06.000Z</time>
      </trkpt>
      <trkpt lat="48.57603" lon="-2.22114">
        <ele>100</ele>
        <time>2021-07-30T15:12:09.000Z</time>
      </trkpt>
      <trkpt lat="48.57593" lon="-2.22112">
        <ele>100</ele>
        <time>2021-07-30T15:12:13.000Z</time>
      </trkpt>
      <trkpt lat="48.57582" lon="-2.22111">
        <ele>101</ele>
        <time>2021-07-30T15:12:16.000Z</time>
      </trkpt>
      <trkpt lat="48.5757" lon="-2.22114">
        <ele>103</ele>
        <time>2021-07-30T15:12:18.000Z</time>
      </trkpt>
      <trkpt lat="48.57562" lon="-2.22121">
        <ele>103</ele>
        <time>2021-07-30T15:12:20.000Z</time>
      </trkpt>
      <trkpt lat="48.57558" lon="-2.22133">
        <ele>101</ele>
        <time>2021-07-30T15:12:22.000Z</time>
      </trkpt>
      <trkpt lat="48.57554" lon="-2.22148">
        <ele>99</ele>
        <time>2021-07-30T15:12:24.000Z</time>
      </trkpt>
      <trkpt lat="48.57549" lon="-2.22163">
        <ele>98</ele>
        <time>2021-07-30T15:12:26.000Z</time>
      </trkpt>
      <trkpt lat="48.57544" lon="-2.22178">
        <ele>97</ele>
        <time>2021-07-30T15:12:28.000Z</time>
      </trkpt>
      <trkpt lat="48.5754" lon="-2.22194">
        <ele>96</ele>
        <time>2021-07-30T15:12:30.000Z</time>
      </trkpt>
      <trkpt lat="48.57536" lon="-2.22208">
        <ele>96</ele>
        <time>2021-07-30T15:12:32.000Z</time>
      </trkpt>
      <trkpt lat="48.57532" lon="-2.22223">
        <ele>96</ele>
        <time>2021-07-30T15:12:34.000Z</time>
      </trkpt>
      <trkpt lat="48.5753" lon="-2.22237">
        <ele>96</ele>
        <time>2021-07-30T15:12:36.000Z</time>
      </trkpt>
      <trkpt lat="48.57532" lon="-2.22257">
        <ele>96</ele>
        <time>2021-07-30T15:12:39.000Z</time>
      </trkpt>
      <trkpt lat="48.57534" lon="-2.22275">
        <ele>96</ele>
        <time>2021-07-30T15:12:42.000Z</time>
      </trkpt>
      <trkpt lat="48.57532" lon="-2.22293">
        <ele>97</ele>
        <time>2021-07-30T15:12:45.000Z</time>
      </trkpt>
      <trkpt lat="48.57529" lon="-2.2231">
        <ele>97</ele>
        <time>2021-07-30T15:12:48.000Z</time>
      </trkpt>
      <trkpt lat="48.57526" lon="-2.22327">
        <ele>97</ele>
        <time>2021-07-30T15:12:51.000Z</time>
      </trkpt>
      <trkpt lat="48.57524" lon="-2.22343">
        <ele>98</ele>
        <time>2021-07-30T15:12:54.000Z</time>
      </trkpt>
      <trkpt lat="48.57517" lon="-2.22358">
        <ele>96</ele>
        <time>2021-07-30T15:14:11.000Z</time>
      </trkpt>
      <trkpt lat="48.57509" lon="-2.22372">
        <ele>96</ele>
        <time>2021-07-30T15:14:14.000Z</time>
      </trkpt>
      <trkpt lat="48.57503" lon="-2.22384">
        <ele>96</ele>
        <time>2021-07-30T15:14:16.000Z</time>
      </trkpt>
      <trkpt lat="48.57498" lon="-2.22396">
        <ele>96</ele>
        <time>2021-07-30T15:14:18.000Z</time>
      </trkpt>
      <trkpt lat="48.5749" lon="-2.22411">
        <ele>97</ele>
        <time>2021-07-30T15:14:21.000Z</time>
      </trkpt>
      <trkpt lat="48.57483" lon="-2.22425">
        <ele>97</ele>
        <time>2021-07-30T15:14:24.000Z</time>
      </trkpt>
      <trkpt lat="48.57478" lon="-2.22438">
        <ele>97</ele>
        <time>2021-07-30T15:14:28.000Z</time>
      </trkpt>
      <trkpt lat="48.57477" lon="-2.22454">
        <ele>97</ele>
        <time>2021-07-30T15:14:32.000Z</time>
      </trkpt>
      <trkpt lat="48.57479" lon="-2.22469">
        <ele>96</ele>
        <time>2021-07-30T15:14:35.000Z</time>
      </trkpt>
      <trkpt lat="48.57481" lon="-2.22484">
        <ele>97</ele>
        <time>2021-07-30T15:14:38.000Z</time>
      </trkpt>
      <trkpt lat="48.57482" lon="-2.22499">
        <ele>97</ele>
        <time>2021-07-30T15:14:41.000Z</time>
      </trkpt>
      <trkpt lat="48.57475" lon="-2.22511">
        <ele>96</ele>
        <time>2021-07-30T15:14:44.000Z</time>
      </trkpt>
      <trkpt lat="48.57467" lon="-2.22519">
        <ele>97</ele>
        <time>2021-07-30T15:14:46.000Z</time>
      </trkpt>
      <trkpt lat="48.57459" lon="-2.22529">
        <ele>97</ele>
        <time>2021-07-30T15:14:48.000Z</time>
      </trkpt>
      <trkpt lat="48.57451" lon="-2.22539">
        <ele>97</ele>
        <time>2021-07-30T15:14:50.000Z</time>
      </trkpt>
      <trkpt lat="48.57443" lon="-2.22549">
        <ele>97</ele>
        <time>2021-07-30T15:14:52.000Z</time>
      </trkpt>
      <trkpt lat="48.57435" lon="-2.22559">
        <ele>97</ele>
        <time>2021-07-30T15:14:54.000Z</time>
      </trkpt>
      <trkpt lat="48.57427" lon="-2.2257">
        <ele>98</ele>
        <time>2021-07-30T15:14:56.000Z</time>
      </trkpt>
      <trkpt lat="48.57419" lon="-2.22578">
        <ele>98</ele>
        <time>2021-07-30T15:14:58.000Z</time>
      </trkpt>
      <trkpt lat="48.57411" lon="-2.22588">
        <ele>98</ele>
        <time>2021-07-30T15:15:00.000Z</time>
      </trkpt>
      <trkpt lat="48.57403" lon="-2.22597">
        <ele>98</ele>
        <time>2021-07-30T15:15:02.000Z</time>
      </trkpt>
      <trkpt lat="48.57394" lon="-2.22605">
        <ele>98</ele>
        <time>2021-07-30T15:15:04.000Z</time>
      </trkpt>
      <trkpt lat="48.57386" lon="-2.22613">
        <ele>98</ele>
        <time>2021-07-30T15:15:06.000Z</time>
      </trkpt>
      <trkpt lat="48.57375" lon="-2.22625">
        <ele>98</ele>
        <time>2021-07-30T15:15:09.000Z</time>
      </trkpt>
      <trkpt lat="48.57364" lon="-2.22635">
        <ele>98</ele>
        <time>2021-07-30T15:15:12.000Z</time>
      </trkpt>
      <trkpt lat="48.57354" lon="-2.22648">
        <ele>98</ele>
        <time>2021-07-30T15:15:15.000Z</time>
      </trkpt>
      <trkpt lat="48.57345" lon="-2.2266">
        <ele>99</ele>
        <time>2021-07-30T15:15:18.000Z</time>
      </trkpt>
      <trkpt lat="48.57337" lon="-2.22668">
        <ele>99</ele>
        <time>2021-07-30T15:15:21.000Z</time>
      </trkpt>
      <trkpt lat="48.57328" lon="-2.22676">
        <ele>100</ele>
        <time>2021-07-30T15:15:24.000Z</time>
      </trkpt>
      <trkpt lat="48.57321" lon="-2.22689">
        <ele>100</ele>
        <time>2021-07-30T15:15:28.000Z</time>
      </trkpt>
      <trkpt lat="48.5732" lon="-2.22704">
        <ele>100</ele>
        <time>2021-07-30T15:15:31.000Z</time>
      </trkpt>
      <trkpt lat="48.57321" lon="-2.22717">
        <ele>100</ele>
        <time>2021-07-30T15:15:34.000Z</time>
      </trkpt>
      <trkpt lat="48.57321" lon="-2.22732">
        <ele>100</ele>
        <time>2021-07-30T15:15:38.000Z</time>
      </trkpt>
      <trkpt lat="48.57318" lon="-2.22745">
        <ele>99</ele>
        <time>2021-07-30T15:16:05.000Z</time>
      </trkpt>
      <trkpt lat="48.57326" lon="-2.22755">
        <ele>97</ele>
        <time>2021-07-30T15:17:38.000Z</time>
      </trkpt>
      <trkpt lat="48.5733" lon="-2.22772">
        <ele>97</ele>
        <time>2021-07-30T15:17:42.000Z</time>
      </trkpt>
      <trkpt lat="48.57334" lon="-2.22787">
        <ele>97</ele>
        <time>2021-07-30T15:17:45.000Z</time>
      </trkpt>
      <trkpt lat="48.57337" lon="-2.22801">
        <ele>97</ele>
        <time>2021-07-30T15:17:47.000Z</time>
      </trkpt>
      <trkpt lat="48.57339" lon="-2.22818">
        <ele>97</ele>
        <time>2021-07-30T15:17:49.000Z</time>
      </trkpt>
      <trkpt lat="48.57343" lon="-2.22834">
        <ele>97</ele>
        <time>2021-07-30T15:17:51.000Z</time>
      </trkpt>
      <trkpt lat="48.57347" lon="-2.2285">
        <ele>96</ele>
        <time>2021-07-30T15:17:54.000Z</time>
      </trkpt>
      <trkpt lat="48.57348" lon="-2.22866">
        <ele>95</ele>
        <time>2021-07-30T15:17:57.000Z</time>
      </trkpt>
      <trkpt lat="48.57346" lon="-2.22882">
        <ele>94</ele>
        <time>2021-07-30T15:18:00.000Z</time>
      </trkpt>
      <trkpt lat="48.57342" lon="-2.229">
        <ele>94</ele>
        <time>2021-07-30T15:18:02.000Z</time>
      </trkpt>
      <trkpt lat="48.57338" lon="-2.22915">
        <ele>93</ele>
        <time>2021-07-30T15:18:04.000Z</time>
      </trkpt>
      <trkpt lat="48.5734" lon="-2.2293">
        <ele>92</ele>
        <time>2021-07-30T15:18:07.000Z</time>
      </trkpt>
      <trkpt lat="48.57348" lon="-2.2294">
        <ele>91</ele>
        <time>2021-07-30T15:18:10.000Z</time>
      </trkpt>
      <trkpt lat="48.57358" lon="-2.22946">
        <ele>90</ele>
        <time>2021-07-30T15:18:13.000Z</time>
      </trkpt>
      <trkpt lat="48.57369" lon="-2.22951">
        <ele>90</ele>
        <time>2021-07-30T15:18:16.000Z</time>
      </trkpt>
      <trkpt lat="48.57382" lon="-2.22959">
        <ele>89</ele>
        <time>2021-07-30T15:18:19.000Z</time>
      </trkpt>
      <trkpt lat="48.57392" lon="-2.22964">
        <ele>89</ele>
        <time>2021-07-30T15:18:21.000Z</time>
      </trkpt>
      <trkpt lat="48.57401" lon="-2.22968">
        <ele>89</ele>
        <time>2021-07-30T15:18:23.000Z</time>
      </trkpt>
      <trkpt lat="48.57411" lon="-2.22973">
        <ele>89</ele>
        <time>2021-07-30T15:18:25.000Z</time>
      </trkpt>
      <trkpt lat="48.57421" lon="-2.22977">
        <ele>90</ele>
        <time>2021-07-30T15:18:27.000Z</time>
      </trkpt>
      <trkpt lat="48.57431" lon="-2.2298">
        <ele>90</ele>
        <time>2021-07-30T15:18:29.000Z</time>
      </trkpt>
      <trkpt lat="48.57442" lon="-2.22983">
        <ele>90</ele>
        <time>2021-07-30T15:18:31.000Z</time>
      </trkpt>
      <trkpt lat="48.57452" lon="-2.22986">
        <ele>90</ele>
        <time>2021-07-30T15:18:33.000Z</time>
      </trkpt>
      <trkpt lat="48.57463" lon="-2.22989">
        <ele>91</ele>
        <time>2021-07-30T15:18:35.000Z</time>
      </trkpt>
      <trkpt lat="48.57473" lon="-2.22991">
        <ele>91</ele>
        <time>2021-07-30T15:18:37.000Z</time>
      </trkpt>
      <trkpt lat="48.57484" lon="-2.22994">
        <ele>90</ele>
        <time>2021-07-30T15:18:39.000Z</time>
      </trkpt>
      <trkpt lat="48.57496" lon="-2.22998">
        <ele>89</ele>
        <time>2021-07-30T15:18:41.000Z</time>
      </trkpt>
      <trkpt lat="48.57508" lon="-2.23001">
        <ele>89</ele>
        <time>2021-07-30T15:18:43.000Z</time>
      </trkpt>
      <trkpt lat="48.57521" lon="-2.23005">
        <ele>89</ele>
        <time>2021-07-30T15:18:45.000Z</time>
      </trkpt>
      <trkpt lat="48.57532" lon="-2.23008">
        <ele>89</ele>
        <time>2021-07-30T15:18:47.000Z</time>
      </trkpt>
      <trkpt lat="48.57544" lon="-2.23013">
        <ele>88</ele>
        <time>2021-07-30T15:18:49.000Z</time>
      </trkpt>
      <trkpt lat="48.57555" lon="-2.23017">
        <ele>88</ele>
        <time>2021-07-30T15:18:51.000Z</time>
      </trkpt>
      <trkpt lat="48.57566" lon="-2.23019">
        <ele>89</ele>
        <time>2021-07-30T15:18:53.000Z</time>
      </trkpt>
      <trkpt lat="48.57577" lon="-2.23023">
        <ele>89</ele>
        <time>2021-07-30T15:18:55.000Z</time>
      </trkpt>
      <trkpt lat="48.57587" lon="-2.23027">
        <ele>90</ele>
        <time>2021-07-30T15:18:57.000Z</time>
      </trkpt>
      <trkpt lat="48.57598" lon="-2.2303">
        <ele>89</ele>
        <time>2021-07-30T15:18:59.000Z</time>
      </trkpt>
      <trkpt lat="48.57609" lon="-2.23033">
        <ele>89</ele>
        <time>2021-07-30T15:19:01.000Z</time>
      </trkpt>
      <trkpt lat="48.5762" lon="-2.23041">
        <ele>89</ele>
        <time>2021-07-30T15:19:03.000Z</time>
      </trkpt>
      <trkpt lat="48.57632" lon="-2.2305">
        <ele>89</ele>
        <time>2021-07-30T15:19:05.000Z</time>
      </trkpt>
      <trkpt lat="48.57643" lon="-2.23058">
        <ele>90</ele>
        <time>2021-07-30T15:19:07.000Z</time>
      </trkpt>
      <trkpt lat="48.57653" lon="-2.23067">
        <ele>90</ele>
        <time>2021-07-30T15:19:09.000Z</time>
      </trkpt>
      <trkpt lat="48.57663" lon="-2.23075">
        <ele>90</ele>
        <time>2021-07-30T15:19:11.000Z</time>
      </trkpt>
      <trkpt lat="48.57671" lon="-2.23083">
        <ele>89</ele>
        <time>2021-07-30T15:19:13.000Z</time>
      </trkpt>
      <trkpt lat="48.57681" lon="-2.23092">
        <ele>89</ele>
        <time>2021-07-30T15:19:15.000Z</time>
      </trkpt>
      <trkpt lat="48.57689" lon="-2.231">
        <ele>88</ele>
        <time>2021-07-30T15:19:17.000Z</time>
      </trkpt>
      <trkpt lat="48.57698" lon="-2.23108">
        <ele>88</ele>
        <time>2021-07-30T15:19:19.000Z</time>
      </trkpt>
      <trkpt lat="48.57706" lon="-2.23116">
        <ele>88</ele>
        <time>2021-07-30T15:19:21.000Z</time>
      </trkpt>
      <trkpt lat="48.57714" lon="-2.23124">
        <ele>88</ele>
        <time>2021-07-30T15:19:23.000Z</time>
      </trkpt>
      <trkpt lat="48.57722" lon="-2.23132">
        <ele>89</ele>
        <time>2021-07-30T15:19:25.000Z</time>
      </trkpt>
      <trkpt lat="48.57732" lon="-2.23142">
        <ele>89</ele>
        <time>2021-07-30T15:19:28.000Z</time>
      </trkpt>
      <trkpt lat="48.57723" lon="-2.23131">
        <ele>89</ele>
        <time>2021-07-30T15:19:35.000Z</time>
      </trkpt>
      <trkpt lat="48.57723" lon="-2.23112">
        <ele>89</ele>
        <time>2021-07-30T15:19:38.000Z</time>
      </trkpt>
      <trkpt lat="48.57727" lon="-2.23098">
        <ele>89</ele>
        <time>2021-07-30T15:19:40.000Z</time>
      </trkpt>
      <trkpt lat="48.57728" lon="-2.23082">
        <ele>90</ele>
        <time>2021-07-30T15:19:42.000Z</time>
      </trkpt>
      <trkpt lat="48.57729" lon="-2.23067">
        <ele>90</ele>
        <time>2021-07-30T15:19:44.000Z</time>
      </trkpt>
      <trkpt lat="48.5773" lon="-2.23052">
        <ele>90</ele>
        <time>2021-07-30T15:19:46.000Z</time>
      </trkpt>
      <trkpt lat="48.5773" lon="-2.23038">
        <ele>90</ele>
        <time>2021-07-30T15:19:48.000Z</time>
      </trkpt>
      <trkpt lat="48.57733" lon="-2.23019">
        <ele>90</ele>
        <time>2021-07-30T15:19:51.000Z</time>
      </trkpt>
      <trkpt lat="48.57734" lon="-2.22999">
        <ele>90</ele>
        <time>2021-07-30T15:19:54.000Z</time>
      </trkpt>
      <trkpt lat="48.57733" lon="-2.22981">
        <ele>90</ele>
        <time>2021-07-30T15:19:56.000Z</time>
      </trkpt>
      <trkpt lat="48.57734" lon="-2.22963">
        <ele>90</ele>
        <time>2021-07-30T15:19:58.000Z</time>
      </trkpt>
      <trkpt lat="48.57735" lon="-2.22945">
        <ele>91</ele>
        <time>2021-07-30T15:20:00.000Z</time>
      </trkpt>
      <trkpt lat="48.57738" lon="-2.22929">
        <ele>91</ele>
        <time>2021-07-30T15:20:02.000Z</time>
      </trkpt>
      <trkpt lat="48.5774" lon="-2.2291">
        <ele>92</ele>
        <time>2021-07-30T15:20:05.000Z</time>
      </trkpt>
      <trkpt lat="48.57739" lon="-2.22894">
        <ele>93</ele>
        <time>2021-07-30T15:20:08.000Z</time>
      </trkpt>
      <trkpt lat="48.57736" lon="-2.22878">
        <ele>94</ele>
        <time>2021-07-30T15:20:11.000Z</time>
      </trkpt>
      <trkpt lat="48.57732" lon="-2.22863">
        <ele>96</ele>
        <time>2021-07-30T15:20:14.000Z</time>
      </trkpt>
      <trkpt lat="48.57727" lon="-2.22848">
        <ele>97</ele>
        <time>2021-07-30T15:20:17.000Z</time>
      </trkpt>
      <trkpt lat="48.57715" lon="-2.22833">
        <ele>98</ele>
        <time>2021-07-30T15:20:21.000Z</time>
      </trkpt>
      <trkpt lat="48.57706" lon="-2.22826">
        <ele>100</ele>
        <time>2021-07-30T15:20:24.000Z</time>
      </trkpt>
      <trkpt lat="48.57694" lon="-2.22821">
        <ele>100</ele>
        <time>2021-07-30T15:20:27.000Z</time>
      </trkpt>
      <trkpt lat="48.57682" lon="-2.2282">
        <ele>101</ele>
        <time>2021-07-30T15:20:30.000Z</time>
      </trkpt>
      <trkpt lat="48.57668" lon="-2.22819">
        <ele>102</ele>
        <time>2021-07-30T15:20:33.000Z</time>
      </trkpt>
      <trkpt lat="48.57659" lon="-2.22817">
        <ele>102</ele>
        <time>2021-07-30T15:20:35.000Z</time>
      </trkpt>
      <trkpt lat="48.57644" lon="-2.22816">
        <ele>103</ele>
        <time>2021-07-30T15:20:38.000Z</time>
      </trkpt>
      <trkpt lat="48.57633" lon="-2.22815">
        <ele>103</ele>
        <time>2021-07-30T15:20:40.000Z</time>
      </trkpt>
      <trkpt lat="48.57622" lon="-2.22815">
        <ele>103</ele>
        <time>2021-07-30T15:20:42.000Z</time>
      </trkpt>
      <trkpt lat="48.57611" lon="-2.22814">
        <ele>103</ele>
        <time>2021-07-30T15:20:44.000Z</time>
      </trkpt>
      <trkpt lat="48.57599" lon="-2.22812">
        <ele>103</ele>
        <time>2021-07-30T15:20:46.000Z</time>
      </trkpt>
      <trkpt lat="48.57582" lon="-2.22806">
        <ele>103</ele>
        <time>2021-07-30T15:20:49.000Z</time>
      </trkpt>
      <trkpt lat="48.5757" lon="-2.22788">
        <ele>103</ele>
        <time>2021-07-30T15:20:52.000Z</time>
      </trkpt>
      <trkpt lat="48.57564" lon="-2.22761">
        <ele>102</ele>
        <time>2021-07-30T15:20:55.000Z</time>
      </trkpt>
      <trkpt lat="48.57562" lon="-2.22743">
        <ele>102</ele>
        <time>2021-07-30T15:20:57.000Z</time>
      </trkpt>
      <trkpt lat="48.57558" lon="-2.22725">
        <ele>102</ele>
        <time>2021-07-30T15:20:59.000Z</time>
      </trkpt>
      <trkpt lat="48.57552" lon="-2.22708">
        <ele>102</ele>
        <time>2021-07-30T15:21:01.000Z</time>
      </trkpt>
      <trkpt lat="48.57545" lon="-2.22691">
        <ele>101</ele>
        <time>2021-07-30T15:21:03.000Z</time>
      </trkpt>
      <trkpt lat="48.57539" lon="-2.22676">
        <ele>101</ele>
        <time>2021-07-30T15:21:05.000Z</time>
      </trkpt>
      <trkpt lat="48.57532" lon="-2.22661">
        <ele>101</ele>
        <time>2021-07-30T15:21:07.000Z</time>
      </trkpt>
      <trkpt lat="48.57526" lon="-2.22646">
        <ele>102</ele>
        <time>2021-07-30T15:21:09.000Z</time>
      </trkpt>
      <trkpt lat="48.5752" lon="-2.22631">
        <ele>102</ele>
        <time>2021-07-30T15:21:11.000Z</time>
      </trkpt>
      <trkpt lat="48.57513" lon="-2.22614">
        <ele>102</ele>
        <time>2021-07-30T15:21:13.000Z</time>
      </trkpt>
      <trkpt lat="48.57508" lon="-2.22597">
        <ele>102</ele>
        <time>2021-07-30T15:21:15.000Z</time>
      </trkpt>
      <trkpt lat="48.57502" lon="-2.22578">
        <ele>101</ele>
        <time>2021-07-30T15:21:17.000Z</time>
      </trkpt>
      <trkpt lat="48.57497" lon="-2.22558">
        <ele>101</ele>
        <time>2021-07-30T15:21:19.000Z</time>
      </trkpt>
      <trkpt lat="48.57491" lon="-2.22536">
        <ele>100</ele>
        <time>2021-07-30T15:21:21.000Z</time>
      </trkpt>
      <trkpt lat="48.57485" lon="-2.22515">
        <ele>100</ele>
        <time>2021-07-30T15:21:23.000Z</time>
      </trkpt>
      <trkpt lat="48.57482" lon="-2.22493">
        <ele>99</ele>
        <time>2021-07-30T15:21:25.000Z</time>
      </trkpt>
      <trkpt lat="48.5748" lon="-2.2247">
        <ele>98</ele>
        <time>2021-07-30T15:21:27.000Z</time>
      </trkpt>
      <trkpt lat="48.57479" lon="-2.22446">
        <ele>97</ele>
        <time>2021-07-30T15:21:29.000Z</time>
      </trkpt>
      <trkpt lat="48.57483" lon="-2.22424">
        <ele>97</ele>
        <time>2021-07-30T15:21:31.000Z</time>
      </trkpt>
      <trkpt lat="48.57491" lon="-2.22404">
        <ele>96</ele>
        <time>2021-07-30T15:21:33.000Z</time>
      </trkpt>
      <trkpt lat="48.575" lon="-2.22386">
        <ele>95</ele>
        <time>2021-07-30T15:21:35.000Z</time>
      </trkpt>
      <trkpt lat="48.57509" lon="-2.2237">
        <ele>96</ele>
        <time>2021-07-30T15:21:37.000Z</time>
      </trkpt>
      <trkpt lat="48.57519" lon="-2.22359">
        <ele>96</ele>
        <time>2021-07-30T15:21:39.000Z</time>
      </trkpt>
      <trkpt lat="48.5753" lon="-2.22356">
        <ele>97</ele>
        <time>2021-07-30T15:21:41.000Z</time>
      </trkpt>
      <trkpt lat="48.5754" lon="-2.22357">
        <ele>97</ele>
        <time>2021-07-30T15:21:43.000Z</time>
      </trkpt>
      <trkpt lat="48.5755" lon="-2.22362">
        <ele>97</ele>
        <time>2021-07-30T15:21:45.000Z</time>
      </trkpt>
      <trkpt lat="48.5756" lon="-2.22366">
        <ele>98</ele>
        <time>2021-07-30T15:21:47.000Z</time>
      </trkpt>
      <trkpt lat="48.57569" lon="-2.22371">
        <ele>98</ele>
        <time>2021-07-30T15:21:49.000Z</time>
      </trkpt>
      <trkpt lat="48.57579" lon="-2.22376">
        <ele>98</ele>
        <time>2021-07-30T15:21:51.000Z</time>
      </trkpt>
      <trkpt lat="48.57588" lon="-2.22381">
        <ele>98</ele>
        <time>2021-07-30T15:21:53.000Z</time>
      </trkpt>
      <trkpt lat="48.57598" lon="-2.22385">
        <ele>98</ele>
        <time>2021-07-30T15:21:55.000Z</time>
      </trkpt>
      <trkpt lat="48.57607" lon="-2.22389">
        <ele>98</ele>
        <time>2021-07-30T15:21:57.000Z</time>
      </trkpt>
      <trkpt lat="48.57619" lon="-2.22395">
        <ele>98</ele>
        <time>2021-07-30T15:22:00.000Z</time>
      </trkpt>
      <trkpt lat="48.57628" lon="-2.22398">
        <ele>99</ele>
        <time>2021-07-30T15:22:02.000Z</time>
      </trkpt>
      <trkpt lat="48.57642" lon="-2.22401">
        <ele>99</ele>
        <time>2021-07-30T15:22:05.000Z</time>
      </trkpt>
      <trkpt lat="48.57651" lon="-2.22402">
        <ele>98</ele>
        <time>2021-07-30T15:22:07.000Z</time>
      </trkpt>
      <trkpt lat="48.57661" lon="-2.22403">
        <ele>98</ele>
        <time>2021-07-30T15:22:09.000Z</time>
      </trkpt>
      <trkpt lat="48.57671" lon="-2.22404">
        <ele>98</ele>
        <time>2021-07-30T15:22:11.000Z</time>
      </trkpt>
      <trkpt lat="48.57682" lon="-2.22403">
        <ele>98</ele>
        <time>2021-07-30T15:22:13.000Z</time>
      </trkpt>
      <trkpt lat="48.57692" lon="-2.22403">
        <ele>98</ele>
        <time>2021-07-30T15:22:15.000Z</time>
      </trkpt>
      <trkpt lat="48.57703" lon="-2.22401">
        <ele>98</ele>
        <time>2021-07-30T15:22:17.000Z</time>
      </trkpt>
      <trkpt lat="48.57714" lon="-2.22401">
        <ele>98</ele>
        <time>2021-07-30T15:22:19.000Z</time>
      </trkpt>
      <trkpt lat="48.57724" lon="-2.22399">
        <ele>98</ele>
        <time>2021-07-30T15:22:21.000Z</time>
      </trkpt>
      <trkpt lat="48.57735" lon="-2.22397">
        <ele>98</ele>
        <time>2021-07-30T15:22:23.000Z</time>
      </trkpt>
      <trkpt lat="48.57747" lon="-2.22394">
        <ele>99</ele>
        <time>2021-07-30T15:22:25.000Z</time>
      </trkpt>
      <trkpt lat="48.57758" lon="-2.2239">
        <ele>98</ele>
        <time>2021-07-30T15:22:27.000Z</time>
      </trkpt>
      <trkpt lat="48.57769" lon="-2.22386">
        <ele>99</ele>
        <time>2021-07-30T15:22:29.000Z</time>
      </trkpt>
      <trkpt lat="48.57781" lon="-2.22382">
        <ele>99</ele>
        <time>2021-07-30T15:22:31.000Z</time>
      </trkpt>
      <trkpt lat="48.57794" lon="-2.22378">
        <ele>99</ele>
        <time>2021-07-30T15:22:33.000Z</time>
      </trkpt>
      <trkpt lat="48.57805" lon="-2.22373">
        <ele>99</ele>
        <time>2021-07-30T15:22:35.000Z</time>
      </trkpt>
      <trkpt lat="48.57814" lon="-2.22364">
        <ele>99</ele>
        <time>2021-07-30T15:22:37.000Z</time>
      </trkpt>
      <trkpt lat="48.57826" lon="-2.22363">
        <ele>98</ele>
        <time>2021-07-30T15:22:40.000Z</time>
      </trkpt>
      <trkpt lat="48.57818" lon="-2.22372">
        <ele>100</ele>
        <time>2021-07-30T15:22:44.000Z</time>
      </trkpt>
      <trkpt lat="48.57805" lon="-2.22372">
        <ele>100</ele>
        <time>2021-07-30T15:22:47.000Z</time>
      </trkpt>
      <trkpt lat="48.57794" lon="-2.22378">
        <ele>101</ele>
        <time>2021-07-30T15:22:50.000Z</time>
      </trkpt>
      <trkpt lat="48.57805" lon="-2.22372">
        <ele>100</ele>
        <time>2021-07-30T15:24:07.000Z</time>
      </trkpt>
      <trkpt lat="48.57819" lon="-2.22367">
        <ele>99</ele>
        <time>2021-07-30T15:24:10.000Z</time>
      </trkpt>
      <trkpt lat="48.57828" lon="-2.22363">
        <ele>98</ele>
        <time>2021-07-30T15:24:12.000Z</time>
      </trkpt>
      <trkpt lat="48.57837" lon="-2.2236">
        <ele>98</ele>
        <time>2021-07-30T15:24:14.000Z</time>
      </trkpt>
      <trkpt lat="48.57847" lon="-2.22357">
        <ele>98</ele>
        <time>2021-07-30T15:24:16.000Z</time>
      </trkpt>
      <trkpt lat="48.57856" lon="-2.22353">
        <ele>98</ele>
        <time>2021-07-30T15:24:18.000Z</time>
      </trkpt>
      <trkpt lat="48.57867" lon="-2.22349">
        <ele>98</ele>
        <time>2021-07-30T15:24:20.000Z</time>
      </trkpt>
      <trkpt lat="48.57878" lon="-2.22348">
        <ele>98</ele>
        <time>2021-07-30T15:24:22.000Z</time>
      </trkpt>
      <trkpt lat="48.57888" lon="-2.22346">
        <ele>98</ele>
        <time>2021-07-30T15:24:24.000Z</time>
      </trkpt>
      <trkpt lat="48.57898" lon="-2.22343">
        <ele>98</ele>
        <time>2021-07-30T15:24:26.000Z</time>
      </trkpt>
      <trkpt lat="48.57905" lon="-2.22333">
        <ele>98</ele>
        <time>2021-07-30T15:24:28.000Z</time>
      </trkpt>
      <trkpt lat="48.57906" lon="-2.22318">
        <ele>98</ele>
        <time>2021-07-30T15:24:30.000Z</time>
      </trkpt>
      <trkpt lat="48.57907" lon="-2.22302">
        <ele>97</ele>
        <time>2021-07-30T15:24:32.000Z</time>
      </trkpt>
      <trkpt lat="48.57908" lon="-2.22284">
        <ele>97</ele>
        <time>2021-07-30T15:24:34.000Z</time>
      </trkpt>
      <trkpt lat="48.5791" lon="-2.22267">
        <ele>96</ele>
        <time>2021-07-30T15:24:36.000Z</time>
      </trkpt>
      <trkpt lat="48.57912" lon="-2.2225">
        <ele>95</ele>
        <time>2021-07-30T15:24:38.000Z</time>
      </trkpt>
      <trkpt lat="48.57915" lon="-2.22233">
        <ele>95</ele>
        <time>2021-07-30T15:24:40.000Z</time>
      </trkpt>
      <trkpt lat="48.57917" lon="-2.22216">
        <ele>96</ele>
        <time>2021-07-30T15:24:42.000Z</time>
      </trkpt>
      <trkpt lat="48.57919" lon="-2.22201">
        <ele>96</ele>
        <time>2021-07-30T15:24:44.000Z</time>
      </trkpt>
      <trkpt lat="48.5792" lon="-2.22186">
        <ele>97</ele>
        <time>2021-07-30T15:24:46.000Z</time>
      </trkpt>
      <trkpt lat="48.57921" lon="-2.22172">
        <ele>97</ele>
        <time>2021-07-30T15:24:48.000Z</time>
      </trkpt>
      <trkpt lat="48.57917" lon="-2.22157">
        <ele>98</ele>
        <time>2021-07-30T15:24:51.000Z</time>
      </trkpt>
      <trkpt lat="48.57906" lon="-2.22152">
        <ele>98</ele>
        <time>2021-07-30T15:24:54.000Z</time>
      </trkpt>
      <trkpt lat="48.57895" lon="-2.22146">
        <ele>99</ele>
        <time>2021-07-30T15:24:57.000Z</time>
      </trkpt>
      <trkpt lat="48.57885" lon="-2.22137">
        <ele>100</ele>
        <time>2021-07-30T15:25:00.000Z</time>
      </trkpt>
      <trkpt lat="48.57877" lon="-2.22121">
        <ele>101</ele>
        <time>2021-07-30T15:25:03.000Z</time>
      </trkpt>
      <trkpt lat="48.57871" lon="-2.22104">
        <ele>100</ele>
        <time>2021-07-30T15:25:06.000Z</time>
      </trkpt>
      <trkpt lat="48.57866" lon="-2.2209">
        <ele>100</ele>
        <time>2021-07-30T15:25:09.000Z</time>
      </trkpt>
      <trkpt lat="48.57861" lon="-2.22076">
        <ele>99</ele>
        <time>2021-07-30T15:25:24.000Z</time>
      </trkpt>
      <trkpt lat="48.5787" lon="-2.22083">
        <ele>95</ele>
        <time>2021-07-30T15:25:34.000Z</time>
      </trkpt>
      <trkpt lat="48.57876" lon="-2.22094">
        <ele>96</ele>
        <time>2021-07-30T15:28:44.000Z</time>
      </trkpt>
      <trkpt lat="48.57879" lon="-2.22108">
        <ele>96</ele>
        <time>2021-07-30T15:28:49.000Z</time>
      </trkpt>
      <trkpt lat="48.57884" lon="-2.22123">
        <ele>96</ele>
        <time>2021-07-30T15:28:53.000Z</time>
      </trkpt>
      <trkpt lat="48.5789" lon="-2.22134">
        <ele>96</ele>
        <time>2021-07-30T15:28:56.000Z</time>
      </trkpt>
      <trkpt lat="48.579" lon="-2.22143">
        <ele>95</ele>
        <time>2021-07-30T15:29:00.000Z</time>
      </trkpt>
      <trkpt lat="48.5791" lon="-2.22148">
        <ele>95</ele>
        <time>2021-07-30T15:29:03.000Z</time>
      </trkpt>
      <trkpt lat="48.57922" lon="-2.22152">
        <ele>96</ele>
        <time>2021-07-30T15:29:06.000Z</time>
      </trkpt>
      <trkpt lat="48.57934" lon="-2.22157">
        <ele>97</ele>
        <time>2021-07-30T15:29:09.000Z</time>
      </trkpt>
      <trkpt lat="48.57945" lon="-2.22154">
        <ele>98</ele>
        <time>2021-07-30T15:29:12.000Z</time>
      </trkpt>
      <trkpt lat="48.57948" lon="-2.22138">
        <ele>98</ele>
        <time>2021-07-30T15:29:15.000Z</time>
      </trkpt>
      <trkpt lat="48.57951" lon="-2.22124">
        <ele>97</ele>
        <time>2021-07-30T15:29:19.000Z</time>
      </trkpt>
      <trkpt lat="48.57954" lon="-2.2211">
        <ele>97</ele>
        <time>2021-07-30T15:29:22.000Z</time>
      </trkpt>
      <trkpt lat="48.57959" lon="-2.22095">
        <ele>96</ele>
        <time>2021-07-30T15:29:25.000Z</time>
      </trkpt>
      <trkpt lat="48.57965" lon="-2.22077">
        <ele>96</ele>
        <time>2021-07-30T15:29:28.000Z</time>
      </trkpt>
      <trkpt lat="48.5797" lon="-2.22065">
        <ele>98</ele>
        <time>2021-07-30T15:29:30.000Z</time>
      </trkpt>
      <trkpt lat="48.57974" lon="-2.22052">
        <ele>98</ele>
        <time>2021-07-30T15:29:32.000Z</time>
      </trkpt>
      <trkpt lat="48.57978" lon="-2.22039">
        <ele>99</ele>
        <time>2021-07-30T15:29:34.000Z</time>
      </trkpt>
      <trkpt lat="48.57981" lon="-2.22024">
        <ele>98</ele>
        <time>2021-07-30T15:29:36.000Z</time>
      </trkpt>
      <trkpt lat="48.57984" lon="-2.2201">
        <ele>99</ele>
        <time>2021-07-30T15:29:38.000Z</time>
      </trkpt>
      <trkpt lat="48.57986" lon="-2.21995">
        <ele>99</ele>
        <time>2021-07-30T15:29:40.000Z</time>
      </trkpt>
      <trkpt lat="48.57989" lon="-2.21975">
        <ele>100</ele>
        <time>2021-07-30T15:29:43.000Z</time>
      </trkpt>
      <trkpt lat="48.5799" lon="-2.2196">
        <ele>99</ele>
        <time>2021-07-30T15:29:45.000Z</time>
      </trkpt>
      <trkpt lat="48.57991" lon="-2.2194">
        <ele>97</ele>
        <time>2021-07-30T15:29:48.000Z</time>
      </trkpt>
      <trkpt lat="48.57993" lon="-2.21921">
        <ele>96</ele>
        <time>2021-07-30T15:29:51.000Z</time>
      </trkpt>
      <trkpt lat="48.57996" lon="-2.21901">
        <ele>95</ele>
        <time>2021-07-30T15:29:54.000Z</time>
      </trkpt>
      <trkpt lat="48.57997" lon="-2.21887">
        <ele>94</ele>
        <time>2021-07-30T15:29:56.000Z</time>
      </trkpt>
      <trkpt lat="48.57998" lon="-2.21873">
        <ele>94</ele>
        <time>2021-07-30T15:29:58.000Z</time>
      </trkpt>
      <trkpt lat="48.57999" lon="-2.21858">
        <ele>93</ele>
        <time>2021-07-30T15:30:00.000Z</time>
      </trkpt>
      <trkpt lat="48.58001" lon="-2.21844">
        <ele>92</ele>
        <time>2021-07-30T15:30:02.000Z</time>
      </trkpt>
      <trkpt lat="48.58004" lon="-2.21825">
        <ele>92</ele>
        <time>2021-07-30T15:30:05.000Z</time>
      </trkpt>
      <trkpt lat="48.58007" lon="-2.21807">
        <ele>92</ele>
        <time>2021-07-30T15:30:08.000Z</time>
      </trkpt>
      <trkpt lat="48.58009" lon="-2.21794">
        <ele>91</ele>
        <time>2021-07-30T15:30:10.000Z</time>
      </trkpt>
      <trkpt lat="48.5801" lon="-2.21779">
        <ele>91</ele>
        <time>2021-07-30T15:30:12.000Z</time>
      </trkpt>
      <trkpt lat="48.58012" lon="-2.21764">
        <ele>91</ele>
        <time>2021-07-30T15:30:14.000Z</time>
      </trkpt>
      <trkpt lat="48.58013" lon="-2.2175">
        <ele>90</ele>
        <time>2021-07-30T15:30:16.000Z</time>
      </trkpt>
      <trkpt lat="48.58014" lon="-2.21736">
        <ele>89</ele>
        <time>2021-07-30T15:30:18.000Z</time>
      </trkpt>
      <trkpt lat="48.58016" lon="-2.21723">
        <ele>88</ele>
        <time>2021-07-30T15:30:20.000Z</time>
      </trkpt>
      <trkpt lat="48.58017" lon="-2.21709">
        <ele>88</ele>
        <time>2021-07-30T15:30:22.000Z</time>
      </trkpt>
      <trkpt lat="48.58018" lon="-2.21694">
        <ele>87</ele>
        <time>2021-07-30T15:30:24.000Z</time>
      </trkpt>
      <trkpt lat="48.58019" lon="-2.2168">
        <ele>86</ele>
        <time>2021-07-30T15:30:26.000Z</time>
      </trkpt>
      <trkpt lat="48.58021" lon="-2.21665">
        <ele>87</ele>
        <time>2021-07-30T15:30:28.000Z</time>
      </trkpt>
      <trkpt lat="48.58023" lon="-2.21651">
        <ele>87</ele>
        <time>2021-07-30T15:30:30.000Z</time>
      </trkpt>
      <trkpt lat="48.58024" lon="-2.21637">
        <ele>86</ele>
        <time>2021-07-30T15:30:32.000Z</time>
      </trkpt>
      <trkpt lat="48.58026" lon="-2.21621">
        <ele>86</ele>
        <time>2021-07-30T15:30:34.000Z</time>
      </trkpt>
      <trkpt lat="48.58028" lon="-2.21604">
        <ele>85</ele>
        <time>2021-07-30T15:30:36.000Z</time>
      </trkpt>
      <trkpt lat="48.5803" lon="-2.21588">
        <ele>84</ele>
        <time>2021-07-30T15:30:38.000Z</time>
      </trkpt>
      <trkpt lat="48.58032" lon="-2.21571">
        <ele>84</ele>
        <time>2021-07-30T15:30:40.000Z</time>
      </trkpt>
      <trkpt lat="48.58033" lon="-2.21555">
        <ele>83</ele>
        <time>2021-07-30T15:30:42.000Z</time>
      </trkpt>
      <trkpt lat="48.58035" lon="-2.21537">
        <ele>84</ele>
        <time>2021-07-30T15:30:45.000Z</time>
      </trkpt>
      <trkpt lat="48.58045" lon="-2.21533">
        <ele>82</ele>
        <time>2021-07-30T15:30:50.000Z</time>
      </trkpt>
      <trkpt lat="48.58053" lon="-2.21536">
        <ele>82</ele>
        <time>2021-07-30T15:30:53.000Z</time>
      </trkpt>
      <trkpt lat="48.58063" lon="-2.21539">
        <ele>82</ele>
        <time>2021-07-30T15:30:56.000Z</time>
      </trkpt>
      <trkpt lat="48.58073" lon="-2.21542">
        <ele>82</ele>
        <time>2021-07-30T15:30:59.000Z</time>
      </trkpt>
      <trkpt lat="48.58083" lon="-2.21547">
        <ele>82</ele>
        <time>2021-07-30T15:31:02.000Z</time>
      </trkpt>
      <trkpt lat="48.58093" lon="-2.21551">
        <ele>82</ele>
        <time>2021-07-30T15:31:05.000Z</time>
      </trkpt>
      <trkpt lat="48.58103" lon="-2.21555">
        <ele>81</ele>
        <time>2021-07-30T15:31:08.000Z</time>
      </trkpt>
      <trkpt lat="48.58114" lon="-2.21558">
        <ele>80</ele>
        <time>2021-07-30T15:31:11.000Z</time>
      </trkpt>
      <trkpt lat="48.58127" lon="-2.2156">
        <ele>80</ele>
        <time>2021-07-30T15:31:14.000Z</time>
      </trkpt>
      <trkpt lat="48.58137" lon="-2.2156">
        <ele>81</ele>
        <time>2021-07-30T15:31:17.000Z</time>
      </trkpt>
      <trkpt lat="48.58147" lon="-2.21559">
        <ele>81</ele>
        <time>2021-07-30T15:31:21.000Z</time>
      </trkpt>
      <trkpt lat="48.58159" lon="-2.21563">
        <ele>80</ele>
        <time>2021-07-30T15:31:25.000Z</time>
      </trkpt>
      <trkpt lat="48.5817" lon="-2.21564">
        <ele>80</ele>
        <time>2021-07-30T15:31:29.000Z</time>
      </trkpt>
      <trkpt lat="48.5818" lon="-2.21563">
        <ele>80</ele>
        <time>2021-07-30T15:31:32.000Z</time>
      </trkpt>
      <trkpt lat="48.58193" lon="-2.21562">
        <ele>80</ele>
        <time>2021-07-30T15:31:35.000Z</time>
      </trkpt>
      <trkpt lat="48.58202" lon="-2.21562">
        <ele>80</ele>
        <time>2021-07-30T15:31:37.000Z</time>
      </trkpt>
      <trkpt lat="48.58213" lon="-2.21564">
        <ele>79</ele>
        <time>2021-07-30T15:31:39.000Z</time>
      </trkpt>
      <trkpt lat="48.58224" lon="-2.21565">
        <ele>78</ele>
        <time>2021-07-30T15:31:41.000Z</time>
      </trkpt>
      <trkpt lat="48.58238" lon="-2.21568">
        <ele>79</ele>
        <time>2021-07-30T15:31:43.000Z</time>
      </trkpt>
      <trkpt lat="48.58253" lon="-2.21576">
        <ele>78</ele>
        <time>2021-07-30T15:31:45.000Z</time>
      </trkpt>
      <trkpt lat="48.5827" lon="-2.21585">
        <ele>77</ele>
        <time>2021-07-30T15:31:47.000Z</time>
      </trkpt>
      <trkpt lat="48.58285" lon="-2.2159">
        <ele>77</ele>
        <time>2021-07-30T15:31:49.000Z</time>
      </trkpt>
      <trkpt lat="48.583" lon="-2.21591">
        <ele>77</ele>
        <time>2021-07-30T15:31:51.000Z</time>
      </trkpt>
      <trkpt lat="48.58312" lon="-2.2159">
        <ele>76</ele>
        <time>2021-07-30T15:31:53.000Z</time>
      </trkpt>
      <trkpt lat="48.58324" lon="-2.21589">
        <ele>75</ele>
        <time>2021-07-30T15:31:55.000Z</time>
      </trkpt>
      <trkpt lat="48.58335" lon="-2.21589">
        <ele>76</ele>
        <time>2021-07-30T15:31:57.000Z</time>
      </trkpt>
      <trkpt lat="48.58344" lon="-2.21586">
        <ele>77</ele>
        <time>2021-07-30T15:31:59.000Z</time>
      </trkpt>
      <trkpt lat="48.58355" lon="-2.21585">
        <ele>78</ele>
        <time>2021-07-30T15:32:01.000Z</time>
      </trkpt>
      <trkpt lat="48.58367" lon="-2.21586">
        <ele>79</ele>
        <time>2021-07-30T15:32:03.000Z</time>
      </trkpt>
      <trkpt lat="48.58378" lon="-2.21587">
        <ele>82</ele>
        <time>2021-07-30T15:32:05.000Z</time>
      </trkpt>
      <trkpt lat="48.58389" lon="-2.21587">
        <ele>83</ele>
        <time>2021-07-30T15:32:07.000Z</time>
      </trkpt>
      <trkpt lat="48.584" lon="-2.21586">
        <ele>83</ele>
        <time>2021-07-30T15:32:09.000Z</time>
      </trkpt>
      <trkpt lat="48.58412" lon="-2.21585">
        <ele>83</ele>
        <time>2021-07-30T15:32:11.000Z</time>
      </trkpt>
      <trkpt lat="48.58424" lon="-2.21583">
        <ele>84</ele>
        <time>2021-07-30T15:32:13.000Z</time>
      </trkpt>
      <trkpt lat="48.58436" lon="-2.2158">
        <ele>85</ele>
        <time>2021-07-30T15:32:15.000Z</time>
      </trkpt>
      <trkpt lat="48.58447" lon="-2.21577">
        <ele>84</ele>
        <time>2021-07-30T15:32:17.000Z</time>
      </trkpt>
      <trkpt lat="48.58459" lon="-2.21575">
        <ele>85</ele>
        <time>2021-07-30T15:32:19.000Z</time>
      </trkpt>
      <trkpt lat="48.5847" lon="-2.21572">
        <ele>85</ele>
        <time>2021-07-30T15:32:21.000Z</time>
      </trkpt>
      <trkpt lat="48.58483" lon="-2.21569">
        <ele>85</ele>
        <time>2021-07-30T15:32:23.000Z</time>
      </trkpt>
      <trkpt lat="48.58494" lon="-2.21566">
        <ele>85</ele>
        <time>2021-07-30T15:32:25.000Z</time>
      </trkpt>
      <trkpt lat="48.58506" lon="-2.21562">
        <ele>85</ele>
        <time>2021-07-30T15:32:27.000Z</time>
      </trkpt>
      <trkpt lat="48.58518" lon="-2.21558">
        <ele>85</ele>
        <time>2021-07-30T15:32:29.000Z</time>
      </trkpt>
      <trkpt lat="48.5853" lon="-2.21556">
        <ele>85</ele>
        <time>2021-07-30T15:32:31.000Z</time>
      </trkpt>
      <trkpt lat="48.58542" lon="-2.21555">
        <ele>85</ele>
        <time>2021-07-30T15:32:33.000Z</time>
      </trkpt>
      <trkpt lat="48.58553" lon="-2.21556">
        <ele>86</ele>
        <time>2021-07-30T15:32:35.000Z</time>
      </trkpt>
      <trkpt lat="48.58564" lon="-2.21558">
        <ele>86</ele>
        <time>2021-07-30T15:32:37.000Z</time>
      </trkpt>
      <trkpt lat="48.58575" lon="-2.2156">
        <ele>86</ele>
        <time>2021-07-30T15:32:39.000Z</time>
      </trkpt>
      <trkpt lat="48.58586" lon="-2.21561">
        <ele>86</ele>
        <time>2021-07-30T15:32:41.000Z</time>
      </trkpt>
      <trkpt lat="48.58598" lon="-2.21562">
        <ele>86</ele>
        <time>2021-07-30T15:32:43.000Z</time>
      </trkpt>
      <trkpt lat="48.58609" lon="-2.21562">
        <ele>87</ele>
        <time>2021-07-30T15:32:45.000Z</time>
      </trkpt>
      <trkpt lat="48.58621" lon="-2.21562">
        <ele>87</ele>
        <time>2021-07-30T15:32:47.000Z</time>
      </trkpt>
      <trkpt lat="48.58632" lon="-2.21563">
        <ele>88</ele>
        <time>2021-07-30T15:32:49.000Z</time>
      </trkpt>
      <trkpt lat="48.58643" lon="-2.21566">
        <ele>88</ele>
        <time>2021-07-30T15:32:51.000Z</time>
      </trkpt>
      <trkpt lat="48.58654" lon="-2.2157">
        <ele>89</ele>
        <time>2021-07-30T15:32:53.000Z</time>
      </trkpt>
      <trkpt lat="48.58664" lon="-2.21576">
        <ele>89</ele>
        <time>2021-07-30T15:32:55.000Z</time>
      </trkpt>
      <trkpt lat="48.58675" lon="-2.21583">
        <ele>89</ele>
        <time>2021-07-30T15:32:57.000Z</time>
      </trkpt>
      <trkpt lat="48.58687" lon="-2.21589">
        <ele>89</ele>
        <time>2021-07-30T15:32:59.000Z</time>
      </trkpt>
      <trkpt lat="48.58699" lon="-2.21596">
        <ele>88</ele>
        <time>2021-07-30T15:33:01.000Z</time>
      </trkpt>
      <trkpt lat="48.58711" lon="-2.21603">
        <ele>88</ele>
        <time>2021-07-30T15:33:03.000Z</time>
      </trkpt>
      <trkpt lat="48.58724" lon="-2.21611">
        <ele>87</ele>
        <time>2021-07-30T15:33:05.000Z</time>
      </trkpt>
      <trkpt lat="48.58737" lon="-2.21619">
        <ele>87</ele>
        <time>2021-07-30T15:33:07.000Z</time>
      </trkpt>
      <trkpt lat="48.5875" lon="-2.21625">
        <ele>86</ele>
        <time>2021-07-30T15:33:09.000Z</time>
      </trkpt>
      <trkpt lat="48.58763" lon="-2.21631">
        <ele>86</ele>
        <time>2021-07-30T15:33:11.000Z</time>
      </trkpt>
      <trkpt lat="48.58775" lon="-2.21637">
        <ele>85</ele>
        <time>2021-07-30T15:33:13.000Z</time>
      </trkpt>
      <trkpt lat="48.58787" lon="-2.21643">
        <ele>85</ele>
        <time>2021-07-30T15:33:15.000Z</time>
      </trkpt>
      <trkpt lat="48.58799" lon="-2.21652">
        <ele>85</ele>
        <time>2021-07-30T15:33:17.000Z</time>
      </trkpt>
      <trkpt lat="48.5881" lon="-2.21659">
        <ele>84</ele>
        <time>2021-07-30T15:33:19.000Z</time>
      </trkpt>
      <trkpt lat="48.58821" lon="-2.21669">
        <ele>83</ele>
        <time>2021-07-30T15:33:21.000Z</time>
      </trkpt>
      <trkpt lat="48.58829" lon="-2.21682">
        <ele>83</ele>
        <time>2021-07-30T15:33:23.000Z</time>
      </trkpt>
      <trkpt lat="48.58836" lon="-2.21696">
        <ele>83</ele>
        <time>2021-07-30T15:33:25.000Z</time>
      </trkpt>
      <trkpt lat="48.58841" lon="-2.21715">
        <ele>83</ele>
        <time>2021-07-30T15:33:27.000Z</time>
      </trkpt>
      <trkpt lat="48.58848" lon="-2.21729">
        <ele>83</ele>
        <time>2021-07-30T15:33:29.000Z</time>
      </trkpt>
      <trkpt lat="48.58858" lon="-2.21739">
        <ele>83</ele>
        <time>2021-07-30T15:33:31.000Z</time>
      </trkpt>
      <trkpt lat="48.58867" lon="-2.2175">
        <ele>82</ele>
        <time>2021-07-30T15:33:33.000Z</time>
      </trkpt>
      <trkpt lat="48.58877" lon="-2.21761">
        <ele>82</ele>
        <time>2021-07-30T15:33:35.000Z</time>
      </trkpt>
      <trkpt lat="48.58889" lon="-2.21769">
        <ele>82</ele>
        <time>2021-07-30T15:33:37.000Z</time>
      </trkpt>
      <trkpt lat="48.58902" lon="-2.2177">
        <ele>82</ele>
        <time>2021-07-30T15:33:39.000Z</time>
      </trkpt>
      <trkpt lat="48.58915" lon="-2.21774">
        <ele>83</ele>
        <time>2021-07-30T15:33:41.000Z</time>
      </trkpt>
      <trkpt lat="48.58926" lon="-2.21783">
        <ele>82</ele>
        <time>2021-07-30T15:33:43.000Z</time>
      </trkpt>
      <trkpt lat="48.58936" lon="-2.21794">
        <ele>82</ele>
        <time>2021-07-30T15:33:45.000Z</time>
      </trkpt>
      <trkpt lat="48.58945" lon="-2.21805">
        <ele>82</ele>
        <time>2021-07-30T15:33:47.000Z</time>
      </trkpt>
      <trkpt lat="48.58954" lon="-2.21818">
        <ele>82</ele>
        <time>2021-07-30T15:33:49.000Z</time>
      </trkpt>
      <trkpt lat="48.5896" lon="-2.21831">
        <ele>82</ele>
        <time>2021-07-30T15:33:51.000Z</time>
      </trkpt>
      <trkpt lat="48.58966" lon="-2.21842">
        <ele>83</ele>
        <time>2021-07-30T15:33:53.000Z</time>
      </trkpt>
      <trkpt lat="48.58972" lon="-2.21853">
        <ele>83</ele>
        <time>2021-07-30T15:33:55.000Z</time>
      </trkpt>
      <trkpt lat="48.58981" lon="-2.21867">
        <ele>84</ele>
        <time>2021-07-30T15:33:58.000Z</time>
      </trkpt>
      <trkpt lat="48.58989" lon="-2.2188">
        <ele>85</ele>
        <time>2021-07-30T15:34:01.000Z</time>
      </trkpt>
      <trkpt lat="48.58997" lon="-2.21894">
        <ele>85</ele>
        <time>2021-07-30T15:34:04.000Z</time>
      </trkpt>
      <trkpt lat="48.59004" lon="-2.21909">
        <ele>86</ele>
        <time>2021-07-30T15:34:07.000Z</time>
      </trkpt>
      <trkpt lat="48.59012" lon="-2.21921">
        <ele>87</ele>
        <time>2021-07-30T15:34:10.000Z</time>
      </trkpt>
      <trkpt lat="48.59022" lon="-2.21931">
        <ele>89</ele>
        <time>2021-07-30T15:34:13.000Z</time>
      </trkpt>
      <trkpt lat="48.59034" lon="-2.21939">
        <ele>90</ele>
        <time>2021-07-30T15:34:16.000Z</time>
      </trkpt>
      <trkpt lat="48.59045" lon="-2.21945">
        <ele>91</ele>
        <time>2021-07-30T15:34:19.000Z</time>
      </trkpt>
      <trkpt lat="48.59057" lon="-2.2195">
        <ele>92</ele>
        <time>2021-07-30T15:34:22.000Z</time>
      </trkpt>
      <trkpt lat="48.59069" lon="-2.21958">
        <ele>93</ele>
        <time>2021-07-30T15:34:25.000Z</time>
      </trkpt>
      <trkpt lat="48.59078" lon="-2.21966">
        <ele>94</ele>
        <time>2021-07-30T15:34:28.000Z</time>
      </trkpt>
      <trkpt lat="48.59087" lon="-2.21976">
        <ele>94</ele>
        <time>2021-07-30T15:34:31.000Z</time>
      </trkpt>
      <trkpt lat="48.59094" lon="-2.21987">
        <ele>94</ele>
        <time>2021-07-30T15:34:34.000Z</time>
      </trkpt>
      <trkpt lat="48.59099" lon="-2.22">
        <ele>94</ele>
        <time>2021-07-30T15:34:37.000Z</time>
      </trkpt>
      <trkpt lat="48.59106" lon="-2.22013">
        <ele>94</ele>
        <time>2021-07-30T15:34:40.000Z</time>
      </trkpt>
      <trkpt lat="48.59112" lon="-2.22027">
        <ele>94</ele>
        <time>2021-07-30T15:34:43.000Z</time>
      </trkpt>
      <trkpt lat="48.59118" lon="-2.22041">
        <ele>95</ele>
        <time>2021-07-30T15:34:46.000Z</time>
      </trkpt>
      <trkpt lat="48.59124" lon="-2.22054">
        <ele>96</ele>
        <time>2021-07-30T15:34:49.000Z</time>
      </trkpt>
      <trkpt lat="48.5913" lon="-2.22066">
        <ele>96</ele>
        <time>2021-07-30T15:34:52.000Z</time>
      </trkpt>
      <trkpt lat="48.59136" lon="-2.2208">
        <ele>97</ele>
        <time>2021-07-30T15:34:55.000Z</time>
      </trkpt>
      <trkpt lat="48.59143" lon="-2.22095">
        <ele>97</ele>
        <time>2021-07-30T15:34:58.000Z</time>
      </trkpt>
      <trkpt lat="48.5915" lon="-2.2211">
        <ele>97</ele>
        <time>2021-07-30T15:35:01.000Z</time>
      </trkpt>
      <trkpt lat="48.59157" lon="-2.22125">
        <ele>97</ele>
        <time>2021-07-30T15:35:04.000Z</time>
      </trkpt>
      <trkpt lat="48.59163" lon="-2.22141">
        <ele>98</ele>
        <time>2021-07-30T15:35:07.000Z</time>
      </trkpt>
      <trkpt lat="48.59169" lon="-2.22156">
        <ele>98</ele>
        <time>2021-07-30T15:35:10.000Z</time>
      </trkpt>
      <trkpt lat="48.59177" lon="-2.22172">
        <ele>97</ele>
        <time>2021-07-30T15:35:13.000Z</time>
      </trkpt>
      <trkpt lat="48.59183" lon="-2.22184">
        <ele>96</ele>
        <time>2021-07-30T15:35:15.000Z</time>
      </trkpt>
      <trkpt lat="48.5919" lon="-2.22194">
        <ele>96</ele>
        <time>2021-07-30T15:35:17.000Z</time>
      </trkpt>
      <trkpt lat="48.59201" lon="-2.22203">
        <ele>95</ele>
        <time>2021-07-30T15:35:19.000Z</time>
      </trkpt>
      <trkpt lat="48.59212" lon="-2.22212">
        <ele>95</ele>
        <time>2021-07-30T15:35:21.000Z</time>
      </trkpt>
      <trkpt lat="48.59223" lon="-2.2222">
        <ele>94</ele>
        <time>2021-07-30T15:35:23.000Z</time>
      </trkpt>
      <trkpt lat="48.59235" lon="-2.22229">
        <ele>94</ele>
        <time>2021-07-30T15:35:25.000Z</time>
      </trkpt>
      <trkpt lat="48.59246" lon="-2.22237">
        <ele>93</ele>
        <time>2021-07-30T15:35:27.000Z</time>
      </trkpt>
      <trkpt lat="48.5926" lon="-2.22246">
        <ele>92</ele>
        <time>2021-07-30T15:35:29.000Z</time>
      </trkpt>
      <trkpt lat="48.59274" lon="-2.22258">
        <ele>91</ele>
        <time>2021-07-30T15:35:31.000Z</time>
      </trkpt>
      <trkpt lat="48.59286" lon="-2.22271">
        <ele>88</ele>
        <time>2021-07-30T15:35:33.000Z</time>
      </trkpt>
      <trkpt lat="48.59298" lon="-2.22281">
        <ele>85</ele>
        <time>2021-07-30T15:35:35.000Z</time>
      </trkpt>
      <trkpt lat="48.5931" lon="-2.22285">
        <ele>83</ele>
        <time>2021-07-30T15:35:37.000Z</time>
      </trkpt>
      <trkpt lat="48.59321" lon="-2.22287">
        <ele>82</ele>
        <time>2021-07-30T15:35:39.000Z</time>
      </trkpt>
      <trkpt lat="48.59331" lon="-2.22292">
        <ele>80</ele>
        <time>2021-07-30T15:35:41.000Z</time>
      </trkpt>
      <trkpt lat="48.59339" lon="-2.22305">
        <ele>79</ele>
        <time>2021-07-30T15:35:43.000Z</time>
      </trkpt>
      <trkpt lat="48.59348" lon="-2.22326">
        <ele>76</ele>
        <time>2021-07-30T15:35:45.000Z</time>
      </trkpt>
      <trkpt lat="48.59354" lon="-2.22337">
        <ele>74</ele>
        <time>2021-07-30T15:35:46.000Z</time>
      </trkpt>
      <trkpt lat="48.59359" lon="-2.22349">
        <ele>73</ele>
        <time>2021-07-30T15:35:47.000Z</time>
      </trkpt>
      <trkpt lat="48.59365" lon="-2.22362">
        <ele>72</ele>
        <time>2021-07-30T15:35:48.000Z</time>
      </trkpt>
      <trkpt lat="48.59371" lon="-2.22375">
        <ele>71</ele>
        <time>2021-07-30T15:35:49.000Z</time>
      </trkpt>
      <trkpt lat="48.59383" lon="-2.2239">
        <ele>69</ele>
        <time>2021-07-30T15:35:51.000Z</time>
      </trkpt>
      <trkpt lat="48.59396" lon="-2.22405">
        <ele>66</ele>
        <time>2021-07-30T15:35:53.000Z</time>
      </trkpt>
      <trkpt lat="48.59408" lon="-2.22419">
        <ele>66</ele>
        <time>2021-07-30T15:35:55.000Z</time>
      </trkpt>
      <trkpt lat="48.59422" lon="-2.22431">
        <ele>64</ele>
        <time>2021-07-30T15:35:57.000Z</time>
      </trkpt>
      <trkpt lat="48.59437" lon="-2.2244">
        <ele>62</ele>
        <time>2021-07-30T15:35:59.000Z</time>
      </trkpt>
      <trkpt lat="48.5945" lon="-2.22453">
        <ele>60</ele>
        <time>2021-07-30T15:36:01.000Z</time>
      </trkpt>
      <trkpt lat="48.59449" lon="-2.22474">
        <ele>57</ele>
        <time>2021-07-30T15:36:03.000Z</time>
      </trkpt>
      <trkpt lat="48.59442" lon="-2.22489">
        <ele>56</ele>
        <time>2021-07-30T15:36:05.000Z</time>
      </trkpt>
      <trkpt lat="48.59435" lon="-2.22502">
        <ele>55</ele>
        <time>2021-07-30T15:36:07.000Z</time>
      </trkpt>
      <trkpt lat="48.59429" lon="-2.22513">
        <ele>55</ele>
        <time>2021-07-30T15:36:09.000Z</time>
      </trkpt>
      <trkpt lat="48.59423" lon="-2.22524">
        <ele>55</ele>
        <time>2021-07-30T15:36:11.000Z</time>
      </trkpt>
      <trkpt lat="48.59416" lon="-2.22533">
        <ele>55</ele>
        <time>2021-07-30T15:36:13.000Z</time>
      </trkpt>
      <trkpt lat="48.59406" lon="-2.22545">
        <ele>54</ele>
        <time>2021-07-30T15:36:16.000Z</time>
      </trkpt>
      <trkpt lat="48.59395" lon="-2.22557">
        <ele>55</ele>
        <time>2021-07-30T15:36:19.000Z</time>
      </trkpt>
      <trkpt lat="48.59385" lon="-2.22568">
        <ele>55</ele>
        <time>2021-07-30T15:36:22.000Z</time>
      </trkpt>
      <trkpt lat="48.59375" lon="-2.22577">
        <ele>55</ele>
        <time>2021-07-30T15:36:25.000Z</time>
      </trkpt>
      <trkpt lat="48.59366" lon="-2.22589">
        <ele>55</ele>
        <time>2021-07-30T15:36:28.000Z</time>
      </trkpt>
      <trkpt lat="48.59357" lon="-2.22601">
        <ele>55</ele>
        <time>2021-07-30T15:36:31.000Z</time>
      </trkpt>
      <trkpt lat="48.59348" lon="-2.22615">
        <ele>55</ele>
        <time>2021-07-30T15:36:34.000Z</time>
      </trkpt>
      <trkpt lat="48.59341" lon="-2.2263">
        <ele>55</ele>
        <time>2021-07-30T15:36:37.000Z</time>
      </trkpt>
      <trkpt lat="48.59335" lon="-2.22647">
        <ele>55</ele>
        <time>2021-07-30T15:36:40.000Z</time>
      </trkpt>
      <trkpt lat="48.59329" lon="-2.22663">
        <ele>55</ele>
        <time>2021-07-30T15:36:43.000Z</time>
      </trkpt>
      <trkpt lat="48.59322" lon="-2.22677">
        <ele>55</ele>
        <time>2021-07-30T15:36:46.000Z</time>
      </trkpt>
      <trkpt lat="48.59315" lon="-2.22692">
        <ele>56</ele>
        <time>2021-07-30T15:36:49.000Z</time>
      </trkpt>
      <trkpt lat="48.59306" lon="-2.22705">
        <ele>56</ele>
        <time>2021-07-30T15:36:52.000Z</time>
      </trkpt>
      <trkpt lat="48.59299" lon="-2.22719">
        <ele>57</ele>
        <time>2021-07-30T15:36:55.000Z</time>
      </trkpt>
      <trkpt lat="48.5929" lon="-2.22732">
        <ele>57</ele>
        <time>2021-07-30T15:36:58.000Z</time>
      </trkpt>
      <trkpt lat="48.59286" lon="-2.22748">
        <ele>58</ele>
        <time>2021-07-30T15:37:01.000Z</time>
      </trkpt>
      <trkpt lat="48.5928" lon="-2.22765">
        <ele>58</ele>
        <time>2021-07-30T15:37:04.000Z</time>
      </trkpt>
      <trkpt lat="48.59279" lon="-2.22784">
        <ele>58</ele>
        <time>2021-07-30T15:37:07.000Z</time>
      </trkpt>
      <trkpt lat="48.59287" lon="-2.22796">
        <ele>58</ele>
        <time>2021-07-30T15:37:10.000Z</time>
      </trkpt>
      <trkpt lat="48.59299" lon="-2.22796">
        <ele>59</ele>
        <time>2021-07-30T15:37:13.000Z</time>
      </trkpt>
      <trkpt lat="48.59312" lon="-2.22795">
        <ele>61</ele>
        <time>2021-07-30T15:37:16.000Z</time>
      </trkpt>
      <trkpt lat="48.59324" lon="-2.22791">
        <ele>61</ele>
        <time>2021-07-30T15:37:19.000Z</time>
      </trkpt>
      <trkpt lat="48.59336" lon="-2.22789">
        <ele>60</ele>
        <time>2021-07-30T15:37:22.000Z</time>
      </trkpt>
      <trkpt lat="48.59347" lon="-2.2279">
        <ele>61</ele>
        <time>2021-07-30T15:37:25.000Z</time>
      </trkpt>
      <trkpt lat="48.59358" lon="-2.22797">
        <ele>61</ele>
        <time>2021-07-30T15:37:28.000Z</time>
      </trkpt>
      <trkpt lat="48.59368" lon="-2.22804">
        <ele>60</ele>
        <time>2021-07-30T15:37:31.000Z</time>
      </trkpt>
      <trkpt lat="48.59377" lon="-2.22815">
        <ele>61</ele>
        <time>2021-07-30T15:37:34.000Z</time>
      </trkpt>
      <trkpt lat="48.59383" lon="-2.22825">
        <ele>61</ele>
        <time>2021-07-30T15:37:37.000Z</time>
      </trkpt>
      <trkpt lat="48.5939" lon="-2.22834">
        <ele>61</ele>
        <time>2021-07-30T15:37:40.000Z</time>
      </trkpt>
      <trkpt lat="48.59397" lon="-2.22844">
        <ele>61</ele>
        <time>2021-07-30T15:37:43.000Z</time>
      </trkpt>
      <trkpt lat="48.59404" lon="-2.22856">
        <ele>62</ele>
        <time>2021-07-30T15:37:46.000Z</time>
      </trkpt>
      <trkpt lat="48.5941" lon="-2.22868">
        <ele>63</ele>
        <time>2021-07-30T15:37:49.000Z</time>
      </trkpt>
      <trkpt lat="48.59416" lon="-2.22883">
        <ele>64</ele>
        <time>2021-07-30T15:37:53.000Z</time>
      </trkpt>
      <trkpt lat="48.59421" lon="-2.22897">
        <ele>65</ele>
        <time>2021-07-30T15:37:57.000Z</time>
      </trkpt>
      <trkpt lat="48.59427" lon="-2.2291">
        <ele>67</ele>
        <time>2021-07-30T15:38:01.000Z</time>
      </trkpt>
      <trkpt lat="48.59434" lon="-2.22923">
        <ele>68</ele>
        <time>2021-07-30T15:38:05.000Z</time>
      </trkpt>
      <trkpt lat="48.59439" lon="-2.22935">
        <ele>70</ele>
        <time>2021-07-30T15:38:09.000Z</time>
      </trkpt>
      <trkpt lat="48.59445" lon="-2.22946">
        <ele>71</ele>
        <time>2021-07-30T15:38:13.000Z</time>
      </trkpt>
      <trkpt lat="48.59452" lon="-2.22958">
        <ele>71</ele>
        <time>2021-07-30T15:38:17.000Z</time>
      </trkpt>
      <trkpt lat="48.59458" lon="-2.22971">
        <ele>72</ele>
        <time>2021-07-30T15:38:21.000Z</time>
      </trkpt>
      <trkpt lat="48.59465" lon="-2.22982">
        <ele>73</ele>
        <time>2021-07-30T15:38:25.000Z</time>
      </trkpt>
      <trkpt lat="48.5947" lon="-2.22995">
        <ele>74</ele>
        <time>2021-07-30T15:38:29.000Z</time>
      </trkpt>
      <trkpt lat="48.59477" lon="-2.23005">
        <ele>76</ele>
        <time>2021-07-30T15:38:33.000Z</time>
      </trkpt>
      <trkpt lat="48.59484" lon="-2.23016">
        <ele>77</ele>
        <time>2021-07-30T15:38:37.000Z</time>
      </trkpt>
      <trkpt lat="48.5949" lon="-2.23028">
        <ele>77</ele>
        <time>2021-07-30T15:38:41.000Z</time>
      </trkpt>
      <trkpt lat="48.59496" lon="-2.23041">
        <ele>77</ele>
        <time>2021-07-30T15:38:45.000Z</time>
      </trkpt>
      <trkpt lat="48.595" lon="-2.23054">
        <ele>78</ele>
        <time>2021-07-30T15:38:49.000Z</time>
      </trkpt>
      <trkpt lat="48.59504" lon="-2.23067">
        <ele>80</ele>
        <time>2021-07-30T15:38:53.000Z</time>
      </trkpt>
      <trkpt lat="48.59507" lon="-2.23083">
        <ele>82</ele>
        <time>2021-07-30T15:38:58.000Z</time>
      </trkpt>
      <trkpt lat="48.5951" lon="-2.23096">
        <ele>83</ele>
        <time>2021-07-30T15:39:02.000Z</time>
      </trkpt>
      <trkpt lat="48.59511" lon="-2.23113">
        <ele>83</ele>
        <time>2021-07-30T15:39:07.000Z</time>
      </trkpt>
      <trkpt lat="48.59512" lon="-2.23129">
        <ele>84</ele>
        <time>2021-07-30T15:39:12.000Z</time>
      </trkpt>
      <trkpt lat="48.59513" lon="-2.23144">
        <ele>86</ele>
        <time>2021-07-30T15:39:17.000Z</time>
      </trkpt>
      <trkpt lat="48.59513" lon="-2.23161">
        <ele>86</ele>
        <time>2021-07-30T15:39:22.000Z</time>
      </trkpt>
      <trkpt lat="48.59514" lon="-2.23174">
        <ele>87</ele>
        <time>2021-07-30T15:39:26.000Z</time>
      </trkpt>
      <trkpt lat="48.59514" lon="-2.23192">
        <ele>88</ele>
        <time>2021-07-30T15:39:31.000Z</time>
      </trkpt>
      <trkpt lat="48.59514" lon="-2.23208">
        <ele>89</ele>
        <time>2021-07-30T15:39:36.000Z</time>
      </trkpt>
      <trkpt lat="48.59515" lon="-2.23224">
        <ele>91</ele>
        <time>2021-07-30T15:39:41.000Z</time>
      </trkpt>
      <trkpt lat="48.59514" lon="-2.23244">
        <ele>92</ele>
        <time>2021-07-30T15:39:47.000Z</time>
      </trkpt>
      <trkpt lat="48.59514" lon="-2.2326">
        <ele>95</ele>
        <time>2021-07-30T15:39:52.000Z</time>
      </trkpt>
      <trkpt lat="48.59511" lon="-2.23276">
        <ele>95</ele>
        <time>2021-07-30T15:39:57.000Z</time>
      </trkpt>
      <trkpt lat="48.59508" lon="-2.23291">
        <ele>96</ele>
        <time>2021-07-30T15:40:02.000Z</time>
      </trkpt>
      <trkpt lat="48.59506" lon="-2.23308">
        <ele>96</ele>
        <time>2021-07-30T15:40:07.000Z</time>
      </trkpt>
      <trkpt lat="48.59503" lon="-2.23322">
        <ele>96</ele>
        <time>2021-07-30T15:40:11.000Z</time>
      </trkpt>
      <trkpt lat="48.595" lon="-2.23337">
        <ele>97</ele>
        <time>2021-07-30T15:40:16.000Z</time>
      </trkpt>
      <trkpt lat="48.59498" lon="-2.23354">
        <ele>99</ele>
        <time>2021-07-30T15:40:21.000Z</time>
      </trkpt>
      <trkpt lat="48.59495" lon="-2.23367">
        <ele>99</ele>
        <time>2021-07-30T15:40:25.000Z</time>
      </trkpt>
      <trkpt lat="48.59498" lon="-2.23382">
        <ele>98</ele>
        <time>2021-07-30T15:40:30.000Z</time>
      </trkpt>
      <trkpt lat="48.59507" lon="-2.23389">
        <ele>97</ele>
        <time>2021-07-30T15:40:34.000Z</time>
      </trkpt>
      <trkpt lat="48.59515" lon="-2.23394">
        <ele>96</ele>
        <time>2021-07-30T15:40:37.000Z</time>
      </trkpt>
      <trkpt lat="48.59525" lon="-2.23401">
        <ele>97</ele>
        <time>2021-07-30T15:40:41.000Z</time>
      </trkpt>
      <trkpt lat="48.59535" lon="-2.23408">
        <ele>99</ele>
        <time>2021-07-30T15:40:45.000Z</time>
      </trkpt>
      <trkpt lat="48.59545" lon="-2.23408">
        <ele>99</ele>
        <time>2021-07-30T15:40:49.000Z</time>
      </trkpt>
      <trkpt lat="48.59556" lon="-2.23405">
        <ele>99</ele>
        <time>2021-07-30T15:40:53.000Z</time>
      </trkpt>
      <trkpt lat="48.59568" lon="-2.23406">
        <ele>100</ele>
        <time>2021-07-30T15:40:57.000Z</time>
      </trkpt>
      <trkpt lat="48.59578" lon="-2.23407">
        <ele>99</ele>
        <time>2021-07-30T15:41:00.000Z</time>
      </trkpt>
      <trkpt lat="48.59588" lon="-2.23408">
        <ele>99</ele>
        <time>2021-07-30T15:41:03.000Z</time>
      </trkpt>
      <trkpt lat="48.59599" lon="-2.23407">
        <ele>100</ele>
        <time>2021-07-30T15:41:06.000Z</time>
      </trkpt>
      <trkpt lat="48.59609" lon="-2.23407">
        <ele>100</ele>
        <time>2021-07-30T15:41:09.000Z</time>
      </trkpt>
      <trkpt lat="48.59618" lon="-2.23397">
        <ele>100</ele>
        <time>2021-07-30T15:41:13.000Z</time>
      </trkpt>
      <trkpt lat="48.59617" lon="-2.23381">
        <ele>101</ele>
        <time>2021-07-30T15:41:16.000Z</time>
      </trkpt>
      <trkpt lat="48.59616" lon="-2.23366">
        <ele>107</ele>
        <time>2021-07-30T15:41:19.000Z</time>
      </trkpt>
      <trkpt lat="48.59616" lon="-2.23347">
        <ele>109</ele>
        <time>2021-07-30T15:41:22.000Z</time>
      </trkpt>
      <trkpt lat="48.59619" lon="-2.23328">
        <ele>110</ele>
        <time>2021-07-30T15:41:25.000Z</time>
      </trkpt>
      <trkpt lat="48.59619" lon="-2.23313">
        <ele>109</ele>
        <time>2021-07-30T15:41:27.000Z</time>
      </trkpt>
      <trkpt lat="48.59619" lon="-2.23299">
        <ele>109</ele>
        <time>2021-07-30T15:41:29.000Z</time>
      </trkpt>
      <trkpt lat="48.59619" lon="-2.23285">
        <ele>110</ele>
        <time>2021-07-30T15:41:31.000Z</time>
      </trkpt>
      <trkpt lat="48.59618" lon="-2.2327">
        <ele>109</ele>
        <time>2021-07-30T15:41:33.000Z</time>
      </trkpt>
      <trkpt lat="48.59618" lon="-2.23253">
        <ele>109</ele>
        <time>2021-07-30T15:41:35.000Z</time>
      </trkpt>
      <trkpt lat="48.59615" lon="-2.23237">
        <ele>108</ele>
        <time>2021-07-30T15:41:37.000Z</time>
      </trkpt>
      <trkpt lat="48.59612" lon="-2.2322">
        <ele>108</ele>
        <time>2021-07-30T15:41:39.000Z</time>
      </trkpt>
      <trkpt lat="48.5961" lon="-2.23202">
        <ele>108</ele>
        <time>2021-07-30T15:41:41.000Z</time>
      </trkpt>
      <trkpt lat="48.59608" lon="-2.23182">
        <ele>107</ele>
        <time>2021-07-30T15:41:43.000Z</time>
      </trkpt>
      <trkpt lat="48.59605" lon="-2.23161">
        <ele>106</ele>
        <time>2021-07-30T15:41:45.000Z</time>
      </trkpt>
      <trkpt lat="48.59609" lon="-2.23142">
        <ele>104</ele>
        <time>2021-07-30T15:41:47.000Z</time>
      </trkpt>
      <trkpt lat="48.5962" lon="-2.23134">
        <ele>103</ele>
        <time>2021-07-30T15:41:49.000Z</time>
      </trkpt>
      <trkpt lat="48.59631" lon="-2.23133">
        <ele>102</ele>
        <time>2021-07-30T15:41:51.000Z</time>
      </trkpt>
      <trkpt lat="48.59643" lon="-2.23129">
        <ele>100</ele>
        <time>2021-07-30T15:41:54.000Z</time>
      </trkpt>
      <trkpt lat="48.59653" lon="-2.23117">
        <ele>100</ele>
        <time>2021-07-30T15:41:57.000Z</time>
      </trkpt>
      <trkpt lat="48.59656" lon="-2.23101">
        <ele>100</ele>
        <time>2021-07-30T15:42:00.000Z</time>
      </trkpt>
      <trkpt lat="48.59658" lon="-2.23082">
        <ele>100</ele>
        <time>2021-07-30T15:42:03.000Z</time>
      </trkpt>
      <trkpt lat="48.59658" lon="-2.23068">
        <ele>100</ele>
        <time>2021-07-30T15:42:05.000Z</time>
      </trkpt>
      <trkpt lat="48.59657" lon="-2.23053">
        <ele>99</ele>
        <time>2021-07-30T15:42:07.000Z</time>
      </trkpt>
      <trkpt lat="48.59656" lon="-2.23035">
        <ele>99</ele>
        <time>2021-07-30T15:42:09.000Z</time>
      </trkpt>
      <trkpt lat="48.59655" lon="-2.23017">
        <ele>98</ele>
        <time>2021-07-30T15:42:11.000Z</time>
      </trkpt>
      <trkpt lat="48.59653" lon="-2.22999">
        <ele>97</ele>
        <time>2021-07-30T15:42:13.000Z</time>
      </trkpt>
      <trkpt lat="48.59652" lon="-2.22978">
        <ele>98</ele>
        <time>2021-07-30T15:42:15.000Z</time>
      </trkpt>
      <trkpt lat="48.59651" lon="-2.22957">
        <ele>98</ele>
        <time>2021-07-30T15:42:17.000Z</time>
      </trkpt>
      <trkpt lat="48.59651" lon="-2.22939">
        <ele>98</ele>
        <time>2021-07-30T15:42:19.000Z</time>
      </trkpt>
      <trkpt lat="48.59653" lon="-2.22923">
        <ele>99</ele>
        <time>2021-07-30T15:42:22.000Z</time>
      </trkpt>
      <trkpt lat="48.59653" lon="-2.22909">
        <ele>99</ele>
        <time>2021-07-30T15:42:25.000Z</time>
      </trkpt>
      <trkpt lat="48.59654" lon="-2.22895">
        <ele>100</ele>
        <time>2021-07-30T15:42:28.000Z</time>
      </trkpt>
      <trkpt lat="48.59658" lon="-2.2288">
        <ele>100</ele>
        <time>2021-07-30T15:42:31.000Z</time>
      </trkpt>
      <trkpt lat="48.59661" lon="-2.22866">
        <ele>100</ele>
        <time>2021-07-30T15:42:34.000Z</time>
      </trkpt>
      <trkpt lat="48.59665" lon="-2.22852">
        <ele>100</ele>
        <time>2021-07-30T15:42:37.000Z</time>
      </trkpt>
      <trkpt lat="48.59669" lon="-2.22838">
        <ele>100</ele>
        <time>2021-07-30T15:42:40.000Z</time>
      </trkpt>
      <trkpt lat="48.59674" lon="-2.22823">
        <ele>100</ele>
        <time>2021-07-30T15:42:44.000Z</time>
      </trkpt>
      <trkpt lat="48.59676" lon="-2.22809">
        <ele>100</ele>
        <time>2021-07-30T15:42:49.000Z</time>
      </trkpt>
      <trkpt lat="48.59684" lon="-2.22802">
        <ele>99</ele>
        <time>2021-07-30T15:43:37.000Z</time>
      </trkpt>
      <trkpt lat="48.59695" lon="-2.22802">
        <ele>99</ele>
        <time>2021-07-30T15:43:41.000Z</time>
      </trkpt>
      <trkpt lat="48.59707" lon="-2.22802">
        <ele>98</ele>
        <time>2021-07-30T15:43:45.000Z</time>
      </trkpt>
      <trkpt lat="48.59717" lon="-2.22801">
        <ele>98</ele>
        <time>2021-07-30T15:43:48.000Z</time>
      </trkpt>
      <trkpt lat="48.59728" lon="-2.228">
        <ele>98</ele>
        <time>2021-07-30T15:43:51.000Z</time>
      </trkpt>
      <trkpt lat="48.5974" lon="-2.22799">
        <ele>98</ele>
        <time>2021-07-30T15:43:54.000Z</time>
      </trkpt>
      <trkpt lat="48.59753" lon="-2.228">
        <ele>97</ele>
        <time>2021-07-30T15:43:57.000Z</time>
      </trkpt>
      <trkpt lat="48.59766" lon="-2.22804">
        <ele>96</ele>
        <time>2021-07-30T15:44:00.000Z</time>
      </trkpt>
      <trkpt lat="48.59774" lon="-2.22806">
        <ele>96</ele>
        <time>2021-07-30T15:44:02.000Z</time>
      </trkpt>
      <trkpt lat="48.59783" lon="-2.22811">
        <ele>96</ele>
        <time>2021-07-30T15:44:04.000Z</time>
      </trkpt>
      <trkpt lat="48.59793" lon="-2.22815">
        <ele>96</ele>
        <time>2021-07-30T15:44:06.000Z</time>
      </trkpt>
      <trkpt lat="48.59802" lon="-2.22821">
        <ele>96</ele>
        <time>2021-07-30T15:44:08.000Z</time>
      </trkpt>
      <trkpt lat="48.5981" lon="-2.22826">
        <ele>97</ele>
        <time>2021-07-30T15:44:10.000Z</time>
      </trkpt>
      <trkpt lat="48.59819" lon="-2.2283">
        <ele>97</ele>
        <time>2021-07-30T15:44:12.000Z</time>
      </trkpt>
      <trkpt lat="48.5983" lon="-2.22835">
        <ele>99</ele>
        <time>2021-07-30T15:44:15.000Z</time>
      </trkpt>
      <trkpt lat="48.59819" lon="-2.22828">
        <ele>99</ele>
        <time>2021-07-30T15:44:22.000Z</time>
      </trkpt>
      <trkpt lat="48.59817" lon="-2.22814">
        <ele>102</ele>
        <time>2021-07-30T15:44:25.000Z</time>
      </trkpt>
      <trkpt lat="48.59818" lon="-2.22796">
        <ele>103</ele>
        <time>2021-07-30T15:44:28.000Z</time>
      </trkpt>
      <trkpt lat="48.5982" lon="-2.22777">
        <ele>103</ele>
        <time>2021-07-30T15:44:31.000Z</time>
      </trkpt>
      <trkpt lat="48.59824" lon="-2.22757">
        <ele>104</ele>
        <time>2021-07-30T15:44:34.000Z</time>
      </trkpt>
      <trkpt lat="48.59827" lon="-2.22741">
        <ele>104</ele>
        <time>2021-07-30T15:44:37.000Z</time>
      </trkpt>
      <trkpt lat="48.59832" lon="-2.22725">
        <ele>104</ele>
        <time>2021-07-30T15:44:40.000Z</time>
      </trkpt>
      <trkpt lat="48.59838" lon="-2.22709">
        <ele>104</ele>
        <time>2021-07-30T15:44:43.000Z</time>
      </trkpt>
      <trkpt lat="48.59845" lon="-2.22695">
        <ele>104</ele>
        <time>2021-07-30T15:44:46.000Z</time>
      </trkpt>
      <trkpt lat="48.59852" lon="-2.22684">
        <ele>103</ele>
        <time>2021-07-30T15:44:49.000Z</time>
      </trkpt>
      <trkpt lat="48.59861" lon="-2.22676">
        <ele>103</ele>
        <time>2021-07-30T15:44:53.000Z</time>
      </trkpt>
      <trkpt lat="48.59853" lon="-2.22683">
        <ele>104</ele>
        <time>2021-07-30T15:45:32.000Z</time>
      </trkpt>
      <trkpt lat="48.59845" lon="-2.22693">
        <ele>104</ele>
        <time>2021-07-30T15:45:36.000Z</time>
      </trkpt>
      <trkpt lat="48.59838" lon="-2.22707">
        <ele>104</ele>
        <time>2021-07-30T15:45:40.000Z</time>
      </trkpt>
      <trkpt lat="48.59833" lon="-2.2272">
        <ele>104</ele>
        <time>2021-07-30T15:45:43.000Z</time>
      </trkpt>
      <trkpt lat="48.59829" lon="-2.22734">
        <ele>104</ele>
        <time>2021-07-30T15:45:46.000Z</time>
      </trkpt>
      <trkpt lat="48.59826" lon="-2.22749">
        <ele>104</ele>
        <time>2021-07-30T15:45:49.000Z</time>
      </trkpt>
      <trkpt lat="48.59824" lon="-2.22762">
        <ele>103</ele>
        <time>2021-07-30T15:45:52.000Z</time>
      </trkpt>
      <trkpt lat="48.59823" lon="-2.22776">
        <ele>102</ele>
        <time>2021-07-30T15:45:55.000Z</time>
      </trkpt>
      <trkpt lat="48.5982" lon="-2.22794">
        <ele>103</ele>
        <time>2021-07-30T15:45:58.000Z</time>
      </trkpt>
      <trkpt lat="48.59818" lon="-2.22812">
        <ele>104</ele>
        <time>2021-07-30T15:46:01.000Z</time>
      </trkpt>
      <trkpt lat="48.59818" lon="-2.22826">
        <ele>104</ele>
        <time>2021-07-30T15:46:04.000Z</time>
      </trkpt>
      <trkpt lat="48.5983" lon="-2.22834">
        <ele>103</ele>
        <time>2021-07-30T15:46:08.000Z</time>
      </trkpt>
      <trkpt lat="48.59842" lon="-2.22839">
        <ele>103</ele>
        <time>2021-07-30T15:46:11.000Z</time>
      </trkpt>
      <trkpt lat="48.59854" lon="-2.22848">
        <ele>104</ele>
        <time>2021-07-30T15:46:14.000Z</time>
      </trkpt>
      <trkpt lat="48.59862" lon="-2.22853">
        <ele>105</ele>
        <time>2021-07-30T15:46:16.000Z</time>
      </trkpt>
      <trkpt lat="48.59871" lon="-2.22858">
        <ele>105</ele>
        <time>2021-07-30T15:46:18.000Z</time>
      </trkpt>
      <trkpt lat="48.59883" lon="-2.22867">
        <ele>106</ele>
        <time>2021-07-30T15:46:21.000Z</time>
      </trkpt>
      <trkpt lat="48.59894" lon="-2.22875">
        <ele>107</ele>
        <time>2021-07-30T15:46:24.000Z</time>
      </trkpt>
      <trkpt lat="48.59905" lon="-2.22884">
        <ele>108</ele>
        <time>2021-07-30T15:46:27.000Z</time>
      </trkpt>
      <trkpt lat="48.59916" lon="-2.22893">
        <ele>109</ele>
        <time>2021-07-30T15:46:30.000Z</time>
      </trkpt>
      <trkpt lat="48.59927" lon="-2.22902">
        <ele>109</ele>
        <time>2021-07-30T15:46:33.000Z</time>
      </trkpt>
      <trkpt lat="48.59937" lon="-2.22912">
        <ele>110</ele>
        <time>2021-07-30T15:46:36.000Z</time>
      </trkpt>
      <trkpt lat="48.59947" lon="-2.22922">
        <ele>110</ele>
        <time>2021-07-30T15:46:39.000Z</time>
      </trkpt>
      <trkpt lat="48.59957" lon="-2.22932">
        <ele>111</ele>
        <time>2021-07-30T15:46:42.000Z</time>
      </trkpt>
      <trkpt lat="48.59967" lon="-2.22942">
        <ele>111</ele>
        <time>2021-07-30T15:46:45.000Z</time>
      </trkpt>
      <trkpt lat="48.59976" lon="-2.22954">
        <ele>112</ele>
        <time>2021-07-30T15:46:48.000Z</time>
      </trkpt>
      <trkpt lat="48.59985" lon="-2.22964">
        <ele>113</ele>
        <time>2021-07-30T15:46:51.000Z</time>
      </trkpt>
      <trkpt lat="48.59994" lon="-2.22974">
        <ele>114</ele>
        <time>2021-07-30T15:46:54.000Z</time>
      </trkpt>
      <trkpt lat="48.60003" lon="-2.22985">
        <ele>115</ele>
        <time>2021-07-30T15:46:57.000Z</time>
      </trkpt>
      <trkpt lat="48.60011" lon="-2.22996">
        <ele>115</ele>
        <time>2021-07-30T15:47:00.000Z</time>
      </trkpt>
      <trkpt lat="48.60021" lon="-2.23003">
        <ele>115</ele>
        <time>2021-07-30T15:47:04.000Z</time>
      </trkpt>
      <trkpt lat="48.60026" lon="-2.23016">
        <ele>114</ele>
        <time>2021-07-30T15:47:10.000Z</time>
      </trkpt>
      <trkpt lat="48.60034" lon="-2.23028">
        <ele>114</ele>
        <time>2021-07-30T15:47:14.000Z</time>
      </trkpt>
      <trkpt lat="48.60042" lon="-2.23041">
        <ele>115</ele>
        <time>2021-07-30T15:47:17.000Z</time>
      </trkpt>
      <trkpt lat="48.60048" lon="-2.23051">
        <ele>114</ele>
        <time>2021-07-30T15:47:19.000Z</time>
      </trkpt>
      <trkpt lat="48.60055" lon="-2.23061">
        <ele>114</ele>
        <time>2021-07-30T15:47:21.000Z</time>
      </trkpt>
      <trkpt lat="48.60061" lon="-2.23071">
        <ele>114</ele>
        <time>2021-07-30T15:47:23.000Z</time>
      </trkpt>
      <trkpt lat="48.6007" lon="-2.23085">
        <ele>115</ele>
        <time>2021-07-30T15:47:26.000Z</time>
      </trkpt>
      <trkpt lat="48.60078" lon="-2.23098">
        <ele>115</ele>
        <time>2021-07-30T15:47:29.000Z</time>
      </trkpt>
      <trkpt lat="48.60089" lon="-2.23092">
        <ele>113</ele>
        <time>2021-07-30T15:47:32.000Z</time>
      </trkpt>
      <trkpt lat="48.60094" lon="-2.23082">
        <ele>113</ele>
        <time>2021-07-30T15:47:34.000Z</time>
      </trkpt>
      <trkpt lat="48.60101" lon="-2.23072">
        <ele>114</ele>
        <time>2021-07-30T15:47:36.000Z</time>
      </trkpt>
      <trkpt lat="48.60108" lon="-2.23061">
        <ele>113</ele>
        <time>2021-07-30T15:47:38.000Z</time>
      </trkpt>
      <trkpt lat="48.60116" lon="-2.2305">
        <ele>112</ele>
        <time>2021-07-30T15:47:40.000Z</time>
      </trkpt>
      <trkpt lat="48.60124" lon="-2.2304">
        <ele>112</ele>
        <time>2021-07-30T15:47:42.000Z</time>
      </trkpt>
      <trkpt lat="48.60132" lon="-2.23031">
        <ele>111</ele>
        <time>2021-07-30T15:47:44.000Z</time>
      </trkpt>
      <trkpt lat="48.6014" lon="-2.23022">
        <ele>110</ele>
        <time>2021-07-30T15:47:46.000Z</time>
      </trkpt>
      <trkpt lat="48.60149" lon="-2.23016">
        <ele>110</ele>
        <time>2021-07-30T15:47:48.000Z</time>
      </trkpt>
      <trkpt lat="48.60158" lon="-2.23014">
        <ele>109</ele>
        <time>2021-07-30T15:47:50.000Z</time>
      </trkpt>
      <trkpt lat="48.60147" lon="-2.23015">
        <ele>110</ele>
        <time>2021-07-30T15:47:59.000Z</time>
      </trkpt>
      <trkpt lat="48.60141" lon="-2.23003">
        <ele>112</ele>
        <time>2021-07-30T15:48:59.000Z</time>
      </trkpt>
      <trkpt lat="48.60137" lon="-2.22988">
        <ele>112</ele>
        <time>2021-07-30T15:49:02.000Z</time>
      </trkpt>
      <trkpt lat="48.60135" lon="-2.22974">
        <ele>111</ele>
        <time>2021-07-30T15:49:04.000Z</time>
      </trkpt>
      <trkpt lat="48.60138" lon="-2.22954">
        <ele>110</ele>
        <time>2021-07-30T15:49:07.000Z</time>
      </trkpt>
      <trkpt lat="48.60144" lon="-2.2294">
        <ele>109</ele>
        <time>2021-07-30T15:49:10.000Z</time>
      </trkpt>
      <trkpt lat="48.60151" lon="-2.22921">
        <ele>108</ele>
        <time>2021-07-30T15:49:13.000Z</time>
      </trkpt>
      <trkpt lat="48.6016" lon="-2.22904">
        <ele>108</ele>
        <time>2021-07-30T15:49:16.000Z</time>
      </trkpt>
      <trkpt lat="48.60167" lon="-2.22888">
        <ele>107</ele>
        <time>2021-07-30T15:49:19.000Z</time>
      </trkpt>
      <trkpt lat="48.60173" lon="-2.22876">
        <ele>108</ele>
        <time>2021-07-30T15:49:21.000Z</time>
      </trkpt>
      <trkpt lat="48.60178" lon="-2.22862">
        <ele>108</ele>
        <time>2021-07-30T15:49:23.000Z</time>
      </trkpt>
      <trkpt lat="48.60184" lon="-2.2285">
        <ele>107</ele>
        <time>2021-07-30T15:49:25.000Z</time>
      </trkpt>
      <trkpt lat="48.6019" lon="-2.22838">
        <ele>107</ele>
        <time>2021-07-30T15:49:27.000Z</time>
      </trkpt>
      <trkpt lat="48.60193" lon="-2.22823">
        <ele>107</ele>
        <time>2021-07-30T15:49:29.000Z</time>
      </trkpt>
      <trkpt lat="48.60201" lon="-2.22803">
        <ele>106</ele>
        <time>2021-07-30T15:49:32.000Z</time>
      </trkpt>
      <trkpt lat="48.60203" lon="-2.22789">
        <ele>106</ele>
        <time>2021-07-30T15:49:35.000Z</time>
      </trkpt>
      <trkpt lat="48.6021" lon="-2.22774">
        <ele>105</ele>
        <time>2021-07-30T15:49:38.000Z</time>
      </trkpt>
      <trkpt lat="48.60214" lon="-2.2276">
        <ele>105</ele>
        <time>2021-07-30T15:49:40.000Z</time>
      </trkpt>
      <trkpt lat="48.6022" lon="-2.22746">
        <ele>104</ele>
        <time>2021-07-30T15:49:44.000Z</time>
      </trkpt>
      <trkpt lat="48.60226" lon="-2.22733">
        <ele>104</ele>
        <time>2021-07-30T15:49:48.000Z</time>
      </trkpt>
      <trkpt lat="48.60232" lon="-2.22718">
        <ele>103</ele>
        <time>2021-07-30T15:49:54.000Z</time>
      </trkpt>
      <trkpt lat="48.60238" lon="-2.22707">
        <ele>102</ele>
        <time>2021-07-30T15:49:57.000Z</time>
      </trkpt>
      <trkpt lat="48.60246" lon="-2.22695">
        <ele>100</ele>
        <time>2021-07-30T15:50:00.000Z</time>
      </trkpt>
      <trkpt lat="48.60255" lon="-2.22686">
        <ele>98</ele>
        <time>2021-07-30T15:50:05.000Z</time>
      </trkpt>
      <trkpt lat="48.60264" lon="-2.22692">
        <ele>98</ele>
        <time>2021-07-30T15:50:10.000Z</time>
      </trkpt>
      <trkpt lat="48.60272" lon="-2.22703">
        <ele>97</ele>
        <time>2021-07-30T15:50:15.000Z</time>
      </trkpt>
      <trkpt lat="48.6028" lon="-2.22712">
        <ele>97</ele>
        <time>2021-07-30T15:50:19.000Z</time>
      </trkpt>
      <trkpt lat="48.60289" lon="-2.2272">
        <ele>97</ele>
        <time>2021-07-30T15:50:23.000Z</time>
      </trkpt>
      <trkpt lat="48.60297" lon="-2.22727">
        <ele>97</ele>
        <time>2021-07-30T15:50:27.000Z</time>
      </trkpt>
      <trkpt lat="48.60306" lon="-2.22738">
        <ele>98</ele>
        <time>2021-07-30T15:50:32.000Z</time>
      </trkpt>
      <trkpt lat="48.60313" lon="-2.22749">
        <ele>98</ele>
        <time>2021-07-30T15:50:36.000Z</time>
      </trkpt>
      <trkpt lat="48.60321" lon="-2.22758">
        <ele>99</ele>
        <time>2021-07-30T15:50:40.000Z</time>
      </trkpt>
      <trkpt lat="48.6033" lon="-2.22765">
        <ele>100</ele>
        <time>2021-07-30T15:50:44.000Z</time>
      </trkpt>
      <trkpt lat="48.60337" lon="-2.22776">
        <ele>100</ele>
        <time>2021-07-30T15:50:48.000Z</time>
      </trkpt>
      <trkpt lat="48.60343" lon="-2.22787">
        <ele>101</ele>
        <time>2021-07-30T15:50:52.000Z</time>
      </trkpt>
      <trkpt lat="48.60351" lon="-2.22796">
        <ele>101</ele>
        <time>2021-07-30T15:50:56.000Z</time>
      </trkpt>
      <trkpt lat="48.60361" lon="-2.22804">
        <ele>101</ele>
        <time>2021-07-30T15:51:00.000Z</time>
      </trkpt>
      <trkpt lat="48.6037" lon="-2.22809">
        <ele>102</ele>
        <time>2021-07-30T15:51:03.000Z</time>
      </trkpt>
      <trkpt lat="48.60379" lon="-2.22812">
        <ele>102</ele>
        <time>2021-07-30T15:51:06.000Z</time>
      </trkpt>
      <trkpt lat="48.60388" lon="-2.22805">
        <ele>101</ele>
        <time>2021-07-30T15:51:09.000Z</time>
      </trkpt>
      <trkpt lat="48.60396" lon="-2.22796">
        <ele>100</ele>
        <time>2021-07-30T15:51:11.000Z</time>
      </trkpt>
      <trkpt lat="48.60405" lon="-2.2279">
        <ele>100</ele>
        <time>2021-07-30T15:51:13.000Z</time>
      </trkpt>
      <trkpt lat="48.60414" lon="-2.22782">
        <ele>99</ele>
        <time>2021-07-30T15:51:15.000Z</time>
      </trkpt>
      <trkpt lat="48.60426" lon="-2.22777">
        <ele>99</ele>
        <time>2021-07-30T15:51:17.000Z</time>
      </trkpt>
      <trkpt lat="48.60436" lon="-2.22777">
        <ele>100</ele>
        <time>2021-07-30T15:51:19.000Z</time>
      </trkpt>
      <trkpt lat="48.60447" lon="-2.22782">
        <ele>100</ele>
        <time>2021-07-30T15:51:22.000Z</time>
      </trkpt>
      <trkpt lat="48.60457" lon="-2.22788">
        <ele>101</ele>
        <time>2021-07-30T15:51:25.000Z</time>
      </trkpt>
      <trkpt lat="48.60466" lon="-2.22796">
        <ele>101</ele>
        <time>2021-07-30T15:51:28.000Z</time>
      </trkpt>
      <trkpt lat="48.60475" lon="-2.22801">
        <ele>102</ele>
        <time>2021-07-30T15:51:31.000Z</time>
      </trkpt>
      <trkpt lat="48.60487" lon="-2.22804">
        <ele>102</ele>
        <time>2021-07-30T15:51:35.000Z</time>
      </trkpt>
      <trkpt lat="48.60496" lon="-2.22803">
        <ele>102</ele>
        <time>2021-07-30T15:51:38.000Z</time>
      </trkpt>
      <trkpt lat="48.60506" lon="-2.22799">
        <ele>103</ele>
        <time>2021-07-30T15:51:41.000Z</time>
      </trkpt>
      <trkpt lat="48.60519" lon="-2.22801">
        <ele>103</ele>
        <time>2021-07-30T15:51:44.000Z</time>
      </trkpt>
      <trkpt lat="48.60529" lon="-2.22805">
        <ele>103</ele>
        <time>2021-07-30T15:51:47.000Z</time>
      </trkpt>
      <trkpt lat="48.60539" lon="-2.22811">
        <ele>102</ele>
        <time>2021-07-30T15:51:50.000Z</time>
      </trkpt>
      <trkpt lat="48.60549" lon="-2.22823">
        <ele>102</ele>
        <time>2021-07-30T15:51:53.000Z</time>
      </trkpt>
      <trkpt lat="48.60558" lon="-2.22835">
        <ele>102</ele>
        <time>2021-07-30T15:51:56.000Z</time>
      </trkpt>
      <trkpt lat="48.60567" lon="-2.22847">
        <ele>102</ele>
        <time>2021-07-30T15:51:59.000Z</time>
      </trkpt>
      <trkpt lat="48.60574" lon="-2.22858">
        <ele>103</ele>
        <time>2021-07-30T15:52:02.000Z</time>
      </trkpt>
      <trkpt lat="48.60581" lon="-2.2287">
        <ele>104</ele>
        <time>2021-07-30T15:52:06.000Z</time>
      </trkpt>
      <trkpt lat="48.60586" lon="-2.22882">
        <ele>105</ele>
        <time>2021-07-30T15:52:11.000Z</time>
      </trkpt>
      <trkpt lat="48.60591" lon="-2.22895">
        <ele>106</ele>
        <time>2021-07-30T15:52:16.000Z</time>
      </trkpt>
      <trkpt lat="48.60598" lon="-2.22909">
        <ele>106</ele>
        <time>2021-07-30T15:52:21.000Z</time>
      </trkpt>
      <trkpt lat="48.60605" lon="-2.22917">
        <ele>106</ele>
        <time>2021-07-30T15:52:27.000Z</time>
      </trkpt>
      <trkpt lat="48.60616" lon="-2.22919">
        <ele>106</ele>
        <time>2021-07-30T15:52:32.000Z</time>
      </trkpt>
      <trkpt lat="48.60626" lon="-2.22922">
        <ele>106</ele>
        <time>2021-07-30T15:52:35.000Z</time>
      </trkpt>
      <trkpt lat="48.60634" lon="-2.22927">
        <ele>105</ele>
        <time>2021-07-30T15:52:38.000Z</time>
      </trkpt>
      <trkpt lat="48.60643" lon="-2.22933">
        <ele>105</ele>
        <time>2021-07-30T15:52:41.000Z</time>
      </trkpt>
      <trkpt lat="48.60652" lon="-2.22941">
        <ele>106</ele>
        <time>2021-07-30T15:52:44.000Z</time>
      </trkpt>
      <trkpt lat="48.60662" lon="-2.22948">
        <ele>106</ele>
        <time>2021-07-30T15:52:47.000Z</time>
      </trkpt>
      <trkpt lat="48.6067" lon="-2.22955">
        <ele>107</ele>
        <time>2021-07-30T15:52:49.000Z</time>
      </trkpt>
      <trkpt lat="48.60683" lon="-2.22962">
        <ele>107</ele>
        <time>2021-07-30T15:52:52.000Z</time>
      </trkpt>
      <trkpt lat="48.60692" lon="-2.22968">
        <ele>107</ele>
        <time>2021-07-30T15:52:54.000Z</time>
      </trkpt>
      <trkpt lat="48.60702" lon="-2.22973">
        <ele>107</ele>
        <time>2021-07-30T15:52:56.000Z</time>
      </trkpt>
      <trkpt lat="48.6071" lon="-2.2298">
        <ele>106</ele>
        <time>2021-07-30T15:52:58.000Z</time>
      </trkpt>
      <trkpt lat="48.60719" lon="-2.22986">
        <ele>106</ele>
        <time>2021-07-30T15:53:00.000Z</time>
      </trkpt>
      <trkpt lat="48.60728" lon="-2.22992">
        <ele>106</ele>
        <time>2021-07-30T15:53:02.000Z</time>
      </trkpt>
      <trkpt lat="48.6074" lon="-2.23">
        <ele>105</ele>
        <time>2021-07-30T15:53:05.000Z</time>
      </trkpt>
      <trkpt lat="48.60752" lon="-2.23006">
        <ele>104</ele>
        <time>2021-07-30T15:53:08.000Z</time>
      </trkpt>
      <trkpt lat="48.60762" lon="-2.23014">
        <ele>105</ele>
        <time>2021-07-30T15:53:11.000Z</time>
      </trkpt>
      <trkpt lat="48.60772" lon="-2.23024">
        <ele>105</ele>
        <time>2021-07-30T15:53:14.000Z</time>
      </trkpt>
      <trkpt lat="48.60781" lon="-2.23031">
        <ele>105</ele>
        <time>2021-07-30T15:53:17.000Z</time>
      </trkpt>
      <trkpt lat="48.60792" lon="-2.23032">
        <ele>106</ele>
        <time>2021-07-30T15:53:20.000Z</time>
      </trkpt>
      <trkpt lat="48.60801" lon="-2.23024">
        <ele>106</ele>
        <time>2021-07-30T15:53:23.000Z</time>
      </trkpt>
      <trkpt lat="48.60806" lon="-2.2301">
        <ele>106</ele>
        <time>2021-07-30T15:53:26.000Z</time>
      </trkpt>
      <trkpt lat="48.60813" lon="-2.23">
        <ele>106</ele>
        <time>2021-07-30T15:53:29.000Z</time>
      </trkpt>
      <trkpt lat="48.60821" lon="-2.22992">
        <ele>105</ele>
        <time>2021-07-30T15:53:32.000Z</time>
      </trkpt>
      <trkpt lat="48.60826" lon="-2.22978">
        <ele>105</ele>
        <time>2021-07-30T15:53:35.000Z</time>
      </trkpt>
      <trkpt lat="48.60825" lon="-2.22992">
        <ele>105</ele>
        <time>2021-07-30T15:54:20.000Z</time>
      </trkpt>
      <trkpt lat="48.60816" lon="-2.23004">
        <ele>107</ele>
        <time>2021-07-30T15:54:23.000Z</time>
      </trkpt>
      <trkpt lat="48.60808" lon="-2.23017">
        <ele>108</ele>
        <time>2021-07-30T15:54:26.000Z</time>
      </trkpt>
      <trkpt lat="48.60799" lon="-2.2303">
        <ele>108</ele>
        <time>2021-07-30T15:54:29.000Z</time>
      </trkpt>
      <trkpt lat="48.60793" lon="-2.23045">
        <ele>108</ele>
        <time>2021-07-30T15:54:32.000Z</time>
      </trkpt>
      <trkpt lat="48.60799" lon="-2.23061">
        <ele>106</ele>
        <time>2021-07-30T15:54:35.000Z</time>
      </trkpt>
      <trkpt lat="48.60809" lon="-2.23076">
        <ele>106</ele>
        <time>2021-07-30T15:54:38.000Z</time>
      </trkpt>
      <trkpt lat="48.60817" lon="-2.23087">
        <ele>105</ele>
        <time>2021-07-30T15:54:40.000Z</time>
      </trkpt>
      <trkpt lat="48.60823" lon="-2.23099">
        <ele>104</ele>
        <time>2021-07-30T15:54:42.000Z</time>
      </trkpt>
      <trkpt lat="48.60828" lon="-2.23113">
        <ele>104</ele>
        <time>2021-07-30T15:54:44.000Z</time>
      </trkpt>
      <trkpt lat="48.60831" lon="-2.23129">
        <ele>103</ele>
        <time>2021-07-30T15:54:46.000Z</time>
      </trkpt>
      <trkpt lat="48.60833" lon="-2.23144">
        <ele>103</ele>
        <time>2021-07-30T15:54:48.000Z</time>
      </trkpt>
      <trkpt lat="48.60834" lon="-2.2316">
        <ele>103</ele>
        <time>2021-07-30T15:54:50.000Z</time>
      </trkpt>
      <trkpt lat="48.60835" lon="-2.23177">
        <ele>102</ele>
        <time>2021-07-30T15:54:52.000Z</time>
      </trkpt>
      <trkpt lat="48.60839" lon="-2.23194">
        <ele>101</ele>
        <time>2021-07-30T15:54:54.000Z</time>
      </trkpt>
      <trkpt lat="48.6084" lon="-2.23212">
        <ele>100</ele>
        <time>2021-07-30T15:54:56.000Z</time>
      </trkpt>
      <trkpt lat="48.6084" lon="-2.23231">
        <ele>99</ele>
        <time>2021-07-30T15:54:58.000Z</time>
      </trkpt>
      <trkpt lat="48.60839" lon="-2.2325">
        <ele>98</ele>
        <time>2021-07-30T15:55:00.000Z</time>
      </trkpt>
      <trkpt lat="48.60837" lon="-2.23271">
        <ele>96</ele>
        <time>2021-07-30T15:55:02.000Z</time>
      </trkpt>
      <trkpt lat="48.60832" lon="-2.23292">
        <ele>95</ele>
        <time>2021-07-30T15:55:04.000Z</time>
      </trkpt>
      <trkpt lat="48.60827" lon="-2.23314">
        <ele>95</ele>
        <time>2021-07-30T15:55:06.000Z</time>
      </trkpt>
      <trkpt lat="48.60821" lon="-2.23336">
        <ele>94</ele>
        <time>2021-07-30T15:55:08.000Z</time>
      </trkpt>
      <trkpt lat="48.60813" lon="-2.23358">
        <ele>92</ele>
        <time>2021-07-30T15:55:10.000Z</time>
      </trkpt>
      <trkpt lat="48.60802" lon="-2.23379">
        <ele>90</ele>
        <time>2021-07-30T15:55:12.000Z</time>
      </trkpt>
      <trkpt lat="48.60791" lon="-2.234">
        <ele>89</ele>
        <time>2021-07-30T15:55:14.000Z</time>
      </trkpt>
      <trkpt lat="48.60785" lon="-2.23411">
        <ele>88</ele>
        <time>2021-07-30T15:55:15.000Z</time>
      </trkpt>
      <trkpt lat="48.60779" lon="-2.23421">
        <ele>87</ele>
        <time>2021-07-30T15:55:16.000Z</time>
      </trkpt>
      <trkpt lat="48.60768" lon="-2.23443">
        <ele>87</ele>
        <time>2021-07-30T15:55:18.000Z</time>
      </trkpt>
      <trkpt lat="48.60763" lon="-2.23455">
        <ele>86</ele>
        <time>2021-07-30T15:55:19.000Z</time>
      </trkpt>
      <trkpt lat="48.60758" lon="-2.23467">
        <ele>85</ele>
        <time>2021-07-30T15:55:20.000Z</time>
      </trkpt>
      <trkpt lat="48.60751" lon="-2.23492">
        <ele>85</ele>
        <time>2021-07-30T15:55:22.000Z</time>
      </trkpt>
      <trkpt lat="48.6075" lon="-2.23506">
        <ele>85</ele>
        <time>2021-07-30T15:55:23.000Z</time>
      </trkpt>
      <trkpt lat="48.6075" lon="-2.2352">
        <ele>84</ele>
        <time>2021-07-30T15:55:24.000Z</time>
      </trkpt>
      <trkpt lat="48.60755" lon="-2.23544">
        <ele>84</ele>
        <time>2021-07-30T15:55:26.000Z</time>
      </trkpt>
      <trkpt lat="48.60765" lon="-2.23562">
        <ele>83</ele>
        <time>2021-07-30T15:55:28.000Z</time>
      </trkpt>
      <trkpt lat="48.60776" lon="-2.23578">
        <ele>83</ele>
        <time>2021-07-30T15:55:30.000Z</time>
      </trkpt>
      <trkpt lat="48.60785" lon="-2.23592">
        <ele>83</ele>
        <time>2021-07-30T15:55:32.000Z</time>
      </trkpt>
      <trkpt lat="48.60794" lon="-2.23604">
        <ele>82</ele>
        <time>2021-07-30T15:55:34.000Z</time>
      </trkpt>
      <trkpt lat="48.60801" lon="-2.23613">
        <ele>82</ele>
        <time>2021-07-30T15:55:36.000Z</time>
      </trkpt>
      <trkpt lat="48.60809" lon="-2.23622">
        <ele>83</ele>
        <time>2021-07-30T15:55:38.000Z</time>
      </trkpt>
      <trkpt lat="48.60815" lon="-2.23632">
        <ele>83</ele>
        <time>2021-07-30T15:55:40.000Z</time>
      </trkpt>
      <trkpt lat="48.60821" lon="-2.23643">
        <ele>84</ele>
        <time>2021-07-30T15:55:42.000Z</time>
      </trkpt>
      <trkpt lat="48.6083" lon="-2.23658">
        <ele>84</ele>
        <time>2021-07-30T15:55:45.000Z</time>
      </trkpt>
      <trkpt lat="48.60835" lon="-2.23674">
        <ele>84</ele>
        <time>2021-07-30T15:55:48.000Z</time>
      </trkpt>
      <trkpt lat="48.6084" lon="-2.23692">
        <ele>85</ele>
        <time>2021-07-30T15:55:51.000Z</time>
      </trkpt>
      <trkpt lat="48.60844" lon="-2.23709">
        <ele>85</ele>
        <time>2021-07-30T15:55:54.000Z</time>
      </trkpt>
      <trkpt lat="48.60846" lon="-2.23723">
        <ele>86</ele>
        <time>2021-07-30T15:55:56.000Z</time>
      </trkpt>
      <trkpt lat="48.60846" lon="-2.23742">
        <ele>87</ele>
        <time>2021-07-30T15:55:59.000Z</time>
      </trkpt>
      <trkpt lat="48.60843" lon="-2.2376">
        <ele>88</ele>
        <time>2021-07-30T15:56:02.000Z</time>
      </trkpt>
      <trkpt lat="48.60842" lon="-2.23773">
        <ele>88</ele>
        <time>2021-07-30T15:56:04.000Z</time>
      </trkpt>
      <trkpt lat="48.60838" lon="-2.23792">
        <ele>89</ele>
        <time>2021-07-30T15:56:07.000Z</time>
      </trkpt>
      <trkpt lat="48.60833" lon="-2.2381">
        <ele>90</ele>
        <time>2021-07-30T15:56:10.000Z</time>
      </trkpt>
      <trkpt lat="48.60827" lon="-2.23828">
        <ele>90</ele>
        <time>2021-07-30T15:56:13.000Z</time>
      </trkpt>
      <trkpt lat="48.60821" lon="-2.23846">
        <ele>91</ele>
        <time>2021-07-30T15:56:16.000Z</time>
      </trkpt>
      <trkpt lat="48.60816" lon="-2.23865">
        <ele>91</ele>
        <time>2021-07-30T15:56:19.000Z</time>
      </trkpt>
      <trkpt lat="48.60813" lon="-2.23878">
        <ele>91</ele>
        <time>2021-07-30T15:56:21.000Z</time>
      </trkpt>
      <trkpt lat="48.60808" lon="-2.23897">
        <ele>92</ele>
        <time>2021-07-30T15:56:24.000Z</time>
      </trkpt>
      <trkpt lat="48.60803" lon="-2.23911">
        <ele>92</ele>
        <time>2021-07-30T15:56:26.000Z</time>
      </trkpt>
      <trkpt lat="48.608" lon="-2.23926">
        <ele>94</ele>
        <time>2021-07-30T15:56:28.000Z</time>
      </trkpt>
      <trkpt lat="48.60797" lon="-2.23941">
        <ele>95</ele>
        <time>2021-07-30T15:56:30.000Z</time>
      </trkpt>
      <trkpt lat="48.60794" lon="-2.23954">
        <ele>96</ele>
        <time>2021-07-30T15:56:32.000Z</time>
      </trkpt>
      <trkpt lat="48.6079" lon="-2.23967">
        <ele>96</ele>
        <time>2021-07-30T15:56:34.000Z</time>
      </trkpt>
      <trkpt lat="48.60786" lon="-2.2398">
        <ele>96</ele>
        <time>2021-07-30T15:56:36.000Z</time>
      </trkpt>
      <trkpt lat="48.60783" lon="-2.23993">
        <ele>96</ele>
        <time>2021-07-30T15:56:38.000Z</time>
      </trkpt>
      <trkpt lat="48.60779" lon="-2.24007">
        <ele>95</ele>
        <time>2021-07-30T15:56:40.000Z</time>
      </trkpt>
      <trkpt lat="48.60774" lon="-2.24022">
        <ele>94</ele>
        <time>2021-07-30T15:56:42.000Z</time>
      </trkpt>
      <trkpt lat="48.60769" lon="-2.24039">
        <ele>93</ele>
        <time>2021-07-30T15:56:44.000Z</time>
      </trkpt>
      <trkpt lat="48.60762" lon="-2.24058">
        <ele>92</ele>
        <time>2021-07-30T15:56:46.000Z</time>
      </trkpt>
      <trkpt lat="48.60755" lon="-2.24078">
        <ele>90</ele>
        <time>2021-07-30T15:56:48.000Z</time>
      </trkpt>
      <trkpt lat="48.60748" lon="-2.241">
        <ele>89</ele>
        <time>2021-07-30T15:56:50.000Z</time>
      </trkpt>
      <trkpt lat="48.60741" lon="-2.24123">
        <ele>89</ele>
        <time>2021-07-30T15:56:52.000Z</time>
      </trkpt>
      <trkpt lat="48.60734" lon="-2.24146">
        <ele>88</ele>
        <time>2021-07-30T15:56:54.000Z</time>
      </trkpt>
      <trkpt lat="48.60727" lon="-2.2417">
        <ele>88</ele>
        <time>2021-07-30T15:56:56.000Z</time>
      </trkpt>
      <trkpt lat="48.6072" lon="-2.24194">
        <ele>88</ele>
        <time>2021-07-30T15:56:58.000Z</time>
      </trkpt>
      <trkpt lat="48.60716" lon="-2.24207">
        <ele>88</ele>
        <time>2021-07-30T15:56:59.000Z</time>
      </trkpt>
      <trkpt lat="48.6071" lon="-2.24231">
        <ele>88</ele>
        <time>2021-07-30T15:57:01.000Z</time>
      </trkpt>
      <trkpt lat="48.60704" lon="-2.24254">
        <ele>88</ele>
        <time>2021-07-30T15:57:03.000Z</time>
      </trkpt>
      <trkpt lat="48.60698" lon="-2.24277">
        <ele>87</ele>
        <time>2021-07-30T15:57:05.000Z</time>
      </trkpt>
      <trkpt lat="48.60694" lon="-2.24298">
        <ele>88</ele>
        <time>2021-07-30T15:57:07.000Z</time>
      </trkpt>
      <trkpt lat="48.60692" lon="-2.24317">
        <ele>88</ele>
        <time>2021-07-30T15:57:09.000Z</time>
      </trkpt>
      <trkpt lat="48.6069" lon="-2.24334">
        <ele>88</ele>
        <time>2021-07-30T15:57:11.000Z</time>
      </trkpt>
      <trkpt lat="48.60689" lon="-2.24349">
        <ele>88</ele>
        <time>2021-07-30T15:57:13.000Z</time>
      </trkpt>
      <trkpt lat="48.60687" lon="-2.24364">
        <ele>88</ele>
        <time>2021-07-30T15:57:15.000Z</time>
      </trkpt>
      <trkpt lat="48.60691" lon="-2.24381">
        <ele>88</ele>
        <time>2021-07-30T15:57:18.000Z</time>
      </trkpt>
      <trkpt lat="48.60698" lon="-2.24392">
        <ele>88</ele>
        <time>2021-07-30T15:57:20.000Z</time>
      </trkpt>
      <trkpt lat="48.60706" lon="-2.24403">
        <ele>88</ele>
        <time>2021-07-30T15:57:22.000Z</time>
      </trkpt>
      <trkpt lat="48.60715" lon="-2.24412">
        <ele>88</ele>
        <time>2021-07-30T15:57:24.000Z</time>
      </trkpt>
      <trkpt lat="48.60723" lon="-2.24421">
        <ele>88</ele>
        <time>2021-07-30T15:57:26.000Z</time>
      </trkpt>
      <trkpt lat="48.60731" lon="-2.24429">
        <ele>89</ele>
        <time>2021-07-30T15:57:28.000Z</time>
      </trkpt>
      <trkpt lat="48.60735" lon="-2.24445">
        <ele>89</ele>
        <time>2021-07-30T15:57:31.000Z</time>
      </trkpt>
      <trkpt lat="48.60725" lon="-2.24453">
        <ele>88</ele>
        <time>2021-07-30T15:57:34.000Z</time>
      </trkpt>
      <trkpt lat="48.60712" lon="-2.24457">
        <ele>88</ele>
        <time>2021-07-30T15:57:37.000Z</time>
      </trkpt>
      <trkpt lat="48.60703" lon="-2.2446">
        <ele>87</ele>
        <time>2021-07-30T15:57:39.000Z</time>
      </trkpt>
      <trkpt lat="48.60694" lon="-2.24462">
        <ele>87</ele>
        <time>2021-07-30T15:57:41.000Z</time>
      </trkpt>
      <trkpt lat="48.60684" lon="-2.24463">
        <ele>87</ele>
        <time>2021-07-30T15:57:43.000Z</time>
      </trkpt>
      <trkpt lat="48.60672" lon="-2.24462">
        <ele>86</ele>
        <time>2021-07-30T15:57:46.000Z</time>
      </trkpt>
      <trkpt lat="48.60659" lon="-2.24458">
        <ele>87</ele>
        <time>2021-07-30T15:57:49.000Z</time>
      </trkpt>
      <trkpt lat="48.6065" lon="-2.24454">
        <ele>87</ele>
        <time>2021-07-30T15:57:51.000Z</time>
      </trkpt>
      <trkpt lat="48.60637" lon="-2.24446">
        <ele>87</ele>
        <time>2021-07-30T15:57:54.000Z</time>
      </trkpt>
      <trkpt lat="48.60626" lon="-2.24436">
        <ele>86</ele>
        <time>2021-07-30T15:57:57.000Z</time>
      </trkpt>
      <trkpt lat="48.60618" lon="-2.24428">
        <ele>86</ele>
        <time>2021-07-30T15:57:59.000Z</time>
      </trkpt>
      <trkpt lat="48.60607" lon="-2.24419">
        <ele>86</ele>
        <time>2021-07-30T15:58:02.000Z</time>
      </trkpt>
      <trkpt lat="48.60597" lon="-2.24411">
        <ele>87</ele>
        <time>2021-07-30T15:58:05.000Z</time>
      </trkpt>
      <trkpt lat="48.60588" lon="-2.24406">
        <ele>87</ele>
        <time>2021-07-30T15:58:08.000Z</time>
      </trkpt>
      <trkpt lat="48.60578" lon="-2.244">
        <ele>88</ele>
        <time>2021-07-30T15:58:11.000Z</time>
      </trkpt>
      <trkpt lat="48.60569" lon="-2.24393">
        <ele>89</ele>
        <time>2021-07-30T15:58:14.000Z</time>
      </trkpt>
      <trkpt lat="48.60562" lon="-2.24385">
        <ele>90</ele>
        <time>2021-07-30T15:58:17.000Z</time>
      </trkpt>
      <trkpt lat="48.6055" lon="-2.24385">
        <ele>89</ele>
        <time>2021-07-30T15:58:21.000Z</time>
      </trkpt>
      <trkpt lat="48.60562" lon="-2.24387">
        <ele>86</ele>
        <time>2021-07-30T15:58:30.000Z</time>
      </trkpt>
      <trkpt lat="48.60572" lon="-2.24394">
        <ele>86</ele>
        <time>2021-07-30T15:58:33.000Z</time>
      </trkpt>
      <trkpt lat="48.60584" lon="-2.24402">
        <ele>84</ele>
        <time>2021-07-30T15:58:36.000Z</time>
      </trkpt>
      <trkpt lat="48.60595" lon="-2.24411">
        <ele>84</ele>
        <time>2021-07-30T15:58:39.000Z</time>
      </trkpt>
      <trkpt lat="48.60604" lon="-2.24416">
        <ele>83</ele>
        <time>2021-07-30T15:58:41.000Z</time>
      </trkpt>
      <trkpt lat="48.60612" lon="-2.24423">
        <ele>83</ele>
        <time>2021-07-30T15:58:43.000Z</time>
      </trkpt>
      <trkpt lat="48.60621" lon="-2.2443">
        <ele>83</ele>
        <time>2021-07-30T15:58:45.000Z</time>
      </trkpt>
      <trkpt lat="48.6063" lon="-2.24437">
        <ele>82</ele>
        <time>2021-07-30T15:58:47.000Z</time>
      </trkpt>
      <trkpt lat="48.60641" lon="-2.24443">
        <ele>82</ele>
        <time>2021-07-30T15:58:49.000Z</time>
      </trkpt>
      <trkpt lat="48.60651" lon="-2.24448">
        <ele>82</ele>
        <time>2021-07-30T15:58:51.000Z</time>
      </trkpt>
      <trkpt lat="48.60661" lon="-2.24453">
        <ele>82</ele>
        <time>2021-07-30T15:58:53.000Z</time>
      </trkpt>
      <trkpt lat="48.6067" lon="-2.24456">
        <ele>83</ele>
        <time>2021-07-30T15:58:55.000Z</time>
      </trkpt>
      <trkpt lat="48.60684" lon="-2.24458">
        <ele>83</ele>
        <time>2021-07-30T15:58:58.000Z</time>
      </trkpt>
      <trkpt lat="48.60694" lon="-2.24459">
        <ele>83</ele>
        <time>2021-07-30T15:59:00.000Z</time>
      </trkpt>
      <trkpt lat="48.60704" lon="-2.24458">
        <ele>83</ele>
        <time>2021-07-30T15:59:02.000Z</time>
      </trkpt>
      <trkpt lat="48.60713" lon="-2.24454">
        <ele>83</ele>
        <time>2021-07-30T15:59:04.000Z</time>
      </trkpt>
      <trkpt lat="48.60723" lon="-2.2445">
        <ele>83</ele>
        <time>2021-07-30T15:59:06.000Z</time>
      </trkpt>
      <trkpt lat="48.60732" lon="-2.24443">
        <ele>82</ele>
        <time>2021-07-30T15:59:08.000Z</time>
      </trkpt>
      <trkpt lat="48.60745" lon="-2.2444">
        <ele>83</ele>
        <time>2021-07-30T15:59:11.000Z</time>
      </trkpt>
      <trkpt lat="48.60755" lon="-2.24446">
        <ele>83</ele>
        <time>2021-07-30T15:59:14.000Z</time>
      </trkpt>
      <trkpt lat="48.60758" lon="-2.24464">
        <ele>83</ele>
        <time>2021-07-30T15:59:17.000Z</time>
      </trkpt>
      <trkpt lat="48.60755" lon="-2.24479">
        <ele>83</ele>
        <time>2021-07-30T15:59:20.000Z</time>
      </trkpt>
      <trkpt lat="48.6075" lon="-2.24497">
        <ele>85</ele>
        <time>2021-07-30T15:59:23.000Z</time>
      </trkpt>
      <trkpt lat="48.60748" lon="-2.24513">
        <ele>86</ele>
        <time>2021-07-30T15:59:27.000Z</time>
      </trkpt>
      <trkpt lat="48.6076" lon="-2.24513">
        <ele>86</ele>
        <time>2021-07-30T15:59:31.000Z</time>
      </trkpt>
      <trkpt lat="48.60772" lon="-2.24514">
        <ele>86</ele>
        <time>2021-07-30T15:59:34.000Z</time>
      </trkpt>
      <trkpt lat="48.60782" lon="-2.24514">
        <ele>86</ele>
        <time>2021-07-30T15:59:36.000Z</time>
      </trkpt>
      <trkpt lat="48.60792" lon="-2.24516">
        <ele>85</ele>
        <time>2021-07-30T15:59:38.000Z</time>
      </trkpt>
      <trkpt lat="48.60805" lon="-2.24515">
        <ele>84</ele>
        <time>2021-07-30T15:59:40.000Z</time>
      </trkpt>
      <trkpt lat="48.60817" lon="-2.24515">
        <ele>83</ele>
        <time>2021-07-30T15:59:42.000Z</time>
      </trkpt>
      <trkpt lat="48.6083" lon="-2.24514">
        <ele>82</ele>
        <time>2021-07-30T15:59:44.000Z</time>
      </trkpt>
      <trkpt lat="48.60842" lon="-2.24513">
        <ele>81</ele>
        <time>2021-07-30T15:59:46.000Z</time>
      </trkpt>
      <trkpt lat="48.60855" lon="-2.24513">
        <ele>81</ele>
        <time>2021-07-30T15:59:48.000Z</time>
      </trkpt>
      <trkpt lat="48.60866" lon="-2.24513">
        <ele>80</ele>
        <time>2021-07-30T15:59:50.000Z</time>
      </trkpt>
      <trkpt lat="48.60877" lon="-2.24512">
        <ele>79</ele>
        <time>2021-07-30T15:59:52.000Z</time>
      </trkpt>
      <trkpt lat="48.60888" lon="-2.24511">
        <ele>79</ele>
        <time>2021-07-30T15:59:54.000Z</time>
      </trkpt>
      <trkpt lat="48.60898" lon="-2.2451">
        <ele>78</ele>
        <time>2021-07-30T15:59:56.000Z</time>
      </trkpt>
      <trkpt lat="48.60908" lon="-2.2451">
        <ele>77</ele>
        <time>2021-07-30T15:59:58.000Z</time>
      </trkpt>
      <trkpt lat="48.60918" lon="-2.24511">
        <ele>77</ele>
        <time>2021-07-30T16:00:00.000Z</time>
      </trkpt>
      <trkpt lat="48.60927" lon="-2.24511">
        <ele>77</ele>
        <time>2021-07-30T16:00:02.000Z</time>
      </trkpt>
      <trkpt lat="48.60937" lon="-2.24511">
        <ele>76</ele>
        <time>2021-07-30T16:00:04.000Z</time>
      </trkpt>
      <trkpt lat="48.60947" lon="-2.24515">
        <ele>76</ele>
        <time>2021-07-30T16:00:06.000Z</time>
      </trkpt>
      <trkpt lat="48.60957" lon="-2.2452">
        <ele>77</ele>
        <time>2021-07-30T16:00:08.000Z</time>
      </trkpt>
      <trkpt lat="48.6097" lon="-2.24525">
        <ele>76</ele>
        <time>2021-07-30T16:00:10.000Z</time>
      </trkpt>
      <trkpt lat="48.6098" lon="-2.24528">
        <ele>76</ele>
        <time>2021-07-30T16:00:12.000Z</time>
      </trkpt>
      <trkpt lat="48.60991" lon="-2.24529">
        <ele>76</ele>
        <time>2021-07-30T16:00:14.000Z</time>
      </trkpt>
      <trkpt lat="48.61" lon="-2.2453">
        <ele>76</ele>
        <time>2021-07-30T16:00:16.000Z</time>
      </trkpt>
      <trkpt lat="48.61012" lon="-2.24531">
        <ele>76</ele>
        <time>2021-07-30T16:00:19.000Z</time>
      </trkpt>
      <trkpt lat="48.61023" lon="-2.24529">
        <ele>77</ele>
        <time>2021-07-30T16:00:22.000Z</time>
      </trkpt>
      <trkpt lat="48.61033" lon="-2.24528">
        <ele>78</ele>
        <time>2021-07-30T16:00:25.000Z</time>
      </trkpt>
      <trkpt lat="48.61045" lon="-2.24529">
        <ele>78</ele>
        <time>2021-07-30T16:00:28.000Z</time>
      </trkpt>
      <trkpt lat="48.61054" lon="-2.24531">
        <ele>78</ele>
        <time>2021-07-30T16:00:30.000Z</time>
      </trkpt>
      <trkpt lat="48.61065" lon="-2.24523">
        <ele>78</ele>
        <time>2021-07-30T16:00:33.000Z</time>
      </trkpt>
      <trkpt lat="48.61067" lon="-2.24509">
        <ele>78</ele>
        <time>2021-07-30T16:00:35.000Z</time>
      </trkpt>
      <trkpt lat="48.61066" lon="-2.24485">
        <ele>78</ele>
        <time>2021-07-30T16:00:38.000Z</time>
      </trkpt>
      <trkpt lat="48.61066" lon="-2.24469">
        <ele>78</ele>
        <time>2021-07-30T16:00:40.000Z</time>
      </trkpt>
      <trkpt lat="48.61066" lon="-2.2445">
        <ele>78</ele>
        <time>2021-07-30T16:00:43.000Z</time>
      </trkpt>
      <trkpt lat="48.61064" lon="-2.24433">
        <ele>77</ele>
        <time>2021-07-30T16:00:46.000Z</time>
      </trkpt>
      <trkpt lat="48.61073" lon="-2.24425">
        <ele>78</ele>
        <time>2021-07-30T16:00:50.000Z</time>
      </trkpt>
      <trkpt lat="48.61086" lon="-2.24428">
        <ele>77</ele>
        <time>2021-07-30T16:00:53.000Z</time>
      </trkpt>
      <trkpt lat="48.61096" lon="-2.24427">
        <ele>76</ele>
        <time>2021-07-30T16:00:55.000Z</time>
      </trkpt>
      <trkpt lat="48.61107" lon="-2.24427">
        <ele>76</ele>
        <time>2021-07-30T16:00:57.000Z</time>
      </trkpt>
      <trkpt lat="48.61119" lon="-2.24428">
        <ele>74</ele>
        <time>2021-07-30T16:00:59.000Z</time>
      </trkpt>
      <trkpt lat="48.61129" lon="-2.2443">
        <ele>73</ele>
        <time>2021-07-30T16:01:02.000Z</time>
      </trkpt>
      <trkpt lat="48.6112" lon="-2.2443">
        <ele>73</ele>
        <time>2021-07-30T16:01:09.000Z</time>
      </trkpt>
      <trkpt lat="48.6111" lon="-2.2443">
        <ele>72</ele>
        <time>2021-07-30T16:01:12.000Z</time>
      </trkpt>
      <trkpt lat="48.61099" lon="-2.2443">
        <ele>72</ele>
        <time>2021-07-30T16:01:15.000Z</time>
      </trkpt>
      <trkpt lat="48.61087" lon="-2.24432">
        <ele>72</ele>
        <time>2021-07-30T16:01:18.000Z</time>
      </trkpt>
      <trkpt lat="48.61077" lon="-2.24432">
        <ele>72</ele>
        <time>2021-07-30T16:01:21.000Z</time>
      </trkpt>
      <trkpt lat="48.61083" lon="-2.24418">
        <ele>72</ele>
        <time>2021-07-30T16:01:28.000Z</time>
      </trkpt>
      <trkpt lat="48.61096" lon="-2.24418">
        <ele>73</ele>
        <time>2021-07-30T16:01:31.000Z</time>
      </trkpt>
      <trkpt lat="48.61107" lon="-2.24416">
        <ele>72</ele>
        <time>2021-07-30T16:01:33.000Z</time>
      </trkpt>
      <trkpt lat="48.6112" lon="-2.24414">
        <ele>71</ele>
        <time>2021-07-30T16:01:35.000Z</time>
      </trkpt>
      <trkpt lat="48.61133" lon="-2.24413">
        <ele>70</ele>
        <time>2021-07-30T16:01:37.000Z</time>
      </trkpt>
      <trkpt lat="48.61147" lon="-2.24412">
        <ele>69</ele>
        <time>2021-07-30T16:01:39.000Z</time>
      </trkpt>
      <trkpt lat="48.61161" lon="-2.24413">
        <ele>68</ele>
        <time>2021-07-30T16:01:41.000Z</time>
      </trkpt>
      <trkpt lat="48.61176" lon="-2.24414">
        <ele>68</ele>
        <time>2021-07-30T16:01:43.000Z</time>
      </trkpt>
      <trkpt lat="48.6119" lon="-2.24416">
        <ele>68</ele>
        <time>2021-07-30T16:01:45.000Z</time>
      </trkpt>
      <trkpt lat="48.61202" lon="-2.24419">
        <ele>67</ele>
        <time>2021-07-30T16:01:47.000Z</time>
      </trkpt>
      <trkpt lat="48.61212" lon="-2.24422">
        <ele>66</ele>
        <time>2021-07-30T16:01:50.000Z</time>
      </trkpt>
      <trkpt lat="48.61224" lon="-2.24424">
        <ele>65</ele>
        <time>2021-07-30T16:01:54.000Z</time>
      </trkpt>
      <trkpt lat="48.61236" lon="-2.24429">
        <ele>64</ele>
        <time>2021-07-30T16:01:57.000Z</time>
      </trkpt>
      <trkpt lat="48.61248" lon="-2.2444">
        <ele>64</ele>
        <time>2021-07-30T16:02:00.000Z</time>
      </trkpt>
      <trkpt lat="48.61258" lon="-2.24444">
        <ele>64</ele>
        <time>2021-07-30T16:02:02.000Z</time>
      </trkpt>
      <trkpt lat="48.61267" lon="-2.24451">
        <ele>64</ele>
        <time>2021-07-30T16:02:04.000Z</time>
      </trkpt>
      <trkpt lat="48.61277" lon="-2.24457">
        <ele>63</ele>
        <time>2021-07-30T16:02:06.000Z</time>
      </trkpt>
      <trkpt lat="48.61287" lon="-2.24463">
        <ele>62</ele>
        <time>2021-07-30T16:02:09.000Z</time>
      </trkpt>
      <trkpt lat="48.61296" lon="-2.2447">
        <ele>63</ele>
        <time>2021-07-30T16:02:14.000Z</time>
      </trkpt>
      <trkpt lat="48.61305" lon="-2.24475">
        <ele>61</ele>
        <time>2021-07-30T16:02:17.000Z</time>
      </trkpt>
      <trkpt lat="48.61316" lon="-2.24481">
        <ele>59</ele>
        <time>2021-07-30T16:02:20.000Z</time>
      </trkpt>
      <trkpt lat="48.61307" lon="-2.24475">
        <ele>57</ele>
        <time>2021-07-30T16:02:53.000Z</time>
      </trkpt>
      <trkpt lat="48.61296" lon="-2.24469">
        <ele>55</ele>
        <time>2021-07-30T16:02:56.000Z</time>
      </trkpt>
      <trkpt lat="48.61285" lon="-2.2447">
        <ele>56</ele>
        <time>2021-07-30T16:02:59.000Z</time>
      </trkpt>
      <trkpt lat="48.61274" lon="-2.2448">
        <ele>55</ele>
        <time>2021-07-30T16:03:02.000Z</time>
      </trkpt>
      <trkpt lat="48.61264" lon="-2.24492">
        <ele>56</ele>
        <time>2021-07-30T16:03:05.000Z</time>
      </trkpt>
      <trkpt lat="48.61254" lon="-2.24503">
        <ele>57</ele>
        <time>2021-07-30T16:03:08.000Z</time>
      </trkpt>
      <trkpt lat="48.61245" lon="-2.24516">
        <ele>57</ele>
        <time>2021-07-30T16:03:11.000Z</time>
      </trkpt>
      <trkpt lat="48.61239" lon="-2.24531">
        <ele>56</ele>
        <time>2021-07-30T16:03:14.000Z</time>
      </trkpt>
      <trkpt lat="48.61233" lon="-2.24546">
        <ele>57</ele>
        <time>2021-07-30T16:03:17.000Z</time>
      </trkpt>
      <trkpt lat="48.61225" lon="-2.24561">
        <ele>57</ele>
        <time>2021-07-30T16:03:20.000Z</time>
      </trkpt>
      <trkpt lat="48.61218" lon="-2.24577">
        <ele>59</ele>
        <time>2021-07-30T16:03:23.000Z</time>
      </trkpt>
      <trkpt lat="48.61214" lon="-2.2459">
        <ele>58</ele>
        <time>2021-07-30T16:03:25.000Z</time>
      </trkpt>
      <trkpt lat="48.6121" lon="-2.24608">
        <ele>59</ele>
        <time>2021-07-30T16:03:28.000Z</time>
      </trkpt>
      <trkpt lat="48.61205" lon="-2.24623">
        <ele>59</ele>
        <time>2021-07-30T16:03:31.000Z</time>
      </trkpt>
      <trkpt lat="48.61199" lon="-2.24638">
        <ele>60</ele>
        <time>2021-07-30T16:03:34.000Z</time>
      </trkpt>
      <trkpt lat="48.61194" lon="-2.24653">
        <ele>61</ele>
        <time>2021-07-30T16:03:37.000Z</time>
      </trkpt>
      <trkpt lat="48.61188" lon="-2.24668">
        <ele>61</ele>
        <time>2021-07-30T16:03:40.000Z</time>
      </trkpt>
      <trkpt lat="48.61185" lon="-2.24685">
        <ele>61</ele>
        <time>2021-07-30T16:03:43.000Z</time>
      </trkpt>
      <trkpt lat="48.61183" lon="-2.24699">
        <ele>62</ele>
        <time>2021-07-30T16:03:46.000Z</time>
      </trkpt>
      <trkpt lat="48.61179" lon="-2.24712">
        <ele>62</ele>
        <time>2021-07-30T16:03:49.000Z</time>
      </trkpt>
      <trkpt lat="48.61176" lon="-2.24725">
        <ele>63</ele>
        <time>2021-07-30T16:03:52.000Z</time>
      </trkpt>
      <trkpt lat="48.61168" lon="-2.24742">
        <ele>64</ele>
        <time>2021-07-30T16:03:57.000Z</time>
      </trkpt>
      <trkpt lat="48.6116" lon="-2.24752">
        <ele>63</ele>
        <time>2021-07-30T16:04:08.000Z</time>
      </trkpt>
      <trkpt lat="48.61162" lon="-2.24737">
        <ele>61</ele>
        <time>2021-07-30T16:04:37.000Z</time>
      </trkpt>
      <trkpt lat="48.61166" lon="-2.24722">
        <ele>60</ele>
        <time>2021-07-30T16:04:41.000Z</time>
      </trkpt>
      <trkpt lat="48.6117" lon="-2.2471">
        <ele>60</ele>
        <time>2021-07-30T16:04:44.000Z</time>
      </trkpt>
      <trkpt lat="48.61174" lon="-2.24696">
        <ele>59</ele>
        <time>2021-07-30T16:04:47.000Z</time>
      </trkpt>
      <trkpt lat="48.61177" lon="-2.2468">
        <ele>56</ele>
        <time>2021-07-30T16:04:50.000Z</time>
      </trkpt>
      <trkpt lat="48.61181" lon="-2.24665">
        <ele>53</ele>
        <time>2021-07-30T16:04:52.000Z</time>
      </trkpt>
      <trkpt lat="48.61191" lon="-2.24646">
        <ele>49</ele>
        <time>2021-07-30T16:04:54.000Z</time>
      </trkpt>
      <trkpt lat="48.61198" lon="-2.2463">
        <ele>48</ele>
        <time>2021-07-30T16:04:56.000Z</time>
      </trkpt>
      <trkpt lat="48.61202" lon="-2.24618">
        <ele>53</ele>
        <time>2021-07-30T16:05:01.000Z</time>
      </trkpt>
      <trkpt lat="48.61214" lon="-2.2462">
        <ele>55</ele>
        <time>2021-07-30T16:05:21.000Z</time>
      </trkpt>
      <trkpt lat="48.61223" lon="-2.24627">
        <ele>56</ele>
        <time>2021-07-30T16:05:24.000Z</time>
      </trkpt>
      <trkpt lat="48.61232" lon="-2.24637">
        <ele>57</ele>
        <time>2021-07-30T16:05:28.000Z</time>
      </trkpt>
      <trkpt lat="48.6123" lon="-2.24654">
        <ele>58</ele>
        <time>2021-07-30T16:05:33.000Z</time>
      </trkpt>
      <trkpt lat="48.61234" lon="-2.24668">
        <ele>59</ele>
        <time>2021-07-30T16:05:37.000Z</time>
      </trkpt>
      <trkpt lat="48.61235" lon="-2.24653">
        <ele>63</ele>
        <time>2021-07-30T16:06:19.000Z</time>
      </trkpt>
      <trkpt lat="48.61236" lon="-2.24639">
        <ele>63</ele>
        <time>2021-07-30T16:06:24.000Z</time>
      </trkpt>
      <trkpt lat="48.61232" lon="-2.24623">
        <ele>62</ele>
        <time>2021-07-30T16:06:34.000Z</time>
      </trkpt>
      <trkpt lat="48.61223" lon="-2.24618">
        <ele>62</ele>
        <time>2021-07-30T16:06:37.000Z</time>
      </trkpt>
      <trkpt lat="48.61214" lon="-2.24612">
        <ele>62</ele>
        <time>2021-07-30T16:06:40.000Z</time>
      </trkpt>
      <trkpt lat="48.6121" lon="-2.24598">
        <ele>62</ele>
        <time>2021-07-30T16:06:44.000Z</time>
      </trkpt>
      <trkpt lat="48.61214" lon="-2.24584">
        <ele>62</ele>
        <time>2021-07-30T16:06:47.000Z</time>
      </trkpt>
      <trkpt lat="48.61218" lon="-2.2457">
        <ele>62</ele>
        <time>2021-07-30T16:06:50.000Z</time>
      </trkpt>
      <trkpt lat="48.61224" lon="-2.24555">
        <ele>62</ele>
        <time>2021-07-30T16:06:53.000Z</time>
      </trkpt>
      <trkpt lat="48.61231" lon="-2.24537">
        <ele>63</ele>
        <time>2021-07-30T16:06:56.000Z</time>
      </trkpt>
      <trkpt lat="48.61238" lon="-2.24527">
        <ele>63</ele>
        <time>2021-07-30T16:06:58.000Z</time>
      </trkpt>
      <trkpt lat="48.61246" lon="-2.24515">
        <ele>63</ele>
        <time>2021-07-30T16:07:00.000Z</time>
      </trkpt>
      <trkpt lat="48.61256" lon="-2.24504">
        <ele>62</ele>
        <time>2021-07-30T16:07:02.000Z</time>
      </trkpt>
      <trkpt lat="48.61265" lon="-2.24492">
        <ele>61</ele>
        <time>2021-07-30T16:07:04.000Z</time>
      </trkpt>
      <trkpt lat="48.61275" lon="-2.2448">
        <ele>61</ele>
        <time>2021-07-30T16:07:06.000Z</time>
      </trkpt>
      <trkpt lat="48.61283" lon="-2.2447">
        <ele>61</ele>
        <time>2021-07-30T16:07:08.000Z</time>
      </trkpt>
      <trkpt lat="48.61295" lon="-2.24468">
        <ele>61</ele>
        <time>2021-07-30T16:07:11.000Z</time>
      </trkpt>
      <trkpt lat="48.61304" lon="-2.24473">
        <ele>61</ele>
        <time>2021-07-30T16:07:13.000Z</time>
      </trkpt>
      <trkpt lat="48.61316" lon="-2.24482">
        <ele>62</ele>
        <time>2021-07-30T16:07:16.000Z</time>
      </trkpt>
      <trkpt lat="48.61325" lon="-2.24487">
        <ele>62</ele>
        <time>2021-07-30T16:07:18.000Z</time>
      </trkpt>
      <trkpt lat="48.61336" lon="-2.24493">
        <ele>61</ele>
        <time>2021-07-30T16:07:21.000Z</time>
      </trkpt>
      <trkpt lat="48.61348" lon="-2.24499">
        <ele>61</ele>
        <time>2021-07-30T16:07:24.000Z</time>
      </trkpt>
      <trkpt lat="48.61359" lon="-2.24507">
        <ele>60</ele>
        <time>2021-07-30T16:07:27.000Z</time>
      </trkpt>
      <trkpt lat="48.61371" lon="-2.24514">
        <ele>59</ele>
        <time>2021-07-30T16:07:30.000Z</time>
      </trkpt>
      <trkpt lat="48.61382" lon="-2.2452">
        <ele>59</ele>
        <time>2021-07-30T16:07:33.000Z</time>
      </trkpt>
      <trkpt lat="48.61392" lon="-2.24528">
        <ele>59</ele>
        <time>2021-07-30T16:07:36.000Z</time>
      </trkpt>
      <trkpt lat="48.61401" lon="-2.24537">
        <ele>60</ele>
        <time>2021-07-30T16:07:39.000Z</time>
      </trkpt>
      <trkpt lat="48.61405" lon="-2.2455">
        <ele>60</ele>
        <time>2021-07-30T16:07:44.000Z</time>
      </trkpt>
      <trkpt lat="48.61414" lon="-2.24547">
        <ele>61</ele>
        <time>2021-07-30T16:07:48.000Z</time>
      </trkpt>
      <trkpt lat="48.61425" lon="-2.24542">
        <ele>62</ele>
        <time>2021-07-30T16:07:52.000Z</time>
      </trkpt>
      <trkpt lat="48.61434" lon="-2.24549">
        <ele>62</ele>
        <time>2021-07-30T16:07:56.000Z</time>
      </trkpt>
      <trkpt lat="48.61443" lon="-2.24556">
        <ele>62</ele>
        <time>2021-07-30T16:08:00.000Z</time>
      </trkpt>
      <trkpt lat="48.61456" lon="-2.24564">
        <ele>63</ele>
        <time>2021-07-30T16:08:05.000Z</time>
      </trkpt>
      <trkpt lat="48.61465" lon="-2.24572">
        <ele>64</ele>
        <time>2021-07-30T16:08:09.000Z</time>
      </trkpt>
      <trkpt lat="48.61475" lon="-2.2458">
        <ele>64</ele>
        <time>2021-07-30T16:08:13.000Z</time>
      </trkpt>
      <trkpt lat="48.61485" lon="-2.24587">
        <ele>65</ele>
        <time>2021-07-30T16:08:17.000Z</time>
      </trkpt>
      <trkpt lat="48.61495" lon="-2.24594">
        <ele>66</ele>
        <time>2021-07-30T16:08:21.000Z</time>
      </trkpt>
      <trkpt lat="48.61505" lon="-2.24603">
        <ele>66</ele>
        <time>2021-07-30T16:08:25.000Z</time>
      </trkpt>
      <trkpt lat="48.61514" lon="-2.2461">
        <ele>67</ele>
        <time>2021-07-30T16:08:29.000Z</time>
      </trkpt>
      <trkpt lat="48.61523" lon="-2.24618">
        <ele>68</ele>
        <time>2021-07-30T16:08:33.000Z</time>
      </trkpt>
      <trkpt lat="48.61532" lon="-2.24626">
        <ele>69</ele>
        <time>2021-07-30T16:08:37.000Z</time>
      </trkpt>
      <trkpt lat="48.61541" lon="-2.24632">
        <ele>68</ele>
        <time>2021-07-30T16:08:41.000Z</time>
      </trkpt>
      <trkpt lat="48.61551" lon="-2.24639">
        <ele>68</ele>
        <time>2021-07-30T16:08:46.000Z</time>
      </trkpt>
      <trkpt lat="48.61558" lon="-2.24648">
        <ele>70</ele>
        <time>2021-07-30T16:08:50.000Z</time>
      </trkpt>
      <trkpt lat="48.61566" lon="-2.24656">
        <ele>71</ele>
        <time>2021-07-30T16:08:54.000Z</time>
      </trkpt>
      <trkpt lat="48.61574" lon="-2.24665">
        <ele>71</ele>
        <time>2021-07-30T16:08:58.000Z</time>
      </trkpt>
      <trkpt lat="48.61581" lon="-2.24672">
        <ele>72</ele>
        <time>2021-07-30T16:09:02.000Z</time>
      </trkpt>
      <trkpt lat="48.6159" lon="-2.24681">
        <ele>73</ele>
        <time>2021-07-30T16:09:06.000Z</time>
      </trkpt>
      <trkpt lat="48.61599" lon="-2.24689">
        <ele>75</ele>
        <time>2021-07-30T16:09:11.000Z</time>
      </trkpt>
      <trkpt lat="48.61606" lon="-2.24697">
        <ele>76</ele>
        <time>2021-07-30T16:09:15.000Z</time>
      </trkpt>
      <trkpt lat="48.61613" lon="-2.24706">
        <ele>77</ele>
        <time>2021-07-30T16:09:19.000Z</time>
      </trkpt>
      <trkpt lat="48.6162" lon="-2.24716">
        <ele>78</ele>
        <time>2021-07-30T16:09:23.000Z</time>
      </trkpt>
      <trkpt lat="48.61629" lon="-2.24725">
        <ele>80</ele>
        <time>2021-07-30T16:09:28.000Z</time>
      </trkpt>
      <trkpt lat="48.61638" lon="-2.24735">
        <ele>81</ele>
        <time>2021-07-30T16:09:33.000Z</time>
      </trkpt>
      <trkpt lat="48.61646" lon="-2.24744">
        <ele>82</ele>
        <time>2021-07-30T16:09:37.000Z</time>
      </trkpt>
      <trkpt lat="48.61654" lon="-2.24754">
        <ele>83</ele>
        <time>2021-07-30T16:09:42.000Z</time>
      </trkpt>
      <trkpt lat="48.61661" lon="-2.24764">
        <ele>84</ele>
        <time>2021-07-30T16:09:46.000Z</time>
      </trkpt>
      <trkpt lat="48.61671" lon="-2.24773">
        <ele>84</ele>
        <time>2021-07-30T16:09:51.000Z</time>
      </trkpt>
      <trkpt lat="48.61679" lon="-2.24784">
        <ele>85</ele>
        <time>2021-07-30T16:09:56.000Z</time>
      </trkpt>
      <trkpt lat="48.61687" lon="-2.24793">
        <ele>85</ele>
        <time>2021-07-30T16:10:00.000Z</time>
      </trkpt>
      <trkpt lat="48.61695" lon="-2.24804">
        <ele>86</ele>
        <time>2021-07-30T16:10:04.000Z</time>
      </trkpt>
      <trkpt lat="48.61703" lon="-2.24813">
        <ele>85</ele>
        <time>2021-07-30T16:10:08.000Z</time>
      </trkpt>
      <trkpt lat="48.61711" lon="-2.24821">
        <ele>86</ele>
        <time>2021-07-30T16:10:12.000Z</time>
      </trkpt>
      <trkpt lat="48.61715" lon="-2.24836">
        <ele>87</ele>
        <time>2021-07-30T16:10:16.000Z</time>
      </trkpt>
      <trkpt lat="48.61721" lon="-2.24849">
        <ele>86</ele>
        <time>2021-07-30T16:10:20.000Z</time>
      </trkpt>
      <trkpt lat="48.61729" lon="-2.24859">
        <ele>88</ele>
        <time>2021-07-30T16:10:24.000Z</time>
      </trkpt>
      <trkpt lat="48.61737" lon="-2.24871">
        <ele>89</ele>
        <time>2021-07-30T16:10:28.000Z</time>
      </trkpt>
      <trkpt lat="48.61743" lon="-2.24881">
        <ele>89</ele>
        <time>2021-07-30T16:10:31.000Z</time>
      </trkpt>
      <trkpt lat="48.6175" lon="-2.24892">
        <ele>90</ele>
        <time>2021-07-30T16:10:34.000Z</time>
      </trkpt>
      <trkpt lat="48.61757" lon="-2.24906">
        <ele>91</ele>
        <time>2021-07-30T16:10:38.000Z</time>
      </trkpt>
      <trkpt lat="48.61764" lon="-2.2492">
        <ele>91</ele>
        <time>2021-07-30T16:10:42.000Z</time>
      </trkpt>
      <trkpt lat="48.61771" lon="-2.2493">
        <ele>92</ele>
        <time>2021-07-30T16:10:45.000Z</time>
      </trkpt>
      <trkpt lat="48.61778" lon="-2.24944">
        <ele>93</ele>
        <time>2021-07-30T16:10:49.000Z</time>
      </trkpt>
      <trkpt lat="48.61786" lon="-2.24957">
        <ele>92</ele>
        <time>2021-07-30T16:10:53.000Z</time>
      </trkpt>
      <trkpt lat="48.61793" lon="-2.2497">
        <ele>94</ele>
        <time>2021-07-30T16:10:57.000Z</time>
      </trkpt>
      <trkpt lat="48.61799" lon="-2.24983">
        <ele>94</ele>
        <time>2021-07-30T16:11:00.000Z</time>
      </trkpt>
      <trkpt lat="48.61805" lon="-2.24996">
        <ele>93</ele>
        <time>2021-07-30T16:11:03.000Z</time>
      </trkpt>
      <trkpt lat="48.61813" lon="-2.25006">
        <ele>93</ele>
        <time>2021-07-30T16:11:06.000Z</time>
      </trkpt>
      <trkpt lat="48.61821" lon="-2.25014">
        <ele>92</ele>
        <time>2021-07-30T16:11:09.000Z</time>
      </trkpt>
      <trkpt lat="48.61829" lon="-2.25027">
        <ele>93</ele>
        <time>2021-07-30T16:11:13.000Z</time>
      </trkpt>
      <trkpt lat="48.61838" lon="-2.25039">
        <ele>93</ele>
        <time>2021-07-30T16:11:17.000Z</time>
      </trkpt>
      <trkpt lat="48.61845" lon="-2.25049">
        <ele>93</ele>
        <time>2021-07-30T16:11:20.000Z</time>
      </trkpt>
      <trkpt lat="48.61853" lon="-2.2506">
        <ele>94</ele>
        <time>2021-07-30T16:11:24.000Z</time>
      </trkpt>
      <trkpt lat="48.6186" lon="-2.25072">
        <ele>95</ele>
        <time>2021-07-30T16:11:28.000Z</time>
      </trkpt>
      <trkpt lat="48.61867" lon="-2.25082">
        <ele>96</ele>
        <time>2021-07-30T16:11:31.000Z</time>
      </trkpt>
      <trkpt lat="48.61873" lon="-2.25094">
        <ele>98</ele>
        <time>2021-07-30T16:11:35.000Z</time>
      </trkpt>
      <trkpt lat="48.6188" lon="-2.25106">
        <ele>98</ele>
        <time>2021-07-30T16:11:39.000Z</time>
      </trkpt>
      <trkpt lat="48.61883" lon="-2.2512">
        <ele>97</ele>
        <time>2021-07-30T16:11:43.000Z</time>
      </trkpt>
      <trkpt lat="48.61885" lon="-2.25137">
        <ele>97</ele>
        <time>2021-07-30T16:11:47.000Z</time>
      </trkpt>
      <trkpt lat="48.61888" lon="-2.25153">
        <ele>96</ele>
        <time>2021-07-30T16:11:51.000Z</time>
      </trkpt>
      <trkpt lat="48.6189" lon="-2.2517">
        <ele>96</ele>
        <time>2021-07-30T16:11:55.000Z</time>
      </trkpt>
      <trkpt lat="48.61893" lon="-2.25183">
        <ele>96</ele>
        <time>2021-07-30T16:11:58.000Z</time>
      </trkpt>
      <trkpt lat="48.61893" lon="-2.25198">
        <ele>96</ele>
        <time>2021-07-30T16:12:02.000Z</time>
      </trkpt>
      <trkpt lat="48.61895" lon="-2.25212">
        <ele>96</ele>
        <time>2021-07-30T16:12:06.000Z</time>
      </trkpt>
      <trkpt lat="48.61895" lon="-2.25226">
        <ele>98</ele>
        <time>2021-07-30T16:13:12.000Z</time>
      </trkpt>
      <trkpt lat="48.61895" lon="-2.25242">
        <ele>99</ele>
        <time>2021-07-30T16:13:16.000Z</time>
      </trkpt>
      <trkpt lat="48.61893" lon="-2.25257">
        <ele>100</ele>
        <time>2021-07-30T16:13:19.000Z</time>
      </trkpt>
      <trkpt lat="48.61892" lon="-2.25275">
        <ele>101</ele>
        <time>2021-07-30T16:13:22.000Z</time>
      </trkpt>
      <trkpt lat="48.61892" lon="-2.25294">
        <ele>103</ele>
        <time>2021-07-30T16:13:25.000Z</time>
      </trkpt>
      <trkpt lat="48.61891" lon="-2.25313">
        <ele>104</ele>
        <time>2021-07-30T16:13:28.000Z</time>
      </trkpt>
      <trkpt lat="48.61889" lon="-2.25331">
        <ele>105</ele>
        <time>2021-07-30T16:13:31.000Z</time>
      </trkpt>
      <trkpt lat="48.61889" lon="-2.2535">
        <ele>106</ele>
        <time>2021-07-30T16:13:34.000Z</time>
      </trkpt>
      <trkpt lat="48.61887" lon="-2.25368">
        <ele>107</ele>
        <time>2021-07-30T16:13:37.000Z</time>
      </trkpt>
      <trkpt lat="48.61885" lon="-2.25386">
        <ele>107</ele>
        <time>2021-07-30T16:13:40.000Z</time>
      </trkpt>
      <trkpt lat="48.61883" lon="-2.25405">
        <ele>109</ele>
        <time>2021-07-30T16:13:43.000Z</time>
      </trkpt>
      <trkpt lat="48.61883" lon="-2.25424">
        <ele>109</ele>
        <time>2021-07-30T16:13:46.000Z</time>
      </trkpt>
      <trkpt lat="48.61882" lon="-2.25442">
        <ele>108</ele>
        <time>2021-07-30T16:13:49.000Z</time>
      </trkpt>
      <trkpt lat="48.61882" lon="-2.2546">
        <ele>108</ele>
        <time>2021-07-30T16:13:52.000Z</time>
      </trkpt>
      <trkpt lat="48.61882" lon="-2.25479">
        <ele>108</ele>
        <time>2021-07-30T16:13:55.000Z</time>
      </trkpt>
      <trkpt lat="48.61885" lon="-2.25497">
        <ele>107</ele>
        <time>2021-07-30T16:13:58.000Z</time>
      </trkpt>
      <trkpt lat="48.61886" lon="-2.25515">
        <ele>107</ele>
        <time>2021-07-30T16:14:01.000Z</time>
      </trkpt>
      <trkpt lat="48.61885" lon="-2.25529">
        <ele>107</ele>
        <time>2021-07-30T16:14:03.000Z</time>
      </trkpt>
      <trkpt lat="48.61885" lon="-2.25544">
        <ele>106</ele>
        <time>2021-07-30T16:14:05.000Z</time>
      </trkpt>
      <trkpt lat="48.61885" lon="-2.25558">
        <ele>106</ele>
        <time>2021-07-30T16:14:07.000Z</time>
      </trkpt>
      <trkpt lat="48.61885" lon="-2.25572">
        <ele>106</ele>
        <time>2021-07-30T16:14:09.000Z</time>
      </trkpt>
      <trkpt lat="48.61885" lon="-2.25587">
        <ele>105</ele>
        <time>2021-07-30T16:14:11.000Z</time>
      </trkpt>
      <trkpt lat="48.61887" lon="-2.25601">
        <ele>104</ele>
        <time>2021-07-30T16:14:13.000Z</time>
      </trkpt>
      <trkpt lat="48.61892" lon="-2.25612">
        <ele>104</ele>
        <time>2021-07-30T16:14:15.000Z</time>
      </trkpt>
      <trkpt lat="48.61899" lon="-2.25622">
        <ele>103</ele>
        <time>2021-07-30T16:14:17.000Z</time>
      </trkpt>
      <trkpt lat="48.61907" lon="-2.25636">
        <ele>103</ele>
        <time>2021-07-30T16:14:20.000Z</time>
      </trkpt>
      <trkpt lat="48.61914" lon="-2.25647">
        <ele>103</ele>
        <time>2021-07-30T16:14:22.000Z</time>
      </trkpt>
      <trkpt lat="48.61919" lon="-2.25658">
        <ele>103</ele>
        <time>2021-07-30T16:14:24.000Z</time>
      </trkpt>
      <trkpt lat="48.61925" lon="-2.2567">
        <ele>103</ele>
        <time>2021-07-30T16:14:26.000Z</time>
      </trkpt>
      <trkpt lat="48.61931" lon="-2.2568">
        <ele>103</ele>
        <time>2021-07-30T16:14:28.000Z</time>
      </trkpt>
      <trkpt lat="48.61936" lon="-2.25692">
        <ele>103</ele>
        <time>2021-07-30T16:14:30.000Z</time>
      </trkpt>
      <trkpt lat="48.61945" lon="-2.25709">
        <ele>103</ele>
        <time>2021-07-30T16:14:33.000Z</time>
      </trkpt>
      <trkpt lat="48.61951" lon="-2.25719">
        <ele>103</ele>
        <time>2021-07-30T16:14:35.000Z</time>
      </trkpt>
      <trkpt lat="48.61957" lon="-2.25729">
        <ele>103</ele>
        <time>2021-07-30T16:14:37.000Z</time>
      </trkpt>
      <trkpt lat="48.61966" lon="-2.25745">
        <ele>103</ele>
        <time>2021-07-30T16:14:40.000Z</time>
      </trkpt>
      <trkpt lat="48.61975" lon="-2.2576">
        <ele>104</ele>
        <time>2021-07-30T16:14:43.000Z</time>
      </trkpt>
      <trkpt lat="48.6198" lon="-2.25771">
        <ele>104</ele>
        <time>2021-07-30T16:14:45.000Z</time>
      </trkpt>
      <trkpt lat="48.61988" lon="-2.25787">
        <ele>105</ele>
        <time>2021-07-30T16:14:48.000Z</time>
      </trkpt>
      <trkpt lat="48.61996" lon="-2.25804">
        <ele>105</ele>
        <time>2021-07-30T16:14:51.000Z</time>
      </trkpt>
      <trkpt lat="48.62001" lon="-2.25815">
        <ele>105</ele>
        <time>2021-07-30T16:14:53.000Z</time>
      </trkpt>
      <trkpt lat="48.62007" lon="-2.25825">
        <ele>106</ele>
        <time>2021-07-30T16:14:55.000Z</time>
      </trkpt>
      <trkpt lat="48.62016" lon="-2.2584">
        <ele>107</ele>
        <time>2021-07-30T16:14:58.000Z</time>
      </trkpt>
      <trkpt lat="48.62022" lon="-2.2585">
        <ele>107</ele>
        <time>2021-07-30T16:15:00.000Z</time>
      </trkpt>
      <trkpt lat="48.62031" lon="-2.25865">
        <ele>107</ele>
        <time>2021-07-30T16:15:03.000Z</time>
      </trkpt>
      <trkpt lat="48.6204" lon="-2.2588">
        <ele>106</ele>
        <time>2021-07-30T16:15:06.000Z</time>
      </trkpt>
      <trkpt lat="48.62047" lon="-2.2589">
        <ele>105</ele>
        <time>2021-07-30T16:15:08.000Z</time>
      </trkpt>
      <trkpt lat="48.62054" lon="-2.259">
        <ele>105</ele>
        <time>2021-07-30T16:15:10.000Z</time>
      </trkpt>
      <trkpt lat="48.62062" lon="-2.2591">
        <ele>106</ele>
        <time>2021-07-30T16:15:12.000Z</time>
      </trkpt>
      <trkpt lat="48.6207" lon="-2.25918">
        <ele>105</ele>
        <time>2021-07-30T16:15:14.000Z</time>
      </trkpt>
      <trkpt lat="48.6208" lon="-2.25931">
        <ele>105</ele>
        <time>2021-07-30T16:15:17.000Z</time>
      </trkpt>
      <trkpt lat="48.62088" lon="-2.25939">
        <ele>105</ele>
        <time>2021-07-30T16:15:19.000Z</time>
      </trkpt>
      <trkpt lat="48.621" lon="-2.25948">
        <ele>104</ele>
        <time>2021-07-30T16:15:22.000Z</time>
      </trkpt>
      <trkpt lat="48.6211" lon="-2.25957">
        <ele>105</ele>
        <time>2021-07-30T16:15:25.000Z</time>
      </trkpt>
      <trkpt lat="48.62121" lon="-2.25964">
        <ele>106</ele>
        <time>2021-07-30T16:15:28.000Z</time>
      </trkpt>
      <trkpt lat="48.62132" lon="-2.25971">
        <ele>107</ele>
        <time>2021-07-30T16:15:31.000Z</time>
      </trkpt>
      <trkpt lat="48.62143" lon="-2.25979">
        <ele>106</ele>
        <time>2021-07-30T16:15:34.000Z</time>
      </trkpt>
      <trkpt lat="48.62152" lon="-2.25984">
        <ele>105</ele>
        <time>2021-07-30T16:15:36.000Z</time>
      </trkpt>
      <trkpt lat="48.62161" lon="-2.25989">
        <ele>104</ele>
        <time>2021-07-30T16:15:38.000Z</time>
      </trkpt>
      <trkpt lat="48.62171" lon="-2.25995">
        <ele>104</ele>
        <time>2021-07-30T16:15:40.000Z</time>
      </trkpt>
      <trkpt lat="48.62181" lon="-2.26002">
        <ele>104</ele>
        <time>2021-07-30T16:15:42.000Z</time>
      </trkpt>
      <trkpt lat="48.6219" lon="-2.26011">
        <ele>103</ele>
        <time>2021-07-30T16:15:44.000Z</time>
      </trkpt>
      <trkpt lat="48.622" lon="-2.26021">
        <ele>103</ele>
        <time>2021-07-30T16:15:46.000Z</time>
      </trkpt>
      <trkpt lat="48.6221" lon="-2.2603">
        <ele>103</ele>
        <time>2021-07-30T16:15:48.000Z</time>
      </trkpt>
      <trkpt lat="48.62221" lon="-2.26042">
        <ele>104</ele>
        <time>2021-07-30T16:15:50.000Z</time>
      </trkpt>
      <trkpt lat="48.62231" lon="-2.26053">
        <ele>104</ele>
        <time>2021-07-30T16:15:52.000Z</time>
      </trkpt>
      <trkpt lat="48.62242" lon="-2.26066">
        <ele>104</ele>
        <time>2021-07-30T16:15:54.000Z</time>
      </trkpt>
      <trkpt lat="48.62252" lon="-2.26079">
        <ele>104</ele>
        <time>2021-07-30T16:15:56.000Z</time>
      </trkpt>
      <trkpt lat="48.62262" lon="-2.26095">
        <ele>103</ele>
        <time>2021-07-30T16:15:58.000Z</time>
      </trkpt>
      <trkpt lat="48.62272" lon="-2.2611">
        <ele>103</ele>
        <time>2021-07-30T16:16:00.000Z</time>
      </trkpt>
      <trkpt lat="48.62281" lon="-2.26126">
        <ele>103</ele>
        <time>2021-07-30T16:16:02.000Z</time>
      </trkpt>
      <trkpt lat="48.6229" lon="-2.2614">
        <ele>104</ele>
        <time>2021-07-30T16:16:04.000Z</time>
      </trkpt>
      <trkpt lat="48.623" lon="-2.26153">
        <ele>103</ele>
        <time>2021-07-30T16:16:06.000Z</time>
      </trkpt>
      <trkpt lat="48.62311" lon="-2.26161">
        <ele>103</ele>
        <time>2021-07-30T16:16:08.000Z</time>
      </trkpt>
      <trkpt lat="48.62321" lon="-2.26165">
        <ele>102</ele>
        <time>2021-07-30T16:16:11.000Z</time>
      </trkpt>
      <trkpt lat="48.62331" lon="-2.26167">
        <ele>101</ele>
        <time>2021-07-30T16:16:14.000Z</time>
      </trkpt>
      <trkpt lat="48.62329" lon="-2.2615">
        <ele>99</ele>
        <time>2021-07-30T16:16:24.000Z</time>
      </trkpt>
      <trkpt lat="48.62332" lon="-2.26135">
        <ele>99</ele>
        <time>2021-07-30T16:16:27.000Z</time>
      </trkpt>
      <trkpt lat="48.62336" lon="-2.2612">
        <ele>98</ele>
        <time>2021-07-30T16:16:30.000Z</time>
      </trkpt>
      <trkpt lat="48.62341" lon="-2.26108">
        <ele>97</ele>
        <time>2021-07-30T16:16:32.000Z</time>
      </trkpt>
      <trkpt lat="48.62346" lon="-2.26093">
        <ele>95</ele>
        <time>2021-07-30T16:16:34.000Z</time>
      </trkpt>
      <trkpt lat="48.6235" lon="-2.2608">
        <ele>95</ele>
        <time>2021-07-30T16:16:36.000Z</time>
      </trkpt>
      <trkpt lat="48.62354" lon="-2.26066">
        <ele>94</ele>
        <time>2021-07-30T16:16:39.000Z</time>
      </trkpt>
      <trkpt lat="48.62356" lon="-2.26047">
        <ele>92</ele>
        <time>2021-07-30T16:16:42.000Z</time>
      </trkpt>
      <trkpt lat="48.62356" lon="-2.26032">
        <ele>91</ele>
        <time>2021-07-30T16:16:45.000Z</time>
      </trkpt>
      <trkpt lat="48.62351" lon="-2.26016">
        <ele>90</ele>
        <time>2021-07-30T16:16:50.000Z</time>
      </trkpt>
      <trkpt lat="48.62345" lon="-2.26005">
        <ele>90</ele>
        <time>2021-07-30T16:16:53.000Z</time>
      </trkpt>
      <trkpt lat="48.62339" lon="-2.25992">
        <ele>87</ele>
        <time>2021-07-30T16:16:57.000Z</time>
      </trkpt>
      <trkpt lat="48.62347" lon="-2.26002">
        <ele>86</ele>
        <time>2021-07-30T16:17:05.000Z</time>
      </trkpt>
      <trkpt lat="48.6235" lon="-2.25989">
        <ele>84</ele>
        <time>2021-07-30T16:17:08.000Z</time>
      </trkpt>
      <trkpt lat="48.6235" lon="-2.25973">
        <ele>83</ele>
        <time>2021-07-30T16:17:11.000Z</time>
      </trkpt>
      <trkpt lat="48.62355" lon="-2.25961">
        <ele>83</ele>
        <time>2021-07-30T16:17:15.000Z</time>
      </trkpt>
      <trkpt lat="48.62362" lon="-2.25948">
        <ele>82</ele>
        <time>2021-07-30T16:17:19.000Z</time>
      </trkpt>
      <trkpt lat="48.62373" lon="-2.25936">
        <ele>81</ele>
        <time>2021-07-30T16:17:22.000Z</time>
      </trkpt>
      <trkpt lat="48.62385" lon="-2.25931">
        <ele>81</ele>
        <time>2021-07-30T16:17:25.000Z</time>
      </trkpt>
      <trkpt lat="48.62396" lon="-2.25929">
        <ele>81</ele>
        <time>2021-07-30T16:17:28.000Z</time>
      </trkpt>
      <trkpt lat="48.62406" lon="-2.25928">
        <ele>81</ele>
        <time>2021-07-30T16:17:33.000Z</time>
      </trkpt>
      <trkpt lat="48.62417" lon="-2.25925">
        <ele>81</ele>
        <time>2021-07-30T16:17:39.000Z</time>
      </trkpt>
      <trkpt lat="48.62425" lon="-2.25914">
        <ele>81</ele>
        <time>2021-07-30T16:17:44.000Z</time>
      </trkpt>
      <trkpt lat="48.62433" lon="-2.25907">
        <ele>81</ele>
        <time>2021-07-30T16:17:47.000Z</time>
      </trkpt>
      <trkpt lat="48.62444" lon="-2.25903">
        <ele>80</ele>
        <time>2021-07-30T16:17:51.000Z</time>
      </trkpt>
      <trkpt lat="48.62456" lon="-2.25896">
        <ele>80</ele>
        <time>2021-07-30T16:17:54.000Z</time>
      </trkpt>
      <trkpt lat="48.62465" lon="-2.25889">
        <ele>80</ele>
        <time>2021-07-30T16:17:59.000Z</time>
      </trkpt>
      <trkpt lat="48.62475" lon="-2.25886">
        <ele>80</ele>
        <time>2021-07-30T16:18:02.000Z</time>
      </trkpt>
      <trkpt lat="48.62486" lon="-2.25881">
        <ele>80</ele>
        <time>2021-07-30T16:18:04.000Z</time>
      </trkpt>
      <trkpt lat="48.62495" lon="-2.25876">
        <ele>79</ele>
        <time>2021-07-30T16:18:06.000Z</time>
      </trkpt>
      <trkpt lat="48.62507" lon="-2.25873">
        <ele>79</ele>
        <time>2021-07-30T16:18:09.000Z</time>
      </trkpt>
      <trkpt lat="48.62518" lon="-2.25871">
        <ele>80</ele>
        <time>2021-07-30T16:18:11.000Z</time>
      </trkpt>
      <trkpt lat="48.62527" lon="-2.25865">
        <ele>80</ele>
        <time>2021-07-30T16:18:13.000Z</time>
      </trkpt>
      <trkpt lat="48.62537" lon="-2.25858">
        <ele>79</ele>
        <time>2021-07-30T16:18:16.000Z</time>
      </trkpt>
      <trkpt lat="48.62551" lon="-2.25849">
        <ele>80</ele>
        <time>2021-07-30T16:18:19.000Z</time>
      </trkpt>
      <trkpt lat="48.62561" lon="-2.25838">
        <ele>80</ele>
        <time>2021-07-30T16:18:22.000Z</time>
      </trkpt>
      <trkpt lat="48.62572" lon="-2.25824">
        <ele>80</ele>
        <time>2021-07-30T16:18:25.000Z</time>
      </trkpt>
      <trkpt lat="48.6258" lon="-2.25812">
        <ele>79</ele>
        <time>2021-07-30T16:18:27.000Z</time>
      </trkpt>
      <trkpt lat="48.62587" lon="-2.25795">
        <ele>77</ele>
        <time>2021-07-30T16:18:30.000Z</time>
      </trkpt>
      <trkpt lat="48.6259" lon="-2.25781">
        <ele>76</ele>
        <time>2021-07-30T16:18:32.000Z</time>
      </trkpt>
      <trkpt lat="48.62593" lon="-2.25763">
        <ele>75</ele>
        <time>2021-07-30T16:18:34.000Z</time>
      </trkpt>
      <trkpt lat="48.626" lon="-2.2574">
        <ele>74</ele>
        <time>2021-07-30T16:18:36.000Z</time>
      </trkpt>
      <trkpt lat="48.62606" lon="-2.25721">
        <ele>73</ele>
        <time>2021-07-30T16:18:38.000Z</time>
      </trkpt>
      <trkpt lat="48.62614" lon="-2.25708">
        <ele>71</ele>
        <time>2021-07-30T16:18:40.000Z</time>
      </trkpt>
      <trkpt lat="48.62624" lon="-2.25712">
        <ele>69</ele>
        <time>2021-07-30T16:18:43.000Z</time>
      </trkpt>
      <trkpt lat="48.62632" lon="-2.2572">
        <ele>68</ele>
        <time>2021-07-30T16:18:45.000Z</time>
      </trkpt>
      <trkpt lat="48.62639" lon="-2.25733">
        <ele>67</ele>
        <time>2021-07-30T16:18:47.000Z</time>
      </trkpt>
      <trkpt lat="48.62646" lon="-2.25743">
        <ele>66</ele>
        <time>2021-07-30T16:18:49.000Z</time>
      </trkpt>
      <trkpt lat="48.62652" lon="-2.25755">
        <ele>66</ele>
        <time>2021-07-30T16:18:51.000Z</time>
      </trkpt>
      <trkpt lat="48.62657" lon="-2.25767">
        <ele>65</ele>
        <time>2021-07-30T16:18:53.000Z</time>
      </trkpt>
      <trkpt lat="48.62662" lon="-2.25779">
        <ele>64</ele>
        <time>2021-07-30T16:18:55.000Z</time>
      </trkpt>
      <trkpt lat="48.62668" lon="-2.2579">
        <ele>64</ele>
        <time>2021-07-30T16:18:57.000Z</time>
      </trkpt>
      <trkpt lat="48.62675" lon="-2.25804">
        <ele>63</ele>
        <time>2021-07-30T16:19:00.000Z</time>
      </trkpt>
      <trkpt lat="48.62681" lon="-2.25816">
        <ele>64</ele>
        <time>2021-07-30T16:19:04.000Z</time>
      </trkpt>
      <trkpt lat="48.62687" lon="-2.25826">
        <ele>65</ele>
        <time>2021-07-30T16:19:08.000Z</time>
      </trkpt>
      <trkpt lat="48.62694" lon="-2.25837">
        <ele>66</ele>
        <time>2021-07-30T16:19:13.000Z</time>
      </trkpt>
      <trkpt lat="48.62702" lon="-2.25847">
        <ele>66</ele>
        <time>2021-07-30T16:19:18.000Z</time>
      </trkpt>
      <trkpt lat="48.62711" lon="-2.25852">
        <ele>66</ele>
        <time>2021-07-30T16:19:24.000Z</time>
      </trkpt>
      <trkpt lat="48.6272" lon="-2.25851">
        <ele>67</ele>
        <time>2021-07-30T16:19:29.000Z</time>
      </trkpt>
      <trkpt lat="48.62728" lon="-2.25837">
        <ele>66</ele>
        <time>2021-07-30T16:19:32.000Z</time>
      </trkpt>
      <trkpt lat="48.62736" lon="-2.25829">
        <ele>67</ele>
        <time>2021-07-30T16:19:34.000Z</time>
      </trkpt>
      <trkpt lat="48.62743" lon="-2.25815">
        <ele>66</ele>
        <time>2021-07-30T16:19:36.000Z</time>
      </trkpt>
      <trkpt lat="48.62754" lon="-2.25799">
        <ele>65</ele>
        <time>2021-07-30T16:19:38.000Z</time>
      </trkpt>
      <trkpt lat="48.62764" lon="-2.25782">
        <ele>64</ele>
        <time>2021-07-30T16:19:40.000Z</time>
      </trkpt>
      <trkpt lat="48.62773" lon="-2.25764">
        <ele>63</ele>
        <time>2021-07-30T16:19:42.000Z</time>
      </trkpt>
      <trkpt lat="48.62782" lon="-2.25745">
        <ele>62</ele>
        <time>2021-07-30T16:19:44.000Z</time>
      </trkpt>
      <trkpt lat="48.6279" lon="-2.25725">
        <ele>62</ele>
        <time>2021-07-30T16:19:46.000Z</time>
      </trkpt>
      <trkpt lat="48.62799" lon="-2.25706">
        <ele>60</ele>
        <time>2021-07-30T16:19:48.000Z</time>
      </trkpt>
      <trkpt lat="48.62808" lon="-2.25687">
        <ele>60</ele>
        <time>2021-07-30T16:19:50.000Z</time>
      </trkpt>
      <trkpt lat="48.62817" lon="-2.25666">
        <ele>59</ele>
        <time>2021-07-30T16:19:52.000Z</time>
      </trkpt>
      <trkpt lat="48.62825" lon="-2.25645">
        <ele>57</ele>
        <time>2021-07-30T16:19:54.000Z</time>
      </trkpt>
      <trkpt lat="48.62834" lon="-2.25625">
        <ele>56</ele>
        <time>2021-07-30T16:19:56.000Z</time>
      </trkpt>
      <trkpt lat="48.62842" lon="-2.25604">
        <ele>55</ele>
        <time>2021-07-30T16:19:58.000Z</time>
      </trkpt>
      <trkpt lat="48.62851" lon="-2.25584">
        <ele>55</ele>
        <time>2021-07-30T16:20:00.000Z</time>
      </trkpt>
      <trkpt lat="48.62859" lon="-2.25564">
        <ele>55</ele>
        <time>2021-07-30T16:20:02.000Z</time>
      </trkpt>
      <trkpt lat="48.62866" lon="-2.25542">
        <ele>53</ele>
        <time>2021-07-30T16:20:04.000Z</time>
      </trkpt>
      <trkpt lat="48.62868" lon="-2.25521">
        <ele>52</ele>
        <time>2021-07-30T16:20:06.000Z</time>
      </trkpt>
      <trkpt lat="48.62864" lon="-2.25501">
        <ele>53</ele>
        <time>2021-07-30T16:20:08.000Z</time>
      </trkpt>
      <trkpt lat="48.62869" lon="-2.25483">
        <ele>54</ele>
        <time>2021-07-30T16:20:10.000Z</time>
      </trkpt>
      <trkpt lat="48.6288" lon="-2.25472">
        <ele>54</ele>
        <time>2021-07-30T16:20:12.000Z</time>
      </trkpt>
      <trkpt lat="48.6289" lon="-2.25463">
        <ele>53</ele>
        <time>2021-07-30T16:20:14.000Z</time>
      </trkpt>
      <trkpt lat="48.62899" lon="-2.25451">
        <ele>53</ele>
        <time>2021-07-30T16:20:16.000Z</time>
      </trkpt>
      <trkpt lat="48.62906" lon="-2.25437">
        <ele>53</ele>
        <time>2021-07-30T16:20:18.000Z</time>
      </trkpt>
      <trkpt lat="48.62914" lon="-2.25423">
        <ele>53</ele>
        <time>2021-07-30T16:20:20.000Z</time>
      </trkpt>
      <trkpt lat="48.62922" lon="-2.25409">
        <ele>52</ele>
        <time>2021-07-30T16:20:22.000Z</time>
      </trkpt>
      <trkpt lat="48.6293" lon="-2.25396">
        <ele>52</ele>
        <time>2021-07-30T16:20:24.000Z</time>
      </trkpt>
      <trkpt lat="48.62938" lon="-2.25383">
        <ele>52</ele>
        <time>2021-07-30T16:20:26.000Z</time>
      </trkpt>
      <trkpt lat="48.62943" lon="-2.2537">
        <ele>52</ele>
        <time>2021-07-30T16:20:28.000Z</time>
      </trkpt>
      <trkpt lat="48.62947" lon="-2.25357">
        <ele>53</ele>
        <time>2021-07-30T16:20:30.000Z</time>
      </trkpt>
      <trkpt lat="48.62952" lon="-2.25345">
        <ele>53</ele>
        <time>2021-07-30T16:20:32.000Z</time>
      </trkpt>
      <trkpt lat="48.62958" lon="-2.25328">
        <ele>53</ele>
        <time>2021-07-30T16:20:35.000Z</time>
      </trkpt>
      <trkpt lat="48.62965" lon="-2.25312">
        <ele>54</ele>
        <time>2021-07-30T16:20:38.000Z</time>
      </trkpt>
      <trkpt lat="48.62975" lon="-2.25307">
        <ele>56</ele>
        <time>2021-07-30T16:20:41.000Z</time>
      </trkpt>
      <trkpt lat="48.62986" lon="-2.25317">
        <ele>58</ele>
        <time>2021-07-30T16:20:44.000Z</time>
      </trkpt>
      <trkpt lat="48.62994" lon="-2.25325">
        <ele>58</ele>
        <time>2021-07-30T16:20:46.000Z</time>
      </trkpt>
      <trkpt lat="48.63002" lon="-2.25332">
        <ele>58</ele>
        <time>2021-07-30T16:20:48.000Z</time>
      </trkpt>
      <trkpt lat="48.63013" lon="-2.25341">
        <ele>58</ele>
        <time>2021-07-30T16:20:51.000Z</time>
      </trkpt>
      <trkpt lat="48.63023" lon="-2.25352">
        <ele>58</ele>
        <time>2021-07-30T16:20:54.000Z</time>
      </trkpt>
      <trkpt lat="48.63034" lon="-2.2536">
        <ele>57</ele>
        <time>2021-07-30T16:20:57.000Z</time>
      </trkpt>
      <trkpt lat="48.63046" lon="-2.25369">
        <ele>57</ele>
        <time>2021-07-30T16:21:00.000Z</time>
      </trkpt>
      <trkpt lat="48.63059" lon="-2.25377">
        <ele>57</ele>
        <time>2021-07-30T16:21:03.000Z</time>
      </trkpt>
      <trkpt lat="48.63067" lon="-2.25383">
        <ele>57</ele>
        <time>2021-07-30T16:21:05.000Z</time>
      </trkpt>
      <trkpt lat="48.63075" lon="-2.25389">
        <ele>57</ele>
        <time>2021-07-30T16:21:07.000Z</time>
      </trkpt>
      <trkpt lat="48.63083" lon="-2.25397">
        <ele>57</ele>
        <time>2021-07-30T16:21:09.000Z</time>
      </trkpt>
      <trkpt lat="48.63094" lon="-2.25406">
        <ele>57</ele>
        <time>2021-07-30T16:21:12.000Z</time>
      </trkpt>
      <trkpt lat="48.63103" lon="-2.2541">
        <ele>57</ele>
        <time>2021-07-30T16:21:14.000Z</time>
      </trkpt>
      <trkpt lat="48.63112" lon="-2.25416">
        <ele>57</ele>
        <time>2021-07-30T16:21:16.000Z</time>
      </trkpt>
      <trkpt lat="48.6312" lon="-2.25422">
        <ele>57</ele>
        <time>2021-07-30T16:21:18.000Z</time>
      </trkpt>
      <trkpt lat="48.6313" lon="-2.25428">
        <ele>57</ele>
        <time>2021-07-30T16:21:20.000Z</time>
      </trkpt>
      <trkpt lat="48.63139" lon="-2.25435">
        <ele>57</ele>
        <time>2021-07-30T16:21:22.000Z</time>
      </trkpt>
      <trkpt lat="48.63149" lon="-2.25441">
        <ele>57</ele>
        <time>2021-07-30T16:21:24.000Z</time>
      </trkpt>
      <trkpt lat="48.63161" lon="-2.25449">
        <ele>57</ele>
        <time>2021-07-30T16:21:27.000Z</time>
      </trkpt>
      <trkpt lat="48.6317" lon="-2.25454">
        <ele>57</ele>
        <time>2021-07-30T16:21:29.000Z</time>
      </trkpt>
      <trkpt lat="48.63183" lon="-2.25462">
        <ele>57</ele>
        <time>2021-07-30T16:21:32.000Z</time>
      </trkpt>
      <trkpt lat="48.63192" lon="-2.25468">
        <ele>58</ele>
        <time>2021-07-30T16:21:34.000Z</time>
      </trkpt>
      <trkpt lat="48.63201" lon="-2.25473">
        <ele>58</ele>
        <time>2021-07-30T16:21:36.000Z</time>
      </trkpt>
      <trkpt lat="48.6321" lon="-2.25479">
        <ele>58</ele>
        <time>2021-07-30T16:21:38.000Z</time>
      </trkpt>
      <trkpt lat="48.63219" lon="-2.25486">
        <ele>59</ele>
        <time>2021-07-30T16:21:40.000Z</time>
      </trkpt>
      <trkpt lat="48.63227" lon="-2.25492">
        <ele>58</ele>
        <time>2021-07-30T16:21:42.000Z</time>
      </trkpt>
      <trkpt lat="48.63233" lon="-2.25507">
        <ele>58</ele>
        <time>2021-07-30T16:21:45.000Z</time>
      </trkpt>
      <trkpt lat="48.6323" lon="-2.25525">
        <ele>57</ele>
        <time>2021-07-30T16:21:48.000Z</time>
      </trkpt>
      <trkpt lat="48.63226" lon="-2.25541">
        <ele>56</ele>
        <time>2021-07-30T16:21:50.000Z</time>
      </trkpt>
      <trkpt lat="48.63222" lon="-2.25556">
        <ele>56</ele>
        <time>2021-07-30T16:21:52.000Z</time>
      </trkpt>
      <trkpt lat="48.6322" lon="-2.2557">
        <ele>55</ele>
        <time>2021-07-30T16:21:54.000Z</time>
      </trkpt>
      <trkpt lat="48.63218" lon="-2.25588">
        <ele>56</ele>
        <time>2021-07-30T16:21:57.000Z</time>
      </trkpt>
      <trkpt lat="48.63217" lon="-2.25603">
        <ele>56</ele>
        <time>2021-07-30T16:21:59.000Z</time>
      </trkpt>
      <trkpt lat="48.63215" lon="-2.25617">
        <ele>55</ele>
        <time>2021-07-30T16:22:01.000Z</time>
      </trkpt>
      <trkpt lat="48.63213" lon="-2.25631">
        <ele>55</ele>
        <time>2021-07-30T16:22:03.000Z</time>
      </trkpt>
      <trkpt lat="48.63211" lon="-2.25646">
        <ele>55</ele>
        <time>2021-07-30T16:22:05.000Z</time>
      </trkpt>
      <trkpt lat="48.6321" lon="-2.2566">
        <ele>54</ele>
        <time>2021-07-30T16:22:07.000Z</time>
      </trkpt>
      <trkpt lat="48.63215" lon="-2.25678">
        <ele>55</ele>
        <time>2021-07-30T16:22:10.000Z</time>
      </trkpt>
      <trkpt lat="48.63223" lon="-2.25688">
        <ele>55</ele>
        <time>2021-07-30T16:22:12.000Z</time>
      </trkpt>
      <trkpt lat="48.63234" lon="-2.25692">
        <ele>56</ele>
        <time>2021-07-30T16:22:14.000Z</time>
      </trkpt>
      <trkpt lat="48.63244" lon="-2.25695">
        <ele>56</ele>
        <time>2021-07-30T16:22:16.000Z</time>
      </trkpt>
      <trkpt lat="48.63255" lon="-2.25697">
        <ele>57</ele>
        <time>2021-07-30T16:22:18.000Z</time>
      </trkpt>
      <trkpt lat="48.63264" lon="-2.257">
        <ele>57</ele>
        <time>2021-07-30T16:22:20.000Z</time>
      </trkpt>
      <trkpt lat="48.63274" lon="-2.25701">
        <ele>57</ele>
        <time>2021-07-30T16:22:22.000Z</time>
      </trkpt>
      <trkpt lat="48.63284" lon="-2.25704">
        <ele>57</ele>
        <time>2021-07-30T16:22:24.000Z</time>
      </trkpt>
      <trkpt lat="48.63294" lon="-2.25707">
        <ele>57</ele>
        <time>2021-07-30T16:22:26.000Z</time>
      </trkpt>
      <trkpt lat="48.63303" lon="-2.25706">
        <ele>57</ele>
        <time>2021-07-30T16:22:28.000Z</time>
      </trkpt>
      <trkpt lat="48.63313" lon="-2.25704">
        <ele>57</ele>
        <time>2021-07-30T16:22:31.000Z</time>
      </trkpt>
      <trkpt lat="48.63323" lon="-2.257">
        <ele>58</ele>
        <time>2021-07-30T16:22:36.000Z</time>
      </trkpt>
      <trkpt lat="48.63333" lon="-2.25696">
        <ele>58</ele>
        <time>2021-07-30T16:22:39.000Z</time>
      </trkpt>
      <trkpt lat="48.63345" lon="-2.25693">
        <ele>58</ele>
        <time>2021-07-30T16:22:42.000Z</time>
      </trkpt>
      <trkpt lat="48.63351" lon="-2.25706">
        <ele>60</ele>
        <time>2021-07-30T16:22:46.000Z</time>
      </trkpt>
      <trkpt lat="48.63344" lon="-2.25722">
        <ele>60</ele>
        <time>2021-07-30T16:22:48.000Z</time>
      </trkpt>
      <trkpt lat="48.63337" lon="-2.25735">
        <ele>60</ele>
        <time>2021-07-30T16:22:50.000Z</time>
      </trkpt>
      <trkpt lat="48.63331" lon="-2.25748">
        <ele>60</ele>
        <time>2021-07-30T16:22:52.000Z</time>
      </trkpt>
      <trkpt lat="48.63325" lon="-2.2576">
        <ele>60</ele>
        <time>2021-07-30T16:22:54.000Z</time>
      </trkpt>
      <trkpt lat="48.63315" lon="-2.25779">
        <ele>59</ele>
        <time>2021-07-30T16:22:57.000Z</time>
      </trkpt>
      <trkpt lat="48.63308" lon="-2.25791">
        <ele>59</ele>
        <time>2021-07-30T16:22:59.000Z</time>
      </trkpt>
      <trkpt lat="48.633" lon="-2.25803">
        <ele>58</ele>
        <time>2021-07-30T16:23:01.000Z</time>
      </trkpt>
      <trkpt lat="48.63293" lon="-2.25815">
        <ele>58</ele>
        <time>2021-07-30T16:23:03.000Z</time>
      </trkpt>
      <trkpt lat="48.63286" lon="-2.25827">
        <ele>57</ele>
        <time>2021-07-30T16:23:05.000Z</time>
      </trkpt>
      <trkpt lat="48.63278" lon="-2.25839">
        <ele>57</ele>
        <time>2021-07-30T16:23:07.000Z</time>
      </trkpt>
      <trkpt lat="48.63272" lon="-2.2585">
        <ele>57</ele>
        <time>2021-07-30T16:23:09.000Z</time>
      </trkpt>
      <trkpt lat="48.63265" lon="-2.25862">
        <ele>56</ele>
        <time>2021-07-30T16:23:11.000Z</time>
      </trkpt>
      <trkpt lat="48.63257" lon="-2.25874">
        <ele>57</ele>
        <time>2021-07-30T16:23:13.000Z</time>
      </trkpt>
      <trkpt lat="48.63251" lon="-2.25884">
        <ele>58</ele>
        <time>2021-07-30T16:23:15.000Z</time>
      </trkpt>
      <trkpt lat="48.63245" lon="-2.25894">
        <ele>58</ele>
        <time>2021-07-30T16:23:17.000Z</time>
      </trkpt>
      <trkpt lat="48.63239" lon="-2.25904">
        <ele>58</ele>
        <time>2021-07-30T16:23:19.000Z</time>
      </trkpt>
      <trkpt lat="48.6323" lon="-2.25918">
        <ele>58</ele>
        <time>2021-07-30T16:23:22.000Z</time>
      </trkpt>
      <trkpt lat="48.63223" lon="-2.25931">
        <ele>58</ele>
        <time>2021-07-30T16:23:25.000Z</time>
      </trkpt>
      <trkpt lat="48.63216" lon="-2.25942">
        <ele>58</ele>
        <time>2021-07-30T16:23:28.000Z</time>
      </trkpt>
      <trkpt lat="48.63208" lon="-2.2596">
        <ele>59</ele>
        <time>2021-07-30T16:23:33.000Z</time>
      </trkpt>
      <trkpt lat="48.63205" lon="-2.25974">
        <ele>60</ele>
        <time>2021-07-30T16:23:39.000Z</time>
      </trkpt>
      <trkpt lat="48.63195" lon="-2.25977">
        <ele>60</ele>
        <time>2021-07-30T16:23:44.000Z</time>
      </trkpt>
      <trkpt lat="48.63189" lon="-2.25989">
        <ele>59</ele>
        <time>2021-07-30T16:23:46.000Z</time>
      </trkpt>
      <trkpt lat="48.63182" lon="-2.25999">
        <ele>59</ele>
        <time>2021-07-30T16:23:48.000Z</time>
      </trkpt>
      <trkpt lat="48.63176" lon="-2.2601">
        <ele>60</ele>
        <time>2021-07-30T16:23:50.000Z</time>
      </trkpt>
      <trkpt lat="48.63167" lon="-2.26025">
        <ele>60</ele>
        <time>2021-07-30T16:23:53.000Z</time>
      </trkpt>
      <trkpt lat="48.6316" lon="-2.2604">
        <ele>61</ele>
        <time>2021-07-30T16:23:56.000Z</time>
      </trkpt>
      <trkpt lat="48.63156" lon="-2.26057">
        <ele>61</ele>
        <time>2021-07-30T16:23:59.000Z</time>
      </trkpt>
      <trkpt lat="48.63151" lon="-2.26075">
        <ele>61</ele>
        <time>2021-07-30T16:24:03.000Z</time>
      </trkpt>
      <trkpt lat="48.63146" lon="-2.26088">
        <ele>62</ele>
        <time>2021-07-30T16:24:07.000Z</time>
      </trkpt>
      <trkpt lat="48.63142" lon="-2.26104">
        <ele>62</ele>
        <time>2021-07-30T16:24:11.000Z</time>
      </trkpt>
      <trkpt lat="48.63135" lon="-2.26117">
        <ele>62</ele>
        <time>2021-07-30T16:24:14.000Z</time>
      </trkpt>
      <trkpt lat="48.63129" lon="-2.26129">
        <ele>62</ele>
        <time>2021-07-30T16:24:17.000Z</time>
      </trkpt>
      <trkpt lat="48.63122" lon="-2.26141">
        <ele>63</ele>
        <time>2021-07-30T16:24:20.000Z</time>
      </trkpt>
      <trkpt lat="48.63116" lon="-2.26156">
        <ele>63</ele>
        <time>2021-07-30T16:24:24.000Z</time>
      </trkpt>
      <trkpt lat="48.63111" lon="-2.26168">
        <ele>63</ele>
        <time>2021-07-30T16:24:27.000Z</time>
      </trkpt>
      <trkpt lat="48.63105" lon="-2.26179">
        <ele>63</ele>
        <time>2021-07-30T16:24:30.000Z</time>
      </trkpt>
      <trkpt lat="48.631" lon="-2.2619">
        <ele>64</ele>
        <time>2021-07-30T16:24:34.000Z</time>
      </trkpt>
      <trkpt lat="48.63095" lon="-2.26202">
        <ele>64</ele>
        <time>2021-07-30T16:24:38.000Z</time>
      </trkpt>
      <trkpt lat="48.63089" lon="-2.26216">
        <ele>65</ele>
        <time>2021-07-30T16:24:42.000Z</time>
      </trkpt>
      <trkpt lat="48.63084" lon="-2.26228">
        <ele>67</ele>
        <time>2021-07-30T16:24:46.000Z</time>
      </trkpt>
      <trkpt lat="48.63078" lon="-2.26239">
        <ele>67</ele>
        <time>2021-07-30T16:24:50.000Z</time>
      </trkpt>
      <trkpt lat="48.63074" lon="-2.26251">
        <ele>67</ele>
        <time>2021-07-30T16:24:55.000Z</time>
      </trkpt>
      <trkpt lat="48.63071" lon="-2.26264">
        <ele>68</ele>
        <time>2021-07-30T16:25:00.000Z</time>
      </trkpt>
      <trkpt lat="48.63066" lon="-2.26277">
        <ele>75</ele>
        <time>2021-07-30T16:26:01.000Z</time>
      </trkpt>
      <trkpt lat="48.63069" lon="-2.26291">
        <ele>77</ele>
        <time>2021-07-30T16:26:08.000Z</time>
      </trkpt>
      <trkpt lat="48.63076" lon="-2.263">
        <ele>80</ele>
        <time>2021-07-30T16:26:24.000Z</time>
      </trkpt>
      <trkpt lat="48.63072" lon="-2.26286">
        <ele>78</ele>
        <time>2021-07-30T16:26:33.000Z</time>
      </trkpt>
      <trkpt lat="48.63066" lon="-2.26272">
        <ele>77</ele>
        <time>2021-07-30T16:26:39.000Z</time>
      </trkpt>
      <trkpt lat="48.63062" lon="-2.26259">
        <ele>75</ele>
        <time>2021-07-30T16:26:44.000Z</time>
      </trkpt>
      <trkpt lat="48.63052" lon="-2.26256">
        <ele>75</ele>
        <time>2021-07-30T16:26:47.000Z</time>
      </trkpt>
      <trkpt lat="48.63043" lon="-2.26252">
        <ele>76</ele>
        <time>2021-07-30T16:26:51.000Z</time>
      </trkpt>
      <trkpt lat="48.63038" lon="-2.26265">
        <ele>77</ele>
        <time>2021-07-30T16:27:02.000Z</time>
      </trkpt>
      <trkpt lat="48.63037" lon="-2.26279">
        <ele>77</ele>
        <time>2021-07-30T16:27:07.000Z</time>
      </trkpt>
      <trkpt lat="48.63035" lon="-2.26295">
        <ele>78</ele>
        <time>2021-07-30T16:27:12.000Z</time>
      </trkpt>
      <trkpt lat="48.63039" lon="-2.2631">
        <ele>79</ele>
        <time>2021-07-30T16:27:17.000Z</time>
      </trkpt>
      <trkpt lat="48.63035" lon="-2.26324">
        <ele>80</ele>
        <time>2021-07-30T16:27:21.000Z</time>
      </trkpt>
      <trkpt lat="48.63033" lon="-2.26337">
        <ele>80</ele>
        <time>2021-07-30T16:27:24.000Z</time>
      </trkpt>
      <trkpt lat="48.63029" lon="-2.2635">
        <ele>79</ele>
        <time>2021-07-30T16:27:27.000Z</time>
      </trkpt>
      <trkpt lat="48.63023" lon="-2.26363">
        <ele>79</ele>
        <time>2021-07-30T16:27:31.000Z</time>
      </trkpt>
      <trkpt lat="48.63016" lon="-2.26379">
        <ele>79</ele>
        <time>2021-07-30T16:27:35.000Z</time>
      </trkpt>
      <trkpt lat="48.63013" lon="-2.26393">
        <ele>79</ele>
        <time>2021-07-30T16:27:39.000Z</time>
      </trkpt>
      <trkpt lat="48.6301" lon="-2.26407">
        <ele>80</ele>
        <time>2021-07-30T16:27:48.000Z</time>
      </trkpt>
      <trkpt lat="48.63014" lon="-2.2642">
        <ele>80</ele>
        <time>2021-07-30T16:27:53.000Z</time>
      </trkpt>
      <trkpt lat="48.63013" lon="-2.26435">
        <ele>82</ele>
        <time>2021-07-30T16:27:57.000Z</time>
      </trkpt>
      <trkpt lat="48.63007" lon="-2.26445">
        <ele>82</ele>
        <time>2021-07-30T16:28:01.000Z</time>
      </trkpt>
      <trkpt lat="48.63" lon="-2.26455">
        <ele>87</ele>
        <time>2021-07-30T16:28:06.000Z</time>
      </trkpt>
      <trkpt lat="48.62993" lon="-2.26466">
        <ele>88</ele>
        <time>2021-07-30T16:28:11.000Z</time>
      </trkpt>
      <trkpt lat="48.62988" lon="-2.26479">
        <ele>88</ele>
        <time>2021-07-30T16:28:17.000Z</time>
      </trkpt>
      <trkpt lat="48.62979" lon="-2.26489">
        <ele>90</ele>
        <time>2021-07-30T16:28:24.000Z</time>
      </trkpt>
      <trkpt lat="48.62976" lon="-2.26504">
        <ele>89</ele>
        <time>2021-07-30T16:28:31.000Z</time>
      </trkpt>
      <trkpt lat="48.62973" lon="-2.26518">
        <ele>88</ele>
        <time>2021-07-30T16:28:38.000Z</time>
      </trkpt>
      <trkpt lat="48.62971" lon="-2.26532">
        <ele>88</ele>
        <time>2021-07-30T16:28:46.000Z</time>
      </trkpt>
      <trkpt lat="48.62977" lon="-2.26544">
        <ele>89</ele>
        <time>2021-07-30T16:28:54.000Z</time>
      </trkpt>
      <trkpt lat="48.62987" lon="-2.26535">
        <ele>89</ele>
        <time>2021-07-30T16:28:59.000Z</time>
      </trkpt>
      <trkpt lat="48.62994" lon="-2.26526">
        <ele>90</ele>
        <time>2021-07-30T16:29:02.000Z</time>
      </trkpt>
      <trkpt lat="48.63003" lon="-2.26516">
        <ele>91</ele>
        <time>2021-07-30T16:29:05.000Z</time>
      </trkpt>
      <trkpt lat="48.63013" lon="-2.26506">
        <ele>91</ele>
        <time>2021-07-30T16:29:08.000Z</time>
      </trkpt>
      <trkpt lat="48.63025" lon="-2.26499">
        <ele>92</ele>
        <time>2021-07-30T16:29:11.000Z</time>
      </trkpt>
      <trkpt lat="48.63034" lon="-2.26494">
        <ele>92</ele>
        <time>2021-07-30T16:29:13.000Z</time>
      </trkpt>
      <trkpt lat="48.63043" lon="-2.26487">
        <ele>92</ele>
        <time>2021-07-30T16:29:15.000Z</time>
      </trkpt>
      <trkpt lat="48.63052" lon="-2.26481">
        <ele>91</ele>
        <time>2021-07-30T16:29:17.000Z</time>
      </trkpt>
      <trkpt lat="48.63062" lon="-2.26473">
        <ele>91</ele>
        <time>2021-07-30T16:29:19.000Z</time>
      </trkpt>
      <trkpt lat="48.63071" lon="-2.26465">
        <ele>91</ele>
        <time>2021-07-30T16:29:21.000Z</time>
      </trkpt>
      <trkpt lat="48.63081" lon="-2.26457">
        <ele>90</ele>
        <time>2021-07-30T16:29:23.000Z</time>
      </trkpt>
      <trkpt lat="48.63089" lon="-2.26448">
        <ele>90</ele>
        <time>2021-07-30T16:29:25.000Z</time>
      </trkpt>
      <trkpt lat="48.63097" lon="-2.26438">
        <ele>89</ele>
        <time>2021-07-30T16:29:27.000Z</time>
      </trkpt>
      <trkpt lat="48.63104" lon="-2.26429">
        <ele>90</ele>
        <time>2021-07-30T16:29:29.000Z</time>
      </trkpt>
      <trkpt lat="48.63112" lon="-2.2642">
        <ele>90</ele>
        <time>2021-07-30T16:29:31.000Z</time>
      </trkpt>
      <trkpt lat="48.63119" lon="-2.26411">
        <ele>90</ele>
        <time>2021-07-30T16:29:33.000Z</time>
      </trkpt>
      <trkpt lat="48.63128" lon="-2.26402">
        <ele>90</ele>
        <time>2021-07-30T16:29:35.000Z</time>
      </trkpt>
      <trkpt lat="48.63136" lon="-2.26393">
        <ele>89</ele>
        <time>2021-07-30T16:29:37.000Z</time>
      </trkpt>
      <trkpt lat="48.63131" lon="-2.26407">
        <ele>90</ele>
        <time>2021-07-30T16:29:45.000Z</time>
      </trkpt>
      <trkpt lat="48.63129" lon="-2.26422">
        <ele>91</ele>
        <time>2021-07-30T16:29:48.000Z</time>
      </trkpt>
      <trkpt lat="48.63133" lon="-2.26439">
        <ele>91</ele>
        <time>2021-07-30T16:29:52.000Z</time>
      </trkpt>
      <trkpt lat="48.63135" lon="-2.26455">
        <ele>91</ele>
        <time>2021-07-30T16:29:56.000Z</time>
      </trkpt>
      <trkpt lat="48.63136" lon="-2.26472">
        <ele>92</ele>
        <time>2021-07-30T16:30:00.000Z</time>
      </trkpt>
      <trkpt lat="48.63134" lon="-2.26488">
        <ele>93</ele>
        <time>2021-07-30T16:30:04.000Z</time>
      </trkpt>
      <trkpt lat="48.63132" lon="-2.26503">
        <ele>94</ele>
        <time>2021-07-30T16:30:08.000Z</time>
      </trkpt>
      <trkpt lat="48.63128" lon="-2.26518">
        <ele>95</ele>
        <time>2021-07-30T16:30:13.000Z</time>
      </trkpt>
      <trkpt lat="48.63129" lon="-2.26535">
        <ele>95</ele>
        <time>2021-07-30T16:30:18.000Z</time>
      </trkpt>
      <trkpt lat="48.63131" lon="-2.26551">
        <ele>96</ele>
        <time>2021-07-30T16:30:22.000Z</time>
      </trkpt>
      <trkpt lat="48.63133" lon="-2.26567">
        <ele>97</ele>
        <time>2021-07-30T16:30:26.000Z</time>
      </trkpt>
      <trkpt lat="48.63133" lon="-2.26583">
        <ele>97</ele>
        <time>2021-07-30T16:30:30.000Z</time>
      </trkpt>
      <trkpt lat="48.63133" lon="-2.26599">
        <ele>97</ele>
        <time>2021-07-30T16:30:34.000Z</time>
      </trkpt>
      <trkpt lat="48.63134" lon="-2.26614">
        <ele>97</ele>
        <time>2021-07-30T16:30:38.000Z</time>
      </trkpt>
      <trkpt lat="48.63133" lon="-2.26628">
        <ele>97</ele>
        <time>2021-07-30T16:30:42.000Z</time>
      </trkpt>
      <trkpt lat="48.63139" lon="-2.2664">
        <ele>98</ele>
        <time>2021-07-30T16:30:48.000Z</time>
      </trkpt>
      <trkpt lat="48.63148" lon="-2.2664">
        <ele>98</ele>
        <time>2021-07-30T16:30:51.000Z</time>
      </trkpt>
      <trkpt lat="48.6316" lon="-2.26642">
        <ele>99</ele>
        <time>2021-07-30T16:30:54.000Z</time>
      </trkpt>
      <trkpt lat="48.63169" lon="-2.26646">
        <ele>100</ele>
        <time>2021-07-30T16:30:56.000Z</time>
      </trkpt>
      <trkpt lat="48.63178" lon="-2.26646">
        <ele>101</ele>
        <time>2021-07-30T16:30:58.000Z</time>
      </trkpt>
      <trkpt lat="48.63188" lon="-2.26644">
        <ele>101</ele>
        <time>2021-07-30T16:31:00.000Z</time>
      </trkpt>
      <trkpt lat="48.63197" lon="-2.26641">
        <ele>101</ele>
        <time>2021-07-30T16:31:02.000Z</time>
      </trkpt>
      <trkpt lat="48.63206" lon="-2.26638">
        <ele>101</ele>
        <time>2021-07-30T16:31:04.000Z</time>
      </trkpt>
      <trkpt lat="48.63217" lon="-2.2664">
        <ele>102</ele>
        <time>2021-07-30T16:31:07.000Z</time>
      </trkpt>
      <trkpt lat="48.63215" lon="-2.26655">
        <ele>101</ele>
        <time>2021-07-30T16:31:10.000Z</time>
      </trkpt>
      <trkpt lat="48.63207" lon="-2.26663">
        <ele>102</ele>
        <time>2021-07-30T16:31:12.000Z</time>
      </trkpt>
      <trkpt lat="48.63198" lon="-2.26671">
        <ele>102</ele>
        <time>2021-07-30T16:31:14.000Z</time>
      </trkpt>
      <trkpt lat="48.63189" lon="-2.26678">
        <ele>103</ele>
        <time>2021-07-30T16:31:16.000Z</time>
      </trkpt>
      <trkpt lat="48.6318" lon="-2.26686">
        <ele>103</ele>
        <time>2021-07-30T16:31:18.000Z</time>
      </trkpt>
      <trkpt lat="48.63171" lon="-2.26693">
        <ele>103</ele>
        <time>2021-07-30T16:31:20.000Z</time>
      </trkpt>
      <trkpt lat="48.63162" lon="-2.267">
        <ele>103</ele>
        <time>2021-07-30T16:31:22.000Z</time>
      </trkpt>
      <trkpt lat="48.63153" lon="-2.26708">
        <ele>103</ele>
        <time>2021-07-30T16:31:24.000Z</time>
      </trkpt>
      <trkpt lat="48.63144" lon="-2.26716">
        <ele>103</ele>
        <time>2021-07-30T16:31:26.000Z</time>
      </trkpt>
      <trkpt lat="48.63134" lon="-2.26724">
        <ele>104</ele>
        <time>2021-07-30T16:31:28.000Z</time>
      </trkpt>
      <trkpt lat="48.63124" lon="-2.26732">
        <ele>104</ele>
        <time>2021-07-30T16:31:30.000Z</time>
      </trkpt>
      <trkpt lat="48.63113" lon="-2.26742">
        <ele>104</ele>
        <time>2021-07-30T16:31:32.000Z</time>
      </trkpt>
      <trkpt lat="48.63103" lon="-2.26752">
        <ele>104</ele>
        <time>2021-07-30T16:31:34.000Z</time>
      </trkpt>
      <trkpt lat="48.63091" lon="-2.26762">
        <ele>104</ele>
        <time>2021-07-30T16:31:36.000Z</time>
      </trkpt>
      <trkpt lat="48.6308" lon="-2.26772">
        <ele>105</ele>
        <time>2021-07-30T16:31:38.000Z</time>
      </trkpt>
      <trkpt lat="48.63069" lon="-2.26781">
        <ele>105</ele>
        <time>2021-07-30T16:31:40.000Z</time>
      </trkpt>
      <trkpt lat="48.63057" lon="-2.2679">
        <ele>105</ele>
        <time>2021-07-30T16:31:42.000Z</time>
      </trkpt>
      <trkpt lat="48.63045" lon="-2.26799">
        <ele>104</ele>
        <time>2021-07-30T16:31:44.000Z</time>
      </trkpt>
      <trkpt lat="48.63033" lon="-2.26809">
        <ele>104</ele>
        <time>2021-07-30T16:31:46.000Z</time>
      </trkpt>
      <trkpt lat="48.63021" lon="-2.26818">
        <ele>104</ele>
        <time>2021-07-30T16:31:48.000Z</time>
      </trkpt>
      <trkpt lat="48.6301" lon="-2.26824">
        <ele>104</ele>
        <time>2021-07-30T16:31:50.000Z</time>
      </trkpt>
      <trkpt lat="48.63" lon="-2.2683">
        <ele>103</ele>
        <time>2021-07-30T16:31:52.000Z</time>
      </trkpt>
      <trkpt lat="48.62989" lon="-2.26834">
        <ele>102</ele>
        <time>2021-07-30T16:31:54.000Z</time>
      </trkpt>
      <trkpt lat="48.62981" lon="-2.26842">
        <ele>103</ele>
        <time>2021-07-30T16:31:56.000Z</time>
      </trkpt>
      <trkpt lat="48.62978" lon="-2.26859">
        <ele>103</ele>
        <time>2021-07-30T16:31:59.000Z</time>
      </trkpt>
      <trkpt lat="48.62985" lon="-2.26869">
        <ele>103</ele>
        <time>2021-07-30T16:32:01.000Z</time>
      </trkpt>
      <trkpt lat="48.62993" lon="-2.26879">
        <ele>102</ele>
        <time>2021-07-30T16:32:03.000Z</time>
      </trkpt>
      <trkpt lat="48.63002" lon="-2.26889">
        <ele>102</ele>
        <time>2021-07-30T16:32:05.000Z</time>
      </trkpt>
      <trkpt lat="48.63012" lon="-2.26898">
        <ele>102</ele>
        <time>2021-07-30T16:32:07.000Z</time>
      </trkpt>
      <trkpt lat="48.63023" lon="-2.26908">
        <ele>102</ele>
        <time>2021-07-30T16:32:09.000Z</time>
      </trkpt>
      <trkpt lat="48.63034" lon="-2.26918">
        <ele>102</ele>
        <time>2021-07-30T16:32:11.000Z</time>
      </trkpt>
      <trkpt lat="48.63044" lon="-2.26926">
        <ele>102</ele>
        <time>2021-07-30T16:32:13.000Z</time>
      </trkpt>
      <trkpt lat="48.63055" lon="-2.26934">
        <ele>102</ele>
        <time>2021-07-30T16:32:15.000Z</time>
      </trkpt>
      <trkpt lat="48.63066" lon="-2.26939">
        <ele>102</ele>
        <time>2021-07-30T16:32:17.000Z</time>
      </trkpt>
      <trkpt lat="48.63077" lon="-2.26944">
        <ele>102</ele>
        <time>2021-07-30T16:32:19.000Z</time>
      </trkpt>
      <trkpt lat="48.63088" lon="-2.26951">
        <ele>102</ele>
        <time>2021-07-30T16:32:21.000Z</time>
      </trkpt>
      <trkpt lat="48.63099" lon="-2.26958">
        <ele>102</ele>
        <time>2021-07-30T16:32:23.000Z</time>
      </trkpt>
      <trkpt lat="48.6311" lon="-2.26964">
        <ele>102</ele>
        <time>2021-07-30T16:32:25.000Z</time>
      </trkpt>
      <trkpt lat="48.6312" lon="-2.26969">
        <ele>102</ele>
        <time>2021-07-30T16:32:27.000Z</time>
      </trkpt>
      <trkpt lat="48.6313" lon="-2.26975">
        <ele>102</ele>
        <time>2021-07-30T16:32:29.000Z</time>
      </trkpt>
      <trkpt lat="48.63139" lon="-2.26982">
        <ele>102</ele>
        <time>2021-07-30T16:32:31.000Z</time>
      </trkpt>
      <trkpt lat="48.63149" lon="-2.26989">
        <ele>102</ele>
        <time>2021-07-30T16:32:33.000Z</time>
      </trkpt>
      <trkpt lat="48.63159" lon="-2.26998">
        <ele>102</ele>
        <time>2021-07-30T16:32:35.000Z</time>
      </trkpt>
      <trkpt lat="48.6317" lon="-2.27007">
        <ele>101</ele>
        <time>2021-07-30T16:32:37.000Z</time>
      </trkpt>
      <trkpt lat="48.63183" lon="-2.27016">
        <ele>101</ele>
        <time>2021-07-30T16:32:39.000Z</time>
      </trkpt>
      <trkpt lat="48.63197" lon="-2.27027">
        <ele>100</ele>
        <time>2021-07-30T16:32:41.000Z</time>
      </trkpt>
      <trkpt lat="48.63211" lon="-2.27037">
        <ele>99</ele>
        <time>2021-07-30T16:32:43.000Z</time>
      </trkpt>
      <trkpt lat="48.63225" lon="-2.2705">
        <ele>99</ele>
        <time>2021-07-30T16:32:45.000Z</time>
      </trkpt>
      <trkpt lat="48.63239" lon="-2.27063">
        <ele>97</ele>
        <time>2021-07-30T16:32:47.000Z</time>
      </trkpt>
      <trkpt lat="48.63252" lon="-2.27076">
        <ele>97</ele>
        <time>2021-07-30T16:32:49.000Z</time>
      </trkpt>
      <trkpt lat="48.63264" lon="-2.27093">
        <ele>95</ele>
        <time>2021-07-30T16:32:51.000Z</time>
      </trkpt>
      <trkpt lat="48.63276" lon="-2.2711">
        <ele>95</ele>
        <time>2021-07-30T16:32:53.000Z</time>
      </trkpt>
      <trkpt lat="48.63285" lon="-2.27127">
        <ele>94</ele>
        <time>2021-07-30T16:32:55.000Z</time>
      </trkpt>
      <trkpt lat="48.63292" lon="-2.27147">
        <ele>93</ele>
        <time>2021-07-30T16:32:57.000Z</time>
      </trkpt>
      <trkpt lat="48.633" lon="-2.27167">
        <ele>92</ele>
        <time>2021-07-30T16:32:59.000Z</time>
      </trkpt>
      <trkpt lat="48.63309" lon="-2.27188">
        <ele>91</ele>
        <time>2021-07-30T16:33:01.000Z</time>
      </trkpt>
      <trkpt lat="48.63319" lon="-2.27208">
        <ele>90</ele>
        <time>2021-07-30T16:33:03.000Z</time>
      </trkpt>
      <trkpt lat="48.63328" lon="-2.27228">
        <ele>89</ele>
        <time>2021-07-30T16:33:05.000Z</time>
      </trkpt>
      <trkpt lat="48.63337" lon="-2.27245">
        <ele>88</ele>
        <time>2021-07-30T16:33:07.000Z</time>
      </trkpt>
      <trkpt lat="48.63346" lon="-2.2726">
        <ele>88</ele>
        <time>2021-07-30T16:33:09.000Z</time>
      </trkpt>
      <trkpt lat="48.63356" lon="-2.27272">
        <ele>87</ele>
        <time>2021-07-30T16:33:11.000Z</time>
      </trkpt>
      <trkpt lat="48.63362" lon="-2.27284">
        <ele>86</ele>
        <time>2021-07-30T16:33:13.000Z</time>
      </trkpt>
      <trkpt lat="48.63363" lon="-2.27304">
        <ele>86</ele>
        <time>2021-07-30T16:33:16.000Z</time>
      </trkpt>
      <trkpt lat="48.63359" lon="-2.27324">
        <ele>86</ele>
        <time>2021-07-30T16:33:19.000Z</time>
      </trkpt>
      <trkpt lat="48.63353" lon="-2.27336">
        <ele>86</ele>
        <time>2021-07-30T16:33:21.000Z</time>
      </trkpt>
      <trkpt lat="48.63349" lon="-2.27349">
        <ele>86</ele>
        <time>2021-07-30T16:33:23.000Z</time>
      </trkpt>
      <trkpt lat="48.63345" lon="-2.27364">
        <ele>87</ele>
        <time>2021-07-30T16:33:25.000Z</time>
      </trkpt>
      <trkpt lat="48.63343" lon="-2.27379">
        <ele>88</ele>
        <time>2021-07-30T16:33:27.000Z</time>
      </trkpt>
      <trkpt lat="48.63341" lon="-2.27395">
        <ele>89</ele>
        <time>2021-07-30T16:33:29.000Z</time>
      </trkpt>
      <trkpt lat="48.63339" lon="-2.27408">
        <ele>90</ele>
        <time>2021-07-30T16:33:31.000Z</time>
      </trkpt>
      <trkpt lat="48.63336" lon="-2.27421">
        <ele>91</ele>
        <time>2021-07-30T16:33:33.000Z</time>
      </trkpt>
      <trkpt lat="48.63333" lon="-2.27435">
        <ele>91</ele>
        <time>2021-07-30T16:33:35.000Z</time>
      </trkpt>
      <trkpt lat="48.63328" lon="-2.27451">
        <ele>90</ele>
        <time>2021-07-30T16:33:37.000Z</time>
      </trkpt>
      <trkpt lat="48.63321" lon="-2.27467">
        <ele>90</ele>
        <time>2021-07-30T16:33:39.000Z</time>
      </trkpt>
      <trkpt lat="48.63315" lon="-2.27483">
        <ele>90</ele>
        <time>2021-07-30T16:33:41.000Z</time>
      </trkpt>
      <trkpt lat="48.63309" lon="-2.27501">
        <ele>91</ele>
        <time>2021-07-30T16:33:43.000Z</time>
      </trkpt>
      <trkpt lat="48.63305" lon="-2.27517">
        <ele>92</ele>
        <time>2021-07-30T16:33:45.000Z</time>
      </trkpt>
      <trkpt lat="48.63301" lon="-2.27534">
        <ele>92</ele>
        <time>2021-07-30T16:33:47.000Z</time>
      </trkpt>
      <trkpt lat="48.63296" lon="-2.2755">
        <ele>92</ele>
        <time>2021-07-30T16:33:49.000Z</time>
      </trkpt>
      <trkpt lat="48.63291" lon="-2.27566">
        <ele>92</ele>
        <time>2021-07-30T16:33:51.000Z</time>
      </trkpt>
      <trkpt lat="48.63284" lon="-2.27579">
        <ele>92</ele>
        <time>2021-07-30T16:33:53.000Z</time>
      </trkpt>
      <trkpt lat="48.63278" lon="-2.27591">
        <ele>92</ele>
        <time>2021-07-30T16:33:55.000Z</time>
      </trkpt>
      <trkpt lat="48.63273" lon="-2.27604">
        <ele>92</ele>
        <time>2021-07-30T16:33:57.000Z</time>
      </trkpt>
      <trkpt lat="48.63271" lon="-2.27619">
        <ele>92</ele>
        <time>2021-07-30T16:33:59.000Z</time>
      </trkpt>
      <trkpt lat="48.63271" lon="-2.27634">
        <ele>92</ele>
        <time>2021-07-30T16:34:01.000Z</time>
      </trkpt>
      <trkpt lat="48.63273" lon="-2.27649">
        <ele>92</ele>
        <time>2021-07-30T16:34:03.000Z</time>
      </trkpt>
      <trkpt lat="48.63275" lon="-2.27663">
        <ele>92</ele>
        <time>2021-07-30T16:34:05.000Z</time>
      </trkpt>
      <trkpt lat="48.63279" lon="-2.27678">
        <ele>92</ele>
        <time>2021-07-30T16:34:07.000Z</time>
      </trkpt>
      <trkpt lat="48.63283" lon="-2.27692">
        <ele>92</ele>
        <time>2021-07-30T16:34:09.000Z</time>
      </trkpt>
      <trkpt lat="48.63286" lon="-2.27706">
        <ele>92</ele>
        <time>2021-07-30T16:34:11.000Z</time>
      </trkpt>
      <trkpt lat="48.63289" lon="-2.2772">
        <ele>92</ele>
        <time>2021-07-30T16:34:13.000Z</time>
      </trkpt>
      <trkpt lat="48.63291" lon="-2.27734">
        <ele>92</ele>
        <time>2021-07-30T16:34:15.000Z</time>
      </trkpt>
      <trkpt lat="48.63291" lon="-2.2775">
        <ele>93</ele>
        <time>2021-07-30T16:34:17.000Z</time>
      </trkpt>
      <trkpt lat="48.63291" lon="-2.27764">
        <ele>93</ele>
        <time>2021-07-30T16:34:19.000Z</time>
      </trkpt>
      <trkpt lat="48.63299" lon="-2.27771">
        <ele>94</ele>
        <time>2021-07-30T16:34:21.000Z</time>
      </trkpt>
      <trkpt lat="48.63309" lon="-2.27772">
        <ele>94</ele>
        <time>2021-07-30T16:34:23.000Z</time>
      </trkpt>
      <trkpt lat="48.63318" lon="-2.27771">
        <ele>93</ele>
        <time>2021-07-30T16:34:25.000Z</time>
      </trkpt>
      <trkpt lat="48.63327" lon="-2.27769">
        <ele>94</ele>
        <time>2021-07-30T16:34:27.000Z</time>
      </trkpt>
      <trkpt lat="48.63341" lon="-2.2777">
        <ele>95</ele>
        <time>2021-07-30T16:34:30.000Z</time>
      </trkpt>
      <trkpt lat="48.63352" lon="-2.2777">
        <ele>94</ele>
        <time>2021-07-30T16:34:32.000Z</time>
      </trkpt>
      <trkpt lat="48.63364" lon="-2.2777">
        <ele>94</ele>
        <time>2021-07-30T16:34:34.000Z</time>
      </trkpt>
      <trkpt lat="48.63376" lon="-2.27769">
        <ele>94</ele>
        <time>2021-07-30T16:34:36.000Z</time>
      </trkpt>
      <trkpt lat="48.63387" lon="-2.27774">
        <ele>94</ele>
        <time>2021-07-30T16:34:38.000Z</time>
      </trkpt>
      <trkpt lat="48.63397" lon="-2.27785">
        <ele>94</ele>
        <time>2021-07-30T16:34:41.000Z</time>
      </trkpt>
      <trkpt lat="48.63401" lon="-2.27799">
        <ele>95</ele>
        <time>2021-07-30T16:34:45.000Z</time>
      </trkpt>
      <trkpt lat="48.63403" lon="-2.27813">
        <ele>94</ele>
        <time>2021-07-30T16:34:52.000Z</time>
      </trkpt>
      <trkpt lat="48.63409" lon="-2.27824">
        <ele>94</ele>
        <time>2021-07-30T16:34:57.000Z</time>
      </trkpt>
      <trkpt lat="48.63416" lon="-2.27837">
        <ele>94</ele>
        <time>2021-07-30T16:35:01.000Z</time>
      </trkpt>
      <trkpt lat="48.63414" lon="-2.27852">
        <ele>94</ele>
        <time>2021-07-30T16:35:06.000Z</time>
      </trkpt>
      <trkpt lat="48.63405" lon="-2.27861">
        <ele>93</ele>
        <time>2021-07-30T16:35:09.000Z</time>
      </trkpt>
      <trkpt lat="48.63397" lon="-2.27875">
        <ele>93</ele>
        <time>2021-07-30T16:35:12.000Z</time>
      </trkpt>
      <trkpt lat="48.63389" lon="-2.27889">
        <ele>95</ele>
        <time>2021-07-30T16:35:15.000Z</time>
      </trkpt>
      <trkpt lat="48.63381" lon="-2.27901">
        <ele>94</ele>
        <time>2021-07-30T16:35:18.000Z</time>
      </trkpt>
      <trkpt lat="48.63373" lon="-2.27912">
        <ele>95</ele>
        <time>2021-07-30T16:35:21.000Z</time>
      </trkpt>
      <trkpt lat="48.63371" lon="-2.27926">
        <ele>97</ele>
        <time>2021-07-30T16:35:25.000Z</time>
      </trkpt>
      <trkpt lat="48.6338" lon="-2.27933">
        <ele>96</ele>
        <time>2021-07-30T16:35:29.000Z</time>
      </trkpt>
      <trkpt lat="48.6338" lon="-2.27949">
        <ele>96</ele>
        <time>2021-07-30T16:35:35.000Z</time>
      </trkpt>
    </trkseg>
  </trk>
</gpx>